# Wetter Temperatur Luftdruck Luftfeuchtigkeit Sichtweite Windgeschwindigkeit Windrichtung Zeit
1 Clear 26 1018 34 10000 2.6 30 19:55 17.10.2019
2 Clear 26 1018 36 10000 2.6 360 19:37 17.10.2019
3 Clear 26 1018 36 10000 2.6 360 19:18 17.10.2019
4 Clear 26 1018 36 10000 2.6 360 19:18 17.10.2019
5 Clear 27 1018 34 10000 2.1 20 18:42 17.10.2019
6 Clear 27 1018 34 10000 2.1 20 18:21 17.10.2019
7 Clear 26 1018 36 10000 3.1 10 17:55 17.10.2019
8 Clear 26 1019 36 10000 3.6 340 17:37 17.10.2019
9 Clear 26 1019 36 10000 3.6 340 17:19 17.10.2019
10 Clear 27 1019 34 10000 1 0 16:42 17.10.2019
11 Clear 27 1019 34 10000 1 0 16:42 17.10.2019
12 Clear 27 1019 34 10000 1 0 16:19 17.10.2019
13 Clear 26 1019 36 10000 2.6 0 15:59 17.10.2019
14 Clear 25 1019 38 10000 2.6 0 15:41 17.10.2019
15 Clear 25 1019 38 10000 2.6 0 15:20 17.10.2019
16 Clear 24 1020 41 10000 3.1 10 14:58 17.10.2019
17 Clear 23 1020 43 10000 2.6 30 14:39 17.10.2019
18 Clear 23 1020 43 10000 2.6 30 14:20 17.10.2019
19 Clear 21 1021 49 10000 1.5 0 13:41 17.10.2019
20 Clear 21 1021 49 10000 1.5 0 13:21 17.10.2019
21 Clear 20 1021 56 10000 1.5 0 12:58 17.10.2019
22 Clear 21 1022 52 10000 0.5 0 12:39 17.10.2019
23 Clear 21 1022 52 10000 0.5 0 12:20 17.10.2019
24 Clear 20 1022 56 10000 0.5 0 11:56 17.10.2019
25 Clear 18 1022 63 10000 1.5 300 11:38 17.10.2019
26 Clear 18 1022 63 10000 1.5 300 11:18 17.10.2019
27 Clear 16 1021 72 10000 1.5 250 10:42 17.10.2019
28 Clear 16 1021 72 10000 1.5 250 10:20 17.10.2019
29 Clear 15 1021 72 10000 1.5 250 09:57 17.10.2019
30 Clear 13 1020 76 10000 1.5 240 09:38 17.10.2019
31 Clear 13 1020 76 10000 1.5 240 09:38 17.10.2019
32 Clear 13 1020 76 10000 1.5 240 09:20 17.10.2019
33 -273 0 0 0 0 0 08:57 17.10.2019
34 -273 0 0 0 0 0 08:57 17.10.2019
35 Clear 12 1020 81 10000 1.5 250 08:38 17.10.2019
36 Clear 12 1020 81 10000 1.5 250 08:18 17.10.2019
37 Clear 12 1020 81 10000 1.5 250 07:43 17.10.2019
38 Clear 12 1019 81 10000 1.5 250 07:21 17.10.2019
39 Clear 13 1019 76 10000 2.1 240 06:56 17.10.2019
40 Clear 14 1019 76 10000 1.5 240 06:38 17.10.2019
41 Clear 14 1019 76 10000 1.5 240 06:19 17.10.2019
42 Clear 14 1020 76 10000 1.5 250 05:41 17.10.2019
43 Clear 14 1020 76 10000 1.5 250 05:20 17.10.2019
44 Clear 14 1020 76 10000 1.5 240 04:48 17.10.2019
45 Clear 15 1021 72 10000 3.1 230 03:49 17.10.2019
46 Clear 15 1021 72 10000 3.1 230 03:49 17.10.2019
47 Clouds 16 1021 67 10000 3.6 230 02:35 17.10.2019
48 Clouds 18 1021 55 10000 1.5 30 00:43 17.10.2019
49 Clouds 19 1021 52 10000 3.1 30 00:21 17.10.2019
50 Clouds 19 1020 55 10000 5.1 30 23:59 16.10.2019
51 Clouds 20 1020 52 10000 4.1 20 23:41 16.10.2019
52 Clouds 20 1020 52 10000 4.1 20 23:41 16.10.2019
53 Clouds 20 1020 52 10000 4.1 20 23:19 16.10.2019
54 Clouds 22 1019 46 10000 4.1 10 22:54 16.10.2019
55 Clouds 21 1019 43 10000 1 0 22:36 16.10.2019
56 Clouds 21 1019 43 10000 1 0 22:18 16.10.2019
57 Clouds 22 1019 43 10000 2.1 280 21:54 16.10.2019
58 Clear 22 1018 43 10000 2.1 260 21:36 16.10.2019
59 Clouds 22 1018 43 10000 2.1 260 21:18 16.10.2019
60 Clouds 23 1018 40 10000 2.6 260 20:56 16.10.2019
61 Clouds 24 1018 36 10000 2.6 260 20:37 16.10.2019
62 Clouds 24 1018 36 10000 2.6 260 20:19 16.10.2019
63 Clouds 26 1018 34 10000 2.1 250 19:41 16.10.2019
64 Clouds 26 1018 34 10000 2.1 250 19:21 16.10.2019
65 Clouds 26 1018 34 10000 2.1 290 18:58 16.10.2019
66 Clouds 28 1018 30 10000 1 0 18:39 16.10.2019
67 Clouds 28 1018 30 10000 1 0 18:19 16.10.2019
68 Clouds 28 1018 30 10000 1 0 18:19 16.10.2019
69 Clouds 27 1018 34 10000 1.5 170 17:56 16.10.2019
70 Clouds 27 1018 34 10000 1.5 0 17:37 16.10.2019
71 Clouds 27 1018 34 10000 1.5 0 17:19 16.10.2019
72 Clouds 25 1018 41 10000 2.1 0 16:57 16.10.2019
73 Clouds 25 1019 41 10000 2.1 0 16:38 16.10.2019
74 Clouds 25 1019 41 10000 2.1 0 16:20 16.10.2019
75 -273 0 0 0 0 0 15:42 16.10.2019
76 Clouds 25 1019 44 10000 1.5 0 15:41 16.10.2019
77 Clouds 25 1019 44 10000 1.5 0 15:20 16.10.2019
78 Clouds 22 1019 41 0 2.64 357 14:59 16.10.2019
79 Clouds 23 1018 40 0 2.726 358 14:41 16.10.2019
80 Clouds 23 1018 40 0 2.726 358 14:23 16.10.2019
81 Clouds 22 1021 56 10000 1.5 0 13:59 16.10.2019
82 Clouds 22 1021 56 10000 1.5 0 13:41 16.10.2019
83 Clouds 22 1021 56 10000 1.5 0 13:22 16.10.2019
84 Clouds 22 1021 56 10000 1.5 0 12:44 16.10.2019
85 Clouds 22 1021 56 10000 1.5 0 12:44 16.10.2019
86 Clouds 21 1021 56 10000 1.5 0 12:20 16.10.2019
87 Clouds 21 1021 60 10000 1 0 11:58 16.10.2019
88 Clouds 18 1021 68 10000 2.1 260 11:40 16.10.2019
89 Clouds 18 1021 68 10000 2.1 260 11:18 16.10.2019
90 Clouds 16 1021 72 10000 2.1 260 10:37 16.10.2019
91 Clouds 16 1021 72 10000 2.1 260 10:19 16.10.2019
92 Clouds 14 1020 82 10000 2.1 240 09:41 16.10.2019
93 Clouds 14 1020 82 10000 2.1 240 09:22 16.10.2019
94 Clouds 13 1020 82 10000 1.5 260 08:58 16.10.2019
95 Clouds 14 1020 82 10000 2.1 260 08:40 16.10.2019
96 Clouds 14 1020 82 10000 2.1 260 08:20 16.10.2019
97 Clouds 14 1020 82 10000 1.5 270 07:43 16.10.2019
98 Clouds 14 1020 82 10000 2.1 260 07:24 16.10.2019
99 Clouds 15 1020 77 10000 1.5 290 06:56 16.10.2019
100 Clouds 15 1020 77 10000 1.5 290 06:56 16.10.2019
101 Clouds 16 1020 72 10000 1.5 240 06:35 16.10.2019
102 Clouds 16 1020 72 10000 1.5 80 05:23 16.10.2019
103 Clear 18 1021 63 10000 1.5 80 02:57 16.10.2019
104 Clear 19 1021 63 10000 3.6 70 01:39 16.10.2019
105 Clear 19 1021 63 10000 3.6 70 01:18 16.10.2019
106 Clear 19 1021 63 10000 3.1 50 00:45 16.10.2019
107 Clouds 20 1021 60 10000 4.6 30 23:59 15.10.2019
108 Clouds 21 1021 56 10000 5.1 30 23:39 15.10.2019
109 Clouds 21 1021 56 10000 5.1 30 23:21 15.10.2019
110 Clouds 21 1021 56 10000 5.1 30 23:21 15.10.2019
111 Clouds 21 1021 56 10000 5.7 30 22:55 15.10.2019
112 Clouds 23 1020 40 10000 3.6 20 22:37 15.10.2019
113 Clouds 23 1020 40 10000 3.6 20 22:19 15.10.2019
114 Clouds 24 1020 36 10000 3.6 30 21:55 15.10.2019
115 Clouds 24 1020 36 10000 3.6 30 21:55 15.10.2019
116 Clouds 24 1020 36 10000 3.6 10 21:37 15.10.2019
117 Clouds 24 1020 36 10000 3.6 10 21:19 15.10.2019
118 Clouds 25 1019 33 10000 3.1 360 20:57 15.10.2019
119 Clouds 25 1019 33 10000 3.6 340 20:38 15.10.2019
120 Clouds 25 1019 33 10000 3.6 340 20:19 15.10.2019
121 Clouds 27 1019 34 10000 2.1 340 19:56 15.10.2019
122 Clouds 27 1019 34 10000 2.1 340 19:56 15.10.2019
123 Clouds 27 1019 34 10000 1.5 350 19:37 15.10.2019
124 Clouds 27 1019 34 10000 1.5 350 19:19 15.10.2019
125 Clouds 27 1019 34 10000 2.1 340 18:44 15.10.2019
126 -273 0 0 0 0 0 18:26 15.10.2019
127 Clouds 27 1019 36 10000 2.6 320 17:57 15.10.2019
128 Clouds 28 1019 37 10000 2.6 350 17:38 15.10.2019
129 Clouds 28 1019 37 10000 2.6 350 17:19 15.10.2019
130 Clouds 28 1019 37 10000 2.1 0 16:46 15.10.2019
131 Clouds 27 1019 39 10000 1.5 0 16:23 15.10.2019
132 Clouds 27 1019 39 10000 2.6 0 15:59 15.10.2019
133 Clouds 26 1020 41 10000 2.1 0 15:40 15.10.2019
134 Clouds 26 1020 41 10000 2.1 0 15:20 15.10.2019
135 Clouds 26 1020 44 10000 2.1 0 14:57 15.10.2019
136 Clouds 25 1020 47 10000 2.1 90 14:38 15.10.2019
137 Clouds 25 1020 47 10000 2.1 90 14:19 15.10.2019
138 Clouds 24 1021 50 10000 2.6 0 13:44 15.10.2019
139 Clouds 24 1021 50 10000 3.1 90 13:21 15.10.2019
140 Clouds 23 1021 53 10000 3.1 70 12:59 15.10.2019
141 Clouds 22 1021 60 10000 3.1 0 12:39 15.10.2019
142 Clouds 22 1021 60 10000 3.1 0 12:20 15.10.2019
143 -273 0 0 0 0 0 11:55 15.10.2019
144 Clouds 21 1021 64 10000 2.1 70 11:37 15.10.2019
145 Clouds 21 1021 64 10000 2.1 70 11:18 15.10.2019
146 Clouds 19 1021 72 10000 2.1 70 10:42 15.10.2019
147 Clouds 19 1021 72 10000 2.1 70 10:19 15.10.2019
148 Clouds 18 1021 72 10000 2.1 70 09:57 15.10.2019
149 Clouds 17 1021 77 10000 2.1 80 09:37 15.10.2019
150 Clouds 17 1021 77 10000 2.1 80 09:19 15.10.2019
151 Clouds 17 1021 77 10000 2.6 80 08:42 15.10.2019
152 Clouds 17 1020 77 10000 1.5 40 08:22 15.10.2019
153 Clouds 17 1020 77 10000 1.5 40 08:22 15.10.2019
154 Clouds 18 1020 72 10000 1.5 50 07:56 15.10.2019
155 -273 0 0 0 0 0 07:56 15.10.2019
156 Clouds 18 1020 72 10000 1.5 50 07:56 15.10.2019
157 Clouds 18 1020 72 10000 2.1 70 07:38 15.10.2019
158 Clouds 18 1020 72 10000 2.1 70 07:19 15.10.2019
159 Clouds 18 1020 72 10000 2.6 60 06:43 15.10.2019
160 Clouds 19 1020 68 10000 2.6 60 06:24 15.10.2019
161 Clouds 19 1021 72 10000 3.1 80 05:41 15.10.2019
162 Clouds 19 1021 72 10000 3.1 80 05:22 15.10.2019
163 Clouds 19 1021 72 10000 4.1 70 04:23 15.10.2019
164 Clouds 19 1022 72 10000 4.6 50 03:37 15.10.2019
165 Clouds 19 1022 72 10000 4.6 50 02:23 15.10.2019
166 Clouds 19 1022 72 10000 3.6 50 01:47 15.10.2019
167 Clouds 19 1022 72 10000 3.6 30 01:19 15.10.2019
168 Clouds 20 1022 68 10000 4.1 30 00:48 15.10.2019
169 Clouds 20 1022 68 10000 4.6 40 00:21 15.10.2019
170 Clouds 21 1021 64 10000 4.6 30 23:43 14.10.2019
171 Clouds 21 1021 64 10000 4.6 30 23:20 14.10.2019
172 Clouds 22 1021 56 10000 5.1 30 22:55 14.10.2019
173 Clouds 22 1021 56 10000 3.6 360 22:37 14.10.2019
174 Clouds 22 1021 56 10000 3.6 360 22:18 14.10.2019
175 Clouds 24 1020 50 10000 4.1 350 21:41 14.10.2019
176 Clouds 24 1020 50 10000 4.1 350 21:22 14.10.2019
177 -273 0 0 0 0 0 20:59 14.10.2019
178 Clouds 25 1020 44 10000 2.6 250 20:39 14.10.2019
179 Clouds 25 1020 44 10000 2.6 250 20:21 14.10.2019
180 Clouds 26 1020 41 10000 3.1 250 19:59 14.10.2019
181 Clouds 26 1020 39 10000 2.1 0 19:40 14.10.2019
182 Clouds 26 1020 39 10000 2.1 0 19:22 14.10.2019
183 -273 0 0 0 0 0 18:58 14.10.2019
184 Clouds 27 1020 36 10000 3.1 300 18:38 14.10.2019
185 Clouds 27 1020 36 10000 3.1 300 18:19 14.10.2019
186 Clouds 26 1020 39 10000 3.6 290 17:44 14.10.2019
187 Clouds 27 1020 39 10000 1.5 0 17:26 14.10.2019
188 Clouds 27 1020 39 10000 1.5 280 16:59 14.10.2019
189 Clouds 25 1020 44 10000 3.1 330 16:40 14.10.2019
190 Clouds 25 1020 44 10000 3.1 330 16:20 14.10.2019
191 Clouds 25 1020 44 10000 3.1 330 16:20 14.10.2019
192 Clouds 25 1021 47 10000 3.1 0 15:42 14.10.2019
193 Clouds 25 1021 47 10000 3.1 0 15:22 14.10.2019
194 Clouds 25 1021 47 10000 3.1 310 14:56 14.10.2019
195 Clouds 25 1021 47 10000 3.1 310 14:56 14.10.2019
196 Clouds 25 1021 50 10000 2.6 0 14:38 14.10.2019
197 Clouds 25 1021 50 10000 2.6 0 14:18 14.10.2019
198 Clouds 22 1020 52 0 1.73 8.467 13:42 14.10.2019
199 Clouds 22 1022 60 10000 2.1 190 13:21 14.10.2019
200 Clouds 22 1022 60 10000 2.1 190 12:54 14.10.2019
201 Clouds 22 1022 60 10000 2.1 190 12:36 14.10.2019
202 Clouds 22 1022 60 10000 2.1 190 12:18 14.10.2019
203 Clouds 20 1022 64 10000 1.5 290 11:43 14.10.2019
204 Clouds 20 1022 64 10000 1.5 290 11:24 14.10.2019
205 Clouds 20 1021 68 10000 1.5 250 10:55 14.10.2019
206 Clouds 19 1021 72 10000 2.1 260 10:37 14.10.2019
207 Clouds 19 1021 72 10000 2.1 260 10:18 14.10.2019
208 -273 0 0 0 0 0 09:41 14.10.2019
209 Clouds 18 1021 77 10000 2.1 340 09:41 14.10.2019
210 Clouds 18 1021 77 10000 2.1 340 09:20 14.10.2019
211 Clouds 18 1020 77 10000 2.1 320 08:49 14.10.2019
212 Clouds 18 1020 82 10000 2.1 290 08:23 14.10.2019
213 Clouds 18 1020 82 10000 3.1 320 07:47 14.10.2019
214 Clouds 18 1020 82 10000 2.6 320 07:24 14.10.2019
215 Clouds 18 1020 82 10000 3.1 290 06:57 14.10.2019
216 Clouds 18 1020 82 10000 2.6 290 06:28 14.10.2019
217 Clouds 18 1020 82 10000 2.6 310 05:56 14.10.2019
218 Clouds 18 1019 82 10000 3.1 280 05:25 14.10.2019
219 Clouds 19 1020 77 10000 2.6 270 03:50 14.10.2019
220 Clouds 19 1020 77 10000 3.6 260 03:23 14.10.2019
221 Clouds 20 1020 77 10000 4.6 280 02:25 14.10.2019
222 Clouds 19 1019 82 10000 4.6 280 01:19 14.10.2019
223 Clouds 20 1019 77 10000 3.6 270 00:42 14.10.2019
224 Clouds 20 1019 77 10000 3.6 270 00:18 14.10.2019
225 Clear 20 1019 77 10000 3.6 290 23:40 13.10.2019
226 Clear 20 1019 77 10000 3.6 290 23:19 13.10.2019
227 Clear 20 1019 77 10000 3.6 290 23:19 13.10.2019
228 Clouds 21 1018 73 10000 4.1 290 22:57 13.10.2019
229 Clouds 21 1018 73 10000 4.1 290 22:57 13.10.2019
230 Clouds 21 1018 73 8000 3.6 280 22:39 13.10.2019
231 Clouds 21 1018 73 8000 3.6 280 22:20 13.10.2019
232 Clouds 21 1018 73 8000 5.1 280 21:57 13.10.2019
233 Clouds 23 1017 64 8000 5.1 270 21:36 13.10.2019
234 Clouds 23 1017 64 8000 5.1 270 21:18 13.10.2019
235 Clouds 24 1016 60 8000 7.2 280 20:56 13.10.2019
236 Clouds 25 1016 57 8000 8.2 280 20:37 13.10.2019
237 Clouds 25 1016 57 8000 8.2 280 20:37 13.10.2019
238 Clouds 25 1016 57 8000 8.2 280 20:37 13.10.2019
239 Clouds 25 1016 57 8000 8.2 280 20:18 13.10.2019
240 Dust 26 1015 54 4000 8.2 280 19:55 13.10.2019
241 -273 0 0 0 0 0 19:36 13.10.2019
242 Dust 28 1015 45 4000 8.7 300 19:36 13.10.2019
243 Dust 28 1015 45 4000 8.7 300 19:18 13.10.2019
244 Clouds 33 1014 26 10000 6.2 280 18:41 13.10.2019
245 Clouds 33 1014 26 10000 6.2 280 18:21 13.10.2019
246 Clouds 34 1014 24 10000 4.6 290 17:59 13.10.2019
247 Clouds 34 1013 24 10000 5.1 290 17:41 13.10.2019
248 Clouds 34 1013 24 10000 5.1 290 17:41 13.10.2019
249 Clouds 34 1013 24 10000 5.1 290 17:23 13.10.2019
250 Clouds 34 1013 26 10000 4.6 300 16:44 13.10.2019
251 Clouds 33 1013 27 10000 5.1 290 16:20 13.10.2019
252 Clouds 34 1013 26 10000 4.1 300 15:58 13.10.2019
253 Clouds 33 1014 26 10000 3.6 300 15:39 13.10.2019
254 Clouds 33 1014 26 10000 3.6 300 15:20 13.10.2019
255 Clouds 33 1014 26 10000 3.1 320 14:58 13.10.2019
256 Clouds 32 1014 27 10000 3.6 290 14:39 13.10.2019
257 Clouds 32 1014 27 10000 3.6 290 14:20 13.10.2019
258 Clouds 32 1014 27 8000 2.1 0 13:56 13.10.2019
259 Clouds 30 1015 33 8000 2.1 340 13:37 13.10.2019
260 Clouds 30 1015 33 8000 2.1 340 13:18 13.10.2019
261 Clouds 30 1015 33 8000 1.5 0 12:55 13.10.2019
262 Clouds 28 1015 37 8000 1.5 80 12:37 13.10.2019
263 Clouds 28 1015 37 8000 1.5 80 12:18 13.10.2019
264 Clouds 27 1015 39 8000 2.6 90 11:55 13.10.2019
265 Clouds 27 1015 39 8000 2.6 90 11:55 13.10.2019
266 Clouds 25 1015 44 8000 2.1 90 11:36 13.10.2019
267 Clouds 25 1015 44 8000 2.1 90 11:18 13.10.2019
268 Clouds 23 1015 49 8000 0.5 0 10:41 13.10.2019
269 Clouds 23 1015 49 8000 0.5 0 10:22 13.10.2019
270 Clouds 23 1015 49 8000 0.5 0 10:22 13.10.2019
271 Clouds 18 1015 63 8000 0.5 0 09:41 13.10.2019
272 Clouds 18 1015 63 8000 0.5 0 09:21 13.10.2019
273 Clouds 18 1015 68 8000 2.1 100 08:57 13.10.2019
274 Clear 19 1014 63 10000 1 0 08:38 13.10.2019
275 Clear 19 1014 63 10000 1 0 08:19 13.10.2019
276 Clear 19 1014 63 10000 1 0 07:45 13.10.2019
277 Clear 19 1015 68 10000 1.5 210 06:58 13.10.2019
278 Clear 19 1014 68 10000 1 0 06:31 13.10.2019
279 Clear 21 1015 60 10000 1 0 05:34 13.10.2019
280 Clear 21 1015 60 10000 1 0 05:34 13.10.2019
281 Clear 21 1015 64 10000 1 0 04:46 13.10.2019
282 Clear 22 1016 56 10000 1.5 60 03:40 13.10.2019
283 Clear 23 1017 56 10000 0.5 0 02:39 13.10.2019
284 Clear 23 1017 60 10000 1 0 01:53 13.10.2019
285 Clear 24 1017 57 10000 1.5 60 01:22 13.10.2019
286 Clear 24 1017 57 10000 2.6 80 00:44 13.10.2019
287 Clear 25 1017 50 10000 2.6 80 00:21 13.10.2019
288 Clear 26 1017 50 10000 2.6 20 23:55 12.10.2019
289 Clear 26 1017 44 10000 2.6 20 23:36 12.10.2019
290 Clear 26 1017 44 10000 2.6 20 23:18 12.10.2019
291 Clear 27 1017 42 10000 3.1 20 22:55 12.10.2019
292 Clear 27 1017 42 10000 3.1 20 22:36 12.10.2019
293 Clear 27 1017 42 10000 3.1 20 22:18 12.10.2019
294 Clear 28 1016 39 10000 3.1 350 21:41 12.10.2019
295 Clear 28 1016 39 10000 3.1 350 21:23 12.10.2019
296 Clear 29 1016 35 10000 3.1 340 20:56 12.10.2019
297 Clear 29 1015 35 10000 3.1 340 20:38 12.10.2019
298 Clear 29 1015 35 10000 3.1 340 20:38 12.10.2019
299 Clear 29 1015 35 10000 3.1 340 20:20 12.10.2019
300 Clouds 31 1015 29 10000 4.1 340 19:37 12.10.2019
301 Clouds 31 1015 29 10000 4.1 340 19:19 12.10.2019
302 Clouds 32 1015 27 10000 4.6 280 18:46 12.10.2019
303 Clouds 33 1015 22 10000 3.6 280 18:27 12.10.2019
304 Clouds 33 1015 22 10000 4.1 270 17:58 12.10.2019
305 Clouds 33 1015 26 10000 3.6 290 17:40 12.10.2019
306 Clouds 33 1015 26 10000 3.6 290 17:18 12.10.2019
307 Clouds 32 1015 24 10000 2.6 0 16:41 12.10.2019
308 Clouds 32 1015 24 10000 2.6 0 16:21 12.10.2019
309 Clouds 31 1015 31 10000 3.1 350 15:58 12.10.2019
310 Clouds 30 1016 37 10000 3.1 320 15:38 12.10.2019
311 Clouds 30 1016 37 10000 3.1 320 15:19 12.10.2019
312 Clouds 28 1017 42 10000 3.1 310 14:41 12.10.2019
313 Clouds 28 1017 42 10000 3.1 310 14:21 12.10.2019
314 Clear 27 1017 47 10000 1.5 0 13:52 12.10.2019
315 Clear 26 1018 50 10000 1.5 0 13:33 12.10.2019
316 Clear 26 1018 50 10000 1 0 12:59 12.10.2019
317 Clear 25 1018 53 10000 1 0 12:38 12.10.2019
318 Clear 25 1018 53 10000 1 0 12:20 12.10.2019
319 Clear 23 1018 60 10000 1.5 0 11:47 12.10.2019
320 Clear 22 1018 64 10000 1 0 11:26 12.10.2019
321 Clear 20 1018 72 10000 2.1 0 10:59 12.10.2019
322 Clear 19 1018 77 10000 2.6 250 10:40 12.10.2019
323 Clear 19 1018 77 10000 2.6 250 10:22 12.10.2019
324 Clear 17 1017 82 10000 3.1 240 09:57 12.10.2019
325 Clear 17 1017 82 10000 3.1 240 09:57 12.10.2019
326 Clear 17 1017 82 10000 3.1 230 09:38 12.10.2019
327 Clear 17 1017 82 10000 3.1 230 09:20 12.10.2019
328 Clear 16 1017 82 10000 2.6 250 08:55 12.10.2019
329 Clear 16 1017 72 10000 2.6 260 08:36 12.10.2019
330 Clear 16 1017 72 10000 2.6 260 08:18 12.10.2019
331 Clear 16 1017 72 10000 2.6 260 08:18 12.10.2019
332 Clear 19 1016 68 10000 0.5 0 07:32 12.10.2019
333 Clear 19 1016 68 10000 1.5 120 06:38 12.10.2019
334 -273 0 0 0 0 0 05:44 12.10.2019
335 Clear 20 1016 64 10000 1 0 04:47 12.10.2019
336 Clouds 20 1017 64 10000 1.5 80 03:56 12.10.2019
337 Clouds 21 1017 64 10000 0.5 0 02:54 12.10.2019
338 Clouds 21 1018 64 8000 2.1 250 01:35 12.10.2019
339 Clouds 22 1018 60 8000 3.6 230 00:57 12.10.2019
340 Clouds 22 1018 60 8000 3.6 240 00:38 12.10.2019
341 Clouds 23 1018 56 8000 3.6 240 23:56 11.10.2019
342 Clouds 23 1018 56 8000 3.1 240 23:37 11.10.2019
343 Clouds 23 1018 56 8000 3.1 240 23:19 11.10.2019
344 Clouds 25 1017 50 8000 3.1 240 22:39 11.10.2019
345 Clouds 25 1017 50 8000 3.1 240 22:20 11.10.2019
346 Clouds 26 1017 44 8000 2.6 260 21:55 11.10.2019
347 Clouds 29 1016 30 8000 2.1 0 21:36 11.10.2019
348 Clouds 29 1016 30 8000 2.1 0 21:18 11.10.2019
349 Clouds 30 1015 25 8000 3.6 20 20:42 11.10.2019
350 Clouds 30 1015 25 8000 3.6 20 20:24 11.10.2019
351 Clouds 31 1015 23 8000 4.1 20 19:56 11.10.2019
352 Clouds 32 1015 22 8000 4.6 20 19:38 11.10.2019
353 Clouds 32 1015 22 8000 4.6 20 19:18 11.10.2019
354 Clouds 32 1015 22 8000 3.6 20 18:56 11.10.2019
355 Clouds 32 1015 22 8000 3.6 20 18:56 11.10.2019
356 Clouds 33 1015 21 8000 4.6 30 18:37 11.10.2019
357 Clouds 33 1015 21 8000 4.6 30 18:18 11.10.2019
358 Clouds 33 1015 19 8000 4.1 50 17:57 11.10.2019
359 Clouds 33 1015 19 8000 4.1 50 17:37 11.10.2019
360 Clouds 33 1015 19 8000 4.1 50 17:18 11.10.2019
361 Clouds 33 1016 18 8000 4.1 30 16:42 11.10.2019
362 Clouds 33 1016 18 8000 4.1 30 16:21 11.10.2019
363 Clouds 33 1016 19 8000 4.6 40 15:59 11.10.2019
364 Clouds 33 1016 19 8000 3.6 0 15:39 11.10.2019
365 Clouds 33 1016 19 8000 3.6 0 15:19 11.10.2019
366 Clouds 31 1017 27 8000 1.5 360 14:48 11.10.2019
367 Clouds 32 1017 27 8000 2.1 350 14:29 11.10.2019
368 Clouds 30 1018 30 8000 2.6 10 13:57 11.10.2019
369 Clouds 29 1018 32 8000 2.6 50 13:39 11.10.2019
370 Clouds 29 1018 32 8000 2.6 50 13:21 11.10.2019
371 Clouds 29 1018 37 8000 2.6 70 12:56 11.10.2019
372 Clouds 27 1018 42 8000 3.6 80 12:38 11.10.2019
373 Clouds 27 1018 42 8000 3.6 80 12:19 11.10.2019
374 Clouds 25 1018 44 8000 1.5 80 11:41 11.10.2019
375 Clouds 25 1018 44 8000 1.5 80 11:22 11.10.2019
376 Clouds 25 1018 44 8000 1.5 80 11:22 11.10.2019
377 Clouds 24 1018 47 8000 2.1 70 10:58 11.10.2019
378 Clouds 24 1018 47 8000 2.1 70 10:58 11.10.2019
379 Clouds 24 1018 47 8000 2.1 70 10:58 11.10.2019
380 Clouds 23 1018 53 8000 2.1 50 10:40 11.10.2019
381 Clouds 23 1018 53 8000 2.1 50 10:22 11.10.2019
382 Clouds 23 1018 53 8000 2.6 100 09:56 11.10.2019
383 Clouds 23 1018 53 8000 1.5 140 09:37 11.10.2019
384 Clouds 23 1018 53 8000 1.5 140 09:19 11.10.2019
385 Clouds 23 1017 56 8000 2.1 120 08:55 11.10.2019
386 Clouds 22 1017 60 8000 2.1 100 08:36 11.10.2019
387 Clouds 22 1017 60 8000 2.1 100 08:18 11.10.2019
388 Clouds 22 1017 60 8000 1.5 80 07:44 11.10.2019
389 Clouds 22 1017 60 8000 1.5 80 07:25 11.10.2019
390 Clouds 21 1017 64 8000 0.5 0 06:48 11.10.2019
391 Clouds 21 1017 64 8000 1 0 06:23 11.10.2019
392 Clouds 23 1017 56 8000 2.1 120 05:39 11.10.2019
393 Clouds 23 1017 60 8000 2.1 100 04:59 11.10.2019
394 Clouds 22 1017 60 8000 1 0 04:25 11.10.2019
395 Clouds 23 1018 60 8000 1.5 280 02:40 11.10.2019
396 Clouds 23 1018 60 8000 1.5 240 00:51 11.10.2019
397 Clouds 23 1018 60 8000 1.5 280 00:29 11.10.2019
398 Clouds 24 1018 57 8000 2.6 240 23:44 10.10.2019
399 Clouds 25 1018 50 8000 3.6 240 23:22 10.10.2019
400 Clouds 26 1017 47 8000 1.5 240 22:58 10.10.2019
401 Clouds 26 1017 47 8000 2.1 260 22:39 10.10.2019
402 Clouds 26 1017 47 8000 2.1 260 22:21 10.10.2019
403 Clouds 26 1017 47 8000 2.1 260 21:58 10.10.2019
404 Clouds 26 1017 47 8000 2.1 260 21:58 10.10.2019
405 Clouds 27 1016 42 8000 2.6 250 21:39 10.10.2019
406 Clouds 27 1016 42 8000 2.6 250 21:21 10.10.2019
407 Clouds 27 1016 42 8000 2.6 250 21:21 10.10.2019
408 Clouds 29 1016 39 8000 2.6 310 20:43 10.10.2019
409 Clouds 29 1016 39 8000 2.6 310 20:22 10.10.2019
410 Clouds 30 1016 35 8000 3.6 310 19:59 10.10.2019
411 Clouds 30 1016 35 8000 3.6 310 19:59 10.10.2019
412 Clouds 30 1015 40 8000 5.7 260 19:41 10.10.2019
413 Clouds 30 1015 40 8000 5.7 260 19:21 10.10.2019
414 Clouds 31 1015 33 8000 5.7 280 18:59 10.10.2019
415 Clouds 33 1015 26 8000 5.7 270 18:40 10.10.2019
416 Clouds 33 1015 26 8000 5.7 270 18:20 10.10.2019
417 Clouds 33 1014 26 8000 4.6 270 17:55 10.10.2019
418 Clouds 34 1014 24 8000 4.6 270 17:37 10.10.2019
419 Clouds 34 1014 24 8000 4.6 270 17:18 10.10.2019
420 Clouds 34 1014 23 8000 3.1 280 16:46 10.10.2019
421 Clouds 34 1014 26 8000 2.1 340 16:26 10.10.2019
422 Clouds 33 1014 27 8000 2.1 310 15:58 10.10.2019
423 Clouds 33 1015 29 8000 2.6 310 15:38 10.10.2019
424 Clouds 33 1015 29 8000 2.6 310 15:19 10.10.2019
425 Clouds 32 1015 31 8000 2.1 320 14:55 10.10.2019
426 Clouds 31 1015 33 0 2.1 320 14:36 10.10.2019
427 Clouds 31 1015 33 0 2.1 320 14:18 10.10.2019
428 Clouds 29 1016 45 0 1.5 0 13:42 10.10.2019
429 Clouds 29 1016 45 0 1.5 0 13:24 10.10.2019
430 Clouds 28 1016 45 0 1 0 12:57 10.10.2019
431 Clouds 28 1016 45 0 1 0 12:57 10.10.2019
432 Clear 27 1016 51 10000 1 0 12:39 10.10.2019
433 Clear 27 1016 51 10000 1 0 12:20 10.10.2019
434 Clear 27 1016 51 10000 1 0 12:20 10.10.2019
435 Clear 26 1016 57 10000 1 0 11:56 10.10.2019
436 Clear 26 1016 57 10000 1 0 11:38 10.10.2019
437 Clear 26 1016 57 10000 1 0 11:19 10.10.2019
438 Clear 23 1016 64 10000 0.5 0 10:44 10.10.2019
439 Clear 22 1016 68 10000 1 0 10:26 10.10.2019
440 Clear 21 1016 73 10000 1 0 09:56 10.10.2019
441 Clear 20 1015 72 10000 1.5 100 09:38 10.10.2019
442 Clear 20 1015 72 10000 1.5 100 09:38 10.10.2019
443 Clear 20 1015 72 10000 1.5 100 09:19 10.10.2019
444 Clouds 20 1015 72 0 1 0 08:56 10.10.2019
445 Clear 20 1015 77 10000 1.5 60 08:37 10.10.2019
446 Clear 20 1015 77 10000 1.5 60 08:18 10.10.2019
447 Clear 20 1015 77 10000 1.5 60 08:18 10.10.2019
448 Clear 20 1015 77 10000 1 0 07:42 10.10.2019
449 Clear 20 1015 77 10000 1 0 07:20 10.10.2019
450 Clear 19 1015 77 10000 1.5 270 06:46 10.10.2019
451 Clear 19 1015 77 10000 1.5 260 06:26 10.10.2019
452 Clear 20 1015 72 10000 2.1 260 05:27 10.10.2019
453 Clear 20 1016 72 10000 2.1 250 04:39 10.10.2019
454 Clear 20 1016 72 10000 2.1 250 04:21 10.10.2019
455 Clear 23 1016 53 10000 2.1 250 01:43 10.10.2019
456 Clear 23 1016 53 10000 2.1 250 01:24 10.10.2019
457 Clear 24 1016 50 10000 3.1 250 00:53 10.10.2019
458 Clear 26 1016 50 10000 1 0 00:22 10.10.2019
459 Clouds 24 1016 49 0 3.46 266.586 23:40 09.10.2019
460 Clouds 24 1016 49 0 3.46 266.586 23:20 09.10.2019
461 Clear 29 1016 30 10000 2.1 20 22:44 09.10.2019
462 Clear 29 1016 30 10000 2.1 20 22:24 09.10.2019
463 Clear 29 1015 30 10000 1.5 360 21:59 09.10.2019
464 Clear 30 1015 28 10000 3.1 10 21:40 09.10.2019
465 Clear 30 1015 28 10000 3.1 10 21:20 09.10.2019
466 Clear 31 1015 23 10000 3.6 360 20:56 09.10.2019
467 Clouds 31 1014 14 0 5.29 353.04 20:37 09.10.2019
468 Clear 34 1014 16 10000 2.6 20 20:19 09.10.2019
469 Clear 34 1014 16 10000 2.6 20 20:19 09.10.2019
470 Clear 34 1014 16 10000 2.6 20 19:57 09.10.2019
471 Clear 34 1014 16 10000 2.6 20 19:39 09.10.2019
472 Clear 34 1014 16 10000 2.6 20 19:20 09.10.2019
473 Clouds 31 1014 14 0 5.29 353.04 18:38 09.10.2019
474 Clear 35 1013 16 10000 3.1 340 18:19 09.10.2019
475 Clear 35 1013 16 10000 3.1 340 17:57 09.10.2019
476 Clear 35 1013 16 10000 3.1 340 17:37 09.10.2019
477 Clear 35 1013 16 10000 3.1 340 17:19 09.10.2019
478 Clear 34 1014 20 10000 2.1 330 16:42 09.10.2019
479 Clear 34 1014 20 10000 2.1 330 16:23 09.10.2019
480 Clear 33 1014 24 10000 2.1 0 15:58 09.10.2019
481 Clear 32 1015 24 10000 2.1 350 15:40 09.10.2019
482 Clear 32 1015 24 10000 2.1 350 15:20 09.10.2019
483 Clear 32 1015 25 10000 1.5 320 14:59 09.10.2019
484 Clear 30 1015 30 10000 1.5 320 14:41 09.10.2019
485 Clear 30 1015 30 10000 1.5 320 14:18 09.10.2019
486 Clear 28 1016 37 10000 1.5 330 13:40 09.10.2019
487 Clear 28 1016 37 10000 1.5 330 13:22 09.10.2019
488 Clear 26 1016 44 10000 1.5 340 12:59 09.10.2019
489 Clear 26 1016 44 10000 1.5 340 12:59 09.10.2019
490 Clear 26 1016 44 10000 1 0 12:41 09.10.2019
491 Clear 26 1016 44 10000 1 0 12:22 09.10.2019
492 Clear 26 1016 44 10000 1 0 12:22 09.10.2019
493 Clear 25 1016 44 10000 1 0 11:56 09.10.2019
494 Clear 24 1017 47 10000 0.5 0 11:37 09.10.2019
495 Clear 24 1017 47 10000 0.5 0 11:19 09.10.2019
496 Clear 23 1016 46 10000 0.5 0 10:44 09.10.2019
497 Clear 21 1015 49 10000 1 320 10:22 09.10.2019
498 Clear 19 1016 59 10000 1 0 09:59 09.10.2019
499 Clear 19 1016 63 10000 1 0 09:41 09.10.2019
500 Clear 19 1016 63 10000 1 0 09:41 09.10.2019
501 Clear 19 1016 63 10000 1 0 09:19 09.10.2019
502 Clear 18 1015 63 10000 1 0 08:55 09.10.2019
503 Clear 18 1015 68 10000 1.5 250 08:37 09.10.2019
504 Clear 18 1015 68 10000 1.5 250 08:18 09.10.2019
505 Clear 19 1015 68 10000 2.1 230 07:39 09.10.2019
506 Clear 19 1015 68 10000 2.1 230 07:21 09.10.2019
507 Clear 18 1015 68 0 2.1 250 06:52 09.10.2019
508 Clear 18 1015 68 0 2.1 250 06:52 09.10.2019
509 Clear 18 1015 63 0 2.1 250 06:19 09.10.2019
510 Clear 18 1015 63 0 2.1 250 05:44 09.10.2019
511 Clear 19 1015 59 10000 2.6 250 04:27 09.10.2019
512 Clear 22 1015 49 10000 3.6 230 02:54 09.10.2019
513 Clear 24 1016 41 10000 2.6 210 01:44 09.10.2019
514 Clear 23 1015 38 0 1 0 01:21 09.10.2019
515 Clear 23 1016 40 10000 1 0 00:57 09.10.2019
516 Clear 24 1016 38 10000 1.5 280 00:38 09.10.2019
517 Clear 24 1016 38 10000 1.5 280 00:20 09.10.2019
518 Clear 27 1015 32 10000 2.6 30 23:39 08.10.2019
519 Clear 27 1015 32 10000 2.6 30 23:19 08.10.2019
520 Clear 28 1015 28 10000 3.6 30 22:58 08.10.2019
521 Clear 29 1015 25 10000 2.6 10 22:39 08.10.2019
522 Clear 29 1015 25 10000 2.6 10 22:19 08.10.2019
523 Clear 30 1014 20 0 3.1 10 21:57 08.10.2019
524 Clear 31 1014 16 10000 2.6 10 21:39 08.10.2019
525 Clear 31 1014 16 10000 2.6 10 21:39 08.10.2019
526 Clear 31 1014 16 10000 2.6 10 21:19 08.10.2019
527 Clear 32 1014 15 10000 3.1 360 20:56 08.10.2019
528 Clear 33 1014 16 10000 2.6 340 20:37 08.10.2019
529 Clear 33 1014 16 10000 2.6 340 20:19 08.10.2019
530 Clear 34 1014 14 10000 3.1 340 19:58 08.10.2019
531 Clear 35 1014 14 10000 2.6 360 19:39 08.10.2019
532 Clear 35 1014 14 10000 2.6 360 19:20 08.10.2019
533 Clear 36 1014 12 10000 3.1 320 18:54 08.10.2019
534 Clear 35 1014 13 0 3.1 330 18:36 08.10.2019
535 Clear 35 1014 13 0 3.1 330 18:18 08.10.2019
536 Clear 36 1014 13 10000 3.6 330 17:40 08.10.2019
537 Clear 36 1014 13 10000 3.6 330 17:40 08.10.2019
538 Clear 36 1014 13 10000 3.6 330 17:20 08.10.2019
539 Clear 36 1014 15 10000 3.1 300 16:57 08.10.2019
540 Clear 35 1014 15 10000 2.6 0 16:38 08.10.2019
541 Clear 35 1014 15 10000 2.6 0 16:20 08.10.2019
542 Clear 34 1014 17 10000 2.6 360 15:40 08.10.2019
543 Clear 34 1014 17 10000 2.6 360 15:21 08.10.2019
544 Clear 33 1015 19 10000 2.6 340 14:57 08.10.2019
545 Clear 33 1016 18 10000 2.1 0 14:39 08.10.2019
546 Clear 33 1016 18 10000 2.1 0 14:20 08.10.2019
547 Clear 32 1016 21 10000 2.1 0 13:56 08.10.2019
548 Clear 30 1017 25 7000 1.5 310 13:38 08.10.2019
549 Clear 30 1017 25 7000 1.5 310 13:18 08.10.2019
550 Clear 30 1017 25 7000 1.5 310 12:56 08.10.2019
551 Clear 29 1017 26 7000 1 0 12:37 08.10.2019
552 Clear 29 1017 26 7000 1 0 12:18 08.10.2019
553 Clear 26 1017 29 7000 1 0 11:40 08.10.2019
554 Clear 26 1017 29 7000 1 0 11:22 08.10.2019
555 Clear 25 1017 31 7000 0.5 0 10:56 08.10.2019
556 Clear 25 1017 31 10000 0.79 313.46 10:36 08.10.2019
557 Clear 25 1017 31 10000 0.79 313.46 10:18 08.10.2019
558 Clear 19 1016 39 10000 0.5 0 09:41 08.10.2019
559 Clear 19 1016 39 10000 0.5 0 09:41 08.10.2019
560 Clear 19 1016 39 10000 0.5 0 09:23 08.10.2019
561 Clear 18 1016 42 10000 0.5 0 08:59 08.10.2019
562 Clear 19 1016 39 10000 0.5 0 08:41 08.10.2019
563 Clear 19 1016 39 10000 0.5 0 08:22 08.10.2019
564 Clear 18 1016 42 10000 1 0 07:42 08.10.2019
565 Clear 18 1016 42 10000 1 0 07:20 08.10.2019
566 Clear 18 1016 42 10000 1 0 07:20 08.10.2019
567 Clear 19 1015 39 10000 1 0 06:47 08.10.2019
568 Clear 19 1015 37 10000 0.5 0 06:26 08.10.2019
569 Clear 20 1015 34 10000 0.5 0 05:45 08.10.2019
570 Clear 20 1015 34 10000 0.5 0 05:45 08.10.2019
571 Clear 19 1015 37 10000 0.75 12.703 05:24 08.10.2019
572 Clear 22 1016 30 10000 1.5 280 03:32 08.10.2019
573 Clear 21 1016 35 10000 0.5 0 02:47 08.10.2019
574 Clear 24 1017 29 10000 1 0 02:29 08.10.2019
575 Clear 25 1017 31 10000 1 0 01:43 08.10.2019
576 Clear 25 1017 31 10000 1 0 01:19 08.10.2019
577 Clear 26 1017 27 10000 2.6 120 00:38 08.10.2019
578 Clear 26 1017 27 10000 2.6 120 00:19 08.10.2019
579 Clear 28 1017 24 10000 2.1 50 23:39 07.10.2019
580 Clear 28 1017 24 10000 2.1 50 23:19 07.10.2019
581 Clear 29 1017 23 10000 4.1 30 22:55 07.10.2019
582 Clear 29 1017 23 10000 4.1 30 22:55 07.10.2019
583 Clear 30 1016 20 0 4.1 20 22:37 07.10.2019
584 Clear 30 1016 20 0 4.1 20 22:19 07.10.2019
585 Clear 31 1016 16 10000 1.5 360 21:55 07.10.2019
586 Clear 32 1016 17 10000 2.1 20 21:37 07.10.2019
587 Clear 32 1016 17 10000 2.1 20 21:18 07.10.2019
588 Clear 33 1015 16 10000 3.1 20 20:56 07.10.2019
589 Clear 33 1015 16 10000 4.1 30 20:38 07.10.2019
590 Clear 35 1015 13 10000 3.1 20 20:19 07.10.2019
591 Clear 35 1015 13 10000 3.1 20 19:54 07.10.2019
592 Clear 35 1015 13 10000 3.1 20 19:36 07.10.2019
593 Clear 35 1015 13 10000 3.1 20 19:18 07.10.2019
594 Clear 36 1015 12 10000 3.6 340 18:42 07.10.2019
595 Clear 36 1015 12 10000 3.6 340 18:19 07.10.2019
596 Clear 36 1015 13 10000 3.1 340 17:59 07.10.2019
597 Clear 36 1015 14 10000 3.1 340 17:40 07.10.2019
598 Clear 36 1015 14 10000 3.1 340 17:19 07.10.2019
599 Clear 37 1015 16 10000 2.6 0 16:46 07.10.2019
600 Clear 36 1015 15 10000 2.1 0 16:46 07.10.2019
601 Clear 36 1015 15 10000 2.1 0 16:28 07.10.2019
602 Clear 35 1016 16 10000 2.1 0 15:58 07.10.2019
603 Clear 35 1016 15 10000 3.1 360 15:40 07.10.2019
604 Clear 35 1016 15 10000 3.1 360 15:21 07.10.2019
605 Clear 35 1017 19 10000 1.5 0 14:42 07.10.2019
606 Clear 35 1017 19 10000 1.5 0 14:23 07.10.2019
607 Clear 33 1017 18 10000 1.5 0 13:45 07.10.2019
608 Clear 30 1018 27 10000 1.5 0 13:21 07.10.2019
609 Clear 30 1018 27 10000 1.5 0 12:58 07.10.2019
610 Clear 29 1018 30 10000 1.5 0 12:40 07.10.2019
611 Clear 29 1018 30 10000 1.5 0 12:40 07.10.2019
612 Clear 29 1018 30 10000 1.5 0 12:21 07.10.2019
613 Clear 29 1018 30 10000 1.5 0 12:21 07.10.2019
614 Clear 29 1018 30 10000 1.5 0 12:21 07.10.2019
615 Clear 28 1018 32 10000 1 0 11:59 07.10.2019
616 Clear 28 1018 32 10000 1 0 11:59 07.10.2019
617 Clear 26 1018 34 10000 1.5 80 11:40 07.10.2019
618 Clear 26 1018 34 10000 1.5 80 11:21 07.10.2019
619 Clear 26 1018 34 10000 1.5 80 11:21 07.10.2019
620 Clear 23 1018 35 10000 1.5 80 10:57 07.10.2019
621 Clear 26 1017 30 0 1.39 25.476 10:39 07.10.2019
622 Clear 26 1017 30 0 1.39 25.476 10:20 07.10.2019
623 Clear 19 1017 52 10000 1 0 09:39 07.10.2019
624 Clear 19 1017 52 10000 1 0 09:39 07.10.2019
625 Clear 19 1017 52 10000 1 0 09:21 07.10.2019
626 Clear 20 1017 49 10000 1.5 30 08:44 07.10.2019
627 Clear 20 1017 49 10000 1.5 30 08:21 07.10.2019
628 Clear 20 1017 52 10000 1 0 07:56 07.10.2019
629 Clear 19 1017 55 10000 1.5 100 07:36 07.10.2019
630 Clear 19 1017 55 10000 1.5 100 07:18 07.10.2019
631 Clear 19 1017 55 10000 1.5 90 06:43 07.10.2019
632 Clear 20 1016 49 10000 1.5 100 06:22 07.10.2019
633 Clear 21 1017 52 10000 1 0 05:27 07.10.2019
634 Clear 22 1017 49 10000 1 0 04:56 07.10.2019
635 Clear 22 1018 49 10000 0.5 0 03:51 07.10.2019
636 Clear 22 1018 49 10000 0.5 0 03:51 07.10.2019
637 Clear 23 1018 46 10000 0.5 0 03:32 07.10.2019
638 Clear 23 1018 49 10000 1 0 02:53 07.10.2019
639 Clear 23 1019 49 10000 0.5 0 02:19 07.10.2019
640 Clear 24 1019 47 10000 1 0 01:24 07.10.2019
641 Clear 25 1019 47 10000 0.5 0 00:53 07.10.2019
642 Clear 26 1019 44 10000 2.6 110 00:27 07.10.2019
643 Clear 27 1019 42 10000 2.6 50 23:59 06.10.2019
644 Clear 28 1019 39 10000 2.6 30 23:40 06.10.2019
645 Clear 28 1019 39 10000 2.6 30 23:20 06.10.2019
646 Clear 29 1019 37 10000 3.1 30 22:58 06.10.2019
647 Clear 29 1018 37 10000 4.1 20 22:39 06.10.2019
648 Clear 29 1018 37 10000 4.1 20 22:21 06.10.2019
649 Clear 31 1018 27 10000 3.6 30 21:56 06.10.2019
650 Clear 31 1018 27 10000 3.6 20 21:37 06.10.2019
651 Clear 31 1018 27 10000 3.6 20 21:19 06.10.2019
652 Clear 32 1017 24 0 3.6 360 20:56 06.10.2019
653 Clear 33 1017 22 0 4.1 20 20:38 06.10.2019
654 Clear 33 1017 22 0 4.1 20 20:38 06.10.2019
655 Clear 33 1017 22 0 4.1 20 20:19 06.10.2019
656 Clear 33 1017 22 0 4.1 20 20:19 06.10.2019
657 Clear 34 1017 18 10000 3.6 20 19:56 06.10.2019
658 Clear 35 1017 17 10000 3.6 360 19:36 06.10.2019
659 Clear 35 1017 17 10000 3.6 360 19:36 06.10.2019
660 Clear 35 1017 17 10000 3.6 360 19:18 06.10.2019
661 Clear 36 1016 15 10000 3.1 350 18:55 06.10.2019
662 Clear 36 1016 16 10000 4.1 330 18:37 06.10.2019
663 Clear 36 1016 16 10000 4.1 330 18:18 06.10.2019
664 Clear 36 1016 16 10000 4.1 330 18:18 06.10.2019
665 Clear 37 1016 13 10000 3.1 350 17:43 06.10.2019
666 Clear 37 1016 13 10000 3.1 350 17:20 06.10.2019
667 Clear 37 1016 13 10000 2.6 30 16:56 06.10.2019
668 Clear 37 1016 13 10000 2.6 30 16:56 06.10.2019
669 Clear 37 1016 13 10000 2.6 30 16:37 06.10.2019
670 Clear 37 1016 13 10000 2.6 30 16:19 06.10.2019
671 Clear 35 1017 20 10000 2.6 30 15:43 06.10.2019
672 Clear 35 1017 20 10000 2.6 30 15:22 06.10.2019
673 Clear 34 1017 23 10000 2.6 30 14:56 06.10.2019
674 Clear 33 1018 27 10000 2.6 40 14:38 06.10.2019
675 Clear 33 1018 27 10000 2.6 40 14:19 06.10.2019
676 Clear 29 1018 37 10000 3.1 50 13:42 06.10.2019
677 Clear 29 1018 37 10000 3.1 50 13:24 06.10.2019
678 Clear 27 1019 44 10000 2.6 60 12:59 06.10.2019
679 Clear 26 1019 47 10000 2.1 0 12:41 06.10.2019
680 Clear 26 1019 47 10000 2.1 0 12:21 06.10.2019
681 Clear 25 1019 53 10000 3.1 60 11:59 06.10.2019
682 Clear 23 1019 60 10000 3.6 50 11:41 06.10.2019
683 Clear 23 1019 60 10000 3.6 50 11:23 06.10.2019
684 Clear 22 1019 64 10000 3.1 70 10:55 06.10.2019
685 Clear 21 1018 64 10000 4.1 100 10:37 06.10.2019
686 Clear 21 1018 64 10000 4.1 100 10:19 06.10.2019
687 Clear 19 1018 68 10000 2.6 110 09:41 06.10.2019
688 Clear 19 1018 68 10000 2.6 110 09:19 06.10.2019
689 Clear 18 1018 72 10000 2.1 90 08:48 06.10.2019
690 Clear 18 1018 72 10000 1.5 30 08:48 06.10.2019
691 Clear 18 1018 72 10000 1.5 30 08:22 06.10.2019
692 Clear 19 1018 72 10000 2.6 80 07:58 06.10.2019
693 Clear 19 1018 68 10000 2.1 60 07:39 06.10.2019
694 Clear 20 1017 64 10000 2.6 100 06:49 06.10.2019
695 Clear 19 1018 68 10000 0.5 0 05:41 06.10.2019
696 Clear 19 1018 68 10000 0.5 0 04:32 06.10.2019
697 Clouds 21 1018 62 0 1.37 353.789 02:52 06.10.2019
698 Clouds 21 1018 62 0 1.37 353.789 02:29 06.10.2019
699 Clouds 21 1018 62 0 1.37 353.789 01:46 06.10.2019
700 Clear 24 1019 53 10000 2.6 60 01:28 06.10.2019
701 Clear 24 1019 53 10000 2.6 60 00:59 06.10.2019
702 Clear 24 1019 53 10000 2.6 60 00:59 06.10.2019
703 Clear 24 1019 53 10000 2.6 60 00:31 06.10.2019
704 Clear 24 1019 53 10000 2.1 60 23:54 05.10.2019
705 Clear 25 1019 53 10000 2.6 90 23:36 05.10.2019
706 Clear 25 1019 53 10000 2.6 90 23:18 05.10.2019
707 Clear 25 1019 50 10000 2.1 70 22:54 05.10.2019
708 Clear 26 1018 47 10000 1 0 22:36 05.10.2019
709 Clear 26 1018 47 10000 1 0 22:18 05.10.2019
710 Clear 28 1018 42 10000 4.1 360 21:41 05.10.2019
711 Clear 28 1018 42 10000 4.1 360 21:22 05.10.2019
712 Clear 29 1017 37 10000 4.6 350 20:57 05.10.2019
713 Clear 31 1017 33 10000 4.6 350 20:39 05.10.2019
714 Clear 31 1017 33 10000 4.6 350 20:19 05.10.2019
715 Clear 31 1017 33 10000 4.6 350 20:19 05.10.2019
716 Clear 33 1016 24 10000 4.1 330 19:41 05.10.2019
717 Clear 33 1016 24 10000 4.1 330 19:22 05.10.2019
718 Clear 34 1016 23 10000 4.1 350 18:58 05.10.2019
719 Clear 35 1015 20 10000 3.1 340 18:39 05.10.2019
720 Clear 35 1015 20 10000 3.1 340 18:21 05.10.2019
721 Clear 36 1015 19 10000 2.6 320 17:59 05.10.2019
722 Clear 36 1015 20 10000 2.1 0 17:40 05.10.2019
723 Clear 36 1015 20 10000 2.1 0 17:20 05.10.2019
724 Clear 35 1015 21 10000 2.1 0 16:42 05.10.2019
725 Clear 35 1015 21 10000 2.1 0 16:22 05.10.2019
726 Clear 34 1015 23 10000 2.6 320 15:58 05.10.2019
727 Clear 33 1016 22 10000 2.6 0 15:40 05.10.2019
728 Clear 33 1016 22 10000 2.6 0 15:21 05.10.2019
729 Clear 32 1016 24 10000 2.6 10 14:58 05.10.2019
730 Clear 32 1016 24 10000 2.6 10 14:58 05.10.2019
731 Clear 32 1016 24 10000 2.1 360 14:40 05.10.2019
732 Clear 32 1016 24 10000 2.1 360 14:20 05.10.2019
733 Clear 29 1017 30 10000 2.1 340 13:42 05.10.2019
734 Clear 29 1017 30 10000 2.1 340 13:22 05.10.2019
735 Clear 28 1017 34 10000 1 0 12:47 05.10.2019
736 Clear 25 1017 41 10000 1.5 350 12:21 05.10.2019
737 Clear 27 1017 34 10000 1.5 0 12:21 05.10.2019
738 Clear 25 1017 41 10000 1.5 350 11:59 05.10.2019
739 Clear 24 1017 44 10000 1 0 11:39 05.10.2019
740 Clear 24 1017 44 10000 1 0 11:18 05.10.2019
741 Clear 21 1017 49 10000 1.5 10 10:45 05.10.2019
742 Clear 21 1017 49 10000 1.5 10 10:26 05.10.2019
743 Clear 21 1016 49 10000 1.5 20 09:59 05.10.2019
744 Clear 18 1016 55 10000 1 0 09:39 05.10.2019
745 Clear 18 1016 55 10000 1 0 09:39 05.10.2019
746 Clear 18 1016 55 10000 1 0 09:20 05.10.2019
747 Clear 18 1016 59 10000 1 0 08:40 05.10.2019
748 Clear 18 1016 59 10000 1 0 08:20 05.10.2019
749 Clear 18 1016 59 10000 0.5 0 07:57 05.10.2019
750 Clear 18 1016 55 10000 0.5 0 07:37 05.10.2019
751 Clear 18 1016 55 10000 0.5 0 07:19 05.10.2019
752 Clear 18 1016 48 10000 1.5 230 06:28 05.10.2019
753 Clear 18 1016 48 10000 1.5 230 06:28 05.10.2019
754 Clear 20 1016 45 10000 0.5 0 05:51 05.10.2019
755 Clear 20 1016 42 10000 0.5 0 04:21 05.10.2019
756 Clear 20 1017 42 10000 1.5 240 03:28 05.10.2019
757 Clear 23 1017 38 10000 1.5 30 01:42 05.10.2019
758 Clear 23 1017 38 10000 1.5 30 01:20 05.10.2019
759 Clear 24 1017 36 10000 2.1 50 00:43 05.10.2019
760 Clear 24 1017 36 10000 2.6 80 00:25 05.10.2019
761 Clear 26 1017 31 10000 2.1 50 23:44 04.10.2019
762 Clear 26 1017 31 10000 2.1 50 23:26 04.10.2019
763 Clear 27 1017 30 10000 3.6 30 22:59 04.10.2019
764 Clear 28 1017 24 10000 4.1 350 22:39 04.10.2019
765 Clear 28 1017 24 10000 4.1 350 22:20 04.10.2019
766 Clear 30 1016 20 10000 1.5 20 21:57 04.10.2019
767 Clear 30 1016 20 10000 1.5 20 21:38 04.10.2019
768 Clear 30 1016 20 10000 1.5 20 21:19 04.10.2019
769 Clear 31 1016 19 10000 2.1 30 20:55 04.10.2019
770 Clear 32 1016 19 10000 3.1 30 20:36 04.10.2019
771 Clear 32 1016 19 10000 3.1 30 20:18 04.10.2019
772 Clear 33 1016 18 10000 2.6 10 19:45 04.10.2019
773 Clear 34 1016 18 10000 2.6 350 19:27 04.10.2019
774 Clear 34 1016 18 10000 2.1 330 18:59 04.10.2019
775 Clear 35 1016 19 10000 2.6 10 18:38 04.10.2019
776 Clear 35 1016 19 10000 2.6 10 18:19 04.10.2019
777 Clear 34 1016 20 0 3.1 350 17:55 04.10.2019
778 Clear 34 1016 21 10000 2.1 290 17:36 04.10.2019
779 Clear 34 1016 21 10000 2.1 290 17:18 04.10.2019
780 Clear 34 1016 23 10000 1.5 0 16:42 04.10.2019
781 Clear 34 1016 23 10000 1.5 0 16:19 04.10.2019
782 Clear 32 1016 25 10000 2.1 0 15:59 04.10.2019
783 Clear 32 1017 24 10000 2.6 20 15:40 04.10.2019
784 Clear 32 1017 24 10000 2.6 20 15:21 04.10.2019
785 Clear 32 1017 24 10000 2.6 20 15:21 04.10.2019
786 Clear 31 1017 25 10000 2.1 360 14:59 04.10.2019
787 Clear 31 1018 25 10000 2.6 90 14:41 04.10.2019
788 Clear 31 1018 25 10000 2.6 90 14:22 04.10.2019
789 Clear 29 1018 30 10000 2.1 30 13:54 04.10.2019
790 Clear 29 1017 22 0 2.54 31.25 13:36 04.10.2019
791 Clear 25 1019 41 10000 2.1 360 13:18 04.10.2019
792 Clear 25 1019 41 10000 2.1 360 12:42 04.10.2019
793 Clear 25 1019 41 10000 2.1 360 12:24 04.10.2019
794 Clear 24 1019 41 10000 2.1 350 11:43 04.10.2019
795 Clear 23 1019 40 10000 1.5 40 11:43 04.10.2019
796 Clear 24 1019 41 10000 2.1 350 11:43 04.10.2019
797 Clear 23 1019 40 10000 1.5 40 11:22 04.10.2019
798 Clear 23 1019 40 10000 1.5 40 11:22 04.10.2019
799 Clear 21 1018 49 10000 1.5 70 10:57 04.10.2019
800 Clear 21 1018 52 10000 0.5 0 10:38 04.10.2019
801 Clear 21 1018 52 10000 0.5 0 10:19 04.10.2019
802 Clear 18 1018 63 10000 0.5 0 09:43 04.10.2019
803 Clear 16 1018 63 10000 2.1 260 09:25 04.10.2019
804 Clear 18 1018 63 10000 1.5 20 08:46 04.10.2019
805 Clear 17 1018 67 10000 1 0 08:27 04.10.2019
806 Clear 18 1018 63 10000 0.5 0 07:56 04.10.2019
807 Clouds 18 1018 63 0 2.1 40 07:38 04.10.2019
808 Clouds 18 1018 63 0 2.1 40 07:19 04.10.2019
809 Clouds 18 1018 63 0 2.1 100 06:40 04.10.2019
810 Clouds 18 1018 63 0 2.1 100 06:22 04.10.2019
811 Clear 19 1018 59 10000 2.1 80 05:22 04.10.2019
812 Clear 20 1018 60 10000 3.6 70 04:54 04.10.2019
813 Clear 20 1018 56 10000 2.1 80 03:42 04.10.2019
814 Clouds 20 1018 56 0 2.6 80 02:53 04.10.2019
815 Clouds 20 1018 56 0 2.6 80 02:53 04.10.2019
816 Clear 21 1019 56 10000 3.1 80 01:54 04.10.2019
817 Clear 21 1019 56 10000 3.1 80 01:54 04.10.2019
818 Clear 21 1019 56 10000 3.1 80 01:54 04.10.2019
819 Clear 22 1019 53 10000 3.1 70 01:27 04.10.2019
820 Clear 23 1019 49 10000 3.1 50 00:36 04.10.2019
821 Clear 25 1019 44 10000 4.1 20 23:41 03.10.2019
822 Clear 25 1019 44 10000 4.1 20 23:22 03.10.2019
823 Clear 26 1019 29 10000 3.6 20 22:58 03.10.2019
824 Clear 26 1019 24 10000 2.1 40 22:39 03.10.2019
825 Clear 26 1019 24 10000 2.1 40 22:39 03.10.2019
826 Clear 26 1019 24 10000 2.1 40 22:21 03.10.2019
827 Clear 27 1019 22 10000 2.1 50 21:59 03.10.2019
828 Clear 28 1018 21 10000 2.1 50 21:40 03.10.2019
829 Clear 28 1018 21 10000 2.1 50 21:20 03.10.2019
830 Clear 29 1018 23 10000 2.1 30 20:58 03.10.2019
831 Clear 30 1018 22 10000 3.6 20 20:40 03.10.2019
832 Clear 30 1018 22 10000 3.6 20 20:21 03.10.2019
833 Clear 30 1018 25 10000 3.1 40 19:58 03.10.2019
834 Clear 30 1018 25 10000 3.1 40 19:58 03.10.2019
835 Clear 31 1018 23 10000 2.6 360 19:40 03.10.2019
836 Clear 31 1018 23 10000 2.6 360 19:20 03.10.2019
837 Clear 31 1018 22 10000 3.1 30 18:56 03.10.2019
838 Clear 32 1018 21 10000 2.1 40 18:38 03.10.2019
839 Clear 32 1018 21 10000 2.1 40 18:38 03.10.2019
840 Clear 32 1018 21 10000 2.1 40 18:18 03.10.2019
841 Clear 30 1019 27 10000 2.6 0 17:42 03.10.2019
842 Clear 30 1019 27 10000 2.6 0 17:23 03.10.2019
843 Clear 30 1019 27 10000 2.1 0 16:58 03.10.2019
844 Clouds 30 1016 17 0 4.39 16.622 16:39 03.10.2019
845 Clear 29 1020 32 10000 2.6 0 16:21 03.10.2019
846 Clear 29 1020 32 10000 2.6 0 15:45 03.10.2019
847 Clear 29 1020 32 10000 2.6 0 15:24 03.10.2019
848 Clear 28 1020 37 10000 2.6 330 14:59 03.10.2019
849 Clear 27 1020 39 10000 2.6 350 14:37 03.10.2019
850 Clear 27 1020 39 10000 2.6 350 14:19 03.10.2019
851 Clear 25 1021 47 10000 2.6 30 13:44 03.10.2019
852 Clear 25 1021 47 10000 2.6 30 13:26 03.10.2019
853 Clear 25 1021 47 10000 1.5 360 12:59 03.10.2019
854 Clear 24 1021 50 10000 2.1 20 12:40 03.10.2019
855 Clear 24 1021 50 10000 2.1 20 12:20 03.10.2019
856 Clear 22 1022 53 10000 3.1 40 11:58 03.10.2019
857 Clear 22 1021 56 10000 2.6 30 11:40 03.10.2019
858 Clear 22 1021 56 10000 2.6 30 11:21 03.10.2019
859 Clear 20 1021 60 10000 3.1 50 10:57 03.10.2019
860 Clear 20 1021 64 10000 2.1 360 10:38 03.10.2019
861 Clear 20 1021 64 10000 2.1 360 10:18 03.10.2019
862 Clear 19 1020 72 10000 2.1 80 09:56 03.10.2019
863 Clear 18 1020 72 10000 2.1 90 09:37 03.10.2019
864 Clear 18 1020 72 10000 2.1 90 09:19 03.10.2019
865 Clear 18 1020 72 10000 2.6 100 08:42 03.10.2019
866 Clear 18 1020 72 10000 2.6 100 08:23 03.10.2019
867 Clear 18 1019 72 10000 2.6 80 07:42 03.10.2019
868 Clear 18 1019 72 10000 2.6 80 07:20 03.10.2019
869 Clear 18 1019 72 10000 2.6 60 06:52 03.10.2019
870 Clear 19 1019 68 10000 1.5 90 06:27 03.10.2019
871 Clear 19 1019 68 10000 2.1 70 05:49 03.10.2019
872 Clear 19 1019 68 10000 2.6 70 05:27 03.10.2019
873 Clear 19 1020 68 10000 2.6 50 04:44 03.10.2019
874 Clear 20 1020 68 10000 2.1 70 03:54 03.10.2019
875 Clear 21 1020 64 10000 1.5 70 03:19 03.10.2019
876 Clear 22 1020 64 10000 2.6 70 02:21 03.10.2019
877 Clear 23 1021 60 10000 3.1 60 01:38 03.10.2019
878 Clear 23 1021 60 10000 3.1 60 00:52 03.10.2019
879 Clear 23 1021 56 10000 3.1 60 00:31 03.10.2019
880 Clear 23 1021 56 10000 4.6 70 23:44 02.10.2019
881 -273 0 0 0 0 0 23:25 02.10.2019
882 Clear 25 1020 50 10000 5.1 40 22:57 02.10.2019
883 Clear 26 1020 47 10000 4.6 30 22:39 02.10.2019
884 Clear 26 1020 47 10000 4.6 30 22:18 02.10.2019
885 Clear 27 1020 44 10000 6.2 20 21:55 02.10.2019
886 Clear 29 1019 30 10000 4.6 20 21:36 02.10.2019
887 Clear 29 1019 30 10000 4.6 20 21:18 02.10.2019
888 Clear 30 1018 25 10000 4.1 10 20:55 02.10.2019
889 Clear 31 1018 23 10000 4.6 360 20:37 02.10.2019
890 Clear 31 1018 23 10000 4.6 360 20:18 02.10.2019
891 Clear 32 1018 21 10000 4.6 10 19:43 02.10.2019
892 Clear 33 1018 18 10000 4.1 360 19:22 02.10.2019
893 Clear 34 1018 15 10000 4.1 350 18:58 02.10.2019
894 Clear 34 1018 15 10000 4.1 350 18:58 02.10.2019
895 Clear 34 1017 15 0 3.6 10 18:39 02.10.2019
896 Clear 34 1017 15 0 3.6 10 18:21 02.10.2019
897 Clear 34 1017 15 0 2.6 20 17:57 02.10.2019
898 Clear 34 1017 15 0 2.6 20 17:57 02.10.2019
899 Clear 34 1017 15 0 2.6 20 17:57 02.10.2019
900 Clear 35 1017 15 0 2.6 20 17:38 02.10.2019
901 Clear 35 1017 15 0 2.6 20 17:38 02.10.2019
902 Clear 35 1017 15 0 2.6 20 17:20 02.10.2019
903 Clear 34 1018 16 10000 3.6 360 16:56 02.10.2019
904 Clear 34 1018 16 10000 3.1 340 16:36 02.10.2019
905 Clear 34 1018 16 10000 3.1 340 16:18 02.10.2019
906 Clear 34 1018 17 10000 2.1 360 15:41 02.10.2019
907 Clear 33 1018 17 10000 3.1 30 15:23 02.10.2019
908 Clear 33 1019 16 10000 2.6 0 14:58 02.10.2019
909 Clear 31 1019 22 10000 2.1 0 14:40 02.10.2019
910 Clear 31 1019 22 10000 2.1 0 14:21 02.10.2019
911 Clear 30 1020 25 0 2.6 0 13:45 02.10.2019
912 Clear 29 1020 26 0 1.5 0 13:26 02.10.2019
913 Clear 29 1021 30 0 1.5 0 12:59 02.10.2019
914 Clear 29 1021 30 0 1.5 0 12:39 02.10.2019
915 Clear 26 1021 41 10000 2.6 30 12:20 02.10.2019
916 Clear 26 1021 39 10000 2.6 40 11:45 02.10.2019
917 Clear 25 1021 41 10000 2.1 50 11:23 02.10.2019
918 Clear 23 1021 46 10000 1.5 80 10:42 02.10.2019
919 Clear 23 1021 46 10000 1.5 80 10:20 02.10.2019
920 Clear 21 1020 52 10000 1.5 60 09:59 02.10.2019
921 Clear 21 1020 52 10000 1.5 60 09:38 02.10.2019
922 Clear 19 1020 55 10000 1.5 60 09:19 02.10.2019
923 Clear 19 1020 55 10000 2.1 70 08:45 02.10.2019
924 Clear 19 1020 59 10000 2.6 90 08:25 02.10.2019
925 Clear 19 1020 59 10000 2.6 90 08:25 02.10.2019
926 Clear 19 1019 59 10000 2.1 80 07:59 02.10.2019
927 Clear 19 1019 59 10000 2.1 80 07:39 02.10.2019
928 Clear 20 1019 56 10000 1.5 80 07:20 02.10.2019
929 Clear 19 1019 59 10000 0.5 0 06:36 02.10.2019
930 Clear 19 1019 55 10000 1.5 250 05:55 02.10.2019
931 Clear 19 1019 55 10000 2.1 250 05:24 02.10.2019
932 Clear 20 1019 52 10000 2.6 240 04:53 02.10.2019
933 Clear 21 1020 46 10000 3.1 280 03:52 02.10.2019
934 Clear 24 1020 38 10000 2.1 110 02:41 02.10.2019
935 Clear 24 1020 36 10000 2.1 100 02:23 02.10.2019
936 Clear 25 1021 36 10000 2.1 100 01:24 02.10.2019
937 Clear 26 1021 34 10000 1 0 00:49 02.10.2019
938 Clear 26 1021 34 10000 2.1 50 00:25 02.10.2019
939 Clear 28 1020 30 10000 3.6 20 23:43 01.10.2019
940 Clear 28 1020 32 10000 3.1 30 23:25 01.10.2019
941 Clear 29 1020 28 10000 2.6 40 22:59 01.10.2019
942 Clear 29 1020 28 10000 2.6 40 22:39 01.10.2019
943 Clear 29 1020 28 10000 2.1 30 22:19 01.10.2019
944 Clear 30 1019 27 10000 3.6 360 21:55 01.10.2019
945 Clear 30 1019 27 10000 3.6 360 21:37 01.10.2019
946 Clear 31 1019 29 10000 3.6 360 21:18 01.10.2019
947 Clear 32 1018 27 10000 3.6 360 20:54 01.10.2019
948 Clear 33 1018 26 10000 3.6 350 20:36 01.10.2019
949 Clear 33 1018 26 10000 3.6 350 20:18 01.10.2019
950 Clouds 35 1018 21 10000 3.6 330 19:44 01.10.2019
951 Clouds 36 1017 19 10000 4.6 320 19:26 01.10.2019
952 Clouds 37 1017 17 10000 4.6 340 18:59 01.10.2019
953 Clouds 38 1017 16 10000 4.1 340 18:39 01.10.2019
954 Clouds 38 1017 16 10000 4.1 340 18:39 01.10.2019
955 Clouds 38 1017 16 10000 4.1 340 18:39 01.10.2019
956 Clouds 38 1017 16 10000 4.1 340 18:21 01.10.2019
957 Clouds 39 1017 16 10000 4.1 350 17:55 01.10.2019
958 Clouds 39 1017 14 10000 4.1 340 17:37 01.10.2019
959 Clouds 39 1017 14 10000 4.1 340 17:18 01.10.2019
960 Clouds 40 1017 13 10000 4.1 300 16:57 01.10.2019
961 Clouds 40 1017 13 10000 4.1 300 16:57 01.10.2019
962 Clouds 40 1017 13 10000 4.1 300 16:39 01.10.2019
963 Clouds 39 1017 13 10000 3.6 300 16:20 01.10.2019
964 Clouds 39 1017 14 10000 3.1 330 15:42 01.10.2019
965 Clouds 38 1018 15 10000 3.1 320 15:21 01.10.2019
966 Clouds 38 1018 16 10000 3.1 320 14:41 01.10.2019
967 Clouds 38 1018 17 10000 2.6 0 14:20 01.10.2019
968 Clouds 37 1018 17 10000 2.1 300 13:57 01.10.2019
969 Clouds 37 1018 17 10000 2.1 300 13:39 01.10.2019
970 Clear 35 1019 17 10000 1.5 0 13:19 01.10.2019
971 Clear 35 1019 19 10000 2.1 340 12:57 01.10.2019
972 Clear 35 1019 19 10000 2.1 340 12:38 01.10.2019
973 Clear 34 1019 17 10000 2.1 330 12:18 01.10.2019
974 Clear 33 1019 19 10000 1.5 150 11:57 01.10.2019
975 Clear 32 1019 19 10000 1.5 130 11:37 01.10.2019
976 Clear 32 1019 19 10000 1.5 130 11:18 01.10.2019
977 Clear 26 1018 31 10000 1.5 50 10:48 01.10.2019
978 Clear 26 1018 31 10000 1.5 50 10:28 01.10.2019
979 Clear 25 1018 31 10000 1.5 90 09:46 01.10.2019
980 Clear 23 1017 35 10000 2.1 110 09:26 01.10.2019
981 Clear 24 1017 31 10000 1 0 08:46 01.10.2019
982 Clear 23 1017 33 10000 1.5 80 08:27 01.10.2019
983 Clear 23 1017 33 10000 1.5 30 07:58 01.10.2019
984 Clear 23 1017 33 10000 1.5 30 07:40 01.10.2019
985 Clear 24 1017 31 10000 1 0 07:20 01.10.2019
986 Clear 23 1017 33 10000 1.5 100 06:42 01.10.2019
987 Clear 23 1017 33 10000 1.5 100 06:18 01.10.2019
988 Clear 23 1017 33 10000 2.1 100 05:44 01.10.2019
989 Clear 23 1017 33 10000 2.1 100 05:44 01.10.2019
990 Clear 27 1018 22 10000 0.5 0 04:42 01.10.2019
991 Clear 27 1018 22 10000 0.5 0 03:49 01.10.2019
992 Clouds 27 1018 24 10000 1.5 220 02:20 01.10.2019
993 Clouds 28 1018 23 10000 2.6 240 01:56 01.10.2019
994 Clouds 29 1019 23 8000 1 0 00:52 01.10.2019
995 Clouds 31 1019 20 8000 1.5 220 00:26 01.10.2019
996 Clouds 31 1019 20 8000 1.5 220 23:42 30.09.2019
997 Clouds 33 1018 18 8000 1 0 23:24 30.09.2019
998 Clouds 35 1018 15 6000 1.5 300 22:59 30.09.2019
999 Clouds 35 1018 15 6000 1.5 300 22:40 30.09.2019
1000 Clouds 35 1018 15 6000 1.5 300 22:22 30.09.2019
1001 Clouds 37 1017 13 6000 4.1 0 21:56 30.09.2019
1002 Clouds 37 1017 13 6000 4.1 0 21:56 30.09.2019
1003 Clouds 37 1017 13 6000 4.1 0 21:37 30.09.2019
1004 Clouds 35 1017 14 8000 4.1 240 21:19 30.09.2019
1005 Clouds 37 1017 13 8000 4.1 0 20:55 30.09.2019
1006 Clouds 37 1017 13 8000 4.1 0 20:55 30.09.2019
1007 Clouds 37 1017 13 8000 4.1 0 20:37 30.09.2019
1008 Clouds 38 1016 13 6000 3.6 0 20:19 30.09.2019
1009 Clouds 34 1016 13 0 6.29 335.573 19:56 30.09.2019
1010 Clouds 34 1016 13 0 6.29 335.573 19:56 30.09.2019
1011 Clouds 34 1016 13 0 6.29 335.573 19:56 30.09.2019
1012 Clouds 40 1015 11 10000 3.6 270 19:37 30.09.2019
1013 Clouds 40 1015 11 10000 3.6 270 19:18 30.09.2019
1014 Clouds 40 1015 11 10000 3.6 270 18:41 30.09.2019
1015 Clouds 40 1015 11 10000 3.6 270 18:22 30.09.2019
1016 Clouds 41 1015 9 10000 3.1 290 17:59 30.09.2019
1017 Clouds 41 1015 9 10000 3.1 290 17:39 30.09.2019
1018 Clouds 41 1015 9 10000 3.1 290 17:39 30.09.2019
1019 Clouds 41 1015 9 10000 3.1 290 17:21 30.09.2019
1020 Clouds 41 1015 10 10000 2.1 300 16:56 30.09.2019
1021 Clouds 41 1015 10 10000 2.6 330 16:37 30.09.2019
1022 Clouds 41 1015 10 10000 2.6 330 16:18 30.09.2019
1023 Clouds 40 1015 11 10000 3.1 330 15:55 30.09.2019
1024 Clouds 40 1015 11 10000 3.1 330 15:55 30.09.2019
1025 Clouds 40 1016 11 10000 3.1 290 15:36 30.09.2019
1026 Clouds 40 1016 11 10000 3.1 290 15:18 30.09.2019
1027 Clouds 40 1016 13 10000 1.5 310 14:55 30.09.2019
1028 Clouds 40 1017 12 10000 1 0 14:36 30.09.2019
1029 Clouds 40 1017 12 10000 1 0 14:18 30.09.2019
1030 Clouds 40 1017 13 10000 1 0 13:44 30.09.2019
1031 Clouds 38 1017 14 10000 1.5 330 13:22 30.09.2019
1032 Clear 37 1018 14 10000 1 0 12:58 30.09.2019
1033 Clear 37 1018 14 10000 1 0 12:58 30.09.2019
1034 Clear 37 1018 14 10000 1 0 12:40 30.09.2019
1035 Clear 34 1018 20 10000 1.5 40 12:20 30.09.2019
1036 Clear 33 1018 18 10000 1 0 11:43 30.09.2019
1037 Clear 32 1018 21 10000 1 0 11:22 30.09.2019
1038 Clouds 29 1017 25 10000 1.5 100 10:59 30.09.2019
1039 Clouds 27 1017 26 10000 2.6 90 10:39 30.09.2019
1040 Clouds 27 1017 26 10000 2.6 90 10:19 30.09.2019
1041 Clear 23 1017 28 10000 3.1 110 09:58 30.09.2019
1042 Clear 23 1017 28 10000 3.1 110 09:39 30.09.2019
1043 Clear 23 1017 28 10000 3.1 110 09:39 30.09.2019
1044 Clear 23 1017 28 10000 3.1 110 09:19 30.09.2019
1045 Clear 23 1017 27 10000 2.6 110 08:46 30.09.2019
1046 Clouds 23 1017 28 8000 3.1 90 08:28 30.09.2019
1047 Clouds 23 1016 31 8000 3.6 100 07:44 30.09.2019
1048 Clouds 23 1016 31 8000 3.6 90 07:26 30.09.2019
1049 Clouds 22 1016 33 8000 3.1 90 06:50 30.09.2019
1050 Clouds 23 1017 31 8000 2.1 90 06:32 30.09.2019
1051 Clouds 24 1017 27 8000 2.1 90 05:46 30.09.2019
1052 Clouds 24 1017 27 8000 2.1 90 05:46 30.09.2019
1053 Clouds 26 1018 27 8000 1.5 30 03:33 30.09.2019
1054 Clouds 26 1018 27 8000 1.5 30 03:33 30.09.2019
1055 Clouds 25 1018 27 8000 1.5 120 02:45 30.09.2019
1056 Clouds 27 1018 22 10000 1.5 40 01:34 30.09.2019
1057 Clouds 28 1019 21 10000 2.1 40 00:42 30.09.2019
1058 Clouds 28 1019 24 10000 2.1 80 00:21 30.09.2019
1059 Clouds 29 1019 21 10000 2.6 90 23:45 29.09.2019
1060 Clouds 30 1019 20 10000 2.6 100 23:23 29.09.2019
1061 Clouds 31 1018 19 10000 2.6 100 22:55 29.09.2019
1062 Clouds 31 1018 19 10000 2.6 100 22:37 29.09.2019
1063 Clouds 31 1018 19 10000 2.6 100 22:37 29.09.2019
1064 Clouds 32 1018 17 10000 2.6 100 22:19 29.09.2019
1065 Clouds 33 1018 15 10000 1.5 70 21:56 29.09.2019
1066 Clouds 33 1018 15 10000 1.5 70 21:37 29.09.2019
1067 Clouds 34 1017 15 10000 2.1 40 21:19 29.09.2019
1068 Clouds 36 1017 14 10000 2.1 10 20:44 29.09.2019
1069 Clouds 37 1017 13 10000 1.5 310 20:20 29.09.2019
1070 Clouds 38 1017 13 10000 2.6 300 19:59 29.09.2019
1071 Clouds 38 1017 13 10000 2.6 300 19:37 29.09.2019
1072 Clouds 38 1017 13 10000 2.6 300 19:37 29.09.2019
1073 Clouds 38 1017 13 10000 2.6 300 19:19 29.09.2019
1074 Clouds 39 1017 11 10000 3.1 280 18:56 29.09.2019
1075 Clouds 39 1017 12 10000 3.1 290 18:38 29.09.2019
1076 Clouds 39 1017 12 10000 3.1 290 18:19 29.09.2019
1077 Clouds 39 1017 10 10000 2.6 350 17:58 29.09.2019
1078 Clouds 39 1017 10 10000 3.1 280 17:38 29.09.2019
1079 Clouds 39 1017 10 10000 3.1 280 17:19 29.09.2019
1080 Clouds 39 1017 11 10000 1 0 16:58 29.09.2019
1081 Clouds 39 1017 11 10000 1 0 16:40 29.09.2019
1082 Clouds 39 1017 11 10000 1 0 16:19 29.09.2019
1083 Clouds 39 1017 11 10000 1 0 16:19 29.09.2019
1084 Clouds 39 1018 11 10000 2.6 350 15:56 29.09.2019
1085 Clouds 38 1018 15 10000 1 0 15:36 29.09.2019
1086 Clouds 38 1018 15 10000 1 0 15:18 29.09.2019
1087 Clouds 38 1019 16 10000 2.1 20 14:55 29.09.2019
1088 Clouds 36 1019 22 10000 2.1 60 14:36 29.09.2019
1089 Clouds 36 1019 22 10000 2.1 60 14:18 29.09.2019
1090 Clouds 33 1020 31 10000 2.6 50 13:41 29.09.2019
1091 Clouds 33 1020 31 10000 2.6 50 13:19 29.09.2019
1092 Clear 32 1020 35 10000 2.1 60 12:58 29.09.2019
1093 Clear 32 1020 35 10000 2.1 60 12:39 29.09.2019
1094 Clear 31 1020 38 10000 1.5 60 12:21 29.09.2019
1095 Clear 29 1020 45 10000 1.5 0 11:57 29.09.2019
1096 Clear 29 1020 45 10000 1.5 0 11:38 29.09.2019
1097 Clear 27 1020 47 10000 2.1 100 11:18 29.09.2019
1098 Clear 26 1020 50 10000 2.6 80 10:56 29.09.2019
1099 Clear 24 1020 57 10000 1.5 80 10:36 29.09.2019
1100 Clear 24 1020 57 10000 1.5 80 10:18 29.09.2019
1101 Clear 23 1019 60 10000 1.5 50 09:44 29.09.2019
1102 Clear 21 1019 64 10000 1.5 90 09:20 29.09.2019
1103 Clear 20 1019 68 10000 1.5 100 08:58 29.09.2019
1104 Clear 20 1019 68 10000 1.5 100 08:37 29.09.2019
1105 Clear 21 1019 68 10000 1.5 70 08:18 29.09.2019
1106 Clear 21 1019 68 10000 1.5 120 07:41 29.09.2019
1107 Clear 22 1018 64 10000 1.5 110 07:23 29.09.2019
1108 Clear 21 1018 68 10000 1 0 06:42 29.09.2019
1109 Clear 22 1019 64 0 1.5 260 04:59 29.09.2019
1110 Clear 22 1019 68 10000 1 0 04:25 29.09.2019
1111 Clear 22 1019 64 10000 1.5 260 03:55 29.09.2019
1112 Clear 24 1020 57 10000 2.1 270 02:45 29.09.2019
1113 Clear 24 1020 57 10000 2.1 270 02:18 29.09.2019
1114 Clear 24 1020 57 10000 2.1 250 01:30 29.09.2019
1115 Clear 25 1020 53 10000 2.6 240 00:47 29.09.2019
1116 Clear 26 1020 50 10000 3.1 240 00:20 29.09.2019
1117 Clear 27 1020 47 10000 3.6 230 23:42 28.09.2019
1118 Clouds 27 1019 47 10000 4.6 230 23:22 28.09.2019
1119 Clouds 27 1019 44 10000 2.1 280 22:57 28.09.2019
1120 Clouds 27 1019 44 10000 2.1 280 22:38 28.09.2019
1121 Clouds 28 1019 39 10000 2.6 250 22:20 28.09.2019
1122 Clouds 30 1018 35 10000 2.6 260 21:56 28.09.2019
1123 Clouds 31 1018 33 10000 3.1 260 21:37 28.09.2019
1124 Clouds 31 1018 33 10000 3.1 260 21:19 28.09.2019
1125 Clouds 31 1018 33 10000 3.1 260 21:19 28.09.2019
1126 Clouds 33 1017 27 10000 3.6 260 20:57 28.09.2019
1127 Clouds 33 1017 27 10000 3.6 260 20:57 28.09.2019
1128 Clouds 35 1017 21 10000 4.1 270 20:37 28.09.2019
1129 Clouds 35 1017 21 10000 4.1 270 20:18 28.09.2019
1130 Clouds 37 1017 17 10000 5.1 260 19:55 28.09.2019
1131 Clouds 37 1017 17 10000 5.1 260 19:36 28.09.2019
1132 Clouds 37 1017 17 10000 5.1 260 19:18 28.09.2019
1133 Clouds 38 1017 16 0 5.7 270 18:42 28.09.2019
1134 Clouds 38 1017 16 10000 4.6 270 18:22 28.09.2019
1135 Clouds 38 1017 16 10000 4.6 280 17:59 28.09.2019
1136 Clouds 38 1017 16 10000 4.6 280 17:40 28.09.2019
1137 Clouds 38 1017 16 10000 4.6 280 17:21 28.09.2019
1138 Clouds 38 1017 16 10000 3.1 320 16:55 28.09.2019
1139 Clouds 37 1017 17 10000 2.1 0 16:37 28.09.2019
1140 Clouds 37 1017 17 10000 2.1 0 16:18 28.09.2019
1141 Clouds 38 1017 19 10000 2.6 300 15:40 28.09.2019
1142 Clouds 37 1018 18 10000 2.1 330 15:21 28.09.2019
1143 Clouds 37 1018 25 10000 2.1 330 14:55 28.09.2019
1144 Clouds 37 1018 25 10000 2.1 330 14:37 28.09.2019
1145 Clouds 34 1019 28 10000 2.1 360 14:18 28.09.2019
1146 Clouds 34 1019 28 10000 2.1 0 13:43 28.09.2019
1147 Clouds 33 1019 29 10000 2.1 330 13:20 28.09.2019
1148 Clouds 33 1019 31 10000 1 0 12:57 28.09.2019
1149 Clouds 33 1019 31 10000 1 0 12:39 28.09.2019
1150 Clear 32 1020 29 10000 1 0 12:18 28.09.2019
1151 Clear 29 1019 42 10000 1 0 11:41 28.09.2019
1152 Clear 29 1019 42 10000 1 0 11:20 28.09.2019
1153 Clear 29 1019 42 10000 1 0 11:20 28.09.2019
1154 Clear 26 1019 47 10000 1.5 70 10:56 28.09.2019
1155 Clear 26 1019 47 10000 1.5 70 10:38 28.09.2019
1156 Clear 21 1019 64 10000 1.5 60 10:18 28.09.2019
1157 Clear 22 1019 64 10000 1.5 70 09:41 28.09.2019
1158 Clear 20 1018 68 10000 1.5 70 09:20 28.09.2019
1159 Clear 21 1018 64 10000 1.5 70 08:48 28.09.2019
1160 Clear 21 1018 64 10000 1 0 08:29 28.09.2019
1161 Clear 21 1018 64 10000 0.5 0 07:59 28.09.2019
1162 Clear 21 1018 64 10000 0.5 0 07:41 28.09.2019
1163 Clear 20 1018 68 10000 1.5 240 07:19 28.09.2019
1164 Clear 20 1018 68 10000 1.5 240 06:41 28.09.2019
1165 Clear 20 1018 68 0 2.1 260 06:21 28.09.2019
1166 Clear 23 1017 47 0 1.49 303.156 05:37 28.09.2019
1167 Clear 23 1018 60 10000 2.6 270 05:18 28.09.2019
1168 Clear 23 1018 60 10000 2.6 270 04:31 28.09.2019
1169 Clear 23 1017 47 0 1.49 303.156 03:42 28.09.2019
1170 Clear 24 1018 57 10000 1.5 260 03:18 28.09.2019
1171 Clear 24 1018 57 10000 1.5 260 02:41 28.09.2019
1172 Clear 25 1018 50 10000 1.5 270 02:23 28.09.2019
1173 Clear 26 1019 47 10000 1 270 01:43 28.09.2019
1174 Clear 28 1019 42 0 1.5 220 01:23 28.09.2019
1175 Clear 28 1019 42 10000 2.6 220 00:48 28.09.2019
1176 Clear 28 1019 42 10000 2.1 240 00:29 28.09.2019
1177 Clear 29 1019 35 10000 1 0 23:39 27.09.2019
1178 Clouds 30 1019 37 10000 1 0 23:21 27.09.2019
1179 Clouds 31 1019 33 10000 1.5 10 22:57 27.09.2019
1180 Clouds 31 1019 33 10000 1.5 10 22:38 27.09.2019
1181 Clouds 32 1019 31 10000 3.1 20 22:18 27.09.2019
1182 Clouds 34 1018 23 10000 2.6 340 21:54 27.09.2019
1183 Clouds 34 1018 23 10000 2.6 340 21:36 27.09.2019
1184 Clouds 34 1018 23 10000 2.6 340 21:18 27.09.2019
1185 Clouds 35 1018 21 10000 2.6 330 20:41 27.09.2019
1186 Clouds 36 1017 19 10000 3.6 290 20:20 27.09.2019
1187 Clouds 36 1017 19 10000 3.6 290 19:58 27.09.2019
1188 Clouds 36 1017 19 10000 3.6 290 19:39 27.09.2019
1189 Clouds 37 1017 19 10000 4.6 280 19:21 27.09.2019
1190 Clouds 37 1017 19 10000 5.7 270 18:43 27.09.2019
1191 Clouds 38 1017 21 10000 4.1 270 18:25 27.09.2019
1192 Clouds 37 1017 22 10000 4.1 250 17:58 27.09.2019
1193 Clouds 37 1017 22 10000 4.1 250 17:40 27.09.2019
1194 Clouds 38 1017 19 10000 3.6 250 17:20 27.09.2019
1195 Clouds 38 1017 19 10000 3.6 250 16:58 27.09.2019
1196 Clouds 38 1017 19 10000 3.6 250 16:40 27.09.2019
1197 Clouds 38 1017 21 10000 2.1 360 16:19 27.09.2019
1198 Clouds 38 1017 21 10000 2.1 360 16:19 27.09.2019
1199 Clouds 36 1017 22 10000 2.6 0 15:55 27.09.2019
1200 Clouds 35 1018 26 10000 3.6 320 15:36 27.09.2019
1201 Clouds 35 1018 26 10000 3.6 320 15:36 27.09.2019
1202 Clouds 35 1018 26 10000 3.6 320 15:18 27.09.2019
1203 Clouds 33 1018 31 10000 3.1 320 14:41 27.09.2019
1204 Clouds 33 1019 31 10000 2.6 310 14:23 27.09.2019
1205 Clouds 33 1019 31 10000 2.6 310 14:23 27.09.2019
1206 Clouds 32 1019 35 10000 2.6 330 13:59 27.09.2019
1207 Clouds 32 1019 35 10000 2.6 330 13:40 27.09.2019
1208 Clouds 31 1019 38 10000 2.1 330 13:21 27.09.2019
1209 Clouds 29 1020 39 10000 1.5 340 12:57 27.09.2019
1210 Clouds 29 1020 39 10000 1.5 340 12:38 27.09.2019
1211 Clouds 29 1020 39 10000 1.5 340 12:19 27.09.2019
1212 Clear 28 1020 42 10000 1 0 11:39 27.09.2019
1213 Clear 28 1020 42 10000 1 0 11:39 27.09.2019
1214 Clear 28 1020 42 10000 1 0 11:39 27.09.2019
1215 Clear 26 1020 47 10000 1.5 120 11:20 27.09.2019
1216 Clear 26 1020 47 10000 1.5 120 11:20 27.09.2019
1217 Clear 25 1020 50 10000 1 0 10:55 27.09.2019
1218 Clear 23 1019 56 10000 1 0 10:37 27.09.2019
1219 Clear 23 1019 56 10000 1 0 10:37 27.09.2019
1220 Clear 23 1019 56 10000 1 0 10:37 27.09.2019
1221 Clear 23 1019 56 10000 1 0 10:18 27.09.2019
1222 Clear 21 1019 60 10000 1 0 09:41 27.09.2019
1223 Clear 20 1019 60 10000 1 300 09:20 27.09.2019
1224 Clear 20 1019 60 10000 1 300 08:55 27.09.2019
1225 Clear 22 1019 56 10000 1 280 08:37 27.09.2019
1226 Clear 22 1019 56 10000 1 280 08:19 27.09.2019
1227 Clear 22 1019 56 10000 1 280 07:45 27.09.2019
1228 Clear 20 1019 64 10000 1.5 220 07:21 27.09.2019
1229 Clear 20 1019 64 10000 1.5 220 06:41 27.09.2019
1230 Clear 20 1019 64 10000 1.5 230 06:22 27.09.2019
1231 Clear 21 1019 60 10000 1.03 281.375 05:49 27.09.2019
1232 Clear 22 1019 56 10000 2.6 230 05:30 27.09.2019
1233 Clear 23 1019 56 10000 2.6 240 03:53 27.09.2019
1234 Clear 24 1019 53 10000 3.1 250 01:58 27.09.2019
1235 Clear 25 1019 53 10000 2.1 250 01:35 27.09.2019
1236 Clear 25 1019 53 10000 2.6 260 00:55 27.09.2019
1237 Clear 25 1019 53 10000 2.6 260 00:55 27.09.2019
1238 Clear 28 1019 39 10000 3.1 230 00:19 27.09.2019
1239 Clear 28 1019 39 10000 3.1 230 23:55 26.09.2019
1240 Clear 28 1019 39 10000 3.1 230 23:55 26.09.2019
1241 Clear 29 1019 35 10000 1 0 23:37 26.09.2019
1242 Clear 29 1019 35 10000 1 0 23:18 26.09.2019
1243 Clear 29 1019 35 10000 1 0 23:18 26.09.2019
1244 Clouds 31 1018 31 10000 2.6 260 22:55 26.09.2019
1245 Clouds 31 1018 31 10000 2.6 260 22:36 26.09.2019
1246 Clouds 31 1018 31 10000 2.6 260 22:18 26.09.2019
1247 Clouds 31 1018 31 10000 2.6 260 21:54 26.09.2019
1248 Clouds 35 1017 26 10000 4.1 240 21:36 26.09.2019
1249 Clouds 35 1017 26 10000 4.1 240 21:18 26.09.2019
1250 Clouds 35 1017 26 10000 4.1 240 20:55 26.09.2019
1251 Clouds 35 1017 26 10000 4.1 240 20:37 26.09.2019
1252 Clouds 35 1017 26 10000 4.1 240 20:19 26.09.2019
1253 Clouds 35 1017 26 10000 4.1 240 20:19 26.09.2019
1254 Clouds 36 1017 23 10000 4.6 260 19:40 26.09.2019
1255 Clouds 37 1017 25 10000 3.1 220 19:18 26.09.2019
1256 Clouds 37 1016 25 10000 4.6 240 18:58 26.09.2019
1257 Clouds 37 1016 25 10000 4.6 240 18:38 26.09.2019
1258 Clouds 37 1016 25 10000 4.6 240 18:38 26.09.2019
1259 Clouds 38 1016 24 10000 5.1 260 18:20 26.09.2019
1260 Clouds 38 1016 24 10000 3.6 280 17:39 26.09.2019
1261 Clouds 38 1016 24 10000 3.6 280 17:19 26.09.2019
1262 Clouds 38 1016 25 10000 4.1 280 16:59 26.09.2019
1263 Clouds 38 1016 25 10000 4.1 280 16:39 26.09.2019
1264 Clouds 38 1016 22 10000 2.1 310 16:20 26.09.2019
1265 Clouds 38 1016 22 10000 2.1 310 16:20 26.09.2019
1266 Clouds 37 1017 20 10000 2.6 310 15:57 26.09.2019
1267 Clouds 37 1017 20 10000 2.6 310 15:37 26.09.2019
1268 Clouds 36 1017 23 10000 3.6 300 15:18 26.09.2019
1269 Clouds 36 1017 23 10000 3.6 300 14:55 26.09.2019
1270 Clouds 36 1017 23 10000 3.6 300 14:55 26.09.2019
1271 Clouds 36 1017 23 10000 3.6 300 14:55 26.09.2019
1272 Clouds 36 1017 23 10000 3.6 300 14:55 26.09.2019
1273 Clouds 35 1017 28 10000 2.6 300 14:37 26.09.2019
1274 Clouds 35 1017 28 10000 2.6 300 14:18 26.09.2019
1275 Clouds 34 1018 30 10000 2.1 330 13:40 26.09.2019
1276 Clouds 33 1018 31 10000 1.5 330 13:20 26.09.2019
1277 Clouds 31 1018 38 10000 2.1 310 12:56 26.09.2019
1278 Clouds 31 1018 38 10000 2.1 310 12:38 26.09.2019
1279 Clouds 30 1018 40 10000 2.1 320 12:19 26.09.2019
1280 Clear 28 1018 45 10000 2.1 50 11:42 26.09.2019
1281 Clear 28 1018 45 10000 0.5 0 11:21 26.09.2019
1282 Clear 26 1018 57 10000 2.1 70 10:56 26.09.2019
1283 Clear 26 1018 57 10000 2.1 70 10:56 26.09.2019
1284 Clear 26 1018 57 10000 2.1 70 10:38 26.09.2019
1285 Clear 24 1017 60 10000 2.6 80 10:19 26.09.2019
1286 Clear 23 1017 60 10000 1.5 70 09:43 26.09.2019
1287 Clear 20 1017 72 10000 1.5 80 09:25 26.09.2019
1288 Clear 20 1017 72 10000 1.5 80 08:56 26.09.2019
1289 Clear 20 1017 72 10000 1 50 08:38 26.09.2019
1290 Clear 20 1017 72 10000 1 50 08:19 26.09.2019
1291 Clear 21 1016 68 10000 1.01 323.164 07:41 26.09.2019
1292 Clear 20 1016 72 10000 0.5 240 07:20 26.09.2019
1293 Clear 20 1017 72 0 1.5 230 06:43 26.09.2019
1294 Clear 22 1016 64 0 1.5 210 06:25 26.09.2019
1295 Clear 21 1016 68 0 2.1 230 05:44 26.09.2019
1296 Clear 21 1017 68 0 2.6 230 05:24 26.09.2019
1297 Clear 24 1017 57 10000 2.1 240 02:50 26.09.2019
1298 Clouds 25 1017 53 9000 2.1 240 01:53 26.09.2019
1299 Clear 26 1018 50 10000 1.23 27.528 01:28 26.09.2019
1300 Clouds 27 1018 47 10000 1.5 40 00:55 26.09.2019
1301 Clouds 27 1018 47 10000 2.1 30 00:37 26.09.2019
1302 Clouds 28 1017 45 10000 3.1 10 23:47 25.09.2019
1303 Clouds 29 1017 39 10000 3.1 350 23:28 25.09.2019
1304 Clouds 30 1017 37 10000 3.1 10 22:58 25.09.2019
1305 Clouds 30 1017 37 10000 3.1 10 22:40 25.09.2019
1306 Clouds 31 1016 31 10000 3.1 20 22:20 25.09.2019
1307 Clouds 32 1016 29 10000 4.1 20 21:57 25.09.2019
1308 Clouds 32 1016 29 10000 4.1 20 21:38 25.09.2019
1309 Clouds 34 1016 20 10000 3.6 350 21:19 25.09.2019
1310 Clouds 35 1015 17 10000 3.1 350 20:57 25.09.2019
1311 Clouds 35 1015 17 10000 3.1 350 20:39 25.09.2019
1312 Clouds 36 1015 18 10000 3.1 330 20:20 25.09.2019
1313 Clouds 36 1015 18 10000 4.1 330 19:43 25.09.2019
1314 Clouds 36 1015 18 10000 4.1 340 19:25 25.09.2019
1315 Clouds 38 1015 19 10000 3.1 340 18:58 25.09.2019
1316 Clouds 39 1015 21 10000 3.1 340 18:39 25.09.2019
1317 Clouds 39 1015 21 10000 3.1 340 18:21 25.09.2019
1318 Clouds 39 1015 21 10000 3.1 340 17:59 25.09.2019
1319 Clouds 38 1015 21 10000 3.6 310 17:38 25.09.2019
1320 Clouds 38 1015 21 10000 3.6 310 17:19 25.09.2019
1321 Clouds 38 1015 21 10000 3.6 310 17:19 25.09.2019
1322 Clouds 38 1015 22 0 2.6 0 16:45 25.09.2019
1323 Clouds 38 1015 21 10000 2.1 0 16:27 25.09.2019
1324 Clouds 36 1016 23 10000 2.6 340 15:59 25.09.2019
1325 Clouds 36 1016 23 10000 2.6 340 15:40 25.09.2019
1326 Clouds 36 1016 23 10000 2.6 340 15:22 25.09.2019
1327 Clouds 34 1016 24 10000 2.6 30 14:56 25.09.2019
1328 Clouds 34 1016 24 10000 2.6 30 14:56 25.09.2019
1329 Clouds 34 1016 24 10000 2.6 30 14:38 25.09.2019
1330 Clouds 34 1017 26 10000 2.1 0 14:20 25.09.2019
1331 Clouds 32 1017 29 10000 2.6 0 13:41 25.09.2019
1332 Clear 33 1018 27 10000 1.5 30 13:22 25.09.2019
1333 Clear 29 1018 35 10000 1 0 12:59 25.09.2019
1334 Clear 29 1018 35 10000 1 0 12:39 25.09.2019
1335 Clear 29 1018 35 10000 1 0 12:21 25.09.2019
1336 Clear 28 1019 37 10000 1 0 11:55 25.09.2019
1337 Clear 27 1018 39 10000 1 0 11:36 25.09.2019
1338 Clear 27 1018 39 10000 1 0 11:18 25.09.2019
1339 Clear 24 1018 47 10000 0.5 0 10:41 25.09.2019
1340 Clear 24 1018 47 10000 0.5 0 10:23 25.09.2019
1341 Clouds 21 1018 52 9000 1.5 230 09:56 25.09.2019
1342 Clouds 21 1018 52 9000 1.5 230 09:37 25.09.2019
1343 Clouds 21 1018 52 9000 1.5 230 09:19 25.09.2019
1344 Clouds 19 1018 59 8000 1 260 08:42 25.09.2019
1345 Clouds 20 1018 56 10000 1 250 08:21 25.09.2019
1346 Clouds 20 1018 56 10000 1 250 08:21 25.09.2019
1347 Clouds 20 1018 56 10000 1.5 240 07:57 25.09.2019
1348 Clouds 20 1018 56 10000 1.5 240 07:38 25.09.2019
1349 Clouds 21 1018 52 10000 1 240 07:19 25.09.2019
1350 Clear 21 1018 52 0 1 240 06:43 25.09.2019
1351 Clouds 21 1018 52 10000 1.5 250 06:22 25.09.2019
1352 Clouds 22 1018 49 10000 1 260 05:28 25.09.2019
1353 Clear 23 1018 46 0 1.18 339.905 04:50 25.09.2019
1354 Clouds 25 1019 41 10000 2.1 230 02:19 25.09.2019
1355 Clouds 27 1019 34 10000 1.5 80 00:45 25.09.2019
1356 Clouds 27 1020 34 10000 1 0 00:25 25.09.2019
1357 Clouds 28 1020 32 10000 2.1 30 23:57 24.09.2019
1358 Clouds 28 1019 32 10000 3.1 30 23:38 24.09.2019
1359 Clouds 28 1019 32 10000 3.1 30 23:19 24.09.2019
1360 Clouds 29 1019 32 10000 2.6 360 22:39 24.09.2019
1361 Clouds 29 1019 32 10000 2.6 360 22:39 24.09.2019
1362 Clouds 30 1019 28 10000 4.1 350 22:20 24.09.2019
1363 Clouds 32 1018 27 10000 3.1 330 21:56 24.09.2019
1364 Clouds 32 1018 27 10000 3.1 330 21:37 24.09.2019
1365 Clouds 34 1018 24 10000 2.6 320 21:19 24.09.2019
1366 Clouds 34 1018 24 10000 2.6 320 20:57 24.09.2019
1367 Clouds 34 1018 24 10000 2.6 320 20:39 24.09.2019
1368 Clouds 36 1017 22 10000 2.6 290 20:20 24.09.2019
1369 Clouds 36 1017 20 10000 2.6 310 19:44 24.09.2019
1370 Clouds 37 1017 20 10000 3.1 300 19:23 24.09.2019
1371 Clouds 37 1017 20 10000 3.1 300 18:59 24.09.2019
1372 Clouds 37 1017 20 10000 3.1 300 18:41 24.09.2019
1373 Clouds 37 1017 20 10000 3.1 300 18:41 24.09.2019
1374 Clouds 37 1017 20 10000 3.1 300 18:22 24.09.2019
1375 Clouds 38 1017 21 10000 1.5 0 17:58 24.09.2019
1376 Clouds 38 1017 21 10000 1.5 0 17:39 24.09.2019
1377 Clouds 38 1017 21 10000 1.5 0 17:39 24.09.2019
1378 Clouds 38 1017 21 10000 1.5 0 17:20 24.09.2019
1379 Clouds 37 1017 22 10000 0.5 0 16:58 24.09.2019
1380 Clouds 37 1017 22 10000 0.5 0 16:40 24.09.2019
1381 Clouds 37 1018 23 10000 1 0 16:19 24.09.2019
1382 Clouds 35 1018 26 10000 2.1 30 15:42 24.09.2019
1383 Clouds 35 1018 26 10000 2.6 50 15:23 24.09.2019
1384 Clouds 33 1019 29 10000 3.6 50 14:45 24.09.2019
1385 Clear 32 1019 35 10000 3.1 20 14:20 24.09.2019
1386 Clear 31 1020 38 10000 2.1 30 13:57 24.09.2019
1387 Clear 31 1020 38 10000 2.1 30 13:38 24.09.2019
1388 Clear 30 1020 40 10000 2.1 20 13:20 24.09.2019
1389 Clear 29 1020 39 10000 1.5 30 12:40 24.09.2019
1390 Clear 27 1020 47 10000 2.1 100 12:21 24.09.2019
1391 Clear 26 1020 44 10000 1 0 11:56 24.09.2019
1392 Clear 26 1020 44 10000 1 0 11:55 24.09.2019
1393 Clear 26 1020 47 10000 1.84 346.205 11:37 24.09.2019
1394 Clear 26 1020 47 10000 1.84 346.205 11:18 24.09.2019
1395 Clear 23 1020 56 10000 1.84 346.205 10:39 24.09.2019
1396 Clear 21 1020 60 10000 1.5 270 10:21 24.09.2019
1397 Clear 20 1020 64 10000 1.5 250 09:55 24.09.2019
1398 Clear 20 1020 64 10000 1.5 250 09:37 24.09.2019
1399 Clear 19 1019 68 10000 1.5 240 09:18 24.09.2019
1400 Clear 18 1019 72 10000 1.5 250 08:41 24.09.2019
1401 Clear 19 1018 68 10000 2.1 230 08:23 24.09.2019
1402 Clear 19 1018 68 10000 2.1 230 07:58 24.09.2019
1403 Clear 19 1018 68 10000 2.1 230 07:39 24.09.2019
1404 Clear 19 1018 68 10000 2.1 240 07:21 24.09.2019
1405 Clear 19 1018 63 10000 1.5 250 06:38 24.09.2019
1406 Clear 19 1018 63 10000 1.5 250 06:19 24.09.2019
1407 Clear 20 1018 64 10000 1 260 05:22 24.09.2019
1408 Clear 21 1019 60 10000 1.5 250 03:46 24.09.2019
1409 Clear 21 1019 60 10000 1 260 03:25 24.09.2019
1410 Clear 22 1019 56 10000 1 240 02:44 24.09.2019
1411 Clouds 23 1020 53 9000 1.5 240 01:41 24.09.2019
1412 Clear 24 1020 50 10000 2.1 70 00:42 24.09.2019
1413 Clouds 24 1020 50 9000 2.1 50 00:22 24.09.2019
1414 Clear 25 1020 47 10000 2.6 60 23:43 23.09.2019
1415 Clear 25 1020 44 10000 3.1 30 23:23 23.09.2019
1416 Clear 26 1019 44 10000 4.1 30 22:41 23.09.2019
1417 Clear 26 1019 44 10000 4.1 30 22:41 23.09.2019
1418 Clouds 27 1019 42 9000 4.6 20 22:22 23.09.2019
1419 Clouds 27 1019 42 9000 4.6 20 22:22 23.09.2019
1420 Clouds 28 1018 39 7000 4.6 10 21:59 23.09.2019
1421 Clouds 28 1018 39 7000 4.6 10 21:41 23.09.2019
1422 Clouds 28 1018 39 7000 4.6 10 21:41 23.09.2019
1423 Clear 31 1018 31 10000 2.6 360 21:22 23.09.2019
1424 Clear 31 1017 29 10000 2.6 10 20:59 23.09.2019
1425 Clear 31 1017 29 10000 2.6 10 20:59 23.09.2019
1426 Clear 31 1017 29 10000 2.6 10 20:40 23.09.2019
1427 Clear 32 1017 27 10000 3.1 360 20:19 23.09.2019
1428 Clear 32 1017 27 10000 3.6 30 19:40 23.09.2019
1429 Clear 32 1017 27 10000 3.6 30 19:40 23.09.2019
1430 Clear 33 1017 27 10000 4.1 20 19:22 23.09.2019
1431 Clear 34 1017 26 10000 4.1 360 18:59 23.09.2019
1432 Clear 34 1017 26 10000 4.1 360 18:41 23.09.2019
1433 Clouds 35 1016 26 10000 3.1 340 18:19 23.09.2019
1434 Clouds 34 1016 28 10000 3.1 30 17:57 23.09.2019
1435 Clouds 34 1016 28 10000 3.1 30 17:39 23.09.2019
1436 Clouds 34 1016 28 10000 3.1 30 17:39 23.09.2019
1437 Clouds 34 1016 28 10000 3.1 30 17:39 23.09.2019
1438 Clouds 35 1017 26 10000 3.1 360 17:20 23.09.2019
1439 Clouds 34 1017 28 10000 2.6 0 16:57 23.09.2019
1440 Clouds 33 1017 29 10000 2.1 340 16:36 23.09.2019
1441 Clouds 33 1017 29 10000 2.1 340 16:18 23.09.2019
1442 Clouds 33 1017 29 10000 1 0 15:56 23.09.2019
1443 Clouds 32 1018 31 10000 2.1 360 15:38 23.09.2019
1444 Clouds 32 1018 31 10000 2.1 360 15:38 23.09.2019
1445 Clouds 32 1018 31 10000 2.1 360 15:18 23.09.2019
1446 Clouds 32 1018 31 10000 2.1 360 15:18 23.09.2019
1447 Clear 31 1018 33 10000 3.6 40 14:40 23.09.2019
1448 Clear 30 1018 37 10000 3.1 10 14:20 23.09.2019
1449 Clear 30 1018 37 10000 3.1 10 14:20 23.09.2019
1450 Clear 29 1018 42 10000 3.1 0 13:58 23.09.2019
1451 Clear 29 1018 42 10000 3.1 0 13:38 23.09.2019
1452 Clear 28 1019 45 10000 2.6 10 13:18 23.09.2019
1453 Clear 28 1019 45 10000 2.6 10 13:18 23.09.2019
1454 Clear 27 1019 51 10000 1.5 10 12:46 23.09.2019
1455 Clear 27 1019 51 10000 1.5 10 12:46 23.09.2019
1456 Clear 27 1020 51 10000 1 0 12:23 23.09.2019
1457 Clear 26 1020 54 10000 1.97 52.207 11:59 23.09.2019
1458 Clear 24 1020 60 10000 0.5 0 11:40 23.09.2019
1459 Clear 24 1020 60 10000 0.5 0 11:22 23.09.2019
1460 Clear 23 1020 60 10000 1.5 170 10:49 23.09.2019
1461 Clear 21 1019 73 10000 2.1 220 10:22 23.09.2019
1462 Clear 21 1019 73 10000 2.1 220 10:22 23.09.2019
1463 Clear 20 1019 72 10000 2.1 220 09:59 23.09.2019
1464 Clear 20 1019 72 10000 2.1 220 09:38 23.09.2019
1465 Clear 19 1019 77 10000 1.5 250 09:20 23.09.2019
1466 Clear 19 1018 77 10000 1.5 230 08:47 23.09.2019
1467 Clear 18 1018 82 10000 1 240 08:28 23.09.2019
1468 Clear 18 1018 77 10000 1 240 07:57 23.09.2019
1469 Clear 19 1018 77 10000 2.1 240 07:28 23.09.2019
1470 Clear 21 1017 68 10000 1 230 06:37 23.09.2019
1471 Clouds 21 1017 68 0 1 40 05:51 23.09.2019
1472 Clouds 21 1017 68 0 1.5 20 05:21 23.09.2019
1473 Clouds 21 1017 68 0 2.6 60 04:54 23.09.2019
1474 Clear 22 1018 64 10000 2.6 60 02:42 23.09.2019
1475 Clear 23 1018 64 10000 3.6 50 00:46 23.09.2019
1476 Clear 24 1018 60 10000 4.6 40 00:22 23.09.2019
1477 Clear 24 1018 60 10000 4.1 30 23:52 22.09.2019
1478 Clear 25 1018 57 10000 5.7 20 23:32 22.09.2019
1479 Clear 26 1018 54 10000 5.7 20 22:58 22.09.2019
1480 Clear 26 1018 54 10000 5.7 20 22:40 22.09.2019
1481 Clear 26 1018 54 10000 5.1 10 22:40 22.09.2019
1482 Clear 26 1018 54 10000 5.1 10 22:21 22.09.2019
1483 Clear 29 1017 28 10000 3.6 360 21:43 22.09.2019
1484 Clear 30 1017 28 10000 2.6 350 21:22 22.09.2019
1485 Clear 30 1017 28 10000 2.6 350 21:22 22.09.2019
1486 Clear 30 1017 28 10000 2.6 350 21:22 22.09.2019
1487 Clear 30 1017 28 10000 2.6 350 20:58 22.09.2019
1488 Clear 31 1016 27 10000 2.1 320 20:40 22.09.2019
1489 Clear 31 1016 27 10000 2.1 320 20:22 22.09.2019
1490 Clear 31 1016 27 10000 3.1 330 19:42 22.09.2019
1491 Clear 31 1016 27 10000 3.1 330 19:42 22.09.2019
1492 Clear 33 1016 24 10000 1.5 310 19:23 22.09.2019
1493 Clear 33 1016 26 10000 1 0 18:59 22.09.2019
1494 Clear 33 1016 26 10000 1 0 18:40 22.09.2019
1495 Clear 32 1016 25 10000 2.1 0 18:20 22.09.2019
1496 Clear 32 1016 25 10000 2.1 300 17:58 22.09.2019
1497 Clear 32 1016 25 10000 2.1 300 17:58 22.09.2019
1498 Clear 32 1016 25 10000 2.1 300 17:40 22.09.2019
1499 Clear 32 1016 24 10000 2.1 330 17:19 22.09.2019
1500 Clear 31 1016 27 10000 2.6 40 16:45 22.09.2019
1501 Clear 32 1017 24 10000 2.1 0 16:26 22.09.2019
1502 Clear 31 1017 27 10000 2.1 40 15:56 22.09.2019
1503 Clear 31 1017 27 10000 2.1 40 15:38 22.09.2019
1504 Clear 30 1017 30 10000 1 0 15:19 22.09.2019
1505 Clear 30 1018 33 10000 1 0 14:43 22.09.2019
1506 Clear 28 1018 42 10000 1 0 14:25 22.09.2019
1507 Clear 27 1018 44 10000 1.5 0 13:57 22.09.2019
1508 Clear 27 1018 44 10000 1.5 0 13:39 22.09.2019
1509 Clear 27 1018 44 10000 1.5 0 13:39 22.09.2019
1510 Clear 28 1019 45 10000 1 0 13:21 22.09.2019
1511 Clear 26 1019 50 10000 1.5 350 12:44 22.09.2019
1512 Clear 26 1019 54 10000 1.5 340 12:24 22.09.2019
1513 Clear 25 1018 57 10000 2.1 350 11:57 22.09.2019
1514 Clear 25 1018 57 10000 2.1 350 11:38 22.09.2019
1515 Clear 25 1018 57 10000 2.1 350 11:38 22.09.2019
1516 Clear 23 1018 64 10000 2.1 350 11:20 22.09.2019
1517 Clear 23 1018 64 10000 1 0 10:44 22.09.2019
1518 Clear 21 1018 73 10000 1 0 10:20 22.09.2019
1519 Clear 20 1018 77 10000 2.1 230 09:57 22.09.2019
1520 Clouds 19 1018 82 10000 2.1 240 09:38 22.09.2019
1521 Clouds 19 1018 82 10000 2.1 240 09:19 22.09.2019
1522 Clouds 19 1018 82 10000 2.1 260 08:45 22.09.2019
1523 Clouds 20 1017 77 10000 1 270 08:24 22.09.2019
1524 Clouds 20 1017 77 10000 1 270 08:24 22.09.2019
1525 Clouds 20 1017 77 10000 1 270 07:55 22.09.2019
1526 Clear 21 1017 73 10000 1 0 07:36 22.09.2019
1527 Clear 21 1017 73 10000 1 0 07:18 22.09.2019
1528 Clear 21 1017 73 10000 1.5 70 06:53 22.09.2019
1529 Clear 21 1017 73 10000 1.5 110 05:26 22.09.2019
1530 Clear 21 1018 73 10000 2.6 320 03:31 22.09.2019
1531 Clear 20 1018 77 10000 3.1 290 02:37 22.09.2019
1532 Clear 20 1018 77 10000 3.6 270 02:18 22.09.2019
1533 Clear 22 1017 64 10000 3.1 240 00:59 22.09.2019
1534 Clear 23 1017 56 10000 3.1 230 00:33 22.09.2019
1535 Clear 23 1017 53 10000 2.6 240 23:58 21.09.2019
1536 Clear 23 1017 53 10000 2.6 240 23:40 21.09.2019
1537 Clear 24 1017 50 10000 3.1 260 23:19 21.09.2019
1538 Clouds 26 1017 44 10000 3.6 300 22:39 21.09.2019
1539 Clouds 26 1016 39 10000 3.6 260 22:21 21.09.2019
1540 Clouds 27 1016 34 10000 3.1 260 21:42 21.09.2019
1541 Clouds 28 1015 32 10000 4.1 260 21:20 21.09.2019
1542 Clouds 30 1015 28 10000 4.1 260 20:58 21.09.2019
1543 Clouds 30 1015 28 10000 4.1 260 20:58 21.09.2019
1544 Clouds 30 1015 28 10000 4.1 260 20:38 21.09.2019
1545 Clouds 30 1015 28 10000 4.1 260 20:38 21.09.2019
1546 Clouds 31 1015 27 10000 4.6 270 20:19 21.09.2019
1547 Clouds 31 1015 27 10000 4.6 270 20:19 21.09.2019
1548 Clouds 32 1015 27 10000 3.1 300 19:46 21.09.2019
1549 Clouds 31 1015 29 10000 4.1 240 19:23 21.09.2019
1550 Clouds 32 1015 27 10000 4.1 280 18:55 21.09.2019
1551 Clouds 31 1015 29 10000 4.6 270 18:36 21.09.2019
1552 Clouds 31 1015 29 10000 4.6 270 18:18 21.09.2019
1553 Clouds 32 1014 25 10000 4.6 300 17:39 21.09.2019
1554 Clouds 32 1014 25 10000 4.6 300 17:19 21.09.2019
1555 Clouds 32 1015 24 10000 4.6 270 16:43 21.09.2019
1556 Clouds 32 1015 24 10000 3.6 270 16:24 21.09.2019
1557 Clouds 31 1015 27 10000 3.1 310 15:48 21.09.2019
1558 Clouds 31 1015 29 10000 3.6 310 15:25 21.09.2019
1559 Clouds 30 1015 27 10000 3.1 310 14:51 21.09.2019
1560 Clouds 29 1016 37 10000 2.6 310 14:32 21.09.2019
1561 Clouds 29 1016 39 10000 2.1 320 13:58 21.09.2019
1562 Clouds 29 1016 39 10000 2.1 320 13:40 21.09.2019
1563 Clouds 29 1016 39 10000 2.1 320 13:40 21.09.2019
1564 Clouds 28 1016 45 10000 1.5 0 13:22 21.09.2019
1565 Clouds 26 1016 50 10000 2.1 260 12:57 21.09.2019
1566 Clouds 25 1016 53 10000 2.1 310 12:38 21.09.2019
1567 Clouds 25 1016 53 10000 2.1 310 12:20 21.09.2019
1568 Clouds 25 1016 53 0 1.5 280 11:47 21.09.2019
1569 Clouds 23 1016 60 10000 1.5 260 11:24 21.09.2019
1570 Clouds 23 1016 60 10000 0.5 0 10:55 21.09.2019
1571 Clouds 21 1016 68 10000 1 0 10:37 21.09.2019
1572 Clouds 21 1016 68 10000 1 0 10:18 21.09.2019
1573 Clouds 20 1016 68 10000 1 0 09:40 21.09.2019
1574 Clouds 19 1016 77 10000 2.1 190 09:21 21.09.2019
1575 Clear 18 1015 77 10000 2.6 210 08:59 21.09.2019
1576 Clear 18 1015 77 10000 2.6 210 08:40 21.09.2019
1577 Clear 17 1016 82 10000 2.6 220 07:43 21.09.2019
1578 Clear 17 1015 82 10000 2.1 240 07:24 21.09.2019
1579 Clear 17 1015 77 10000 1.5 240 06:59 21.09.2019
1580 Clear 17 1015 77 10000 1.5 240 06:59 21.09.2019
1581 Clear 17 1015 77 10000 1.5 250 06:34 21.09.2019
1582 Clear 17 1014 77 10000 1.5 250 05:51 21.09.2019
1583 Clear 19 1014 72 10000 2.6 230 04:37 21.09.2019
1584 Clear 20 1014 68 10000 3.1 230 03:22 21.09.2019
1585 Clear 22 1015 60 10000 3.6 220 02:22 21.09.2019
1586 Clear 22 1015 56 10000 3.6 220 01:46 21.09.2019
1587 Clear 22 1015 60 10000 2.6 240 00:52 21.09.2019
1588 Clouds 23 1015 56 10000 2.6 230 00:22 21.09.2019
1589 Clouds 24 1016 50 10000 2.1 240 23:48 20.09.2019
1590 Clouds 25 1016 47 0 3.1 250 23:29 20.09.2019
1591 Clouds 26 1015 39 0 1 240 22:43 20.09.2019
1592 Clouds 27 1015 36 10000 1 240 22:24 20.09.2019
1593 Clouds 28 1015 34 10000 2.1 240 21:57 20.09.2019
1594 Clouds 28 1015 34 10000 2.1 240 21:39 20.09.2019
1595 Clouds 28 1015 34 10000 2.1 230 21:20 20.09.2019
1596 Clouds 28 1015 34 10000 2.6 240 20:58 20.09.2019
1597 Clouds 28 1015 34 10000 2.6 240 20:38 20.09.2019
1598 Clouds 29 1015 32 10000 3.1 250 20:19 20.09.2019
1599 Clouds 29 1015 30 10000 3.1 230 19:45 20.09.2019
1600 Clouds 30 1015 28 10000 3.1 250 19:27 20.09.2019
1601 Clouds 30 1015 28 10000 4.1 250 18:58 20.09.2019
1602 Clouds 30 1015 33 10000 3.1 250 18:38 20.09.2019
1603 Clouds 30 1015 33 10000 3.1 250 18:18 20.09.2019
1604 Clouds 29 1015 35 10000 3.6 260 17:46 20.09.2019
1605 Clouds 29 1015 37 10000 4.1 290 17:27 20.09.2019
1606 -273 0 0 0 0 0 16:54 20.09.2019
1607 -273 0 0 0 0 0 16:54 20.09.2019
1608 Clouds 29 1015 37 10000 4.1 290 16:36 20.09.2019
1609 Clouds 29 1015 37 10000 4.1 290 16:18 20.09.2019
1610 Clouds 30 1015 37 10000 3.6 320 15:41 20.09.2019
1611 Clouds 30 1015 37 10000 3.6 320 15:22 20.09.2019
1612 Clouds 30 1015 37 10000 1.5 320 14:44 20.09.2019
1613 Clouds 29 1015 39 10000 1 0 14:20 20.09.2019
1614 Clouds 29 1015 39 10000 1 0 14:20 20.09.2019
1615 Clouds 29 1015 39 10000 1 0 13:59 20.09.2019
1616 Clouds 28 1016 45 10000 2.6 320 13:40 20.09.2019
1617 Clouds 27 1016 47 10000 2.1 290 13:21 20.09.2019
1618 Clouds 27 1016 47 10000 2.1 290 12:40 20.09.2019
1619 Clouds 26 1016 50 10000 2.1 270 12:22 20.09.2019
1620 Clouds 25 1016 53 10000 1.5 280 11:51 20.09.2019
1621 Clouds 24 1016 57 10000 1 0 11:25 20.09.2019
1622 Clouds 22 1016 64 10000 1.5 220 10:58 20.09.2019
1623 Clouds 22 1016 64 10000 1.5 220 10:58 20.09.2019
1624 Clouds 22 1016 64 10000 1.5 220 10:40 20.09.2019
1625 Clouds 21 1016 68 10000 1.5 240 10:21 20.09.2019
1626 Clear 20 1015 68 10000 2.1 270 09:38 20.09.2019
1627 Clear 18 1015 72 10000 0.5 260 09:19 20.09.2019
1628 Clear 18 1015 72 10000 0.5 260 09:19 20.09.2019
1629 Clear 18 1015 72 10000 0.5 260 08:47 20.09.2019
1630 Clear 18 1015 72 10000 0.5 260 08:28 20.09.2019
1631 Clear 18 1015 77 10000 1.5 270 07:51 20.09.2019
1632 Clear 19 1014 72 10000 1 0 07:29 20.09.2019
1633 Clouds 19 1015 72 8000 1.5 240 06:59 20.09.2019
1634 Clouds 19 1015 72 8000 1.5 240 06:40 20.09.2019
1635 Clear 20 1015 68 10000 2.1 230 05:59 20.09.2019
1636 Clear 20 1016 68 10000 2.1 230 04:29 20.09.2019
1637 Clear 22 1016 60 5000 2.6 220 03:26 20.09.2019
1638 Clouds 23 1017 56 7000 3.1 230 01:58 20.09.2019
1639 Clouds 23 1017 56 10000 2.6 230 01:37 20.09.2019
1640 Clouds 25 1017 47 10000 1.5 90 00:33 20.09.2019
1641 Clouds 26 1017 47 10000 2.1 50 23:46 19.09.2019
1642 Clouds 26 1016 44 10000 3.6 30 23:28 19.09.2019
1643 Clouds 27 1016 42 10000 3.1 20 22:59 19.09.2019
1644 Clouds 28 1016 39 10000 4.1 350 22:39 19.09.2019
1645 Clouds 28 1016 39 10000 4.1 350 22:21 19.09.2019
1646 Clouds 30 1015 33 10000 4.1 350 21:57 19.09.2019
1647 Clouds 30 1015 33 10000 4.1 350 21:38 19.09.2019
1648 Clouds 31 1014 27 10000 2.6 310 21:19 19.09.2019
1649 Clouds 32 1014 24 10000 3.1 250 20:43 19.09.2019
1650 Clouds 34 1014 21 10000 3.1 300 20:23 19.09.2019
1651 Clouds 34 1014 21 10000 3.1 300 19:58 19.09.2019
1652 Clouds 35 1014 20 10000 3.1 270 19:39 19.09.2019
1653 Clouds 35 1014 20 10000 3.1 270 19:21 19.09.2019
1654 Clouds 35 1014 20 10000 4.1 260 18:56 19.09.2019
1655 Clouds 35 1014 20 10000 4.6 290 18:38 19.09.2019
1656 Clouds 35 1014 20 10000 4.6 290 18:19 19.09.2019
1657 Clouds 35 1014 21 8000 2.6 310 17:42 19.09.2019
1658 Clouds 35 1014 21 8000 2.6 310 17:23 19.09.2019
1659 Clear 35 1014 23 10000 2.6 240 16:59 19.09.2019
1660 Clear 35 1014 23 10000 2.6 240 16:39 19.09.2019
1661 Clear 35 1014 24 10000 2.6 310 16:19 19.09.2019
1662 Clear 34 1014 28 10000 2.1 0 15:39 19.09.2019
1663 Clear 33 1015 27 10000 2.6 340 15:21 19.09.2019
1664 Clear 32 1015 29 10000 2.6 350 14:57 19.09.2019
1665 Clear 32 1015 29 10000 2.6 350 14:38 19.09.2019
1666 Clear 31 1015 31 10000 2.1 360 14:18 19.09.2019
1667 Clear 31 1015 31 10000 2.1 360 14:18 19.09.2019
1668 Clear 30 1016 35 10000 2.1 0 13:40 19.09.2019
1669 Clear 28 1016 42 10000 2.6 30 13:20 19.09.2019
1670 Clear 28 1016 42 10000 1.5 340 12:40 19.09.2019
1671 Clear 28 1016 42 10000 1.5 340 12:40 19.09.2019
1672 Clear 25 1017 53 10000 0.5 0 12:20 19.09.2019
1673 Clear 25 1017 53 10000 0.5 0 11:59 19.09.2019
1674 Clear 25 1017 53 10000 0.5 0 11:40 19.09.2019
1675 Clear 25 1017 53 10000 0.5 0 11:21 19.09.2019
1676 Clear 23 1017 56 8000 1 0 10:57 19.09.2019
1677 Clear 23 1016 58 0 1.57 352.866 10:37 19.09.2019
1678 Clear 19 1016 72 10000 1 270 10:18 19.09.2019
1679 Clear 19 1016 72 10000 1 270 09:42 19.09.2019
1680 Clear 19 1016 72 10000 1 270 09:22 19.09.2019
1681 Clear 18 1016 77 10000 1 0 08:56 19.09.2019
1682 Clear 19 1016 72 10000 2.6 230 08:36 19.09.2019
1683 Clear 19 1016 72 10000 2.6 230 08:18 19.09.2019
1684 Clear 18 1016 72 10000 1.5 240 07:42 19.09.2019
1685 Clear 18 1016 72 10000 1 250 07:21 19.09.2019
1686 Clear 18 1016 72 10000 1 250 07:21 19.09.2019
1687 Clear 19 1016 72 10000 2.1 230 06:47 19.09.2019
1688 Clear 20 1016 64 10000 1 260 06:27 19.09.2019
1689 Clear 20 1016 64 10000 1 260 05:52 19.09.2019
1690 Clear 20 1016 64 10000 1.5 240 04:44 19.09.2019
1691 Clear 21 1016 64 10000 1 0 03:51 19.09.2019
1692 Clear 22 1017 60 10000 1.5 240 02:30 19.09.2019
1693 Clear 24 1017 53 10000 1.5 60 01:23 19.09.2019
1694 Clear 24 1017 53 10000 2.6 40 00:50 19.09.2019
1695 Clear 25 1017 50 10000 2.6 30 00:25 19.09.2019
1696 Clear 25 1017 50 10000 2.6 30 00:25 19.09.2019
1697 Clear 26 1017 47 10000 3.1 20 23:42 18.09.2019
1698 Clear 26 1017 47 10000 4.1 10 23:21 18.09.2019
1699 Clear 28 1016 34 10000 4.1 10 22:47 18.09.2019
1700 Clear 29 1016 28 10000 2.6 360 22:23 18.09.2019
1701 Clouds 30 1016 27 10000 2.6 360 21:59 18.09.2019
1702 Clouds 30 1016 27 10000 2.6 360 21:59 18.09.2019
1703 Clouds 30 1016 27 10000 2.6 360 21:41 18.09.2019
1704 Clouds 30 1016 25 10000 1.5 320 21:19 18.09.2019
1705 Clouds 31 1016 23 10000 1.5 300 20:59 18.09.2019
1706 Clouds 31 1016 23 10000 1.5 300 20:40 18.09.2019
1707 Clouds 32 1015 22 10000 1.5 320 20:22 18.09.2019
1708 Clouds 32 1015 24 10000 2.6 300 19:58 18.09.2019
1709 Clouds 32 1015 24 10000 2.6 300 19:58 18.09.2019
1710 Clouds 32 1015 24 10000 2.6 300 19:40 18.09.2019
1711 Clouds 33 1015 22 10000 3.1 330 19:19 18.09.2019
1712 Clouds 33 1015 24 10000 3.1 300 18:56 18.09.2019
1713 Clouds 33 1015 26 10000 3.1 320 18:37 18.09.2019
1714 Clouds 33 1015 26 10000 3.1 320 18:19 18.09.2019
1715 Clouds 32 1015 29 10000 2.6 340 17:58 18.09.2019
1716 Clouds 34 1015 23 10000 2.1 0 17:39 18.09.2019
1717 Clouds 34 1015 23 10000 2.1 0 17:19 18.09.2019
1718 Clouds 32 1015 27 10000 2.6 350 16:56 18.09.2019
1719 Clouds 32 1015 27 10000 2.6 350 16:38 18.09.2019
1720 Clouds 32 1016 29 10000 1.5 0 16:19 18.09.2019
1721 Clouds 32 1016 31 10000 1.5 260 15:55 18.09.2019
1722 Clouds 30 1016 37 10000 1.5 0 15:37 18.09.2019
1723 Clouds 30 1016 37 10000 1.5 0 15:19 18.09.2019
1724 Clouds 30 1016 40 10000 1.5 0 14:57 18.09.2019
1725 Clouds 30 1016 40 10000 1.5 0 14:39 18.09.2019
1726 Clouds 29 1017 42 10000 1 0 14:21 18.09.2019
1727 Clouds 26 1017 54 10000 2.1 300 13:44 18.09.2019
1728 Clouds 26 1017 54 10000 2.1 300 13:19 18.09.2019
1729 Clouds 25 1018 61 10000 1 0 12:56 18.09.2019
1730 Clouds 25 1018 61 10000 1 0 12:37 18.09.2019
1731 Clouds 25 1018 61 10000 1 0 12:18 18.09.2019
1732 Clouds 21 1018 73 9000 2.1 220 11:40 18.09.2019
1733 Clouds 21 1018 73 9000 2.1 220 11:20 18.09.2019
1734 Clouds 20 1018 77 9000 2.6 220 10:41 18.09.2019
1735 Clouds 19 1017 82 9000 3.1 230 10:23 18.09.2019
1736 Clouds 19 1017 82 9000 3.1 230 10:23 18.09.2019
1737 Clouds 21 1016 62 0 1.19 328.036 09:59 18.09.2019
1738 Clouds 21 1016 62 0 1.19 328.036 09:41 18.09.2019
1739 Clouds 19 1016 72 0 1.05 287.624 09:22 18.09.2019
1740 Clouds 19 1016 72 0 1.05 287.624 08:56 18.09.2019
1741 Clouds 20 1016 72 0 1.2 286.123 08:38 18.09.2019
1742 Clear 18 1016 82 10000 2.1 230 08:18 18.09.2019
1743 Clear 18 1016 82 10000 2.1 230 07:43 18.09.2019
1744 Clear 18 1016 82 10000 2.1 230 07:23 18.09.2019
1745 Clear 19 1016 77 10000 2.1 230 06:42 18.09.2019
1746 Clear 19 1016 77 10000 2.1 230 06:21 18.09.2019
1747 Clear 19 1016 77 10000 2.1 240 05:26 18.09.2019
1748 Clear 22 1017 64 10000 2.6 220 03:38 18.09.2019
1749 Clear 22 1017 64 10000 2.6 220 02:40 18.09.2019
1750 Clear 24 1017 57 10000 2.1 330 01:37 18.09.2019
1751 Clear 25 1017 53 10000 2.6 320 00:51 18.09.2019
1752 Clouds 25 1016 53 9000 1.5 240 00:29 18.09.2019
1753 Clear 26 1016 50 10000 2.1 20 23:47 17.09.2019
1754 Clear 26 1016 50 10000 2.1 20 23:47 17.09.2019
1755 Clear 26 1016 50 10000 2.1 20 23:24 17.09.2019
1756 Clear 26 1016 50 10000 3.6 340 22:56 17.09.2019
1757 Clear 27 1016 47 10000 4.6 350 22:37 17.09.2019
1758 Clear 27 1016 47 10000 4.6 350 22:19 17.09.2019
1759 Clear 30 1014 33 10000 3.6 340 21:54 17.09.2019
1760 Clear 30 1014 33 10000 3.6 340 21:36 17.09.2019
1761 Clear 30 1014 33 10000 3.6 340 21:18 17.09.2019
1762 Clear 33 1014 24 10000 4.1 290 20:55 17.09.2019
1763 Clear 34 1014 23 10000 4.1 250 20:36 17.09.2019
1764 Clear 34 1014 23 10000 4.1 250 20:18 17.09.2019
1765 Clear 34 1014 23 10000 4.1 250 20:18 17.09.2019
1766 Clear 34 1014 23 10000 4.1 250 19:40 17.09.2019
1767 Clear 34 1014 23 10000 4.6 260 19:20 17.09.2019
1768 Clouds 34 1014 23 10000 3.1 280 18:59 17.09.2019
1769 Clouds 34 1014 23 10000 3.1 280 18:59 17.09.2019
1770 Clouds 34 1014 23 10000 3.1 280 18:41 17.09.2019
1771 Clouds 32 1014 22 0 2.86 312.333 18:22 17.09.2019
1772 Clouds 34 1014 23 10000 3.6 270 17:49 17.09.2019
1773 Clouds 34 1014 23 10000 3.6 270 17:21 17.09.2019
1774 Clouds 34 1014 23 10000 3.6 270 16:59 17.09.2019
1775 Clouds 34 1014 23 10000 3.6 270 16:41 17.09.2019
1776 Clouds 35 1015 23 10000 1.5 270 16:22 17.09.2019
1777 Clouds 33 1015 26 10000 2.6 290 15:55 17.09.2019
1778 Clouds 33 1015 26 10000 2.6 290 15:55 17.09.2019
1779 Clouds 33 1015 26 10000 2.1 270 15:36 17.09.2019
1780 Clouds 33 1015 26 10000 2.1 270 15:18 17.09.2019
1781 Clouds 32 1016 29 10000 2.6 320 14:55 17.09.2019
1782 Clouds 31 1016 33 10000 2.6 300 14:36 17.09.2019
1783 Clouds 31 1016 33 10000 2.6 300 14:18 17.09.2019
1784 Clouds 31 1016 33 10000 2.1 310 13:41 17.09.2019
1785 Clouds 30 1016 33 10000 2.6 300 13:22 17.09.2019
1786 Clouds 28 1016 42 10000 2.6 280 12:54 17.09.2019
1787 Clouds 28 1017 45 10000 2.1 300 12:36 17.09.2019
1788 Clouds 28 1017 45 10000 2.1 300 12:18 17.09.2019
1789 Clouds 27 1017 47 10000 2.1 290 11:41 17.09.2019
1790 Clouds 27 1016 47 10000 1.5 300 11:19 17.09.2019
1791 Clouds 27 1016 47 10000 1.5 300 11:19 17.09.2019
1792 Clouds 23 1016 60 10000 2.1 280 10:42 17.09.2019
1793 Clouds 24 1016 53 10000 1.5 300 10:23 17.09.2019
1794 Clouds 23 1016 56 10000 0.5 310 09:59 17.09.2019
1795 Clouds 23 1016 56 10000 0.5 310 09:40 17.09.2019
1796 Clouds 23 1016 56 10000 0.5 310 09:40 17.09.2019
1797 Clouds 23 1016 56 10000 1 0 09:20 17.09.2019
1798 Clouds 23 1015 56 10000 1.5 190 08:44 17.09.2019
1799 Clear 22 1015 60 10000 3.1 210 08:25 17.09.2019
1800 Clear 22 1015 60 10000 3.1 210 08:25 17.09.2019
1801 Clear 21 1015 64 10000 3.1 220 07:55 17.09.2019
1802 Clear 21 1015 64 10000 2.6 240 07:36 17.09.2019
1803 Clear 21 1015 64 10000 2.6 240 07:18 17.09.2019
1804 Clouds 21 1015 64 0 2.1 240 06:45 17.09.2019
1805 Clear 21 1015 64 10000 2.6 240 06:19 17.09.2019
1806 Clear 23 1015 53 10000 3.1 280 05:35 17.09.2019
1807 Clear 24 1016 53 10000 1.5 240 04:26 17.09.2019
1808 Clear 26 1016 47 10000 1.5 210 02:53 17.09.2019
1809 Clear 26 1017 44 10000 2.1 210 02:33 17.09.2019
1810 Clear 26 1017 44 10000 2.1 220 01:19 17.09.2019
1811 Clear 27 1017 42 10000 1.5 30 00:28 17.09.2019
1812 Clear 28 1017 39 10000 3.6 30 23:38 16.09.2019
1813 Clear 28 1017 39 10000 3.6 30 23:18 16.09.2019
1814 Clear 29 1017 35 10000 2.6 350 22:42 16.09.2019
1815 Clouds 32 1017 24 10000 3.6 280 22:24 16.09.2019
1816 Clouds 32 1017 24 10000 3.6 280 21:59 16.09.2019
1817 Clouds 32 1017 24 10000 3.6 280 21:40 16.09.2019
1818 Clouds 32 1017 24 10000 3.6 280 21:21 16.09.2019
1819 Clouds 32 1017 24 10000 4.1 280 20:58 16.09.2019
1820 Clouds 33 1017 22 10000 3.1 240 20:39 16.09.2019
1821 Clouds 33 1017 22 10000 3.1 240 20:19 16.09.2019
1822 Clouds 33 1017 22 10000 4.1 240 19:56 16.09.2019
1823 Clouds 34 1016 20 10000 4.6 240 19:37 16.09.2019
1824 Clouds 34 1016 20 10000 4.6 240 19:18 16.09.2019
1825 Clouds 34 1016 23 10000 4.6 240 18:43 16.09.2019
1826 Clouds 36 1016 19 10000 3.1 330 18:25 16.09.2019
1827 Clear 36 1016 18 10000 3.1 320 17:55 16.09.2019
1828 Clouds 36 1016 19 6000 2.6 330 17:37 16.09.2019
1829 Clouds 36 1016 19 6000 2.6 330 17:19 16.09.2019
1830 Clear 36 1016 19 10000 2.1 300 16:43 16.09.2019
1831 Clear 35 1017 21 10000 1.5 0 16:21 16.09.2019
1832 Clear 35 1017 21 10000 2.1 340 15:57 16.09.2019
1833 Clear 35 1017 21 10000 2.1 340 15:39 16.09.2019
1834 Clear 34 1017 24 10000 2.6 270 15:20 16.09.2019
1835 Clear 34 1017 24 10000 2.6 270 15:20 16.09.2019
1836 Clear 33 1018 26 10000 1.5 0 14:58 16.09.2019
1837 Clear 33 1018 26 10000 1 0 14:39 16.09.2019
1838 Clear 33 1018 26 10000 1 0 14:20 16.09.2019
1839 Clear 32 1018 27 10000 1.5 40 13:43 16.09.2019
1840 Clear 31 1018 31 10000 1.5 90 13:22 16.09.2019
1841 Clear 29 1019 35 10000 2.6 80 12:57 16.09.2019
1842 Clear 29 1019 35 10000 2.6 80 12:57 16.09.2019
1843 Clear 28 1019 39 10000 2.1 50 12:38 16.09.2019
1844 Clear 28 1019 39 10000 2.1 50 12:18 16.09.2019
1845 Clear 28 1019 39 10000 1.5 40 11:44 16.09.2019
1846 Clear 27 1019 44 10000 1.5 40 11:22 16.09.2019
1847 Clear 25 1018 50 10000 2.1 80 10:55 16.09.2019
1848 Clear 25 1018 50 10000 2.1 80 10:55 16.09.2019
1849 Clear 24 1018 53 9000 2.1 70 10:36 16.09.2019
1850 Clear 24 1018 53 9000 2.1 70 10:18 16.09.2019
1851 Clear 23 1018 56 10000 1 50 09:41 16.09.2019
1852 Clear 21 1018 60 8000 0.54 326.429 09:21 16.09.2019
1853 Clear 20 1018 64 8000 0.54 326.429 08:53 16.09.2019
1854 Clouds 20 1018 64 9000 0.72 320.408 08:34 16.09.2019
1855 Clouds 20 1018 64 9000 0.72 320.408 07:59 16.09.2019
1856 Clouds 20 1018 64 9000 0.72 320.408 07:40 16.09.2019
1857 Clear 20 1018 64 10000 0.72 320.408 07:20 16.09.2019
1858 Clear 21 1018 60 10000 0.72 320.408 06:50 16.09.2019
1859 Clear 22 1018 60 10000 1.5 200 06:32 16.09.2019
1860 Clear 21 1018 64 10000 2.1 210 05:58 16.09.2019
1861 Clear 21 1018 60 10000 1.5 220 05:39 16.09.2019
1862 Clear 21 1018 60 10000 1.5 220 05:18 16.09.2019
1863 Clear 23 1019 56 10000 1 80 03:35 16.09.2019
1864 Clear 25 1019 50 10000 3.6 30 00:58 16.09.2019
1865 Clear 25 1019 50 10000 3.6 30 00:58 16.09.2019
1866 Clear 26 1019 44 10000 3.1 10 00:38 16.09.2019
1867 Clear 26 1019 44 10000 3.1 10 00:19 16.09.2019
1868 Clear 27 1019 42 10000 4.1 10 23:39 15.09.2019
1869 Clear 28 1019 37 10000 3.6 350 23:20 15.09.2019
1870 Clear 30 1018 27 10000 3.1 350 22:39 15.09.2019
1871 Clear 30 1018 27 10000 3.1 350 22:20 15.09.2019
1872 Clear 30 1017 27 10000 2.1 350 21:57 15.09.2019
1873 Clear 30 1017 27 10000 2.1 350 21:39 15.09.2019
1874 Clear 30 1017 27 10000 2.1 350 21:39 15.09.2019
1875 Clear 31 1017 25 10000 2.6 330 21:20 15.09.2019
1876 Clear 31 1017 23 10000 2.1 270 20:46 15.09.2019
1877 Clear 33 1017 21 10000 3.1 240 20:27 15.09.2019
1878 Clouds 34 1017 18 4800 3.6 250 19:59 15.09.2019
1879 Clouds 34 1017 18 4800 3.6 250 19:41 15.09.2019
1880 Clouds 34 1017 18 4800 3.6 250 19:22 15.09.2019
1881 Clear 34 1017 20 10000 2.1 300 18:42 15.09.2019
1882 Clouds 34 1017 21 8000 3.1 240 18:23 15.09.2019
1883 Clear 34 1017 20 10000 4.1 300 17:56 15.09.2019
1884 Clear 34 1018 21 10000 3.6 300 17:36 15.09.2019
1885 Clear 34 1018 21 10000 3.6 300 17:18 15.09.2019
1886 Clear 34 1018 24 10000 3.1 300 16:42 15.09.2019
1887 Clear 33 1018 26 10000 2.6 320 16:23 15.09.2019
1888 Clear 33 1018 24 10000 2.1 330 15:58 15.09.2019
1889 Clear 33 1018 24 10000 2.1 330 15:38 15.09.2019
1890 Clear 32 1018 29 10000 2.6 340 15:19 15.09.2019
1891 Clouds 31 1019 33 7000 2.1 0 14:56 15.09.2019
1892 Clouds 31 1019 33 8000 1 0 14:38 15.09.2019
1893 Clouds 31 1019 33 8000 1 0 14:19 15.09.2019
1894 Clouds 30 1019 35 5000 1.5 310 13:44 15.09.2019
1895 Clouds 30 1019 35 5000 1.5 310 13:44 15.09.2019
1896 Clouds 29 1020 39 9000 1.5 320 13:22 15.09.2019
1897 Clear 28 1020 42 10000 1 0 12:43 15.09.2019
1898 Clear 27 1020 47 10000 1.5 310 12:25 15.09.2019
1899 Clear 26 1020 50 10000 1 0 11:59 15.09.2019
1900 Clear 26 1020 50 10000 1 0 11:41 15.09.2019
1901 Clear 25 1020 53 10000 1 0 11:21 15.09.2019
1902 Clear 23 1019 60 10000 0.5 0 10:47 15.09.2019
1903 Clear 23 1019 60 10000 0.5 0 10:47 15.09.2019
1904 Clear 22 1019 64 10000 1.5 250 10:23 15.09.2019
1905 Clear 21 1019 64 10000 1.5 250 09:59 15.09.2019
1906 Clear 21 1019 64 10000 1.5 250 09:39 15.09.2019
1907 Clear 19 1019 72 10000 1.5 240 09:19 15.09.2019
1908 Clear 18 1019 77 10000 1.5 240 08:46 15.09.2019
1909 Clear 18 1019 77 10000 1.5 240 08:27 15.09.2019
1910 Clear 19 1019 72 10000 1.5 230 07:49 15.09.2019
1911 Clear 19 1018 72 10000 1.5 230 07:28 15.09.2019
1912 Clear 20 1018 64 10000 1.5 240 06:43 15.09.2019
1913 Clear 21 1019 60 10000 1 260 03:31 15.09.2019
1914 Clear 22 1019 60 10000 1.5 230 02:41 15.09.2019
1915 Clear 22 1019 56 10000 1 230 01:41 15.09.2019
1916 Clear 24 1019 50 10000 0.5 0 01:19 15.09.2019
1917 Clear 24 1019 50 10000 1 0 00:43 15.09.2019
1918 Clear 25 1019 47 10000 2.6 50 00:22 15.09.2019
1919 Clear 25 1019 47 10000 3.6 20 23:58 14.09.2019
1920 Clear 25 1019 47 10000 3.6 20 23:39 14.09.2019
1921 Clear 25 1019 47 10000 3.6 20 23:39 14.09.2019
1922 Clear 25 1019 47 10000 3.6 20 23:39 14.09.2019
1923 Clear 26 1019 44 10000 4.1 30 23:21 14.09.2019
1924 Clear 27 1018 42 10000 3.6 360 22:59 14.09.2019
1925 Clear 27 1018 42 10000 3.6 360 22:40 14.09.2019
1926 Clouds 28 1018 39 10000 4.6 350 22:20 14.09.2019
1927 Clouds 29 1017 28 10000 3.1 330 21:56 14.09.2019
1928 Clouds 29 1017 28 10000 2.6 260 21:38 14.09.2019
1929 Clouds 29 1017 28 10000 2.6 260 21:19 14.09.2019
1930 Clear 31 1017 23 10000 4.1 270 20:54 14.09.2019
1931 Clear 33 1016 21 10000 4.1 270 20:36 14.09.2019
1932 Clear 33 1016 21 10000 4.1 270 20:18 14.09.2019
1933 Clear 33 1016 21 10000 4.1 270 19:41 14.09.2019
1934 Clear 33 1016 21 10000 3.6 300 19:20 14.09.2019
1935 Clear 34 1016 20 10000 5.1 270 18:42 14.09.2019
1936 Clear 34 1016 20 10000 5.1 270 18:22 14.09.2019
1937 Clear 34 1016 21 10000 4.1 270 17:59 14.09.2019
1938 Clear 34 1016 21 10000 4.1 270 17:39 14.09.2019
1939 Clear 34 1016 21 10000 4.1 270 17:21 14.09.2019
1940 Clear 34 1016 21 10000 4.1 270 17:21 14.09.2019
1941 Clear 34 1016 21 10000 4.1 270 17:21 14.09.2019
1942 Clear 34 1016 21 10000 4.1 270 17:21 14.09.2019
1943 Clear 34 1016 20 10000 4.1 290 16:44 14.09.2019
1944 Clear 33 1016 22 10000 3.6 290 16:24 14.09.2019
1945 Clear 33 1016 21 10000 3.6 260 15:56 14.09.2019
1946 Clear 33 1016 21 10000 3.6 260 15:56 14.09.2019
1947 Clear 32 1016 24 10000 3.6 310 15:37 14.09.2019
1948 Clear 32 1016 24 10000 3.6 310 15:18 14.09.2019
1949 Clear 32 1016 24 10000 3.6 310 15:18 14.09.2019
1950 Clear 31 1016 27 10000 3.1 330 14:43 14.09.2019
1951 Clear 31 1016 27 10000 3.1 330 14:43 14.09.2019
1952 Clear 30 1017 30 10000 2.6 320 14:19 14.09.2019
1953 Clear 29 1017 32 10000 1.5 340 13:48 14.09.2019
1954 Clear 28 1017 34 10000 2.6 300 13:23 14.09.2019
1955 Clear 27 1018 36 10000 2.1 310 12:48 14.09.2019
1956 Clear 26 1018 39 10000 1.5 300 12:28 14.09.2019
1957 Clear 25 1018 44 10000 2.1 300 11:56 14.09.2019
1958 Clear 24 1018 47 10000 1 0 11:37 14.09.2019
1959 Clear 24 1018 47 10000 1 0 11:19 14.09.2019
1960 Clear 22 1018 53 10000 2.1 290 10:38 14.09.2019
1961 Clear 22 1017 49 10000 1.5 290 10:20 14.09.2019
1962 Clear 21 1017 52 10000 1.5 2.683 09:57 14.09.2019
1963 Clear 21 1017 52 10000 1.5 2.683 09:38 14.09.2019
1964 Clear 18 1017 59 10000 1 260 09:19 14.09.2019
1965 Clear 18 1016 59 10000 1.5 270 08:46 14.09.2019
1966 Clear 18 1016 59 10000 0.5 280 08:23 14.09.2019
1967 Clear 18 1016 59 10000 1.05 27.348 07:47 14.09.2019
1968 Clear 18 1016 59 10000 0.5 300 07:28 14.09.2019
1969 Clear 18 1016 59 10000 1.05 27.348 06:52 14.09.2019
1970 Clear 19 1016 55 10000 1.5 100 06:28 14.09.2019
1971 Clear 19 1016 55 10000 0.83 356.282 05:26 14.09.2019
1972 Clear 20 1017 52 10000 1 0 03:46 14.09.2019
1973 Clear 21 1018 49 10000 1 0 02:54 14.09.2019
1974 Clear 21 1018 49 10000 1 0 02:54 14.09.2019
1975 Clear 22 1018 49 10000 2.1 240 01:51 14.09.2019
1976 Clear 23 1018 46 10000 1.39 289.793 01:23 14.09.2019
1977 Clear 23 1018 46 8000 2.1 40 00:58 14.09.2019
1978 Clear 23 1018 46 8000 2.1 40 00:38 14.09.2019
1979 Clear 25 1018 38 10000 4.6 30 00:20 14.09.2019
1980 Clear 26 1017 36 10000 3.1 10 23:38 13.09.2019
1981 Clear 26 1017 36 10000 3.1 10 23:19 13.09.2019
1982 Clear 27 1017 32 10000 5.7 350 22:58 13.09.2019
1983 Clear 27 1017 32 10000 5.7 350 22:38 13.09.2019
1984 Clear 29 1016 25 10000 2.6 360 22:20 13.09.2019
1985 Clear 30 1016 22 10000 3.1 330 21:42 13.09.2019
1986 Clear 30 1016 22 10000 3.1 330 21:20 13.09.2019
1987 Clear 31 1016 20 10000 3.6 310 20:59 13.09.2019
1988 Clear 31 1016 20 10000 3.6 310 20:40 13.09.2019
1989 Clear 32 1015 19 10000 3.6 320 20:21 13.09.2019
1990 Clear 32 1015 19 5000 3.6 260 19:58 13.09.2019
1991 Clear 33 1015 18 10000 4.1 260 19:40 13.09.2019
1992 Clear 33 1015 18 10000 4.1 260 19:19 13.09.2019
1993 Clear 33 1015 18 10000 3.1 260 18:57 13.09.2019
1994 Clear 33 1015 18 10000 3.1 330 18:37 13.09.2019
1995 Clear 33 1015 18 10000 3.1 330 18:18 13.09.2019
1996 Clear 33 1015 18 10000 2.6 280 17:39 13.09.2019
1997 Clear 33 1015 18 10000 2.6 280 17:19 13.09.2019
1998 Clear 33 1015 19 10000 2.1 0 16:43 13.09.2019
1999 Clear 33 1015 19 10000 1 0 16:22 13.09.2019
2000 Clear 32 1016 22 8000 2.1 0 15:59 13.09.2019
2001 Clear 32 1016 22 8000 2.1 0 15:40 13.09.2019
2002 Clear 31 1016 23 9000 1.5 290 15:20 13.09.2019
2003 Clear 31 1016 23 9000 1.5 0 14:44 13.09.2019
2004 Clear 29 1016 26 10000 2.1 0 14:22 13.09.2019
2005 Clear 29 1016 28 10000 1 0 13:56 13.09.2019
2006 Clear 27 1016 32 8000 3.1 360 13:37 13.09.2019
2007 Clear 27 1016 32 8000 3.1 360 13:19 13.09.2019
2008 Clear 27 1016 32 8000 3.1 360 13:19 13.09.2019
2009 Clear 27 1016 32 8000 1 0 12:41 13.09.2019
2010 Clear 26 1017 34 8000 1 0 12:23 13.09.2019
2011 Clear 26 1017 34 5000 1 0 11:56 13.09.2019
2012 Clear 24 1017 38 6000 1.5 300 11:20 13.09.2019
2013 Clear 23 1016 40 7000 1 0 10:41 13.09.2019
2014 Clear 22 1016 40 8000 1.5 280 10:20 13.09.2019
2015 Clear 20 1016 45 10000 1 320 09:47 13.09.2019
2016 Clear 18 1016 52 10000 0.5 0 09:25 13.09.2019
2017 Clear 17 1015 55 10000 1 270 08:59 13.09.2019
2018 Clear 17 1015 55 10000 1 270 08:41 13.09.2019
2019 Clear 17 1015 55 10000 1 270 08:41 13.09.2019
2020 Clear 17 1015 55 10000 1 240 08:21 13.09.2019
2021 Clear 17 1015 55 10000 0.63 67.241 07:56 13.09.2019
2022 Clear 17 1015 55 10000 0.63 67.241 07:38 13.09.2019
2023 Clear 18 1015 52 10000 0.63 67.241 06:49 13.09.2019
2024 Clear 18 1015 52 10000 2.33 24.625 05:50 13.09.2019
2025 Clear 19 1015 52 10000 1 230 05:19 13.09.2019
2026 Clear 21 1016 43 10000 2.1 20 03:41 13.09.2019
2027 Clear 21 1016 43 10000 1 30 02:50 13.09.2019
2028 Clear 21 1016 46 10000 1 40 02:18 13.09.2019
2029 Clear 22 1016 43 10000 3.1 70 01:35 13.09.2019
2030 Clear 22 1016 43 10000 3.1 70 01:35 13.09.2019
2031 Clear 22 1016 43 10000 4.1 60 00:59 13.09.2019
2032 Clear 23 1016 40 10000 3.1 40 00:33 13.09.2019
2033 Clear 23 1016 38 10000 4.1 40 23:42 12.09.2019
2034 Clear 24 1016 33 10000 4.6 30 23:22 12.09.2019
2035 Clear 25 1016 31 10000 6.2 20 22:44 12.09.2019
2036 Clear 26 1015 29 10000 5.1 360 22:25 12.09.2019
2037 Clouds 28 1015 23 10000 4.6 360 21:58 12.09.2019
2038 Clouds 28 1015 23 10000 4.6 360 21:39 12.09.2019
2039 Clouds 28 1015 23 10000 4.6 360 21:20 12.09.2019
2040 Clouds 29 1014 21 10000 3.6 360 20:58 12.09.2019
2041 Clouds 29 1014 21 10000 3.6 360 20:40 12.09.2019
2042 Clear 30 1014 22 10000 1.5 330 20:21 12.09.2019
2043 Clear 31 1014 19 10000 1.5 320 19:56 12.09.2019
2044 Clear 31 1014 19 10000 1.5 0 19:37 12.09.2019
2045 Clear 31 1014 19 10000 1.5 0 19:19 12.09.2019
2046 Clear 31 1014 19 10000 1.5 0 19:19 12.09.2019
2047 Clear 32 1014 19 10000 1.5 300 18:38 12.09.2019
2048 Clear 32 1014 19 10000 1.5 300 18:20 12.09.2019
2049 Clear 31 1014 22 10000 1 0 17:59 12.09.2019
2050 Clear 31 1014 22 10000 1 0 17:39 12.09.2019
2051 Clear 30 1015 23 10000 2.6 0 17:19 12.09.2019
2052 Clear 30 1015 23 10000 1.5 50 16:42 12.09.2019
2053 Clear 30 1015 23 10000 1.5 0 16:22 12.09.2019
2054 Clear 30 1016 23 10000 2.1 0 15:58 12.09.2019
2055 Clear 30 1016 23 10000 2.1 0 15:38 12.09.2019
2056 Clear 29 1016 23 10000 3.1 0 15:20 12.09.2019
2057 Clear 28 1016 28 10000 4.1 10 14:44 12.09.2019
2058 Clear 28 1017 28 10000 4.1 40 14:21 12.09.2019
2059 Clear 28 1017 28 10000 4.1 40 13:42 12.09.2019
2060 Clear 28 1017 28 10000 4.1 40 13:42 12.09.2019
2061 Clear 27 1017 30 10000 4.1 30 13:23 12.09.2019
2062 Clear 26 1017 31 10000 3.6 40 12:57 12.09.2019
2063 Clear 26 1017 31 10000 3.6 40 12:38 12.09.2019
2064 Clear 25 1016 33 10000 3.1 40 12:18 12.09.2019
2065 Clear 23 1017 38 10000 4.1 30 11:54 12.09.2019
2066 Clear 22 1017 40 10000 2.6 10 11:36 12.09.2019
2067 Clear 22 1017 40 10000 2.6 10 11:18 12.09.2019
2068 Clear 21 1017 43 10000 2.6 10 10:42 12.09.2019
2069 Clear 21 1017 43 10000 2.6 10 10:42 12.09.2019
2070 Clear 21 1017 43 10000 2.6 10 10:42 12.09.2019
2071 Clear 20 1016 45 10000 2.1 40 10:23 12.09.2019
2072 Clear 18 1016 52 10000 1.5 40 09:44 12.09.2019
2073 Clear 18 1016 52 10000 1.5 40 09:20 12.09.2019
2074 Clear 16 1016 59 10000 1.5 30 08:57 12.09.2019
2075 Clear 16 1016 59 10000 1.5 30 08:38 12.09.2019
2076 Clear 16 1015 59 1900 2.1 70 08:20 12.09.2019
2077 Clear 18 1015 52 10000 4.1 120 07:38 12.09.2019
2078 Clear 18 1016 52 10000 4.1 100 07:18 12.09.2019
2079 Clear 18 1016 55 10000 3.6 90 06:49 12.09.2019
2080 Clear 18 1015 52 0 2.1 70 06:19 12.09.2019
2081 Clear 18 1015 52 0 2.1 70 05:47 12.09.2019
2082 Clear 18 1016 55 10000 2.1 60 05:27 12.09.2019
2083 Clear 18 1016 52 10000 2.6 60 04:31 12.09.2019
2084 Clear 18 1016 52 10000 2.6 60 04:31 12.09.2019
2085 Clear 21 1017 49 10000 5.1 60 01:47 12.09.2019
2086 Clear 21 1017 49 10000 5.1 50 01:28 12.09.2019
2087 Clear 22 1017 46 10000 6.2 40 00:50 12.09.2019
2088 Clear 22 1017 43 10000 5.7 30 00:31 12.09.2019
2089 Clear 23 1017 38 10000 3.6 20 23:55 11.09.2019
2090 Clear 24 1017 36 10000 5.1 30 23:36 11.09.2019
2091 Clear 24 1017 36 10000 5.1 30 23:18 11.09.2019
2092 Clear 24 1016 19 10000 2.1 70 22:55 11.09.2019
2093 Clear 24 1016 19 10000 2.1 70 22:36 11.09.2019
2094 Clear 24 1016 19 10000 2.1 70 22:18 11.09.2019
2095 Clear 26 1015 16 10000 2.6 70 21:41 11.09.2019
2096 Clouds 27 1015 15 10000 2.6 70 21:23 11.09.2019
2097 Clouds 29 1015 14 10000 5.1 30 20:56 11.09.2019
2098 Clouds 29 1015 14 10000 5.1 30 20:38 11.09.2019
2099 Clouds 29 1015 14 10000 5.1 30 20:19 11.09.2019
2100 Clouds 29 1015 14 10000 5.1 30 20:19 11.09.2019
2101 Clouds 29 1015 17 10000 5.1 40 19:56 11.09.2019
2102 Clouds 27 1014 12 0 5.54 48.265 19:38 11.09.2019
2103 Clouds 29 1015 23 10000 2.6 30 19:19 11.09.2019
2104 Clouds 29 1015 23 10000 2.6 30 18:55 11.09.2019
2105 Clouds 29 1015 23 10000 2.6 30 18:37 11.09.2019
2106 Clouds 29 1015 23 10000 2.6 30 18:18 11.09.2019
2107 Clouds 29 1015 26 10000 4.1 30 17:41 11.09.2019
2108 Clouds 29 1015 26 10000 4.1 30 17:22 11.09.2019
2109 Clouds 28 1016 30 10000 4.6 50 16:57 11.09.2019
2110 Clouds 28 1016 30 10000 4.6 50 16:39 11.09.2019
2111 Clouds 28 1016 30 10000 4.1 10 16:20 11.09.2019
2112 Clouds 27 1016 34 10000 4.1 50 15:47 11.09.2019
2113 Clouds 27 1016 34 10000 4.1 50 15:47 11.09.2019
2114 Clouds 27 1017 36 10000 4.1 0 15:24 11.09.2019
2115 Clouds 26 1017 41 10000 4.1 20 14:59 11.09.2019
2116 Clouds 26 1017 41 10000 4.1 20 14:40 11.09.2019
2117 Clear 26 1018 41 10000 4.1 360 14:20 11.09.2019
2118 Clear 26 1018 41 10000 4.1 360 14:20 11.09.2019
2119 Clear 26 1018 41 10000 4.1 30 13:58 11.09.2019
2120 Clear 25 1018 47 10000 3.6 0 13:37 11.09.2019
2121 Clear 25 1018 47 10000 3.6 0 13:18 11.09.2019
2122 Clouds 24 1018 50 10000 2.1 360 12:42 11.09.2019
2123 Clouds 23 1019 53 10000 2.6 80 12:21 11.09.2019
2124 Clouds 22 1019 56 10000 3.1 60 11:58 11.09.2019
2125 Clouds 21 1019 60 10000 3.6 60 11:37 11.09.2019
2126 Clouds 21 1019 60 10000 3.6 60 11:18 11.09.2019
2127 Clouds 20 1019 64 10000 4.6 50 10:41 11.09.2019
2128 Clouds 19 1019 68 10000 4.6 60 10:22 11.09.2019
2129 Clouds 18 1018 72 10000 4.1 60 09:57 11.09.2019
2130 Clouds 18 1018 72 10000 3.6 70 09:37 11.09.2019
2131 Clouds 18 1018 72 10000 3.6 70 09:18 11.09.2019
2132 Clouds 17 1018 77 10000 3.6 80 08:40 11.09.2019
2133 Clouds 17 1017 77 10000 4.1 80 08:21 11.09.2019
2134 Clouds 18 1017 72 10000 3.1 80 07:49 11.09.2019
2135 Clouds 18 1018 72 10000 4.6 90 07:24 11.09.2019
2136 Clouds 18 1018 72 10000 3.6 70 06:59 11.09.2019
2137 Clouds 19 1018 68 10000 3.1 60 06:36 11.09.2019
2138 Clouds 18 1018 72 10000 4.1 40 05:53 11.09.2019
2139 Clouds 18 1018 72 10000 4.1 40 05:33 11.09.2019
2140 Clouds 19 1018 68 10000 4.6 20 04:52 11.09.2019
2141 Clouds 19 1019 68 8000 2.1 20 03:40 11.09.2019
2142 Clouds 20 1019 64 8000 2.6 10 03:20 11.09.2019
2143 Clouds 21 1020 60 10000 2.6 20 02:28 11.09.2019
2144 Clouds 21 1020 60 10000 3.6 30 01:27 11.09.2019
2145 Clouds 22 1020 56 10000 2.6 40 00:31 11.09.2019
2146 Clouds 22 1020 56 10000 4.1 20 23:58 10.09.2019
2147 Clouds 22 1020 56 10000 4.1 20 23:39 10.09.2019
2148 Clouds 24 1018 50 10000 3.6 360 23:21 10.09.2019
2149 Clouds 25 1018 50 10000 5.1 350 22:42 10.09.2019
2150 Clouds 26 1018 44 10000 6.7 350 22:21 10.09.2019
2151 Clouds 27 1018 39 10000 6.7 350 21:57 10.09.2019
2152 Clouds 27 1018 39 10000 6.7 350 21:38 10.09.2019
2153 Clouds 27 1018 39 10000 6.7 350 21:38 10.09.2019
2154 Clouds 27 1018 39 10000 6.7 350 21:20 10.09.2019
2155 Clouds 27 1018 39 10000 6.7 350 21:20 10.09.2019
2156 Clouds 29 1017 37 10000 5.7 360 20:59 10.09.2019
2157 Clouds 29 1017 37 10000 5.7 360 20:40 10.09.2019
2158 Clouds 29 1017 37 10000 5.7 360 20:22 10.09.2019
2159 Clouds 31 1017 29 10000 3.6 360 19:58 10.09.2019
2160 Clouds 32 1017 25 10000 1.5 50 19:38 10.09.2019
2161 Clouds 32 1017 25 10000 1.5 50 19:20 10.09.2019
2162 Clouds 32 1017 25 10000 1.5 50 18:58 10.09.2019
2163 Clouds 32 1017 25 10000 1.5 50 18:40 10.09.2019
2164 Clouds 32 1017 25 10000 1.5 50 18:21 10.09.2019
2165 Clouds 32 1018 27 10000 3.1 0 17:55 10.09.2019
2166 Clouds 32 1018 27 10000 3.1 0 17:37 10.09.2019
2167 Clouds 32 1018 27 10000 3.1 0 17:18 10.09.2019
2168 Clouds 32 1018 29 10000 3.1 310 16:55 10.09.2019
2169 Clouds 32 1018 29 10000 3.1 310 16:55 10.09.2019
2170 Clouds 32 1018 29 10000 3.1 310 16:55 10.09.2019
2171 Clouds 32 1018 29 10000 3.1 310 16:55 10.09.2019
2172 Clouds 31 1019 31 10000 2.6 310 16:37 10.09.2019
2173 Clouds 31 1019 31 10000 2.6 310 16:18 10.09.2019
2174 Clouds 31 1019 33 10000 2.6 0 15:42 10.09.2019
2175 Clouds 30 1019 40 10000 2.1 0 15:21 10.09.2019
2176 Clouds 28 1020 48 10000 3.1 330 14:55 10.09.2019
2177 Clouds 28 1020 48 10000 3.1 330 14:36 10.09.2019
2178 Clouds 28 1020 48 10000 3.1 330 14:18 10.09.2019
2179 Clouds 27 1020 54 10000 2.1 360 13:43 10.09.2019
2180 Clouds 26 1021 57 10000 2.1 270 13:22 10.09.2019
2181 Clouds 27 1021 54 9000 1 0 12:50 10.09.2019
2182 Clouds 25 1021 65 10000 1 0 12:28 10.09.2019
2183 Clouds 24 1021 69 7000 1.5 120 11:58 10.09.2019
2184 Clouds 24 1021 69 8000 1 0 11:39 10.09.2019
2185 Clouds 24 1021 69 8000 1 0 11:21 10.09.2019
2186 Clouds 21 1021 83 8000 0.5 0 10:42 10.09.2019
2187 Clouds 21 1021 83 8000 0.5 0 10:20 10.09.2019
2188 Clouds 20 1021 82 6000 1.5 270 09:58 10.09.2019
2189 Clouds 20 1021 82 6000 2.1 240 09:40 10.09.2019
2190 Clouds 20 1021 82 6000 2.1 240 09:19 10.09.2019
2191 Clouds 20 1021 82 6000 2.1 240 08:47 10.09.2019
2192 Clouds 20 1020 82 6000 2.6 220 08:28 10.09.2019
2193 Mist 19 1020 88 4000 1.5 250 07:55 10.09.2019
2194 Mist 19 1020 88 4000 1.5 250 07:55 10.09.2019
2195 Mist 19 1020 88 4000 1.5 250 07:37 10.09.2019
2196 Mist 19 1020 88 4000 1.5 250 07:18 10.09.2019
2197 Clear 21 1020 79 0 1.81 336.082 06:39 10.09.2019
2198 Clouds 21 1020 83 8000 2.1 230 06:18 10.09.2019
2199 Clouds 21 1020 77 10000 2.1 240 03:58 10.09.2019
2200 Clouds 21 1020 77 10000 2.1 240 03:58 10.09.2019
2201 Clouds 22 1021 73 10000 3.1 250 02:38 10.09.2019
2202 Clouds 22 1021 73 10000 3.1 250 02:38 10.09.2019
2203 Clouds 22 1021 73 10000 3.1 250 02:38 10.09.2019
2204 Clouds 22 1021 73 10000 3.1 250 02:19 10.09.2019
2205 Clouds 22 1021 78 10000 3.6 240 01:45 10.09.2019
2206 Thunderstorm 22 1021 73 10000 5.1 240 01:22 10.09.2019
2207 Thunderstorm 24 1021 64 10000 3.1 260 00:34 10.09.2019
2208 Thunderstorm 24 1021 64 10000 4.1 280 23:48 09.09.2019
2209 Clouds 25 1021 65 10000 4.1 300 23:20 09.09.2019
2210 Clouds 26 1020 61 10000 4.6 330 22:58 09.09.2019
2211 Clouds 27 1019 57 10000 4.1 340 22:39 09.09.2019
2212 Clouds 27 1019 57 10000 4.1 340 22:21 09.09.2019
2213 Clouds 28 1018 54 10000 5.7 340 21:59 09.09.2019
2214 Clouds 30 1018 37 10000 3.1 320 21:40 09.09.2019
2215 Clouds 30 1018 37 10000 3.1 320 21:21 09.09.2019
2216 Clouds 30 1017 37 10000 2.6 340 20:57 09.09.2019
2217 Clouds 31 1017 35 10000 1.5 290 20:38 09.09.2019
2218 Clouds 31 1017 35 10000 1.5 290 20:19 09.09.2019
2219 Clouds 31 1017 38 10000 3.1 270 19:59 09.09.2019
2220 Clouds 32 1017 35 10000 3.1 250 19:39 09.09.2019
2221 Clouds 32 1017 35 10000 3.1 250 19:20 09.09.2019
2222 Clouds 32 1017 35 10000 2.6 270 18:58 09.09.2019
2223 Clouds 32 1017 35 10000 2.6 280 18:40 09.09.2019
2224 Clouds 32 1017 35 10000 2.6 280 18:21 09.09.2019
2225 Clouds 31 1017 38 10000 3.1 290 17:59 09.09.2019
2226 Clouds 31 1017 38 10000 3.1 290 17:59 09.09.2019
2227 Clouds 32 1017 38 10000 3.1 230 17:40 09.09.2019
2228 Clouds 32 1017 38 10000 3.1 230 17:21 09.09.2019
2229 Clouds 32 1017 38 10000 3.1 230 17:21 09.09.2019
2230 Clouds 32 1017 40 10000 2.1 290 16:56 09.09.2019
2231 Clouds 32 1018 40 10000 2.1 310 16:38 09.09.2019
2232 Clouds 32 1018 40 10000 2.1 310 16:38 09.09.2019
2233 Clouds 32 1018 40 10000 2.1 310 16:20 09.09.2019
2234 Clouds 30 1018 45 10000 1.5 0 15:56 09.09.2019
2235 Clouds 30 1018 45 10000 1.5 0 15:56 09.09.2019
2236 Clouds 30 1018 45 10000 1.5 0 15:56 09.09.2019
2237 Clouds 30 1018 48 8000 2.1 280 15:37 09.09.2019
2238 Clouds 30 1018 48 8000 2.1 280 15:18 09.09.2019
2239 Clouds 28 1019 54 8000 2.1 270 14:55 09.09.2019
2240 Clouds 28 1019 54 7000 2.1 280 14:37 09.09.2019
2241 Clouds 28 1019 54 7000 2.1 280 14:37 09.09.2019
2242 Clouds 28 1019 54 7000 2.1 280 14:18 09.09.2019
2243 Clouds 26 1019 65 6000 2.6 0 13:44 09.09.2019
2244 Clouds 26 1019 61 6000 2.1 260 13:20 09.09.2019
2245 Clouds 24 1019 73 6000 2.1 260 12:57 09.09.2019
2246 Mist 23 1019 78 4000 2.6 250 12:38 09.09.2019
2247 Mist 23 1019 78 4000 2.6 250 12:19 09.09.2019
2248 Mist 23 1019 78 4000 2.1 220 11:46 09.09.2019
2249 Mist 22 1019 83 4000 1.5 230 11:22 09.09.2019
2250 Mist 22 1019 83 4000 1.5 230 11:22 09.09.2019
2251 Mist 21 1019 88 3000 2.6 240 10:58 09.09.2019
2252 Mist 21 1019 88 3000 3.1 260 10:40 09.09.2019
2253 Mist 21 1019 88 3000 3.1 260 10:20 09.09.2019
2254 Mist 20 1018 88 3000 2.6 250 09:56 09.09.2019
2255 Mist 20 1018 88 3000 2.6 230 09:37 09.09.2019
2256 Mist 20 1018 88 3000 2.6 230 09:18 09.09.2019
2257 Mist 19 1017 93 3000 3.1 230 08:38 09.09.2019
2258 Mist 19 1017 93 3000 3.1 230 08:19 09.09.2019
2259 Clouds 20 1017 88 8000 3.1 230 07:45 09.09.2019
2260 Clear 20 1017 88 10000 3.1 230 07:22 09.09.2019
2261 Clear 20 1016 88 0 2.6 240 06:56 09.09.2019
2262 Clear 20 1017 88 10000 2.6 240 06:31 09.09.2019
2263 Clouds 21 1017 83 0 2.6 230 04:54 09.09.2019
2264 Clouds 22 1018 78 10000 3.6 230 02:43 09.09.2019
2265 Clear 23 1018 73 10000 1.5 230 01:50 09.09.2019
2266 Clouds 25 1018 65 10000 3.1 350 00:39 09.09.2019
2267 Clouds 25 1018 65 10000 3.1 350 00:20 09.09.2019
2268 Clouds 27 1017 54 10000 2.6 290 23:41 08.09.2019
2269 Clouds 27 1017 54 10000 2.6 290 23:23 08.09.2019
2270 Clouds 28 1016 48 10000 3.1 240 22:43 08.09.2019
2271 Clouds 28 1016 48 10000 3.1 240 22:23 08.09.2019
2272 Clouds 30 1016 30 10000 3.1 60 21:59 08.09.2019
2273 Clouds 30 1016 33 10000 2.6 60 21:40 08.09.2019
2274 Clouds 30 1016 33 10000 2.6 60 21:22 08.09.2019
2275 Clouds 30 1015 35 10000 2.6 50 20:57 08.09.2019
2276 Clouds 30 1015 35 10000 2.6 30 20:37 08.09.2019
2277 Clouds 30 1015 35 10000 2.6 30 20:19 08.09.2019
2278 Clouds 31 1015 33 10000 3.6 30 19:56 08.09.2019
2279 Clouds 32 1015 33 10000 2.6 330 19:37 08.09.2019
2280 Clouds 32 1015 33 10000 2.6 330 19:18 08.09.2019
2281 Clouds 32 1015 33 10000 2.6 330 19:18 08.09.2019
2282 Clouds 32 1015 33 10000 1.5 180 18:55 08.09.2019
2283 Clouds 32 1015 33 10000 1.5 180 18:55 08.09.2019
2284 Clouds 31 1015 35 10000 1.5 180 18:37 08.09.2019
2285 Clouds 31 1015 35 10000 1.5 180 18:18 08.09.2019
2286 Clouds 31 1015 35 10000 1.5 0 17:38 08.09.2019
2287 Clouds 31 1015 35 10000 1.5 0 17:19 08.09.2019
2288 Clouds 32 1015 35 10000 1.5 320 16:58 08.09.2019
2289 Clouds 31 1015 35 10000 2.6 0 16:40 08.09.2019
2290 Clouds 31 1015 35 10000 2.6 0 16:20 08.09.2019
2291 Clouds 30 1016 37 10000 2.6 350 15:57 08.09.2019
2292 Clouds 30 1016 40 10000 2.6 310 15:39 08.09.2019
2293 Clouds 30 1016 40 10000 2.6 310 15:20 08.09.2019
2294 Clouds 27 1016 51 10000 1.5 270 14:41 08.09.2019
2295 Clouds 27 1016 51 10000 1.5 270 14:23 08.09.2019
2296 Clouds 28 1016 51 10000 1.5 320 13:59 08.09.2019
2297 Clouds 26 1016 57 10000 2.1 240 13:40 08.09.2019
2298 Clouds 26 1016 57 10000 2.1 240 13:22 08.09.2019
2299 Clouds 26 1017 57 10000 1.5 250 12:59 08.09.2019
2300 Clouds 23 1017 69 10000 2.6 210 12:41 08.09.2019
2301 Clouds 23 1017 69 10000 2.6 210 12:22 08.09.2019
2302 Clouds 23 1017 69 10000 2.1 240 11:57 08.09.2019
2303 Clouds 22 1016 78 8000 2.6 270 11:38 08.09.2019
2304 Clouds 22 1016 78 8000 2.6 270 11:19 08.09.2019
2305 Clouds 21 1016 83 8000 2.1 260 10:43 08.09.2019
2306 Clouds 20 1016 88 8000 3.1 230 10:23 08.09.2019
2307 Clouds 19 1016 88 6000 1.5 240 09:58 08.09.2019
2308 Clouds 19 1015 88 6000 1 0 09:38 08.09.2019
2309 Clouds 19 1015 88 6000 1 0 09:19 08.09.2019
2310 Clouds 18 1014 93 6000 2.6 230 08:40 08.09.2019
2311 Clouds 18 1014 93 6000 2.6 230 08:19 08.09.2019
2312 Clouds 18 1014 88 8000 3.1 250 07:59 08.09.2019
2313 Clear 18 1014 88 10000 3.1 250 07:37 08.09.2019
2314 Clear 18 1014 88 10000 3.1 250 07:19 08.09.2019
2315 Clear 18 1013 88 10000 3.1 240 06:44 08.09.2019
2316 Clear 19 1013 82 10000 1.5 250 05:47 08.09.2019
2317 Clear 20 1013 77 10000 2.6 230 05:29 08.09.2019
2318 Clouds 22 1015 60 10000 1.5 70 03:39 08.09.2019
2319 Clouds 22 1015 60 10000 3.1 90 02:53 08.09.2019
2320 Clouds 23 1016 53 10000 1.5 60 01:57 08.09.2019
2321 Clouds 23 1016 56 10000 1.5 70 01:34 08.09.2019
2322 Clouds 23 1016 56 10000 1.5 70 01:34 08.09.2019
2323 Clouds 24 1016 50 10000 2.6 70 00:53 08.09.2019
2324 Clouds 24 1015 53 10000 1.5 80 00:34 08.09.2019
2325 Clouds 24 1015 53 10000 2.1 50 23:59 07.09.2019
2326 Clouds 24 1015 47 10000 1 90 23:37 07.09.2019
2327 Clouds 24 1015 47 10000 1 90 23:19 07.09.2019
2328 Clouds 25 1015 44 10000 3.1 80 22:56 07.09.2019
2329 Clouds 25 1015 44 10000 3.1 100 22:37 07.09.2019
2330 Clouds 25 1015 44 10000 3.1 100 22:18 07.09.2019
2331 Clouds 28 1013 45 10000 3.6 310 21:40 07.09.2019
2332 Clouds 28 1013 45 10000 3.6 310 21:22 07.09.2019
2333 Clouds 29 1013 42 10000 3.6 240 20:41 07.09.2019
2334 Clouds 29 1013 42 10000 3.6 240 20:22 07.09.2019
2335 Clouds 30 1013 40 10000 4.6 240 19:57 07.09.2019
2336 Clouds 30 1013 40 10000 4.6 220 19:39 07.09.2019
2337 Clouds 30 1013 40 10000 4.6 220 19:20 07.09.2019
2338 Clouds 30 1013 42 10000 2.6 0 18:59 07.09.2019
2339 Clouds 30 1013 42 10000 2.6 0 18:40 07.09.2019
2340 Clouds 30 1013 42 10000 2.6 0 18:21 07.09.2019
2341 Clouds 30 1013 42 10000 3.1 220 17:59 07.09.2019
2342 Clouds 30 1013 42 10000 2.1 0 17:39 07.09.2019
2343 Clouds 30 1013 42 10000 2.1 0 17:39 07.09.2019
2344 Clouds 30 1013 42 10000 2.1 0 17:19 07.09.2019
2345 Clouds 29 1013 45 10000 2.1 0 16:58 07.09.2019
2346 Clouds 29 1013 45 10000 2.1 0 16:58 07.09.2019
2347 Clouds 29 1013 45 10000 2.1 0 16:58 07.09.2019
2348 Clouds 29 1013 45 10000 1.5 0 16:40 07.09.2019
2349 Clouds 29 1013 45 10000 1.5 0 16:19 07.09.2019
2350 Clouds 29 1014 45 10000 1.5 0 15:46 07.09.2019
2351 Clouds 28 1014 48 10000 2.6 0 15:26 07.09.2019
2352 Clouds 28 1014 51 10000 1.5 280 14:57 07.09.2019
2353 Clouds 26 1015 57 10000 1 0 14:37 07.09.2019
2354 Clouds 26 1015 57 10000 1 0 14:18 07.09.2019
2355 Clouds 26 1015 57 10000 2.1 210 13:56 07.09.2019
2356 Clouds 26 1015 57 10000 2.1 210 13:56 07.09.2019
2357 Clouds 25 1015 61 10000 2.1 0 13:38 07.09.2019
2358 Clouds 25 1015 61 10000 2.1 0 13:20 07.09.2019
2359 Clouds 23 1015 73 10000 2.1 0 12:44 07.09.2019
2360 Clouds 23 1015 73 10000 2.1 0 12:25 07.09.2019
2361 Clouds 21 1015 77 10000 3.1 240 11:42 07.09.2019
2362 Clouds 21 1015 77 10000 3.1 240 11:23 07.09.2019
2363 Clouds 21 1015 77 9000 2.1 10 10:59 07.09.2019
2364 Clouds 20 1015 82 10000 1 0 10:38 07.09.2019
2365 Clouds 20 1015 82 10000 1 0 10:38 07.09.2019
2366 Clouds 20 1015 82 10000 1 0 10:19 07.09.2019
2367 Clouds 20 1015 82 10000 1 0 09:43 07.09.2019
2368 Clouds 20 1014 82 10000 2.1 230 09:25 07.09.2019
2369 Clouds 19 1014 88 10000 3.1 220 08:57 07.09.2019
2370 Clouds 20 1014 82 8000 2.6 220 08:37 07.09.2019
2371 Clouds 20 1014 82 8000 2.6 220 08:19 07.09.2019
2372 Clouds 19 1013 88 10000 2.1 240 07:45 07.09.2019
2373 Clouds 20 1012 82 10000 2.6 300 07:24 07.09.2019
2374 Clouds 19 1012 88 0 4.1 310 06:45 07.09.2019
2375 Clouds 20 1012 82 10000 4.1 290 06:19 07.09.2019
2376 Clouds 21 1013 77 10000 5.1 200 04:38 07.09.2019
2377 Clouds 21 1013 77 10000 5.1 200 04:19 07.09.2019
2378 Clouds 23 1015 69 8000 4.6 20 02:44 07.09.2019
2379 Clouds 23 1015 69 10000 3.1 340 01:44 07.09.2019
2380 Clouds 22 1014 73 10000 3.1 230 00:57 07.09.2019
2381 Clouds 23 1014 69 10000 3.1 260 00:38 07.09.2019
2382 Clouds 23 1014 69 10000 3.1 260 00:19 07.09.2019
2383 Thunderstorm 23 1014 64 6000 4.6 290 23:39 06.09.2019
2384 Thunderstorm 23 1014 64 6000 4.6 290 23:21 06.09.2019
2385 Thunderstorm 24 1014 64 6000 4.6 270 22:57 06.09.2019
2386 Thunderstorm 25 1014 61 6000 3.1 270 22:37 06.09.2019
2387 Thunderstorm 25 1014 61 6000 3.1 270 22:19 06.09.2019
2388 Thunderstorm 25 1013 61 6000 2.6 250 21:56 06.09.2019
2389 Rain 26 1013 54 6000 3.1 250 21:38 06.09.2019
2390 Rain 26 1013 54 6000 3.1 250 21:19 06.09.2019
2391 Clouds 27 1013 51 6000 2.1 260 20:55 06.09.2019
2392 Clouds 27 1013 51 6000 2.1 250 20:37 06.09.2019
2393 Clouds 27 1013 51 6000 2.1 250 20:37 06.09.2019
2394 Clouds 27 1013 51 6000 2.1 250 20:18 06.09.2019
2395 Clouds 27 1013 51 6000 1.5 270 19:42 06.09.2019
2396 Clouds 27 1013 51 6000 1.5 270 19:24 06.09.2019
2397 Clouds 28 1013 51 6000 4.1 240 18:58 06.09.2019
2398 Clouds 28 1012 51 6000 3.6 260 18:39 06.09.2019
2399 Clouds 28 1012 51 6000 3.6 260 18:21 06.09.2019
2400 Clouds 28 1012 51 6000 3.6 270 17:56 06.09.2019
2401 Clouds 26 1013 57 6000 2.6 230 17:37 06.09.2019
2402 Clouds 26 1013 57 6000 2.6 230 17:18 06.09.2019
2403 Clouds 27 1014 54 6000 4.1 270 16:38 06.09.2019
2404 Clouds 27 1014 54 6000 4.1 270 16:18 06.09.2019
2405 Clouds 26 1014 61 6000 3.6 290 15:41 06.09.2019
2406 Clouds 26 1014 61 6000 3.6 290 15:22 06.09.2019
2407 Clouds 24 1015 69 10000 3.6 280 14:48 06.09.2019
2408 Clouds 24 1015 69 10000 3.6 280 14:20 06.09.2019
2409 Clouds 22 1015 78 6000 3.1 290 13:45 06.09.2019
2410 Clouds 22 1015 78 6000 3.1 280 13:25 06.09.2019
2411 Clouds 22 1015 78 6000 3.1 280 12:59 06.09.2019
2412 Drizzle 22 1014 78 6000 2.1 320 12:37 06.09.2019
2413 Drizzle 22 1014 78 6000 2.1 320 12:18 06.09.2019
2414 Clouds 21 1014 77 10000 2.6 290 11:42 06.09.2019
2415 Clouds 21 1014 77 10000 2.6 290 11:24 06.09.2019
2416 Clouds 21 1014 77 10000 2.1 310 10:58 06.09.2019
2417 Clouds 21 1014 77 9000 2.6 280 10:39 06.09.2019
2418 Clouds 21 1014 77 9000 2.6 280 10:21 06.09.2019
2419 Clouds 21 1014 77 6000 4.1 270 09:40 06.09.2019
2420 Clouds 21 1014 77 6000 4.1 270 09:21 06.09.2019
2421 Clouds 21 1014 77 6000 4.1 270 09:21 06.09.2019
2422 Clouds 21 1014 77 6000 2.6 250 08:57 06.09.2019
2423 Clouds 21 1014 77 7000 2.1 260 08:38 06.09.2019
2424 Clouds 21 1014 77 7000 2.1 260 08:20 06.09.2019
2425 Clouds 21 1014 83 7000 2.1 250 07:45 06.09.2019
2426 Clouds 21 1014 83 7000 1.5 240 07:27 06.09.2019
2427 Clouds 20 1014 82 7000 1.5 250 06:56 06.09.2019
2428 Clouds 20 1014 82 7000 2.6 230 05:58 06.09.2019
2429 Clouds 21 1014 77 8000 3.1 220 05:29 06.09.2019
2430 Clouds 21 1014 77 8000 2.1 250 04:42 06.09.2019
2431 Clouds 21 1015 77 8000 3.6 260 03:45 06.09.2019
2432 Clouds 21 1015 77 8000 3.6 260 03:45 06.09.2019
2433 Clear 22 1015 73 10000 4.6 250 01:53 06.09.2019
2434 Clear 24 1016 69 10000 3.6 290 00:40 06.09.2019
2435 Clouds 26 1015 61 10000 3.6 350 23:44 05.09.2019
2436 Clouds 26 1015 61 10000 3.6 350 23:25 05.09.2019
2437 -273 0 0 0 0 0 22:55 05.09.2019
2438 Clouds 27 1014 51 8000 3.6 250 22:37 05.09.2019
2439 Clouds 27 1014 51 8000 3.6 250 22:19 05.09.2019
2440 Clouds 28 1014 45 10000 5.1 270 21:56 05.09.2019
2441 Clouds 30 1013 42 9000 3.1 220 21:37 05.09.2019
2442 Clouds 30 1013 42 9000 3.1 220 21:19 05.09.2019
2443 Clouds 31 1013 35 9000 2.1 230 20:55 05.09.2019
2444 Clouds 31 1013 38 9000 1 0 20:36 05.09.2019
2445 Clouds 31 1013 38 9000 1 0 20:18 05.09.2019
2446 Clouds 31 1013 40 10000 1.5 0 19:42 05.09.2019
2447 Clouds 31 1013 40 10000 1.5 0 19:23 05.09.2019
2448 Clouds 32 1013 38 9000 1.5 310 18:57 05.09.2019
2449 Clouds 32 1013 38 9000 1.5 310 18:57 05.09.2019
2450 Clouds 31 1014 43 10000 2.1 260 18:39 05.09.2019
2451 Clouds 31 1014 43 10000 2.1 260 18:19 05.09.2019
2452 Clouds 31 1014 43 10000 2.6 0 17:42 05.09.2019
2453 Clouds 31 1014 43 10000 2.6 0 17:23 05.09.2019
2454 Clouds 30 1014 45 9000 2.1 0 16:58 05.09.2019
2455 Clouds 30 1014 45 9000 2.1 0 16:58 05.09.2019
2456 Clouds 30 1015 45 8000 1 0 16:40 05.09.2019
2457 Clouds 30 1015 45 8000 1 0 16:20 05.09.2019
2458 Clouds 29 1015 48 7000 2.6 330 15:57 05.09.2019
2459 Clouds 28 1016 51 7000 2.6 280 15:38 05.09.2019
2460 Clouds 28 1016 51 7000 2.6 280 15:18 05.09.2019
2461 Clouds 27 1016 54 6000 2.1 340 14:43 05.09.2019
2462 Clouds 27 1016 54 6000 1.5 360 14:22 05.09.2019
2463 Mist 25 1017 61 4000 1.5 350 13:44 05.09.2019
2464 Mist 25 1017 61 4000 1.5 350 13:23 05.09.2019
2465 Clouds 23 1017 69 8000 1.5 290 12:59 05.09.2019
2466 Clouds 22 1017 68 8000 1.5 270 12:41 05.09.2019
2467 Clouds 22 1017 68 8000 1.5 270 12:41 05.09.2019
2468 Clouds 22 1017 68 8000 1.5 270 12:22 05.09.2019
2469 Clouds 21 1017 77 8000 2.1 270 11:44 05.09.2019
2470 Clouds 21 1017 73 10000 3.1 250 11:20 05.09.2019
2471 Clouds 20 1017 77 10000 2.1 240 10:57 05.09.2019
2472 Clouds 20 1017 77 10000 1.5 250 10:36 05.09.2019
2473 Clouds 20 1017 77 10000 1.5 250 10:18 05.09.2019
2474 Clouds 20 1017 77 10000 2.1 230 09:40 05.09.2019
2475 Clouds 20 1017 77 10000 2.1 230 09:20 05.09.2019
2476 Clouds 19 1017 82 10000 2.1 240 08:55 05.09.2019
2477 Clouds 19 1017 82 10000 2.1 240 08:55 05.09.2019
2478 Clouds 19 1017 82 10000 2.6 250 08:37 05.09.2019
2479 Clouds 19 1017 82 10000 2.6 250 08:19 05.09.2019
2480 Clouds 19 1016 82 10000 3.1 260 07:42 05.09.2019
2481 Clouds 19 1016 82 10000 3.1 260 07:23 05.09.2019
2482 Clear 19 1016 82 0 3.6 240 06:44 05.09.2019
2483 Clear 19 1016 77 10000 3.6 240 06:22 05.09.2019
2484 Clear 20 1016 72 10000 3.1 230 05:42 05.09.2019
2485 Clear 20 1016 72 10000 3.1 230 05:23 05.09.2019
2486 Clear 20 1017 72 10000 4.1 230 04:30 05.09.2019
2487 Clear 21 1017 68 10000 3.6 230 03:46 05.09.2019
2488 Clear 21 1018 68 10000 3.6 230 02:56 05.09.2019
2489 Clouds 22 1018 64 10000 3.1 230 02:28 05.09.2019
2490 Clouds 22 1018 64 10000 3.1 230 02:28 05.09.2019
2491 Clouds 22 1018 68 10000 3.1 230 01:54 05.09.2019
2492 Clouds 23 1019 64 10000 3.1 260 00:52 05.09.2019
2493 Clouds 24 1019 64 10000 3.6 280 00:27 05.09.2019
2494 Clouds 24 1018 60 10000 4.1 280 23:59 04.09.2019
2495 Clouds 25 1018 57 10000 4.1 310 23:39 04.09.2019
2496 Clouds 25 1018 57 10000 4.1 310 23:21 04.09.2019
2497 Clouds 27 1018 54 10000 3.6 330 22:47 04.09.2019
2498 Clouds 28 1017 48 10000 3.1 310 22:20 04.09.2019
2499 Clouds 28 1017 51 8000 4.6 330 21:55 04.09.2019
2500 Clouds 28 1017 51 8000 4.6 330 21:55 04.09.2019
2501 Clouds 28 1017 51 8000 4.6 330 21:55 04.09.2019
2502 Clouds 28 1017 51 8000 4.6 330 21:55 04.09.2019
2503 Clouds 30 1016 42 8000 5.1 310 21:37 04.09.2019
2504 Clouds 30 1016 42 8000 5.1 310 21:18 04.09.2019
2505 Clouds 31 1016 38 10000 5.1 280 20:54 04.09.2019
2506 Clouds 31 1016 40 10000 5.1 280 20:36 04.09.2019
2507 Clouds 31 1016 40 10000 5.1 280 20:18 04.09.2019
2508 Clouds 33 1016 36 10000 4.1 260 19:39 04.09.2019
2509 Clouds 33 1016 36 10000 4.1 260 19:20 04.09.2019
2510 Clouds 33 1016 36 10000 3.6 260 18:41 04.09.2019
2511 Clouds 33 1016 36 10000 3.6 260 18:23 04.09.2019
2512 Clouds 34 1016 34 10000 3.6 290 17:56 04.09.2019
2513 Clouds 34 1016 34 10000 3.6 290 17:56 04.09.2019
2514 Clouds 32 1016 38 10000 4.1 250 17:38 04.09.2019
2515 Clouds 32 1016 38 10000 4.1 250 17:20 04.09.2019
2516 Clouds 33 1017 36 10000 2.6 0 16:48 04.09.2019
2517 Clouds 33 1017 36 10000 3.1 290 16:28 04.09.2019
2518 Clouds 32 1018 40 10000 2.1 0 15:59 04.09.2019
2519 Clouds 31 1018 43 10000 2.6 0 15:39 04.09.2019
2520 Clouds 31 1018 43 10000 2.6 0 15:21 04.09.2019
2521 Clouds 30 1018 45 10000 3.1 310 14:58 04.09.2019
2522 Clouds 29 1018 48 10000 2.6 330 14:37 04.09.2019
2523 Clouds 29 1018 48 10000 2.6 330 14:19 04.09.2019
2524 Clouds 29 1018 48 10000 1.5 320 13:57 04.09.2019
2525 Clouds 29 1019 48 10000 2.1 300 13:37 04.09.2019
2526 Clouds 29 1019 48 10000 2.1 300 13:19 04.09.2019
2527 Clouds 26 1019 61 10000 2.6 320 12:41 04.09.2019
2528 Clouds 26 1019 61 10000 2.6 320 12:23 04.09.2019
2529 Clouds 26 1019 61 10000 1 0 11:56 04.09.2019
2530 Clouds 24 1019 64 10000 1.5 250 11:37 04.09.2019
2531 Clouds 24 1019 64 10000 1.5 250 11:37 04.09.2019
2532 Clouds 24 1019 64 10000 1.5 250 11:19 04.09.2019
2533 Clouds 23 1019 69 10000 1.5 250 10:44 04.09.2019
2534 Clouds 23 1019 69 10000 1 0 10:25 04.09.2019
2535 Clouds 21 1019 77 10000 1.5 240 09:57 04.09.2019
2536 Clouds 20 1018 82 10000 2.1 250 09:39 04.09.2019
2537 Clouds 20 1018 82 10000 2.1 250 09:18 04.09.2019
2538 Clouds 20 1018 82 10000 2.1 250 08:41 04.09.2019
2539 Clouds 20 1018 82 10000 2.1 250 08:23 04.09.2019
2540 Clouds 20 1018 82 10000 2.1 250 07:56 04.09.2019
2541 Clouds 20 1017 82 10000 1.5 240 07:33 04.09.2019
2542 Clouds 21 1017 77 10000 1.5 240 06:49 04.09.2019
2543 Clouds 21 1017 77 10000 2.1 230 06:21 04.09.2019
2544 Clouds 21 1018 77 10000 2.6 240 04:53 04.09.2019
2545 Clouds 21 1018 77 10000 3.1 230 04:20 04.09.2019
2546 Clouds 22 1019 73 10000 5.1 250 02:21 04.09.2019
2547 Clouds 23 1020 69 10000 5.1 230 00:56 04.09.2019
2548 Clouds 24 1019 64 10000 4.6 230 00:36 04.09.2019
2549 Clouds 27 1019 54 10000 5.1 290 00:00 04.09.2019
2550 Clouds 27 1019 54 10000 5.1 290 23:38 03.09.2019
2551 Clouds 27 1019 54 10000 5.1 290 23:20 03.09.2019
2552 Clouds 29 1018 45 10000 4.1 250 22:40 03.09.2019
2553 Clouds 29 1018 45 10000 4.1 250 22:22 03.09.2019
2554 Clouds 29 1018 45 10000 4.6 260 21:56 03.09.2019
2555 Clouds 32 1017 31 10000 5.1 260 21:38 03.09.2019
2556 Clouds 32 1017 31 10000 5.1 260 21:20 03.09.2019
2557 Clouds 35 1017 19 10000 4.6 240 20:44 03.09.2019
2558 Clouds 35 1017 19 10000 4.6 240 20:24 03.09.2019
2559 Clouds 35 1017 19 10000 4.6 240 20:24 03.09.2019
2560 Clouds 36 1017 18 10000 4.1 250 19:57 03.09.2019
2561 Clouds 36 1017 19 10000 4.6 250 19:39 03.09.2019
2562 Clouds 36 1017 19 10000 4.6 250 19:19 03.09.2019
2563 Clouds 36 1017 14 10000 3.6 270 18:56 03.09.2019
2564 Clouds 37 1017 18 10000 2.6 310 18:38 03.09.2019
2565 Clouds 37 1017 18 10000 2.6 310 18:18 03.09.2019
2566 Clouds 34 1017 28 10000 2.1 340 17:42 03.09.2019
2567 Clouds 34 1017 28 10000 2.1 340 17:21 03.09.2019
2568 Clouds 34 1017 28 10000 2.1 340 16:59 03.09.2019
2569 Clouds 34 1018 34 10000 1.5 20 16:39 03.09.2019
2570 Clouds 34 1018 34 10000 1.5 20 16:21 03.09.2019
2571 Clouds 32 1018 43 10000 1.5 300 15:41 03.09.2019
2572 Clouds 32 1018 43 10000 1.5 300 15:22 03.09.2019
2573 Clouds 31 1019 45 10000 1.5 0 14:58 03.09.2019
2574 Clouds 29 1019 51 8000 2.1 290 14:40 03.09.2019
2575 Clouds 29 1019 51 8000 2.1 290 14:20 03.09.2019
2576 Clear 28 1019 48 0 1.61 330.392 13:57 03.09.2019
2577 Clear 28 1019 48 0 1.61 330.392 13:57 03.09.2019
2578 Clear 28 1019 48 0 1.61 330.392 13:37 03.09.2019
2579 Clouds 25 1020 65 8000 2.6 240 13:19 03.09.2019
2580 Clouds 25 1020 65 8000 2.6 240 13:19 03.09.2019
2581 Clouds 25 1020 65 8000 2.6 240 12:56 03.09.2019
2582 Clouds 25 1020 65 8000 2.6 240 12:38 03.09.2019
2583 Clouds 25 1020 65 8000 2.6 240 12:19 03.09.2019
2584 Clouds 25 1020 65 8000 2.6 240 12:19 03.09.2019
2585 Clouds 24 1019 69 10000 4.1 260 11:41 03.09.2019
2586 Clouds 24 1019 69 10000 4.1 260 11:22 03.09.2019
2587 Clear 22 1019 78 10000 3.6 230 10:56 03.09.2019
2588 Clear 20 1019 82 10000 4.1 240 10:38 03.09.2019
2589 Clear 20 1019 82 10000 4.1 240 10:19 03.09.2019
2590 Clear 20 1018 82 10000 3.6 250 09:44 03.09.2019
2591 Clear 20 1018 82 10000 3.6 250 09:25 03.09.2019
2592 Clear 20 1017 82 10000 3.6 230 08:54 03.09.2019
2593 Clear 20 1017 82 10000 3.1 220 08:36 03.09.2019
2594 Clear 20 1017 82 10000 3.1 220 08:18 03.09.2019
2595 Clear 20 1016 82 10000 2.1 250 07:40 03.09.2019
2596 Clear 20 1016 82 10000 2.1 250 07:21 03.09.2019
2597 Clear 20 1016 82 10000 2.1 230 06:44 03.09.2019
2598 Clear 21 1015 77 10000 2.1 270 05:52 03.09.2019
2599 Clear 23 1016 69 10000 3.1 260 03:35 03.09.2019
2600 Clear 23 1017 69 10000 3.1 240 02:43 03.09.2019
2601 Clear 24 1017 64 10000 4.1 220 02:23 03.09.2019
2602 Clear 25 1017 61 10000 3.6 220 01:48 03.09.2019
2603 Clear 26 1018 57 10000 2.1 70 01:28 03.09.2019
2604 Rain 27 1017 54 8000 3.6 360 00:40 03.09.2019
2605 Clear 27 1017 54 8000 3.6 360 00:18 03.09.2019
2606 Clouds 28 1017 51 10000 4.1 360 23:40 02.09.2019
2607 Clouds 28 1017 51 10000 4.1 360 23:20 02.09.2019
2608 Clouds 28 1017 51 10000 4.1 360 23:20 02.09.2019
2609 Clouds 29 1016 48 10000 4.6 350 22:56 02.09.2019
2610 Clouds 30 1016 45 10000 4.1 340 22:37 02.09.2019
2611 Clouds 30 1016 45 10000 4.1 340 22:19 02.09.2019
2612 Clouds 32 1015 31 10000 3.1 280 21:56 02.09.2019
2613 Clouds 32 1015 31 10000 2.6 300 21:38 02.09.2019
2614 Clouds 32 1015 31 10000 2.6 300 21:20 02.09.2019
2615 Clouds 32 1015 31 10000 1.5 320 20:55 02.09.2019
2616 Clouds 33 1014 29 10000 2.1 320 20:37 02.09.2019
2617 Clouds 33 1014 29 10000 2.1 320 20:18 02.09.2019
2618 Clouds 33 1014 31 10000 2.6 290 19:55 02.09.2019
2619 Clouds 34 1014 30 10000 2.6 290 19:37 02.09.2019
2620 Clouds 34 1014 30 10000 2.6 290 19:18 02.09.2019
2621 Clouds 34 1014 32 10000 2.6 280 18:38 02.09.2019
2622 Clouds 34 1014 32 10000 2.6 280 18:20 02.09.2019
2623 Clouds 33 1014 33 10000 3.1 280 17:56 02.09.2019
2624 Clouds 33 1015 36 10000 2.1 320 17:37 02.09.2019
2625 Clouds 33 1015 36 10000 3.6 280 17:19 02.09.2019
2626 Clouds 33 1015 36 10000 1 0 16:41 02.09.2019
2627 Clouds 33 1015 36 10000 1 0 16:21 02.09.2019
2628 Clouds 32 1015 38 10000 1.5 320 15:55 02.09.2019
2629 Clouds 31 1016 43 10000 2.6 280 15:37 02.09.2019
2630 Clouds 31 1016 43 10000 2.6 280 15:18 02.09.2019
2631 Clouds 30 1016 45 10000 2.1 330 14:56 02.09.2019
2632 Clear 29 1016 48 10000 2.1 310 14:36 02.09.2019
2633 Clear 29 1016 48 10000 2.1 310 14:18 02.09.2019
2634 Clear 28 1016 54 10000 1 0 13:43 02.09.2019
2635 Clear 28 1016 54 10000 1 0 13:24 02.09.2019
2636 Clear 28 1016 51 10000 1.5 0 12:47 02.09.2019
2637 Clouds 25 1016 61 10000 1.5 300 12:27 02.09.2019
2638 Clouds 25 1016 61 10000 1.5 300 11:59 02.09.2019
2639 Clear 24 1016 69 0 2.1 320 11:40 02.09.2019
2640 Clear 24 1016 69 0 2.1 320 11:22 02.09.2019
2641 Clear 23 1016 69 9000 2.1 260 10:58 02.09.2019
2642 Clear 21 1016 77 8000 2.6 270 10:39 02.09.2019
2643 Clear 21 1016 77 8000 2.6 270 10:20 02.09.2019
2644 Clouds 21 1015 77 10000 2.1 260 09:58 02.09.2019
2645 Clouds 20 1015 82 10000 2.1 240 09:37 02.09.2019
2646 Clouds 20 1015 82 10000 2.1 240 09:18 02.09.2019
2647 Clouds 19 1015 82 10000 2.1 240 08:39 02.09.2019
2648 Clouds 19 1015 82 10000 2.1 240 08:18 02.09.2019
2649 Clouds 19 1015 82 10000 2.1 240 08:18 02.09.2019
2650 Clouds 20 1014 82 10000 3.1 230 07:41 02.09.2019
2651 Clouds 20 1014 82 10000 3.1 230 07:21 02.09.2019
2652 Clouds 19 1014 82 10000 3.6 230 06:48 02.09.2019
2653 Clouds 20 1015 77 10000 3.1 230 06:30 02.09.2019
2654 Clouds 20 1014 77 10000 3.6 230 05:49 02.09.2019
2655 Clear 20 1015 77 0 3.6 240 05:19 02.09.2019
2656 Clouds 21 1015 73 10000 3.6 230 04:34 02.09.2019
2657 Clouds 23 1015 64 10000 4.6 240 01:50 02.09.2019
2658 Clouds 26 1015 54 10000 2.6 300 00:55 02.09.2019
2659 Clouds 26 1015 54 10000 2.1 340 00:32 02.09.2019
2660 Clouds 27 1015 51 10000 2.1 350 23:48 01.09.2019
2661 Clouds 27 1015 51 10000 4.1 340 23:23 01.09.2019
2662 Clouds 28 1014 48 8000 4.6 340 22:59 01.09.2019
2663 Clouds 29 1014 45 10000 4.6 360 22:40 01.09.2019
2664 Clouds 29 1014 45 10000 4.6 360 22:20 01.09.2019
2665 Clouds 30 1013 42 10000 3.6 40 21:58 01.09.2019
2666 Clouds 30 1013 42 10000 2.6 220 21:39 01.09.2019
2667 Clouds 30 1013 42 10000 2.6 220 21:21 01.09.2019
2668 Rain 31 1013 40 10000 4.6 250 20:57 01.09.2019
2669 Clouds 31 1013 35 10000 5.7 140 20:38 01.09.2019
2670 Clouds 31 1013 35 10000 5.7 140 20:18 01.09.2019
2671 Clouds 31 1013 35 10000 5.7 140 20:18 01.09.2019
2672 Clouds 32 1013 31 10000 5.1 140 19:58 01.09.2019
2673 Clouds 32 1013 31 10000 5.1 140 19:58 01.09.2019
2674 Clouds 32 1013 31 10000 5.1 140 19:58 01.09.2019
2675 Clouds 35 1012 28 10000 2.1 270 19:37 01.09.2019
2676 Clouds 35 1012 28 10000 2.1 270 19:19 01.09.2019
2677 Clouds 36 1013 28 10000 1 0 18:43 01.09.2019
2678 Clouds 36 1013 28 10000 1 0 18:25 01.09.2019
2679 Clouds 35 1013 30 10000 1 0 17:56 01.09.2019
2680 Clouds 35 1013 30 10000 1 0 17:56 01.09.2019
2681 Clouds 34 1013 32 10000 4.1 250 17:38 01.09.2019
2682 Clouds 34 1013 32 10000 4.1 250 17:19 01.09.2019
2683 Clouds 34 1013 32 10000 4.1 250 17:19 01.09.2019
2684 Clouds 33 1013 36 10000 3.6 230 16:41 01.09.2019
2685 Clouds 33 1013 36 10000 3.6 230 16:19 01.09.2019
2686 Clouds 33 1014 33 10000 2.6 270 15:49 01.09.2019
2687 Clouds 32 1014 38 10000 3.1 300 15:31 01.09.2019
2688 Clouds 32 1014 38 10000 1.5 300 14:59 01.09.2019
2689 Clouds 30 1014 42 10000 3.1 310 14:40 01.09.2019
2690 Clouds 30 1014 42 10000 3.1 310 14:21 01.09.2019
2691 Clouds 29 1014 48 10000 2.6 360 13:54 01.09.2019
2692 Clouds 29 1014 48 10000 2.6 360 13:54 01.09.2019
2693 Clouds 29 1015 48 10000 2.6 0 13:36 01.09.2019
2694 Clouds 29 1015 48 10000 2.6 0 13:18 01.09.2019
2695 Clear 27 1015 54 10000 1.5 250 12:41 01.09.2019
2696 Clear 27 1015 54 10000 1.5 250 12:22 01.09.2019
2697 Clear 25 1015 65 7000 1.5 280 11:41 01.09.2019
2698 Clear 25 1015 65 7000 1.5 280 11:41 01.09.2019
2699 Clear 25 1015 65 7000 1.5 280 11:20 01.09.2019
2700 Clear 23 1015 73 10000 2.1 260 10:59 01.09.2019
2701 Clear 22 1015 78 8000 2.6 250 10:41 01.09.2019
2702 Clear 22 1015 78 8000 2.6 250 10:21 01.09.2019
2703 Clear 20 1015 82 10000 2.6 230 09:43 01.09.2019
2704 Clear 20 1015 82 10000 2.6 230 09:25 01.09.2019
2705 Clear 22 1014 66 0 2.26 310.879 08:44 01.09.2019
2706 Clear 22 1014 66 0 2.26 310.879 08:24 01.09.2019
2707 Clear 22 1014 66 0 2.26 310.879 07:51 01.09.2019
2708 Clear 22 1014 66 0 2.26 310.879 07:33 01.09.2019
2709 Clear 22 1014 66 0 2.26 310.879 06:47 01.09.2019
2710 Clear 23 1014 58 0 2.27 316.535 06:26 01.09.2019
2711 Clear 23 1014 58 0 2.27 316.535 05:56 01.09.2019
2712 Clear 23 1014 58 0 2.27 316.535 05:56 01.09.2019
2713 Clear 22 1015 68 10000 2.6 220 04:32 01.09.2019
2714 Clear 23 1014 58 0 2.27 316.535 03:42 01.09.2019
2715 Clouds 23 1016 64 9000 2.1 250 02:58 01.09.2019
2716 Clouds 23 1016 64 9000 2.1 250 02:28 01.09.2019
2717 Clouds 24 1016 60 9000 2.6 230 01:51 01.09.2019
2718 Clouds 24 1016 60 9000 4.1 270 01:23 01.09.2019
2719 Clouds 26 1016 50 10000 3.1 260 00:46 01.09.2019
2720 Clouds 26 1017 50 10000 2.6 260 00:22 01.09.2019
2721 Clouds 28 1017 45 10000 3.1 270 23:54 31.08.2019
2722 Clouds 29 1016 42 10000 4.6 360 23:36 31.08.2019
2723 Clouds 29 1016 42 10000 4.6 360 23:18 31.08.2019
2724 Clouds 29 1016 42 10000 4.6 360 23:18 31.08.2019
2725 Clouds 29 1015 42 10000 4.6 360 22:42 31.08.2019
2726 Clouds 29 1015 42 10000 4.6 360 22:24 31.08.2019
2727 Clouds 30 1014 40 10000 7.7 350 21:56 31.08.2019
2728 Clouds 33 1014 33 10000 5.1 330 21:37 31.08.2019
2729 Clouds 33 1014 33 10000 5.1 330 21:37 31.08.2019
2730 Clouds 33 1014 33 10000 5.1 330 21:19 31.08.2019
2731 Clouds 36 1013 25 10000 2.6 310 20:47 31.08.2019
2732 Clouds 37 1013 23 10000 3.1 280 20:28 31.08.2019
2733 Clouds 37 1013 20 10000 2.1 280 19:56 31.08.2019
2734 Clouds 37 1013 22 10000 2.1 220 19:37 31.08.2019
2735 Clouds 37 1013 22 10000 2.1 220 19:19 31.08.2019
2736 Clouds 37 1013 22 10000 2.6 0 18:39 31.08.2019
2737 Clouds 37 1013 22 10000 2.6 0 18:20 31.08.2019
2738 Clouds 37 1014 23 10000 2.1 0 17:55 31.08.2019
2739 Clouds 38 1014 22 10000 1 0 17:37 31.08.2019
2740 Clouds 36 1014 26 10000 1.5 190 17:18 31.08.2019
2741 Clouds 36 1014 26 10000 1.5 190 16:56 31.08.2019
2742 Clouds 36 1015 28 10000 2.6 60 16:37 31.08.2019
2743 Clouds 36 1015 28 10000 2.6 60 16:19 31.08.2019
2744 Clouds 35 1016 32 10000 2.6 0 15:42 31.08.2019
2745 Clouds 35 1016 32 10000 2.6 0 15:19 31.08.2019
2746 Clouds 35 1016 30 10000 2.1 340 14:56 31.08.2019
2747 Clouds 34 1016 34 10000 2.6 340 14:37 31.08.2019
2748 Clouds 34 1016 34 10000 2.6 340 14:19 31.08.2019
2749 Clouds 32 1017 40 10000 2.6 280 13:41 31.08.2019
2750 Clouds 32 1017 40 10000 2.6 280 13:22 31.08.2019
2751 Clear 31 1017 43 10000 3.1 320 12:58 31.08.2019
2752 Clear 30 1017 45 10000 2.1 300 12:38 31.08.2019
2753 Clear 30 1017 45 10000 2.1 300 12:19 31.08.2019
2754 Clear 28 1017 51 10000 2.6 300 11:48 31.08.2019
2755 Clear 28 1017 51 10000 2.6 300 11:29 31.08.2019
2756 Clear 27 1017 54 10000 3.1 300 10:59 31.08.2019
2757 Clear 26 1017 57 10000 2.6 280 10:41 31.08.2019
2758 Clear 26 1017 57 10000 2.6 280 10:19 31.08.2019
2759 Clear 25 1017 61 10000 2.6 270 09:56 31.08.2019
2760 Clear 25 1017 61 10000 2.1 270 09:37 31.08.2019
2761 Clear 25 1017 61 10000 2.1 270 09:19 31.08.2019
2762 Clear 24 1016 64 10000 1 240 08:42 31.08.2019
2763 Clear 24 1016 64 10000 1 240 08:22 31.08.2019
2764 Clear 24 1016 64 10000 1.5 240 07:40 31.08.2019
2765 Clear 24 1016 64 10000 1.5 240 07:21 31.08.2019
2766 Clear 24 1016 64 10000 2.1 210 06:28 31.08.2019
2767 Clear 24 1016 64 10000 1.5 220 05:58 31.08.2019
2768 Clear 24 1016 60 10000 1.5 230 05:31 31.08.2019
2769 Clear 25 1017 57 10000 1.5 250 04:32 31.08.2019
2770 Clear 25 1017 57 10000 2.1 230 03:44 31.08.2019
2771 Clear 28 1018 54 10000 1.5 150 02:30 31.08.2019
2772 Clouds 28 1018 54 10000 2.6 30 01:52 31.08.2019
2773 Clouds 28 1018 54 10000 2.6 350 01:31 31.08.2019
2774 Clouds 29 1018 51 10000 3.1 300 00:49 31.08.2019
2775 Clouds 29 1018 51 10000 3.1 300 00:49 31.08.2019
2776 Clouds 28 1018 51 10000 2.6 240 00:28 31.08.2019
2777 Clouds 29 1018 48 10000 3.1 230 23:57 30.08.2019
2778 Clouds 29 1017 48 10000 4.1 190 23:38 30.08.2019
2779 Clouds 29 1017 48 10000 4.1 190 23:18 30.08.2019
2780 Clouds 30 1016 48 10000 4.6 170 22:40 30.08.2019
2781 Clouds 30 1016 48 10000 4.6 170 22:40 30.08.2019
2782 Clouds 30 1016 48 10000 4.6 170 22:40 30.08.2019
2783 Clouds 30 1016 48 10000 4.6 170 22:40 30.08.2019
2784 Clouds 30 1016 48 10000 4.6 170 22:21 30.08.2019
2785 Clouds 32 1016 40 10000 5.1 200 21:58 30.08.2019
2786 Clouds 33 1016 33 10000 3.1 220 21:37 30.08.2019
2787 Clouds 33 1016 33 10000 3.1 220 21:19 30.08.2019
2788 Clouds 33 1016 33 10000 3.1 220 21:19 30.08.2019
2789 Clouds 34 1016 34 10000 1.5 330 20:58 30.08.2019
2790 Clouds 34 1016 34 10000 1.5 330 20:39 30.08.2019
2791 Clouds 34 1016 34 10000 1.5 330 20:20 30.08.2019
2792 Clouds 34 1016 36 10000 2.1 270 19:56 30.08.2019
2793 Clouds 35 1015 32 10000 6.2 220 19:38 30.08.2019
2794 Clouds 35 1015 32 10000 6.2 220 19:19 30.08.2019
2795 Clouds 34 1015 32 10000 8.2 200 18:46 30.08.2019
2796 Clouds 34 1015 32 10000 8.2 200 18:25 30.08.2019
2797 Clouds 36 1015 28 10000 5.7 220 17:58 30.08.2019
2798 Clouds 37 1015 27 10000 4.6 240 17:40 30.08.2019
2799 Clouds 37 1015 27 10000 4.6 240 17:19 30.08.2019
2800 Clouds 37 1015 27 10000 4.6 240 17:19 30.08.2019
2801 Clouds 38 1016 24 10000 3.6 290 16:57 30.08.2019
2802 Clouds 38 1016 24 10000 3.1 320 16:39 30.08.2019
2803 Clouds 38 1016 24 10000 3.1 320 16:20 30.08.2019
2804 Clouds 38 1017 25 10000 2.1 0 15:42 30.08.2019
2805 Clouds 38 1017 25 10000 2.1 0 15:21 30.08.2019
2806 Clouds 37 1017 27 10000 2.1 320 14:45 30.08.2019
2807 Clouds 35 1017 32 10000 1 0 14:26 30.08.2019
2808 Clouds 33 1018 36 10000 1 0 13:57 30.08.2019
2809 Clouds 32 1018 40 10000 2.1 290 13:39 30.08.2019
2810 Clouds 32 1018 40 10000 2.1 290 13:21 30.08.2019
2811 Clouds 32 1018 40 9000 2.1 321.485 12:45 30.08.2019
2812 Clouds 32 1018 40 9000 2.1 321.485 12:45 30.08.2019
2813 Clouds 32 1018 38 10000 0.69 45.82 12:25 30.08.2019
2814 Clouds 30 1018 42 10000 1 0 11:57 30.08.2019
2815 Clouds 30 1017 42 10000 1 0 11:39 30.08.2019
2816 Clouds 30 1017 42 10000 1 0 11:39 30.08.2019
2817 -273 0 0 0 0 0 11:21 30.08.2019
2818 Clouds 29 1017 45 10000 1 0 10:37 30.08.2019
2819 Clouds 29 1017 45 10000 1 0 10:19 30.08.2019
2820 -273 0 0 0 0 0 09:55 30.08.2019
2821 Clouds 27 1017 47 10000 5.1 110 09:36 30.08.2019
2822 Clouds 27 1017 47 10000 5.1 110 09:18 30.08.2019
2823 Clouds 27 1017 51 10000 4.1 100 08:43 30.08.2019
2824 Clouds 27 1017 51 10000 4.1 100 08:23 30.08.2019
2825 Clouds 26 1017 57 10000 2.1 60 07:46 30.08.2019
2826 Clouds 27 1017 51 10000 3.1 120 07:26 30.08.2019
2827 Rain 27 1016 51 0 3.6 100 06:58 30.08.2019
2828 Clouds 27 1016 51 10000 1.5 80 06:39 30.08.2019
2829 Clouds 27 1016 51 10000 1.5 80 06:20 30.08.2019
2830 Clouds 27 1016 51 10000 2.1 60 05:28 30.08.2019
2831 Clouds 28 1017 48 10000 4.6 100 03:56 30.08.2019
2832 Clouds 28 1017 48 0 5.1 90 03:37 30.08.2019
2833 Clouds 28 1018 48 10000 5.1 80 02:41 30.08.2019
2834 Clouds 28 1018 48 10000 4.1 80 01:40 30.08.2019
2835 Clouds 28 1019 48 10000 3.1 80 00:53 30.08.2019
2836 Clouds 28 1019 48 10000 3.6 60 00:19 30.08.2019
2837 Clouds 28 1019 48 10000 4.1 70 23:47 29.08.2019
2838 Clouds 28 1019 48 10000 3.6 60 23:22 29.08.2019
2839 Clouds 28 1019 48 10000 3.6 60 23:22 29.08.2019
2840 Clouds 28 1019 48 10000 3.6 60 23:22 29.08.2019
2841 Clouds 28 1019 48 10000 3.1 40 22:45 29.08.2019
2842 Clouds 29 1019 45 10000 4.1 360 22:27 29.08.2019
2843 Clouds 31 1019 38 10000 4.1 20 21:59 29.08.2019
2844 Clouds 31 1019 35 10000 3.6 10 21:41 29.08.2019
2845 Clouds 31 1019 35 10000 3.6 10 21:21 29.08.2019
2846 Clouds 32 1019 35 10000 4.1 330 20:58 29.08.2019
2847 Clouds 32 1019 35 10000 4.1 330 20:39 29.08.2019
2848 Clouds 32 1019 35 10000 4.1 330 20:19 29.08.2019
2849 Clouds 34 1018 30 9000 1.5 280 19:47 29.08.2019
2850 Clouds 34 1018 30 9000 1.5 280 19:26 29.08.2019
2851 Clouds 34 1018 30 10000 1.5 360 18:58 29.08.2019
2852 Clouds 34 1018 30 10000 1.5 360 18:40 29.08.2019
2853 Clouds 34 1018 30 10000 3.6 320 18:19 29.08.2019
2854 Clouds 34 1018 30 10000 3.6 320 17:54 29.08.2019
2855 Clouds 34 1018 30 10000 3.6 320 17:36 29.08.2019
2856 Clouds 34 1018 30 10000 3.1 320 17:18 29.08.2019
2857 Clouds 34 1019 30 10000 3.6 280 16:42 29.08.2019
2858 Clouds 34 1019 30 10000 3.6 280 16:23 29.08.2019
2859 Clouds 32 1019 33 10000 3.6 320 15:41 29.08.2019
2860 Clouds 32 1019 33 10000 3.6 320 15:22 29.08.2019
2861 Clouds 32 1019 31 10000 4.1 300 14:59 29.08.2019
2862 Clouds 32 1019 31 10000 4.1 300 14:41 29.08.2019
2863 Clouds 32 1019 31 10000 4.1 300 14:20 29.08.2019
2864 Clouds 32 1019 33 10000 3.6 340 13:57 29.08.2019
2865 Clouds 33 1019 33 10000 2.6 310 13:39 29.08.2019
2866 Clouds 33 1019 33 10000 2.6 310 13:39 29.08.2019
2867 Clouds 33 1019 33 10000 2.6 310 13:39 29.08.2019
2868 Clouds 33 1019 33 10000 2.6 310 13:19 29.08.2019
2869 Clouds 33 1019 33 10000 3.1 300 12:56 29.08.2019
2870 Clouds 31 1019 38 10000 2.6 250 12:38 29.08.2019
2871 Clouds 31 1019 38 10000 2.6 250 12:20 29.08.2019
2872 Clouds 29 1019 45 10000 3.1 270 11:56 29.08.2019
2873 Clouds 29 1018 45 10000 2.6 250 11:36 29.08.2019
2874 Clouds 29 1018 45 10000 2.6 250 11:18 29.08.2019
2875 Clouds 26 1018 50 10000 3.1 270 10:41 29.08.2019
2876 Clouds 26 1018 50 10000 3.1 270 10:22 29.08.2019
2877 Clouds 25 1018 53 10000 2.1 230 09:42 29.08.2019
2878 Clouds 25 1018 53 10000 2.1 230 09:20 29.08.2019
2879 Clouds 25 1017 50 10000 2.1 250 08:56 29.08.2019
2880 Clouds 25 1017 50 10000 2.1 250 08:37 29.08.2019
2881 Clouds 25 1017 50 10000 2.1 250 08:19 29.08.2019
2882 Clouds 25 1016 50 10000 2.6 260 07:43 29.08.2019
2883 Clouds 25 1016 50 10000 2.6 260 07:23 29.08.2019
2884 Clouds 26 1016 41 10000 4.1 260 06:42 29.08.2019
2885 Clouds 26 1016 41 10000 4.1 260 06:18 29.08.2019
2886 Clouds 28 1015 32 10000 3.6 230 05:34 29.08.2019
2887 Clouds 28 1015 32 10000 3.6 240 04:50 29.08.2019
2888 Clouds 28 1015 39 10000 3.6 250 04:28 29.08.2019
2889 Clouds 30 1015 37 10000 1.5 50 02:27 29.08.2019
2890 Clouds 31 1015 35 10000 2.6 60 01:41 29.08.2019
2891 Clouds 31 1015 33 10000 1.5 320 00:56 29.08.2019
2892 Clouds 32 1015 31 10000 3.6 170 00:37 29.08.2019
2893 Clouds 32 1015 31 10000 3.6 170 00:18 29.08.2019
2894 Clouds 32 1015 33 10000 4.6 140 23:41 28.08.2019
2895 Clouds 32 1015 33 10000 4.6 140 23:22 28.08.2019
2896 Clouds 32 1015 33 10000 6.7 150 22:57 28.08.2019
2897 Clouds 33 1015 31 8000 6.2 130 22:38 28.08.2019
2898 Clouds 33 1015 31 8000 6.2 130 22:18 28.08.2019
2899 Clouds 33 1015 31 8000 7.2 130 21:57 28.08.2019
2900 Clouds 32 1014 33 8000 8.2 130 21:38 28.08.2019
2901 Clouds 32 1014 33 8000 8.2 130 21:19 28.08.2019
2902 Clouds 36 1013 25 6000 6.2 150 20:41 28.08.2019
2903 Clouds 36 1013 25 6000 6.2 150 20:22 28.08.2019
2904 Clouds 37 1013 22 6000 3.1 180 19:55 28.08.2019
2905 Clouds 38 1013 19 10000 1.5 170 19:37 28.08.2019
2906 Clouds 38 1013 19 10000 2.6 50 19:18 28.08.2019
2907 Clouds 38 1012 19 10000 3.1 70 18:41 28.08.2019
2908 Clouds 38 1012 19 10000 3.1 70 18:21 28.08.2019
2909 Clouds 39 1012 17 10000 4.1 70 17:40 28.08.2019
2910 Clouds 39 1012 17 10000 4.1 70 17:20 28.08.2019
2911 Clouds 39 1013 15 10000 3.1 340 16:58 28.08.2019
2912 Clouds 39 1014 15 10000 1 0 16:40 28.08.2019
2913 Clouds 39 1014 15 10000 1 0 16:18 28.08.2019
2914 Clouds 38 1014 16 10000 2.1 0 15:39 28.08.2019
2915 Clouds 38 1014 16 10000 2.1 0 15:39 28.08.2019
2916 Clouds 38 1014 16 10000 2.1 0 15:20 28.08.2019
2917 Clouds 37 1014 17 10000 2.6 0 14:59 28.08.2019
2918 Clouds 35 1015 20 10000 2.1 20 14:40 28.08.2019
2919 Clouds 35 1015 20 10000 2.1 20 14:21 28.08.2019
2920 Clouds 34 1015 21 10000 3.6 40 13:59 28.08.2019
2921 Clouds 33 1015 24 10000 2.1 40 13:39 28.08.2019
2922 Clouds 33 1015 24 10000 2.1 40 13:20 28.08.2019
2923 Clouds 31 1016 29 10000 1.5 20 12:56 28.08.2019
2924 Clouds 29 1016 37 10000 1 0 12:38 28.08.2019
2925 Clouds 29 1016 37 10000 1 0 12:20 28.08.2019
2926 Clouds 28 1016 37 10000 2.6 300 11:40 28.08.2019
2927 Clouds 28 1016 37 10000 2.6 300 11:22 28.08.2019
2928 Clouds 29 1016 32 10000 1.52 18.137 10:57 28.08.2019
2929 Clouds 26 1015 39 10000 1 0 10:38 28.08.2019
2930 Clouds 26 1015 39 10000 1 0 10:19 28.08.2019
2931 Clouds 24 1016 47 10000 0.5 0 09:42 28.08.2019
2932 Clouds 24 1016 47 10000 0.5 0 09:21 28.08.2019
2933 Clouds 22 1016 53 10000 1.5 230 08:57 28.08.2019
2934 Clouds 22 1015 53 10000 2.1 240 08:38 28.08.2019
2935 Clouds 22 1015 53 10000 2.1 240 08:19 28.08.2019
2936 Clear 22 1015 53 10000 1.5 250 07:38 28.08.2019
2937 Clear 22 1015 53 10000 1.5 250 07:20 28.08.2019
2938 Clear 22 1015 53 10000 1.5 250 07:20 28.08.2019
2939 Clear 23 1015 49 10000 2.6 210 06:49 28.08.2019
2940 Clouds 22 1015 53 0 2.1 240 05:59 28.08.2019
2941 Clear 23 1015 46 10000 3.1 230 04:49 28.08.2019
2942 Clear 26 1016 36 10000 1.67 304.28 02:18 28.08.2019
2943 Clear 28 1016 30 10000 1.07 334.467 01:30 28.08.2019
2944 Clear 28 1016 30 10000 1 30 00:52 28.08.2019
2945 Clear 29 1016 28 10000 3.1 40 00:33 28.08.2019
2946 Clear 29 1016 28 10000 3.1 20 23:56 27.08.2019
2947 Clouds 30 1016 28 10000 4.6 30 23:38 27.08.2019
2948 Clouds 30 1016 28 10000 4.6 30 23:19 27.08.2019
2949 Clouds 33 1015 19 10000 3.6 350 22:41 27.08.2019
2950 Clouds 33 1015 19 10000 3.6 350 22:23 27.08.2019
2951 Clouds 34 1014 17 10000 3.1 350 21:57 27.08.2019
2952 Clouds 34 1014 18 10000 3.1 320 21:38 27.08.2019
2953 Clouds 34 1014 18 10000 3.1 320 21:38 27.08.2019
2954 Clouds 34 1014 18 10000 3.1 320 21:19 27.08.2019
2955 Clouds 36 1014 18 10000 3.1 310 20:58 27.08.2019
2956 Clouds 37 1014 16 10000 1.5 290 20:39 27.08.2019
2957 Clouds 37 1014 16 10000 1.5 290 20:19 27.08.2019
2958 Clouds 37 1014 14 10000 2.1 340 19:44 27.08.2019
2959 Clouds 37 1014 14 10000 2.1 340 19:26 27.08.2019
2960 Clouds 38 1013 15 10000 0.5 0 18:56 27.08.2019
2961 Clouds 38 1013 15 10000 1.5 320 18:38 27.08.2019
2962 Clouds 38 1013 15 10000 1.5 320 18:18 27.08.2019
2963 Clouds 37 1014 18 10000 1.5 0 17:43 27.08.2019
2964 Clouds 37 1014 18 10000 1.5 0 17:25 27.08.2019
2965 Clouds 37 1014 18 10000 2.1 290 16:58 27.08.2019
2966 Clouds 37 1014 19 10000 2.1 330 16:40 27.08.2019
2967 Clouds 37 1014 19 10000 2.1 330 16:21 27.08.2019
2968 Clouds 36 1014 19 10000 2.1 0 15:54 27.08.2019
2969 Clouds 35 1014 21 10000 2.1 330 15:36 27.08.2019
2970 Clouds 35 1014 21 10000 2.1 330 15:18 27.08.2019
2971 Clouds 35 1014 21 10000 2.1 330 15:18 27.08.2019
2972 Clouds 32 1015 29 10000 2.6 360 14:42 27.08.2019
2973 Clouds 32 1015 29 10000 2.6 360 14:23 27.08.2019
2974 Clear 32 1016 29 10000 2.75 19.784 13:43 27.08.2019
2975 Clear 29 1016 35 10000 2.1 40 13:24 27.08.2019
2976 Clear 28 1017 39 10000 2.6 20 12:56 27.08.2019
2977 Clear 27 1017 39 10000 2.1 40 12:38 27.08.2019
2978 Clear 27 1017 39 10000 2.1 40 12:19 27.08.2019
2979 Clear 27 1017 42 10000 1.5 20 11:46 27.08.2019
2980 Clear 26 1017 47 10000 1 0 11:26 27.08.2019
2981 Clear 24 1017 53 10000 1.5 70 10:46 27.08.2019
2982 Clear 23 1017 56 10000 1.5 70 10:27 27.08.2019
2983 Clear 22 1016 60 10000 2.6 90 09:59 27.08.2019
2984 Clear 22 1016 60 10000 2.6 90 09:59 27.08.2019
2985 Clear 21 1016 64 10000 2.6 100 09:39 27.08.2019
2986 Clear 21 1016 64 10000 2.6 100 09:21 27.08.2019
2987 Clear 20 1016 68 10000 2.1 90 08:56 27.08.2019
2988 Clear 20 1016 68 10000 2.1 100 08:37 27.08.2019
2989 Clear 20 1016 68 10000 2.1 100 08:18 27.08.2019
2990 Clear 20 1015 64 10000 2.6 60 07:41 27.08.2019
2991 Clear 20 1015 64 10000 2.6 60 07:41 27.08.2019
2992 Clear 20 1015 64 10000 2.6 60 07:20 27.08.2019
2993 Clear 21 1015 60 10000 2.6 70 06:54 27.08.2019
2994 Clear 21 1015 60 10000 2.1 60 06:27 27.08.2019
2995 Clear 21 1015 60 10000 2.1 60 05:47 27.08.2019
2996 Clear 22 1016 56 10000 2.6 80 04:54 27.08.2019
2997 Clear 22 1016 56 10000 2.1 80 03:39 27.08.2019
2998 Clear 23 1017 53 10000 2.1 30 02:23 27.08.2019
2999 Clear 23 1017 53 10000 2.6 30 01:44 27.08.2019
3000 Clouds 23 1016 53 10000 4.6 10 01:22 27.08.2019
3001 Clouds 24 1017 50 10000 4.1 20 00:44 27.08.2019
3002 Clouds 25 1017 41 10000 3.1 20 00:24 27.08.2019
3003 Clouds 27 1017 34 10000 3.1 350 23:39 26.08.2019
3004 Clouds 27 1017 34 10000 3.1 350 23:21 26.08.2019
3005 Clouds 28 1016 34 10000 3.6 350 22:41 26.08.2019
3006 Clouds 28 1016 34 10000 3.6 350 22:20 26.08.2019
3007 Clouds 29 1015 32 10000 4.1 320 21:59 26.08.2019
3008 Clouds 30 1015 28 10000 3.6 320 21:38 26.08.2019
3009 Clouds 32 1014 29 10000 4.6 330 21:20 26.08.2019
3010 Clouds 32 1014 29 10000 4.6 330 20:56 26.08.2019
3011 Clouds 33 1014 29 10000 5.1 330 20:38 26.08.2019
3012 Clouds 34 1014 28 10000 4.6 340 20:19 26.08.2019
3013 Clouds 35 1014 26 10000 4.1 310 19:43 26.08.2019
3014 Clouds 35 1014 26 10000 4.1 310 19:20 26.08.2019
3015 Clouds 35 1014 24 10000 3.1 230 18:58 26.08.2019
3016 Clouds 34 1014 30 10000 2.1 180 18:38 26.08.2019
3017 Clouds 34 1014 30 10000 3.1 210 18:19 26.08.2019
3018 Clouds 33 1014 31 10000 3.6 220 17:44 26.08.2019
3019 Clouds 33 1014 33 10000 2.6 230 17:20 26.08.2019
3020 Clouds 33 1014 33 10000 2.6 230 16:58 26.08.2019
3021 Clouds 32 1014 35 10000 3.1 230 16:39 26.08.2019
3022 Clouds 32 1014 35 10000 3.1 230 16:19 26.08.2019
3023 Clouds 33 1015 36 10000 2.1 0 15:56 26.08.2019
3024 Clouds 32 1015 38 10000 1.5 0 15:38 26.08.2019
3025 Clouds 32 1015 38 10000 1.5 0 15:20 26.08.2019
3026 Clouds 30 1015 45 10000 1.5 250 14:44 26.08.2019
3027 Clouds 30 1015 45 10000 1.5 250 14:23 26.08.2019
3028 Clouds 30 1015 45 10000 1.5 250 13:57 26.08.2019
3029 Clouds 28 1015 51 10000 1 0 13:37 26.08.2019
3030 Clouds 26 1015 57 10000 1 0 13:18 26.08.2019
3031 Clouds 26 1015 57 10000 1 0 13:18 26.08.2019
3032 Clouds 24 1015 64 10000 2.1 260 12:42 26.08.2019
3033 Clouds 24 1015 64 10000 2.1 260 12:21 26.08.2019
3034 Clouds 24 1015 64 10000 1 0 11:43 26.08.2019
3035 Clouds 24 1015 64 10000 1 0 11:25 26.08.2019
3036 Clouds 24 1015 64 10000 1 0 11:25 26.08.2019
3037 Clouds 23 1015 69 10000 1 0 10:58 26.08.2019
3038 Clouds 23 1015 69 10000 1 0 10:58 26.08.2019
3039 Clouds 22 1015 73 10000 2.6 270 10:40 26.08.2019
3040 Clouds 22 1015 73 10000 2.6 270 10:19 26.08.2019
3041 Clouds 22 1015 73 10000 2.6 270 10:19 26.08.2019
3042 Clouds 22 1014 73 10000 1.5 260 09:45 26.08.2019
3043 Clouds 22 1014 73 10000 1.5 260 09:25 26.08.2019
3044 Clouds 21 1014 73 10000 1.5 250 08:59 26.08.2019
3045 Clouds 21 1014 73 10000 1.5 250 08:59 26.08.2019
3046 Clouds 21 1014 73 10000 2.6 230 08:40 26.08.2019
3047 Clouds 21 1014 73 10000 2.6 220 08:21 26.08.2019
3048 Clouds 21 1014 73 10000 2.6 220 07:45 26.08.2019
3049 Clouds 21 1014 73 10000 2.6 220 07:25 26.08.2019
3050 Clouds 21 1014 73 10000 3.1 210 06:58 26.08.2019
3051 Clouds 21 1014 68 10000 2.6 230 06:39 26.08.2019
3052 Clouds 22 1014 64 0 3.6 230 06:19 26.08.2019
3053 Clouds 22 1014 60 10000 2.1 240 05:41 26.08.2019
3054 Clouds 23 1014 60 10000 1.5 240 04:22 26.08.2019
3055 Clouds 26 1015 50 10000 3.6 230 02:40 26.08.2019
3056 Clouds 27 1015 44 10000 3.1 230 01:23 26.08.2019
3057 Clouds 29 1015 37 10000 1 0 00:45 26.08.2019
3058 Clouds 29 1015 37 10000 1 0 00:26 26.08.2019
3059 Clouds 31 1014 31 10000 2.1 350 23:46 25.08.2019
3060 Clouds 31 1014 31 10000 2.1 350 23:21 25.08.2019
3061 Clouds 32 1014 29 10000 3.1 350 22:59 25.08.2019
3062 Clouds 33 1014 27 10000 3.1 360 22:40 25.08.2019
3063 Clouds 34 1013 24 10000 3.6 10 22:20 25.08.2019
3064 Clouds 34 1013 24 10000 3.6 10 21:58 25.08.2019
3065 Clouds 35 1013 24 10000 4.1 360 21:40 25.08.2019
3066 Clouds 36 1013 22 10000 3.1 350 21:19 25.08.2019
3067 Clouds 36 1013 22 10000 3.1 350 20:56 25.08.2019
3068 Clouds 37 1013 20 10000 4.1 320 20:38 25.08.2019
3069 Clouds 38 1013 18 10000 4.1 250 20:19 25.08.2019
3070 Clouds 38 1013 17 10000 3.6 220 19:41 25.08.2019
3071 Clouds 38 1013 17 10000 3.6 220 19:23 25.08.2019
3072 Clouds 38 1013 17 10000 4.6 230 19:23 25.08.2019
3073 Clouds 38 1013 17 10000 4.6 230 18:59 25.08.2019
3074 Clouds 38 1013 17 10000 4.6 230 18:40 25.08.2019
3075 Clouds 39 1013 15 10000 5.7 240 18:22 25.08.2019
3076 Clouds 39 1013 15 10000 5.7 240 17:59 25.08.2019
3077 Clouds 39 1013 16 10000 3.6 240 17:39 25.08.2019
3078 Clouds 39 1013 16 10000 3.6 240 17:20 25.08.2019
3079 Clouds 39 1013 16 10000 1.5 0 16:41 25.08.2019
3080 Clouds 39 1013 16 10000 1.5 0 16:23 25.08.2019
3081 Clouds 36 1014 25 10000 3.1 210 15:48 25.08.2019
3082 Clouds 36 1014 25 10000 3.1 210 15:27 25.08.2019
3083 Clouds 34 1014 26 10000 3.1 240 14:59 25.08.2019
3084 Clouds 35 1014 26 10000 3.1 260 14:39 25.08.2019
3085 Clouds 34 1014 24 10000 1.5 0 14:20 25.08.2019
3086 Clouds 33 1015 26 10000 1.5 0 13:45 25.08.2019
3087 Clouds 33 1015 26 10000 1.5 0 13:21 25.08.2019
3088 Clouds 33 1015 27 10000 0.5 0 12:56 25.08.2019
3089 Clouds 31 1015 31 10000 1.5 290 12:37 25.08.2019
3090 Clouds 31 1015 31 10000 1.5 290 12:37 25.08.2019
3091 Clouds 31 1015 31 10000 1.5 270 12:19 25.08.2019
3092 Clouds 31 1015 31 10000 1.5 270 11:54 25.08.2019
3093 Clouds 29 1015 37 10000 3.1 200 11:36 25.08.2019
3094 Clouds 29 1015 37 10000 2.11 57.658 11:18 25.08.2019
3095 Clouds 29 1015 35 10000 2.11 57.658 10:40 25.08.2019
3096 Clouds 29 1015 35 10000 2.11 57.658 10:20 25.08.2019
3097 Clouds 28 1015 37 10000 2.11 57.658 09:56 25.08.2019
3098 Clouds 27 1014 42 10000 2.47 42.52 09:38 25.08.2019
3099 Clouds 26 1014 41 10000 1.5 250 09:20 25.08.2019
3100 Clouds 27 1014 34 10000 1.28 223.801 08:42 25.08.2019
3101 Clouds 27 1014 34 10000 1.28 223.801 08:22 25.08.2019
3102 Clouds 27 1014 34 10000 1.28 223.801 07:38 25.08.2019
3103 Clouds 27 1014 32 10000 1.28 223.801 07:19 25.08.2019
3104 Clouds 27 1014 30 10000 0.98 335.09 06:23 25.08.2019
3105 Clouds 30 1014 23 10000 0.5 150 04:45 25.08.2019
3106 Clouds 31 1015 23 10000 1 160 03:36 25.08.2019
3107 Clouds 32 1015 22 10000 1 40 02:40 25.08.2019
3108 Clouds 33 1015 21 10000 1.5 360 01:35 25.08.2019
3109 Clouds 34 1015 20 10000 3.1 280 00:40 25.08.2019
3110 Clouds 34 1015 20 10000 3.1 280 00:21 25.08.2019
3111 Clouds 35 1015 19 10000 4.1 150 23:52 24.08.2019
3112 Clouds 36 1015 18 10000 3.6 120 23:23 24.08.2019
3113 Clouds 36 1015 16 9000 4.1 140 22:56 24.08.2019
3114 Clouds 37 1015 17 9000 5.1 120 22:38 24.08.2019
3115 Clouds 37 1015 17 9000 5.1 120 22:19 24.08.2019
3116 Clouds 37 1015 17 9000 5.1 120 22:19 24.08.2019
3117 Clouds 37 1015 17 9000 3.6 60 21:56 24.08.2019
3118 Clouds 37 1015 16 10000 3.1 10 21:37 24.08.2019
3119 Clouds 37 1015 16 10000 3.1 10 21:19 24.08.2019
3120 Clouds 37 1016 17 10000 2.6 320 20:55 24.08.2019
3121 Clouds 37 1016 17 10000 2.6 320 20:55 24.08.2019
3122 Clouds 37 1016 17 10000 5.1 330 20:37 24.08.2019
3123 Clouds 38 1016 16 10000 5.7 330 20:18 24.08.2019
3124 Clouds 38 1016 16 10000 5.7 330 19:55 24.08.2019
3125 Clouds 39 1016 15 10000 4.53 330.695 19:37 24.08.2019
3126 Clouds 40 1015 13 8000 6.2 190 19:18 24.08.2019
3127 Dust 39 1015 15 1200 11.3 170 18:41 24.08.2019
3128 Dust 39 1015 15 1200 11.3 170 18:21 24.08.2019
3129 Dust 39 1015 15 1200 11.3 170 18:21 24.08.2019
3130 Dust 40 1015 13 3000 11.8 170 17:44 24.08.2019
3131 Dust 40 1015 13 3000 11.8 170 17:24 24.08.2019
3132 Dust 41 1014 12 2000 9.8 0 16:51 24.08.2019
3133 Clouds 45 1014 10 10000 1 0 16:21 24.08.2019
3134 Clouds 44 1014 11 10000 2.6 360 15:59 24.08.2019
3135 Clouds 44 1014 11 10000 2.6 360 15:59 24.08.2019
3136 Clouds 44 1014 11 10000 3.1 350 15:40 24.08.2019
3137 Clouds 44 1014 11 10000 3.1 350 15:22 24.08.2019
3138 Clouds 43 1015 13 10000 3.6 350 14:43 24.08.2019
3139 Clouds 43 1015 13 10000 3.6 350 14:22 24.08.2019
3140 Clouds 42 1015 14 10000 2.6 330 13:57 24.08.2019
3141 Clouds 42 1016 14 10000 1.5 320 13:39 24.08.2019
3142 Clouds 42 1016 14 10000 1.5 320 13:21 24.08.2019
3143 Clouds 41 1016 14 10000 2.6 340 12:55 24.08.2019
3144 Clouds 40 1016 15 10000 1 0 12:37 24.08.2019
3145 Clouds 39 1016 14 10000 1 0 12:19 24.08.2019
3146 Clouds 36 1016 19 10000 1.5 80 11:43 24.08.2019
3147 Clouds 36 1016 19 10000 1.5 80 11:22 24.08.2019
3148 Clouds 35 1016 20 10000 1.5 50 10:50 24.08.2019
3149 Clouds 36 1015 19 10000 1.79 294.701 10:24 24.08.2019
3150 Clouds 31 1015 25 10000 2.1 80 09:45 24.08.2019
3151 Clouds 31 1015 25 10000 2.1 80 09:22 24.08.2019
3152 Clouds 30 1014 27 10000 2.1 100 08:58 24.08.2019
3153 Clouds 29 1014 28 10000 0.5 50 08:39 24.08.2019
3154 Clouds 29 1014 28 10000 0.5 50 08:21 24.08.2019
3155 Clouds 32 1014 17 0 3.06 192.995 07:49 24.08.2019
3156 Clouds 30 1014 27 0 1.5 50 07:27 24.08.2019
3157 Clouds 30 1014 27 0 1.5 50 06:29 24.08.2019
3158 Clouds 32 1014 22 0 0.5 0 05:42 24.08.2019
3159 Clouds 34 1014 20 10000 2.1 190 04:46 24.08.2019
3160 Clouds 34 1015 20 10000 5.1 140 03:37 24.08.2019
3161 Clouds 35 1015 20 10000 6.2 140 02:27 24.08.2019
3162 Clouds 35 1016 21 8000 5.7 110 01:31 24.08.2019
3163 Clouds 36 1016 19 10000 4.6 130 00:54 24.08.2019
3164 Clouds 36 1016 19 10000 5.1 140 00:26 24.08.2019
3165 Clouds 35 1016 21 10000 3.6 120 23:59 23.08.2019
3166 Clouds 35 1016 23 10000 8.7 130 23:39 23.08.2019
3167 Clouds 35 1016 23 10000 8.7 130 23:19 23.08.2019
3168 Clouds 37 1016 19 10000 6.7 130 22:42 23.08.2019
3169 Clouds 37 1016 19 10000 6.7 130 22:24 23.08.2019
3170 Clouds 38 1015 17 10000 2.6 70 21:41 23.08.2019
3171 Clouds 38 1015 17 10000 2.6 70 21:23 23.08.2019
3172 Clouds 38 1015 18 10000 4.1 350 20:59 23.08.2019
3173 Dust 39 1014 16 3000 4.6 340 20:40 23.08.2019
3174 Dust 39 1014 16 3000 4.6 340 20:21 23.08.2019
3175 Clouds 41 1014 13 10000 4.6 200 19:44 23.08.2019
3176 Clouds 42 1014 13 10000 4.6 180 19:19 23.08.2019
3177 Clouds 42 1014 13 10000 4.6 180 18:49 23.08.2019
3178 Clouds 42 1014 13 10000 1.5 170 18:31 23.08.2019
3179 Clouds 42 1014 12 10000 2.1 310 17:58 23.08.2019
3180 Thunderstorm 41 1014 12 6000 4.1 350 17:39 23.08.2019
3181 Thunderstorm 41 1014 12 6000 4.1 350 17:20 23.08.2019
3182 Thunderstorm 41 1014 14 5000 4.1 0 16:48 23.08.2019
3183 Thunderstorm 41 1014 14 5000 4.1 0 16:29 23.08.2019
3184 Thunderstorm 42 1014 13 8000 8.7 220 15:57 23.08.2019
3185 Thunderstorm 44 1014 11 10000 7.2 220 15:37 23.08.2019
3186 Thunderstorm 44 1014 11 10000 7.2 220 15:19 23.08.2019
3187 Clouds 44 1014 11 10000 2.1 0 14:42 23.08.2019
3188 Clouds 44 1014 11 10000 2.1 0 14:21 23.08.2019
3189 Clouds 43 1014 13 10000 2.6 320 13:58 23.08.2019
3190 Clouds 43 1015 13 10000 1 0 13:40 23.08.2019
3191 Clouds 43 1015 13 10000 1 0 13:22 23.08.2019
3192 Clouds 43 1015 13 10000 1 0 12:58 23.08.2019
3193 Clouds 41 1015 15 10000 1.5 350 12:40 23.08.2019
3194 Clouds 41 1015 15 10000 1.5 350 12:21 23.08.2019
3195 Clouds 37 1015 19 10000 2.6 120 11:56 23.08.2019
3196 Clouds 36 1015 20 10000 3.6 100 11:37 23.08.2019
3197 Clouds 35 1014 23 10000 0.5 0 11:18 23.08.2019
3198 Clouds 33 1014 24 10000 0.5 0 10:43 23.08.2019
3199 Clouds 33 1014 24 10000 0.5 0 10:22 23.08.2019
3200 Clouds 31 1014 27 10000 1 0 09:57 23.08.2019
3201 Clouds 31 1014 23 10000 3.36 174.424 09:39 23.08.2019
3202 Clouds 31 1014 23 10000 0.93 171.506 09:20 23.08.2019
3203 Clouds 32 1013 22 10000 4.1 160 08:43 23.08.2019
3204 Clouds 32 1013 22 10000 4.1 160 08:19 23.08.2019
3205 Clouds 30 1013 28 10000 1 0 07:43 23.08.2019
3206 Clouds 30 1013 28 10000 1 0 07:24 23.08.2019
3207 Clouds 30 1013 28 10000 1 0 07:24 23.08.2019
3208 Clouds 30 1013 28 10000 1 0 07:24 23.08.2019
3209 Clouds 30 1013 28 10000 1 0 07:24 23.08.2019
3210 Clouds 30 1013 28 10000 2.1 50 06:58 23.08.2019
3211 Clouds 31 1013 29 10000 2.6 250 06:39 23.08.2019
3212 Clouds 31 1013 29 10000 2.6 250 06:20 23.08.2019
3213 Clouds 31 1013 29 10000 0.5 0 05:42 23.08.2019
3214 Clouds 31 1013 29 10000 1 90 05:21 23.08.2019
3215 Clouds 31 1013 29 8000 2.1 90 03:22 23.08.2019
3216 Clouds 31 1014 29 10000 0.5 160 02:23 23.08.2019
3217 Clouds 31 1014 29 10000 0.5 160 02:23 23.08.2019
3218 Clouds 35 1014 23 10000 2.6 70 01:47 23.08.2019
3219 Clouds 34 1014 24 10000 1 0 00:46 23.08.2019
3220 Clouds 34 1014 24 10000 1 0 00:21 23.08.2019
3221 Clouds 35 1014 23 10000 1 0 23:49 22.08.2019
3222 Clouds 34 1014 24 10000 2.97 72.328 23:31 22.08.2019
3223 Clouds 36 1014 20 10000 1.5 80 22:58 22.08.2019
3224 Clouds 37 1013 19 10000 1 0 22:40 22.08.2019
3225 Clouds 37 1013 19 10000 1 0 22:21 22.08.2019
3226 Clouds 37 1013 20 10000 1.5 230 21:56 22.08.2019
3227 Clouds 38 1013 19 10000 1.5 240 21:37 22.08.2019
3228 Clouds 38 1013 19 10000 1.5 240 21:19 22.08.2019
3229 Clouds 39 1013 18 10000 3.1 250 20:56 22.08.2019
3230 Clouds 40 1012 16 10000 4.1 270 20:38 22.08.2019
3231 Clouds 40 1012 16 10000 5.7 260 20:18 22.08.2019
3232 Clouds 40 1012 16 10000 5.7 260 19:54 22.08.2019
3233 Clouds 40 1012 16 10000 5.7 260 19:54 22.08.2019
3234 Clouds 41 1012 16 10000 5.1 250 19:36 22.08.2019
3235 Clouds 40 1012 16 10000 5.1 250 19:18 22.08.2019
3236 Clouds 40 1012 16 10000 5.1 250 18:55 22.08.2019
3237 Clouds 40 1012 16 10000 6.7 240 18:36 22.08.2019
3238 Clouds 40 1012 17 10000 6.2 220 18:18 22.08.2019
3239 Clouds 41 1012 16 10000 5.7 210 17:41 22.08.2019
3240 Clouds 41 1012 16 10000 5.7 210 17:21 22.08.2019
3241 Clouds 43 1012 14 10000 2.6 320 16:57 22.08.2019
3242 Clouds 43 1012 14 10000 2.6 320 16:38 22.08.2019
3243 Clouds 43 1012 14 10000 2.6 320 16:20 22.08.2019
3244 Clouds 43 1012 14 10000 2.6 320 16:20 22.08.2019
3245 Clouds 41 1012 14 10000 3.6 290 15:56 22.08.2019
3246 Clouds 41 1012 14 10000 3.6 290 15:56 22.08.2019
3247 Clouds 40 1012 16 10000 2.6 340 15:37 22.08.2019
3248 Clouds 38 1012 21 10000 3.6 310 15:18 22.08.2019
3249 Clouds 38 1012 21 10000 3.6 310 15:18 22.08.2019
3250 Clouds 38 1012 21 10000 3.6 310 15:18 22.08.2019
3251 Clouds 38 1012 21 10000 3.6 310 15:18 22.08.2019
3252 Clouds 37 1013 23 10000 2.6 300 14:41 22.08.2019
3253 Clouds 37 1013 23 10000 2.6 300 14:22 22.08.2019
3254 Clouds 36 1013 25 10000 1.5 310 13:59 22.08.2019
3255 Clouds 35 1013 26 10000 1.5 330 13:41 22.08.2019
3256 Clouds 35 1013 26 10000 1.5 330 13:21 22.08.2019
3257 Clouds 33 1013 29 10000 2.1 20 12:57 22.08.2019
3258 Clouds 31 1013 33 9000 1.5 330 12:38 22.08.2019
3259 Clouds 31 1013 33 9000 1.5 330 12:19 22.08.2019
3260 -273 0 0 0 0 0 11:42 22.08.2019
3261 Clouds 29 1013 37 10000 2.1 10 11:42 22.08.2019
3262 Clouds 29 1013 37 10000 2.1 10 11:21 22.08.2019
3263 Clouds 28 1013 39 10000 2.1 30 10:58 22.08.2019
3264 Clouds 27 1013 42 10000 2.63 48.388 10:40 22.08.2019
3265 Clouds 27 1013 42 10000 2.63 48.388 10:22 22.08.2019
3266 Clouds 24 1013 50 10000 1 0 09:57 22.08.2019
3267 Clouds 23 1013 53 10000 1 0 09:39 22.08.2019
3268 Clouds 23 1013 53 10000 1 0 09:20 22.08.2019
3269 Clouds 21 1013 60 10000 1.5 230 08:56 22.08.2019
3270 Clouds 21 1013 60 10000 1.5 230 08:38 22.08.2019
3271 Clouds 21 1013 60 10000 1.5 230 08:19 22.08.2019
3272 Clear 22 1013 56 10000 2.1 230 07:39 22.08.2019
3273 Clear 22 1013 56 10000 1.5 240 07:20 22.08.2019
3274 Clear 22 1013 56 10000 1.5 240 06:52 22.08.2019
3275 Clear 22 1013 56 10000 1.5 240 06:24 22.08.2019
3276 Clear 23 1013 53 10000 2.01 52.07 05:45 22.08.2019
3277 Clear 24 1013 50 10000 0.5 0 04:29 22.08.2019
3278 Clear 25 1014 47 10000 1.5 280 02:50 22.08.2019
3279 Clear 25 1014 47 10000 1.5 280 02:50 22.08.2019
3280 Clear 27 1015 39 10000 0.5 0 02:32 22.08.2019
3281 Clear 27 1015 39 10000 1 40 01:23 22.08.2019
3282 Clear 28 1015 37 10000 2.1 20 00:44 22.08.2019
3283 Clear 28 1015 37 10000 2.1 20 00:26 22.08.2019
3284 Clear 29 1015 35 10000 3.1 40 23:51 21.08.2019
3285 Clear 29 1015 35 10000 3.6 30 23:32 21.08.2019
3286 Clouds 30 1014 33 10000 3.6 360 22:59 21.08.2019
3287 Clouds 31 1014 31 10000 4.6 10 22:41 21.08.2019
3288 Clouds 34 1014 21 10000 3.1 340 22:22 21.08.2019
3289 Clouds 34 1014 21 10000 3.1 340 21:58 21.08.2019
3290 Clouds 35 1014 19 10000 3.1 310 21:39 21.08.2019
3291 Clouds 36 1013 20 10000 2.6 250 21:20 21.08.2019
3292 Clouds 36 1013 20 10000 2.6 250 20:58 21.08.2019
3293 Clouds 37 1013 18 10000 1.5 340 20:40 21.08.2019
3294 Clouds 37 1013 18 10000 1.5 340 20:22 21.08.2019
3295 Clouds 37 1013 19 10000 1.5 340 19:56 21.08.2019
3296 Clouds 37 1013 20 10000 1.5 40 19:37 21.08.2019
3297 Clouds 37 1013 20 10000 1.5 0 19:19 21.08.2019
3298 Clouds 37 1013 22 10000 1.5 230 18:43 21.08.2019
3299 Clouds 37 1013 22 10000 1.5 230 18:23 21.08.2019
3300 Clouds 35 1013 24 10000 1 0 17:54 21.08.2019
3301 Clouds 35 1014 24 10000 1.5 0 17:36 21.08.2019
3302 Clouds 36 1014 23 10000 1.5 0 17:18 21.08.2019
3303 Clouds 35 1014 24 10000 2.6 310 16:42 21.08.2019
3304 Clouds 35 1014 24 10000 2.6 310 16:23 21.08.2019
3305 Clouds 34 1015 28 10000 1.5 0 15:59 21.08.2019
3306 Clouds 33 1015 29 10000 2.1 280 15:40 21.08.2019
3307 Clouds 33 1015 29 10000 2.1 280 15:20 21.08.2019
3308 Clouds 32 1015 31 10000 2.1 350 14:57 21.08.2019
3309 Clouds 30 1016 37 10000 1 0 14:39 21.08.2019
3310 Clouds 30 1016 37 2100 1.5 250 14:20 21.08.2019
3311 Clear 28 1016 42 10000 2.6 250 13:46 21.08.2019
3312 Clear 28 1016 42 10000 2.6 250 13:23 21.08.2019
3313 Clear 27 1016 47 10000 2.1 290 12:59 21.08.2019
3314 Clear 26 1017 50 10000 2.1 280 12:41 21.08.2019
3315 Clear 26 1017 50 10000 2.1 280 12:41 21.08.2019
3316 Clear 26 1017 50 10000 2.1 280 12:22 21.08.2019
3317 Clear 25 1017 53 10000 2.1 250 11:59 21.08.2019
3318 Clear 24 1016 57 10000 1.5 290 11:40 21.08.2019
3319 Clear 24 1016 57 10000 1.5 290 11:22 21.08.2019
3320 Clear 22 1017 64 10000 1.5 240 10:56 21.08.2019
3321 Clear 21 1016 68 10000 1.5 230 10:37 21.08.2019
3322 Clear 21 1016 68 10000 1.5 230 10:19 21.08.2019
3323 Clear 19 1016 72 10000 2.1 250 09:43 21.08.2019
3324 Clear 19 1016 72 10000 2.1 250 09:24 21.08.2019
3325 Clear 18 1016 77 10000 2.1 250 08:59 21.08.2019
3326 Clear 18 1016 72 10000 2.1 270 08:41 21.08.2019
3327 Clear 18 1016 72 10000 2.1 270 08:23 21.08.2019
3328 Clear 18 1016 72 10000 1 250 07:41 21.08.2019
3329 Clear 18 1016 72 10000 1 250 07:22 21.08.2019
3330 Clear 19 1016 68 10000 2.1 240 06:49 21.08.2019
3331 Clear 20 1016 64 10000 3.1 220 06:23 21.08.2019
3332 Clear 20 1016 64 0 2.1 240 05:46 21.08.2019
3333 Clear 20 1016 64 0 2.1 240 05:23 21.08.2019
3334 Clear 23 1016 46 10000 2.1 230 03:39 21.08.2019
3335 Clear 25 1016 38 10000 3.4 316.42 01:51 21.08.2019
3336 Clear 26 1016 36 10000 1.5 20 01:22 21.08.2019
3337 Clear 26 1016 36 10000 2.1 40 00:37 21.08.2019
3338 Clear 27 1016 34 10000 3.1 30 00:18 21.08.2019
3339 Clear 27 1016 34 10000 4.6 30 23:42 20.08.2019
3340 Clear 27 1016 34 10000 4.6 30 23:19 20.08.2019
3341 Clear 28 1016 32 10000 4.6 10 22:56 20.08.2019
3342 Clear 29 1015 32 10000 5.7 20 22:38 20.08.2019
3343 Clear 29 1015 32 10000 5.7 20 22:38 20.08.2019
3344 Clear 29 1015 32 10000 5.7 20 22:20 20.08.2019
3345 Clear 29 1015 32 10000 5.7 20 22:20 20.08.2019
3346 Clear 29 1015 32 10000 5.7 20 22:20 20.08.2019
3347 Clear 30 1015 30 10000 5.1 360 21:57 20.08.2019
3348 Clear 32 1014 27 10000 5.7 350 21:38 20.08.2019
3349 Clear 32 1014 27 10000 5.7 350 21:19 20.08.2019
3350 Clouds 36 1014 19 10000 2.1 20 20:43 20.08.2019
3351 Clouds 36 1014 19 10000 2.1 20 20:24 20.08.2019
3352 Clouds 36 1014 20 10000 2.6 60 19:59 20.08.2019
3353 Clouds 36 1014 19 10000 2.1 30 19:39 20.08.2019
3354 Clouds 36 1014 19 10000 2.1 30 19:20 20.08.2019
3355 Clouds 36 1014 22 10000 3.1 10 18:55 20.08.2019
3356 Clouds 36 1014 20 10000 3.1 40 18:37 20.08.2019
3357 Clouds 35 1014 23 10000 2.6 50 18:18 20.08.2019
3358 Clouds 35 1014 23 10000 2.6 50 17:55 20.08.2019
3359 Clouds 35 1015 24 10000 3.6 30 17:37 20.08.2019
3360 Clouds 35 1015 24 10000 3.6 30 17:18 20.08.2019
3361 Clouds 34 1016 28 10000 2.1 300 16:41 20.08.2019
3362 Clouds 34 1016 28 10000 2.1 300 16:23 20.08.2019
3363 Clouds 32 1016 33 10000 2.6 310 15:42 20.08.2019
3364 Clouds 32 1016 33 10000 2.6 310 15:19 20.08.2019
3365 Clouds 31 1017 35 10000 1.5 0 14:56 20.08.2019
3366 Clear 30 1017 35 10000 1 0 14:38 20.08.2019
3367 Clear 30 1017 35 10000 1 0 14:20 20.08.2019
3368 Clear 30 1017 35 10000 2.1 0 13:56 20.08.2019
3369 Clear 30 1017 35 10000 2.1 0 13:56 20.08.2019
3370 Clear 28 1017 42 10000 2.1 0 13:37 20.08.2019
3371 Clear 28 1017 42 10000 2.1 0 13:18 20.08.2019
3372 Clear 27 1017 47 10000 1.5 0 12:50 20.08.2019
3373 Clear 26 1017 50 10000 2.1 270 12:25 20.08.2019
3374 Clear 25 1017 57 10000 1.5 0 11:56 20.08.2019
3375 Clear 24 1017 60 10000 1 0 11:38 20.08.2019
3376 Clear 24 1017 60 10000 1 0 11:18 20.08.2019
3377 Clear 23 1017 64 10000 1.5 280 10:56 20.08.2019
3378 Clear 22 1017 68 10000 1.5 250 10:37 20.08.2019
3379 Clear 22 1017 68 10000 1.5 250 10:18 20.08.2019
3380 Clear 20 1017 77 10000 2.6 240 09:42 20.08.2019
3381 Clear 20 1017 77 10000 2.6 240 09:24 20.08.2019
3382 Clear 19 1016 77 10000 1 70 08:43 20.08.2019
3383 Clear 19 1016 77 10000 1 70 08:25 20.08.2019
3384 Clear 19 1016 77 10000 0.5 0 07:59 20.08.2019
3385 Clear 19 1016 77 10000 1.5 240 07:41 20.08.2019
3386 Clear 19 1016 77 10000 1.5 240 07:22 20.08.2019
3387 Clear 20 1016 72 10000 2.1 230 06:56 20.08.2019
3388 Clear 20 1016 72 10000 2.1 220 06:24 20.08.2019
3389 Clear 20 1016 68 0 2.1 240 05:49 20.08.2019
3390 Clear 21 1016 64 10000 3.1 220 04:56 20.08.2019
3391 Clear 23 1017 56 10000 3.1 230 03:37 20.08.2019
3392 Clear 24 1018 50 10000 2.1 240 02:36 20.08.2019
3393 Clear 26 1018 44 10000 2.6 30 01:36 20.08.2019
3394 Clear 26 1018 44 10000 1.5 70 00:51 20.08.2019
3395 Clear 27 1018 42 10000 1.5 70 00:31 20.08.2019
3396 Clear 27 1018 42 10000 2.6 60 23:57 19.08.2019
3397 Clear 28 1017 39 10000 3.1 30 23:38 19.08.2019
3398 Clear 28 1017 39 10000 3.1 30 23:18 19.08.2019
3399 Clear 29 1016 37 9000 6.7 350 22:41 19.08.2019
3400 Clear 29 1016 37 9000 6.7 350 22:22 19.08.2019
3401 Clear 31 1015 31 10000 6.7 350 21:58 19.08.2019
3402 Clear 34 1015 23 10000 5.7 360 21:39 19.08.2019
3403 Clear 34 1015 23 10000 5.7 360 21:21 19.08.2019
3404 Clear 38 1014 14 10000 3.1 320 20:59 19.08.2019
3405 Clear 38 1014 14 10000 3.1 320 20:39 19.08.2019
3406 Clear 38 1014 14 10000 3.1 320 20:20 19.08.2019
3407 Clear 38 1014 13 10000 3.1 310 19:58 19.08.2019
3408 Clear 38 1014 13 10000 3.1 360 19:39 19.08.2019
3409 Clear 38 1014 13 10000 3.1 360 19:19 19.08.2019
3410 Clouds 39 1014 11 10000 3.1 280 18:44 19.08.2019
3411 Clouds 39 1014 12 10000 2.6 340 18:26 19.08.2019
3412 Clouds 38 1014 13 10000 3.6 10 17:58 19.08.2019
3413 Clouds 38 1015 12 10000 2.1 60 17:40 19.08.2019
3414 Clouds 38 1015 12 10000 2.1 60 17:20 19.08.2019
3415 Clouds 37 1015 13 10000 3.1 330 16:58 19.08.2019
3416 Clouds 37 1015 13 10000 2.6 350 16:37 19.08.2019
3417 Clouds 37 1015 13 10000 2.6 350 16:19 19.08.2019
3418 Clear 36 1015 15 10000 3.1 360 15:55 19.08.2019
3419 Clear 35 1016 19 10000 2.6 350 15:36 19.08.2019
3420 Clear 34 1016 20 10000 2.6 10 15:18 19.08.2019
3421 Clear 34 1016 20 10000 2.6 310 14:40 19.08.2019
3422 Clear 34 1016 20 10000 2.6 310 14:21 19.08.2019
3423 Clear 33 1016 26 10000 2.1 300 13:57 19.08.2019
3424 Clear 32 1017 25 10000 2.1 300 13:37 19.08.2019
3425 Clear 32 1017 25 10000 2.1 300 13:19 19.08.2019
3426 Clear 29 1017 35 10000 1.5 0 12:44 19.08.2019
3427 Clear 29 1017 35 10000 1.5 0 12:24 19.08.2019
3428 Clear 29 1017 37 10000 1 0 11:59 19.08.2019
3429 Clear 27 1016 42 10000 1 0 11:37 19.08.2019
3430 Clear 27 1016 42 10000 1 0 11:19 19.08.2019
3431 Clear 23 1016 56 10000 1.5 200 10:40 19.08.2019
3432 Clear 23 1016 56 10000 1.5 200 10:40 19.08.2019
3433 Clear 23 1016 56 10000 1.5 200 10:19 19.08.2019
3434 Clear 22 1016 60 10000 2.6 220 09:59 19.08.2019
3435 Clear 21 1016 64 10000 1.5 250 09:41 19.08.2019
3436 Clear 21 1016 64 10000 1.5 250 09:21 19.08.2019
3437 Clear 20 1016 64 10000 2.6 260 08:54 19.08.2019
3438 Clear 20 1016 64 10000 2.1 260 08:36 19.08.2019
3439 Clear 21 1016 52 10000 1.5 240 08:18 19.08.2019
3440 Clear 21 1016 52 10000 1.5 240 07:42 19.08.2019
3441 Clear 21 1016 52 10000 1.5 240 07:23 19.08.2019
3442 Clear 21 1016 52 10000 1.5 280 06:43 19.08.2019
3443 Clear 21 1016 52 10000 1.5 270 06:18 19.08.2019
3444 Clear 23 1016 43 8000 1.5 260 04:46 19.08.2019
3445 Clear 23 1016 43 8000 1.5 260 04:22 19.08.2019
3446 Clear 27 1017 32 10000 1 90 03:20 19.08.2019
3447 Clear 29 1017 26 5000 2.1 20 01:47 19.08.2019
3448 Clear 29 1017 26 5000 2.1 20 01:21 19.08.2019
3449 Clear 29 1017 28 10000 2.1 50 00:42 19.08.2019
3450 Clear 30 1017 27 10000 3.1 40 00:18 19.08.2019
3451 Clear 30 1017 27 10000 2.1 20 23:41 18.08.2019
3452 Clear 30 1017 27 10000 2.1 20 23:20 18.08.2019
3453 Clear 31 1016 27 7000 4.6 360 22:40 18.08.2019
3454 Clouds 32 1015 25 10000 6.2 350 22:22 18.08.2019
3455 Clouds 32 1015 25 10000 6.2 350 21:58 18.08.2019
3456 Clouds 35 1014 17 10000 4.6 350 21:40 18.08.2019
3457 Clouds 35 1014 17 10000 4.6 350 21:20 18.08.2019
3458 Clouds 37 1014 13 10000 5.1 340 20:58 18.08.2019
3459 Clouds 38 1014 13 10000 5.7 350 20:40 18.08.2019
3460 Clouds 38 1014 13 10000 5.7 350 20:22 18.08.2019
3461 Clear 39 1014 12 10000 3.6 330 19:42 18.08.2019
3462 Clear 39 1014 12 10000 3.6 330 19:23 18.08.2019
3463 Clouds 40 1014 11 6000 3.1 360 18:57 18.08.2019
3464 Clouds 41 1014 11 10000 3.1 300 18:39 18.08.2019
3465 Clouds 41 1014 11 10000 3.1 300 18:39 18.08.2019
3466 Clouds 41 1014 11 10000 3.1 300 18:21 18.08.2019
3467 Clouds 41 1014 11 10000 3.1 300 18:21 18.08.2019
3468 Clear 41 1014 11 10000 3.1 270 17:55 18.08.2019
3469 Clear 40 1015 11 10000 2.1 0 17:36 18.08.2019
3470 Clear 40 1015 11 10000 2.1 0 17:18 18.08.2019
3471 Clear 40 1015 12 10000 1 0 16:43 18.08.2019
3472 Clear 40 1015 12 10000 1 0 16:24 18.08.2019
3473 Clouds 38 1015 15 10000 1.5 130 15:59 18.08.2019
3474 Clouds 38 1015 16 10000 1.5 20 15:39 18.08.2019
3475 Clouds 38 1015 16 10000 1.5 20 15:20 18.08.2019
3476 Clouds 38 1016 17 10000 1.5 0 14:58 18.08.2019
3477 Clouds 36 1016 19 10000 3.1 10 14:38 18.08.2019
3478 Clouds 36 1016 19 10000 3.1 10 14:19 18.08.2019
3479 Clear 35 1016 19 9000 2.1 0 13:56 18.08.2019
3480 Clear 34 1017 20 10000 2.1 60 13:38 18.08.2019
3481 Clear 34 1017 21 10000 1.5 50 13:19 18.08.2019
3482 Clear 33 1017 26 10000 1.5 320 12:45 18.08.2019
3483 Clear 33 1017 26 10000 1.5 320 12:22 18.08.2019
3484 Clear 33 1017 27 10000 0.5 0 11:56 18.08.2019
3485 Clear 30 1017 30 10000 0.5 0 11:37 18.08.2019
3486 Clear 30 1017 30 10000 0.5 0 11:19 18.08.2019
3487 Clear 27 1016 36 10000 1 0 10:41 18.08.2019
3488 Clear 27 1016 36 10000 1 0 10:22 18.08.2019
3489 Clear 26 1016 41 10000 1.5 240 09:53 18.08.2019
3490 Clear 24 1016 50 10000 1.5 250 09:24 18.08.2019
3491 Clear 23 1016 46 10000 1.5 260 08:59 18.08.2019
3492 Clear 22 1016 49 10000 1 250 08:41 18.08.2019
3493 Clear 22 1016 49 10000 1 250 08:23 18.08.2019
3494 Clear 23 1015 46 10000 1 250 07:49 18.08.2019
3495 Clear 23 1015 46 10000 1 250 07:29 18.08.2019
3496 Clear 24 1016 44 0 2.1 250 05:50 18.08.2019
3497 Clear 26 1016 36 10000 1.5 220 04:55 18.08.2019
3498 Clear 26 1016 36 10000 1 240 03:43 18.08.2019
3499 Clear 28 1016 32 6000 1 20 02:48 18.08.2019
3500 Clear 28 1016 32 6000 1 20 02:25 18.08.2019
3501 Clear 29 1016 28 7000 2.1 30 01:47 18.08.2019
3502 Clouds 29 1016 28 7000 2.1 30 01:20 18.08.2019
3503 Clear 31 1016 25 10000 3.6 30 00:39 18.08.2019
3504 Clear 31 1016 25 10000 4.1 40 00:19 18.08.2019
3505 Clear 31 1016 25 10000 4.1 40 23:57 17.08.2019
3506 Clear 33 1015 22 10000 4.1 20 23:37 17.08.2019
3507 Clear 34 1015 21 10000 3.6 350 23:18 17.08.2019
3508 Clear 34 1015 21 10000 3.6 350 23:18 17.08.2019
3509 Clear 34 1015 21 10000 3.6 350 22:56 17.08.2019
3510 Clouds 36 1014 18 8000 4.1 340 22:37 17.08.2019
3511 Clouds 36 1014 18 8000 4.1 340 22:19 17.08.2019
3512 Clouds 39 1013 14 10000 4.1 330 21:41 17.08.2019
3513 Clouds 39 1013 14 10000 4.1 330 21:23 17.08.2019
3514 Clouds 39 1013 14 10000 4.1 330 21:23 17.08.2019
3515 Clouds 41 1013 12 10000 4.1 320 20:41 17.08.2019
3516 Clouds 41 1013 12 10000 4.1 320 20:21 17.08.2019
3517 Clouds 41 1013 12 10000 4.6 310 19:59 17.08.2019
3518 Clouds 42 1013 12 10000 3.6 320 19:41 17.08.2019
3519 Clouds 42 1013 12 10000 3.6 320 19:22 17.08.2019
3520 Clouds 42 1013 12 10000 3.6 320 18:54 17.08.2019
3521 Clouds 42 1013 12 10000 4.1 280 18:36 17.08.2019
3522 Clouds 42 1013 13 10000 4.1 280 18:18 17.08.2019
3523 Clouds 42 1013 13 10000 4.1 280 18:18 17.08.2019
3524 Clouds 42 1013 13 10000 2.6 0 17:42 17.08.2019
3525 Clouds 42 1013 13 10000 2.6 0 17:21 17.08.2019
3526 Clouds 41 1013 12 10000 2.6 260 16:56 17.08.2019
3527 Clouds 41 1014 12 10000 2.1 310 16:37 17.08.2019
3528 Clouds 40 1014 14 10000 2.6 330 16:18 17.08.2019
3529 Clouds 40 1014 15 10000 1.5 280 15:42 17.08.2019
3530 Clouds 40 1014 15 10000 1.5 280 15:42 17.08.2019
3531 Clouds 40 1014 15 10000 1.5 280 15:21 17.08.2019
3532 Clouds 38 1014 18 10000 2.1 320 14:57 17.08.2019
3533 Clouds 38 1014 18 10000 2.1 320 14:38 17.08.2019
3534 Clouds 38 1014 18 10000 2.1 320 14:19 17.08.2019
3535 Clouds 35 1015 24 10000 2.1 0 13:43 17.08.2019
3536 Clouds 35 1015 24 10000 2.1 0 13:19 17.08.2019
3537 Clouds 33 1015 29 10000 1.5 270 12:43 17.08.2019
3538 Clouds 33 1015 29 10000 1.5 270 12:20 17.08.2019
3539 Clouds 31 1015 31 10000 1 0 11:58 17.08.2019
3540 Clouds 29 1015 37 10000 0.5 0 11:38 17.08.2019
3541 Clouds 29 1015 37 10000 0.5 0 11:19 17.08.2019
3542 Clouds 27 1015 39 0 1.5 220 10:40 17.08.2019
3543 Clouds 27 1015 39 0 1.5 220 10:21 17.08.2019
3544 Clouds 28 1015 37 10000 1.66 6.5 09:55 17.08.2019
3545 Clouds 25 1015 44 10000 1 0 09:36 17.08.2019
3546 Clouds 24 1015 44 10000 1 0 09:18 17.08.2019
3547 Clear 24 1015 41 10000 2.1 240 08:42 17.08.2019
3548 Clear 24 1015 41 10000 2.1 240 08:20 17.08.2019
3549 Clear 25 1014 38 10000 2.6 280 07:42 17.08.2019
3550 Clear 25 1014 38 10000 2.6 280 07:19 17.08.2019
3551 Clouds 27 1014 36 0 2.1 210 05:59 17.08.2019
3552 Clear 27 1015 39 10000 1.5 250 04:32 17.08.2019
3553 Clear 27 1015 39 10000 1.5 250 04:32 17.08.2019
3554 Clear 27 1015 39 10000 1.5 250 04:32 17.08.2019
3555 Clear 27 1015 39 10000 1.5 250 04:32 17.08.2019
3556 Clouds 29 1015 37 10000 1 0 03:38 17.08.2019
3557 Clouds 30 1016 33 9000 1.5 30 01:59 17.08.2019
3558 Clouds 30 1016 30 10000 1 0 01:36 17.08.2019
3559 Clouds 30 1016 30 9000 2.6 60 01:18 17.08.2019
3560 Clouds 31 1016 29 9000 2.1 50 00:39 17.08.2019
3561 Clouds 32 1016 27 8000 4.1 30 23:57 16.08.2019
3562 Clouds 33 1015 22 8000 3.6 20 23:38 16.08.2019
3563 Clouds 33 1015 22 8000 3.6 20 23:19 16.08.2019
3564 Clouds 35 1015 20 8000 5.1 360 22:40 16.08.2019
3565 Clouds 35 1015 20 8000 5.1 360 22:19 16.08.2019
3566 Clouds 38 1014 16 6000 5.1 350 21:42 16.08.2019
3567 Clouds 38 1014 16 6000 5.1 350 21:22 16.08.2019
3568 Clouds 40 1014 13 8000 4.6 350 20:58 16.08.2019
3569 Clouds 41 1013 12 8000 3.1 20 20:40 16.08.2019
3570 Clouds 41 1013 12 8000 3.1 20 20:19 16.08.2019
3571 Clouds 42 1013 9 10000 4.6 350 19:45 16.08.2019
3572 Clouds 42 1013 9 10000 4.6 350 19:45 16.08.2019
3573 Clouds 42 1013 9 10000 4.6 350 19:24 16.08.2019
3574 Clouds 42 1013 9 10000 4.6 350 19:24 16.08.2019
3575 Clouds 43 1013 10 9000 4.1 350 18:59 16.08.2019
3576 Clouds 43 1014 8 10000 4.1 320 18:41 16.08.2019
3577 Clouds 43 1014 8 10000 4.1 320 18:22 16.08.2019
3578 Clouds 43 1014 10 10000 3.1 330 17:44 16.08.2019
3579 Clouds 43 1014 10 10000 3.1 330 17:25 16.08.2019
3580 Clouds 42 1014 9 10000 3.1 360 16:56 16.08.2019
3581 Clouds 42 1014 11 10000 2.6 0 16:38 16.08.2019
3582 Clouds 41 1015 12 10000 2.1 0 16:18 16.08.2019
3583 Clouds 41 1015 12 10000 2.1 0 15:54 16.08.2019
3584 Clouds 41 1015 13 10000 1.5 0 15:36 16.08.2019
3585 Clouds 40 1015 12 10000 2.6 10 15:18 16.08.2019
3586 Clouds 39 1016 14 10000 2.1 0 14:41 16.08.2019
3587 Clouds 39 1016 14 10000 2.1 0 14:19 16.08.2019
3588 Clouds 39 1016 14 10000 2.1 0 14:19 16.08.2019
3589 Clouds 38 1016 13 10000 2.6 330 13:59 16.08.2019
3590 Clouds 37 1016 14 10000 2.1 330 13:38 16.08.2019
3591 Clouds 37 1016 14 10000 2.1 330 13:20 16.08.2019
3592 Clouds 35 1016 20 10000 1.5 360 12:39 16.08.2019
3593 Clouds 35 1016 20 10000 1.5 360 12:20 16.08.2019
3594 Clouds 32 1016 27 10000 1 0 11:43 16.08.2019
3595 Clouds 32 1016 27 10000 1 0 11:24 16.08.2019
3596 Clouds 30 1016 33 10000 1.5 80 10:55 16.08.2019
3597 -273 0 0 0 0 0 10:55 16.08.2019
3598 -273 0 0 0 0 0 10:55 16.08.2019
3599 Clouds 30 1016 30 7000 1 0 10:36 16.08.2019
3600 Clouds 28 1016 34 7000 2.59 53.87 10:18 16.08.2019
3601 Clouds 25 1016 41 7000 1.5 40 09:38 16.08.2019
3602 Clouds 25 1016 41 7000 1.5 40 09:19 16.08.2019
3603 Clouds 24 1016 44 7000 1.5 60 08:56 16.08.2019
3604 Clouds 24 1016 44 8000 2.1 90 08:38 16.08.2019
3605 Clouds 26 1016 39 8000 2.1 100 08:18 16.08.2019
3606 Clouds 25 1016 44 10000 1 80 07:44 16.08.2019
3607 Clouds 25 1016 44 10000 1 80 07:24 16.08.2019
3608 Clouds 25 1016 44 10000 1 40 06:34 16.08.2019
3609 Clouds 25 1016 41 10000 2.1 80 05:58 16.08.2019
3610 Clouds 26 1016 39 10000 2.6 70 05:32 16.08.2019
3611 Clouds 28 1017 37 10000 2.1 70 03:19 16.08.2019
3612 Clouds 30 1017 28 10000 1.5 40 01:44 16.08.2019
3613 Clouds 30 1017 28 10000 1.5 40 01:24 16.08.2019
3614 Clouds 32 1017 24 10000 3.1 10 00:43 16.08.2019
3615 Clouds 32 1017 24 10000 3.1 10 00:22 16.08.2019
3616 Clouds 33 1017 22 10000 4.1 30 23:46 15.08.2019
3617 Clouds 33 1017 22 10000 4.1 30 23:24 15.08.2019
3618 Clouds 35 1016 20 10000 4.1 10 22:59 15.08.2019
3619 Clouds 36 1016 18 10000 5.1 20 22:41 15.08.2019
3620 Clouds 36 1016 18 10000 5.1 20 22:21 15.08.2019
3621 Clouds 37 1016 17 10000 4.1 10 21:56 15.08.2019
3622 Clouds 38 1015 17 10000 3.6 360 21:38 15.08.2019
3623 Clouds 38 1015 17 10000 3.6 360 21:19 15.08.2019
3624 Clouds 40 1015 14 10000 3.6 330 20:44 15.08.2019
3625 Clouds 40 1015 14 10000 3.6 330 20:22 15.08.2019
3626 Clouds 41 1015 12 10000 3.6 340 19:59 15.08.2019
3627 Clouds 42 1015 13 10000 3.6 360 19:39 15.08.2019
3628 Clouds 42 1015 13 10000 3.6 360 19:21 15.08.2019
3629 Clouds 42 1015 14 10000 3.1 330 18:47 15.08.2019
3630 Clouds 42 1015 14 10000 3.1 330 18:24 15.08.2019
3631 Clouds 42 1015 14 10000 2.1 310 17:58 15.08.2019
3632 Clouds 42 1015 15 10000 3.6 300 17:38 15.08.2019
3633 Clouds 42 1015 15 10000 3.6 300 17:20 15.08.2019
3634 Clouds 41 1015 16 10000 3.6 330 16:58 15.08.2019
3635 Clouds 41 1015 18 10000 3.1 340 16:40 15.08.2019
3636 Clouds 41 1015 18 10000 3.1 340 16:21 15.08.2019
3637 Clouds 39 1016 20 10000 2.6 350 15:39 15.08.2019
3638 Clouds 38 1016 24 10000 2.1 360 15:20 15.08.2019
3639 Clouds 38 1016 24 10000 2.1 360 14:57 15.08.2019
3640 Clouds 37 1016 23 10000 2.6 340 14:38 15.08.2019
3641 Clouds 36 1017 25 10000 2.6 340 14:19 15.08.2019
3642 Clouds 36 1017 25 10000 2.6 340 13:55 15.08.2019
3643 Clouds 34 1017 32 10000 1 0 13:37 15.08.2019
3644 Clouds 34 1017 32 10000 1 0 13:19 15.08.2019
3645 Clouds 33 1017 33 6000 1.5 300 12:40 15.08.2019
3646 Clouds 33 1017 33 6000 1.5 300 12:20 15.08.2019
3647 Clouds 32 1017 35 10000 1 0 11:59 15.08.2019
3648 Clouds 31 1017 38 10000 1 0 11:38 15.08.2019
3649 Clouds 31 1017 38 10000 1 0 11:20 15.08.2019
3650 Clouds 29 1017 45 10000 0.5 0 10:58 15.08.2019
3651 Clouds 27 1017 51 10000 1 0 10:37 15.08.2019
3652 Clouds 26 1017 54 10000 1 260 10:18 15.08.2019
3653 Clouds 25 1017 57 10000 1.86 37.751 09:44 15.08.2019
3654 Clouds 25 1017 57 10000 1.23 332.933 09:22 15.08.2019
3655 Clear 23 1017 60 10000 1 240 08:39 15.08.2019
3656 Clear 23 1017 60 10000 1 240 08:21 15.08.2019
3657 Clear 23 1016 60 10000 1.23 332.933 07:59 15.08.2019
3658 Clear 23 1016 60 10000 1.23 332.933 07:40 15.08.2019
3659 Clear 23 1016 60 10000 1.23 332.933 07:21 15.08.2019
3660 Clear 24 1016 60 10000 1.5 220 06:48 15.08.2019
3661 Clear 24 1016 60 10000 1.5 220 06:26 15.08.2019
3662 Clear 25 1016 57 10000 2.6 220 05:31 15.08.2019
3663 Clear 24 1016 57 0 1.5 240 04:58 15.08.2019
3664 Clear 25 1016 53 0 3.1 230 04:19 15.08.2019
3665 Clear 26 1017 50 9000 2.6 230 03:21 15.08.2019
3666 Clouds 28 1017 42 10000 2.6 230 02:34 15.08.2019
3667 Clouds 30 1017 37 10000 1 10 01:44 15.08.2019
3668 Clouds 30 1017 37 10000 2.6 30 00:58 15.08.2019
3669 Clouds 31 1017 33 10000 3.1 40 00:37 15.08.2019
3670 Clouds 32 1017 31 10000 3.1 50 00:19 15.08.2019
3671 Clouds 32 1017 31 10000 3.1 50 23:55 14.08.2019
3672 Clouds 33 1016 29 10000 3.6 350 23:37 14.08.2019
3673 Clouds 35 1015 24 10000 4.6 350 23:18 14.08.2019
3674 Clouds 36 1015 20 10000 3.6 350 22:41 14.08.2019
3675 Clouds 36 1015 20 10000 3.6 350 22:22 14.08.2019
3676 Clouds 37 1015 19 10000 3.1 320 21:57 14.08.2019
3677 Clouds 38 1015 18 10000 2.6 310 21:39 14.08.2019
3678 Clouds 38 1015 18 10000 2.6 310 21:21 14.08.2019
3679 Clouds 39 1015 17 10000 2.1 330 20:56 14.08.2019
3680 Clouds 39 1015 17 10000 2.1 340 20:38 14.08.2019
3681 Clouds 40 1015 17 10000 1.5 310 20:18 14.08.2019
3682 Clouds 40 1015 16 10000 1.5 60 19:41 14.08.2019
3683 Clouds 40 1015 16 10000 1.5 60 19:22 14.08.2019
3684 Clouds 40 1015 16 10000 1.5 330 18:59 14.08.2019
3685 Clouds 39 1015 18 10000 1.5 340 18:39 14.08.2019
3686 Clouds 39 1015 18 10000 1.5 340 18:21 14.08.2019
3687 Clouds 39 1015 17 10000 2.1 30 17:59 14.08.2019
3688 Clouds 39 1015 17 10000 1 0 17:39 14.08.2019
3689 Clouds 39 1015 17 10000 1 0 17:39 14.08.2019
3690 Clouds 39 1015 17 10000 1 0 17:21 14.08.2019
3691 Clouds 39 1016 18 10000 2.1 290 16:56 14.08.2019
3692 Clouds 38 1016 19 10000 1 0 16:38 14.08.2019
3693 Clouds 37 1016 22 10000 1.5 220 16:19 14.08.2019
3694 Clouds 37 1016 22 10000 1.5 220 16:19 14.08.2019
3695 Clouds 36 1016 22 10000 1 0 15:43 14.08.2019
3696 Clouds 35 1017 24 10000 2.1 330 15:18 14.08.2019
3697 Clouds 35 1017 24 10000 2.1 330 14:55 14.08.2019
3698 Clouds 35 1017 24 10000 2.1 330 14:55 14.08.2019
3699 Clear 33 1017 27 10000 2.1 0 14:36 14.08.2019
3700 Clear 33 1017 27 10000 2.1 0 14:36 14.08.2019
3701 Clear 33 1017 27 10000 2.1 0 14:18 14.08.2019
3702 Clear 32 1017 29 10000 1.5 0 13:43 14.08.2019
3703 Clear 32 1017 29 10000 1.5 0 13:24 14.08.2019
3704 Clear 30 1017 30 10000 1.5 240 12:57 14.08.2019
3705 Clear 30 1017 33 10000 1.5 320 12:38 14.08.2019
3706 Clear 30 1017 33 10000 1.5 320 12:38 14.08.2019
3707 Clear 30 1017 33 10000 1.5 320 12:38 14.08.2019
3708 Clear 30 1017 33 10000 1.5 320 12:20 14.08.2019
3709 Clear 29 1017 35 9000 0.5 0 11:55 14.08.2019
3710 Clear 27 1017 42 8000 0.5 0 11:37 14.08.2019
3711 Clear 27 1017 42 8000 0.5 0 11:19 14.08.2019
3712 Clear 24 1017 50 10000 1.5 230 10:42 14.08.2019
3713 Clear 24 1017 50 10000 1.5 230 10:24 14.08.2019
3714 Clear 22 1016 56 10000 3.1 230 09:56 14.08.2019
3715 Clear 21 1016 56 10000 2.6 220 09:37 14.08.2019
3716 Clear 21 1016 56 10000 1.5 240 09:19 14.08.2019
3717 Clear 21 1016 52 10000 1.5 260 08:37 14.08.2019
3718 Clear 21 1015 52 10000 2.1 260 08:19 14.08.2019
3719 Clear 21 1015 52 10000 2.1 260 07:50 14.08.2019
3720 Clear 22 1015 49 0 1 260 07:31 14.08.2019
3721 Clear 23 1015 43 0 2.1 240 06:45 14.08.2019
3722 Clear 22 1015 46 7000 1.5 240 05:52 14.08.2019
3723 Clear 24 1015 44 10000 1 50 04:54 14.08.2019
3724 Clear 26 1016 34 9000 1.5 10 03:37 14.08.2019
3725 Clear 27 1016 28 10000 2.1 40 02:32 14.08.2019
3726 Clear 27 1016 28 10000 2.1 60 01:45 14.08.2019
3727 Clear 28 1016 26 10000 2.6 50 00:59 14.08.2019
3728 Clear 29 1016 25 10000 3.6 30 23:50 13.08.2019
3729 Clear 29 1016 25 10000 4.6 20 23:25 13.08.2019
3730 Clear 30 1015 22 10000 4.6 10 22:59 13.08.2019
3731 Clouds 31 1015 20 10000 5.1 360 22:39 13.08.2019
3732 Clouds 32 1014 21 10000 5.1 350 22:21 13.08.2019
3733 Clouds 32 1014 21 10000 5.1 350 21:58 13.08.2019
3734 Clouds 35 1014 19 10000 4.6 350 21:38 13.08.2019
3735 Clouds 36 1014 14 10000 3.1 360 21:19 13.08.2019
3736 Clouds 36 1014 14 10000 3.1 360 20:56 13.08.2019
3737 Clouds 37 1014 18 10000 3.6 30 20:36 13.08.2019
3738 Clear 37 1014 19 10000 2.1 340 20:18 13.08.2019
3739 Clear 37 1014 19 10000 2.1 0 19:42 13.08.2019
3740 Clear 37 1014 19 10000 2.1 0 19:21 13.08.2019
3741 Clear 37 1014 20 10000 3.6 40 18:56 13.08.2019
3742 Clear 37 1014 20 10000 2.6 350 18:37 13.08.2019
3743 Clear 37 1014 20 10000 3.1 0 18:18 13.08.2019
3744 Clear 37 1014 20 10000 2.6 330 17:41 13.08.2019
3745 Clear 37 1014 20 10000 2.6 330 17:21 13.08.2019
3746 Clear 36 1014 22 10000 2.1 0 16:56 13.08.2019
3747 Clear 36 1015 22 10000 1 0 16:38 13.08.2019
3748 Clear 36 1015 22 10000 1 0 16:19 13.08.2019
3749 Clear 33 1015 27 10000 2.1 320 15:39 13.08.2019
3750 Clear 33 1015 27 10000 2.1 320 15:20 13.08.2019
3751 Clear 32 1016 29 10000 1.5 0 14:58 13.08.2019
3752 Clear 30 1016 30 10000 2.6 10 14:38 13.08.2019
3753 Clear 29 1016 35 10000 2.6 10 14:19 13.08.2019
3754 Clear 29 1016 35 10000 1.5 330 13:42 13.08.2019
3755 Clear 29 1016 35 10000 1.5 330 13:21 13.08.2019
3756 Clear 27 1016 39 10000 2.1 350 12:59 13.08.2019
3757 Clear 27 1016 42 10000 1.5 0 12:41 13.08.2019
3758 Clear 27 1016 42 10000 1.5 0 12:22 13.08.2019
3759 Clear 26 1016 44 10000 1.5 270 11:58 13.08.2019
3760 Clear 24 1016 50 10000 1.5 260 11:38 13.08.2019
3761 Clear 24 1016 50 10000 1.5 260 11:19 13.08.2019
3762 Clear 23 1016 56 10000 2.1 280 10:56 13.08.2019
3763 Clear 23 1016 56 10000 2.1 280 10:56 13.08.2019
3764 Clear 22 1016 60 10000 2.1 260 10:37 13.08.2019
3765 Clear 20 1016 64 10000 2.6 260 10:18 13.08.2019
3766 Clear 20 1016 64 10000 2.1 260 09:42 13.08.2019
3767 Clear 20 1016 64 10000 2.1 260 09:23 13.08.2019
3768 Clear 19 1016 68 10000 1.5 240 08:44 13.08.2019
3769 Clear 19 1016 68 10000 1.5 240 08:23 13.08.2019
3770 Clear 20 1016 64 10000 3.1 220 07:57 13.08.2019
3771 Clear 20 1016 60 0 2.6 220 07:34 13.08.2019
3772 Clear 20 1016 60 0 2.1 230 06:56 13.08.2019
3773 Clear 20 1016 60 0 2.1 230 06:36 13.08.2019
3774 Clear 22 1015 53 0 1.5 90 05:35 13.08.2019
3775 Clear 24 1016 44 10000 2.1 10 03:35 13.08.2019
3776 Clear 25 1016 38 10000 2.6 350 02:19 13.08.2019
3777 Clear 26 1016 36 10000 3.1 30 01:18 13.08.2019
3778 Clear 26 1016 36 10000 2.1 20 00:42 13.08.2019
3779 Clear 26 1016 36 10000 4.6 30 23:57 12.08.2019
3780 Clear 27 1016 34 10000 5.1 30 23:36 12.08.2019
3781 Clouds 28 1015 32 10000 5.7 20 23:18 12.08.2019
3782 Clouds 31 1014 25 10000 4.6 10 22:40 12.08.2019
3783 Clouds 31 1014 25 10000 4.6 10 22:20 12.08.2019
3784 Clouds 31 1014 25 10000 4.6 10 21:56 12.08.2019
3785 Clouds 33 1014 24 10000 5.1 10 21:37 12.08.2019
3786 Clouds 35 1013 21 10000 2.6 60 21:19 12.08.2019
3787 Clouds 35 1013 21 10000 2.6 60 20:57 12.08.2019
3788 Clouds 35 1013 21 10000 1.5 120 20:38 12.08.2019
3789 Clouds 35 1013 21 10000 1.5 120 20:20 12.08.2019
3790 Clouds 36 1013 20 10000 2.6 40 20:20 12.08.2019
3791 Clouds 36 1013 20 10000 2.6 40 19:55 12.08.2019
3792 Clouds 35 1013 21 10000 1.5 140 19:37 12.08.2019
3793 Clouds 36 1013 20 10000 1 0 19:18 12.08.2019
3794 Clouds 36 1013 20 10000 1 0 18:55 12.08.2019
3795 Clear 34 1013 23 10000 3.1 120 18:36 12.08.2019
3796 Clear 35 1014 21 10000 2.1 0 18:18 12.08.2019
3797 Clear 34 1014 23 10000 1.5 0 17:46 12.08.2019
3798 Clear 34 1014 23 10000 1.5 0 17:28 12.08.2019
3799 Clear 34 1014 23 10000 2.6 0 16:56 12.08.2019
3800 -273 0 0 0 0 0 16:56 12.08.2019
3801 -273 0 0 0 0 0 16:56 12.08.2019
3802 Clear 34 1015 24 10000 1.5 0 16:37 12.08.2019
3803 Clear 33 1015 26 10000 1.5 220 16:18 12.08.2019
3804 Clear 33 1015 26 10000 1.5 220 15:54 12.08.2019
3805 Clear 32 1016 29 10000 2.6 0 15:36 12.08.2019
3806 Clear 30 1016 33 10000 3.1 320 15:18 12.08.2019
3807 -273 0 0 0 0 0 14:41 12.08.2019
3808 Clear 30 1016 33 9000 2.1 350 14:40 12.08.2019
3809 Clear 30 1016 33 9000 2.1 350 14:22 12.08.2019
3810 Clear 29 1017 37 9000 2.1 330 13:57 12.08.2019
3811 Clear 28 1017 39 10000 3.1 340 13:39 12.08.2019
3812 Clear 28 1017 39 10000 3.1 340 13:20 12.08.2019
3813 Clear 26 1017 44 10000 2.1 40 12:43 12.08.2019
3814 Clear 26 1017 44 10000 2.1 40 12:21 12.08.2019
3815 -273 0 0 0 0 0 11:45 12.08.2019
3816 -273 0 0 0 0 0 11:44 12.08.2019
3817 -273 0 0 0 0 0 11:44 12.08.2019
3818 Clear 25 1017 47 6000 1 0 11:26 12.08.2019
3819 Clear 24 1017 50 10000 1 0 10:56 12.08.2019
3820 -273 0 0 0 0 0 10:56 12.08.2019
3821 Clear 23 1017 53 10000 1 0 10:37 12.08.2019
3822 Clear 22 1017 56 10000 1 0 10:19 12.08.2019
3823 Clear 20 1017 64 10000 1 220 09:42 12.08.2019
3824 Clear 19 1016 68 10000 1.5 250 09:21 12.08.2019
3825 Clear 19 1016 68 10000 1.5 250 08:59 12.08.2019
3826 Clear 19 1016 68 10000 1.5 250 08:39 12.08.2019
3827 Clear 19 1016 68 10000 1.5 250 08:39 12.08.2019
3828 Clear 19 1016 68 10000 1.5 250 08:21 12.08.2019
3829 Clear 19 1016 68 10000 1.5 250 07:56 12.08.2019
3830 Clear 20 1016 64 10000 2.1 220 07:34 12.08.2019
3831 Clear 21 1016 60 10000 1.5 90 06:53 12.08.2019
3832 Clear 21 1016 52 10000 1.5 60 05:46 12.08.2019
3833 Clear 24 1017 38 10000 2.6 10 03:47 12.08.2019
3834 Clear 24 1017 38 10000 2.6 50 02:42 12.08.2019
3835 Clear 25 1018 38 10000 4.1 30 01:23 12.08.2019
3836 Clear 25 1018 41 10000 4.1 10 00:58 12.08.2019
3837 Clear 26 1018 39 10000 4.1 20 00:40 12.08.2019
3838 Clear 26 1018 39 10000 4.1 20 00:20 12.08.2019
3839 Clear 26 1018 39 10000 3.6 20 23:58 11.08.2019
3840 Clouds 28 1017 32 8000 3.6 30 23:39 11.08.2019
3841 Clouds 28 1017 32 8000 3.6 30 23:39 11.08.2019
3842 Clouds 28 1017 32 8000 3.6 30 23:19 11.08.2019
3843 Clouds 28 1017 32 8000 3.6 30 22:56 11.08.2019
3844 Clouds 29 1016 32 5000 6.7 20 22:36 11.08.2019
3845 Clouds 29 1016 32 5000 6.7 20 22:36 11.08.2019
3846 Clouds 30 1016 33 5000 7.2 10 22:18 11.08.2019
3847 Clouds 30 1016 33 5000 7.2 10 21:55 11.08.2019
3848 Clouds 31 1016 33 7000 7.7 30 21:36 11.08.2019
3849 Clouds 33 1015 33 8000 6.7 10 21:18 11.08.2019
3850 Clouds 36 1015 26 10000 5.1 20 20:42 11.08.2019
3851 Clouds 36 1015 26 10000 5.1 20 20:42 11.08.2019
3852 Clouds 36 1015 26 10000 5.1 20 20:23 11.08.2019
3853 Clouds 37 1015 23 10000 2.6 10 19:54 11.08.2019
3854 Clouds 37 1015 23 10000 2.1 30 19:36 11.08.2019
3855 Clouds 37 1015 23 10000 2.6 360 19:18 11.08.2019
3856 Clouds 36 1015 25 10000 2.6 0 18:38 11.08.2019
3857 Clouds 36 1015 25 10000 1.5 0 18:19 11.08.2019
3858 Clouds 36 1016 25 10000 3.1 30 17:42 11.08.2019
3859 Clouds 36 1016 25 10000 3.1 30 17:21 11.08.2019
3860 Clouds 35 1016 28 10000 1.5 0 16:59 11.08.2019
3861 Clouds 33 1016 31 10000 3.6 360 16:40 11.08.2019
3862 Clouds 33 1016 31 10000 3.6 360 16:22 11.08.2019
3863 Clouds 33 1017 33 10000 2.6 0 15:57 11.08.2019
3864 Clouds 32 1017 35 10000 3.6 330 15:38 11.08.2019
3865 Clouds 32 1017 35 10000 3.6 330 15:20 11.08.2019
3866 Clouds 31 1017 40 10000 2.6 10 14:54 11.08.2019
3867 Clouds 30 1018 42 10000 2.1 0 14:36 11.08.2019
3868 Clear 30 1018 42 10000 2.6 0 14:18 11.08.2019
3869 Rain 29 1018 48 0 1.5 0 13:41 11.08.2019
3870 Clear 29 1018 48 0 1.5 0 13:22 11.08.2019
3871 Clear 28 1019 51 7000 1.5 340 12:41 11.08.2019
3872 Clear 28 1019 51 7000 1.5 340 12:22 11.08.2019
3873 Clear 27 1019 54 7000 1 0 11:41 11.08.2019
3874 Clear 27 1019 54 7000 1 0 11:23 11.08.2019
3875 Clouds 26 1019 57 8000 0.5 0 10:57 11.08.2019
3876 Clouds 24 1019 64 10000 0.5 0 10:39 11.08.2019
3877 Clouds 24 1019 64 10000 0.5 0 10:20 11.08.2019
3878 Clouds 23 1019 69 10000 1.5 250 09:55 11.08.2019
3879 Clouds 22 1018 73 10000 2.1 230 09:37 11.08.2019
3880 Clouds 21 1018 77 10000 2.1 230 09:18 11.08.2019
3881 Clear 21 1018 77 9000 2.1 240 08:41 11.08.2019
3882 Clear 21 1018 77 9000 2.1 240 08:22 11.08.2019
3883 Clear 22 1018 73 9000 2.6 230 07:46 11.08.2019
3884 Clear 22 1018 73 9000 2.6 230 07:19 11.08.2019
3885 Clear 23 1017 69 7000 2.1 290 06:38 11.08.2019
3886 Clear 23 1017 69 8000 2.6 280 05:33 11.08.2019
3887 Clouds 26 1018 57 8000 2.6 30 02:54 11.08.2019
3888 Clouds 26 1018 57 8000 2.6 30 02:26 11.08.2019
3889 Clouds 27 1018 47 10000 3.6 10 01:35 11.08.2019
3890 Clouds 28 1018 42 9000 3.1 40 00:56 11.08.2019
3891 Clouds 29 1019 39 10000 3.1 40 00:36 11.08.2019
3892 Clouds 29 1019 39 10000 3.1 40 00:36 11.08.2019
3893 Clouds 29 1019 39 10000 1.5 60 00:18 11.08.2019
3894 Clouds 30 1018 37 10000 4.1 30 23:39 10.08.2019
3895 Clouds 30 1018 37 10000 4.1 30 23:20 10.08.2019
3896 Clouds 31 1017 35 10000 4.1 350 22:42 10.08.2019
3897 Clouds 31 1017 35 10000 4.1 350 22:23 10.08.2019
3898 Clouds 32 1017 33 10000 5.7 350 21:56 10.08.2019
3899 Clouds 34 1016 32 10000 6.2 350 21:36 10.08.2019
3900 Clouds 35 1016 30 10000 5.7 350 21:18 10.08.2019
3901 Clouds 36 1016 28 10000 5.1 330 20:42 10.08.2019
3902 Clouds 36 1016 28 10000 5.1 330 20:21 10.08.2019
3903 Clouds 37 1016 23 10000 3.1 340 19:57 10.08.2019
3904 Clouds 37 1016 25 9000 3.6 340 19:37 10.08.2019
3905 Clouds 38 1016 24 9000 2.6 0 19:19 10.08.2019
3906 Clouds 38 1015 24 9000 2.6 330 18:39 10.08.2019
3907 Clouds 38 1015 24 9000 2.6 330 18:39 10.08.2019
3908 Clouds 39 1016 22 9000 3.1 320 18:21 10.08.2019
3909 Clouds 38 1016 24 9000 2.6 330 17:44 10.08.2019
3910 Clouds 38 1016 24 9000 2.6 330 17:24 10.08.2019
3911 Clouds 38 1017 22 8000 2.6 340 16:47 10.08.2019
3912 Clouds 38 1017 22 8000 2.6 340 16:28 10.08.2019
3913 Clouds 37 1017 23 8000 2.1 0 15:54 10.08.2019
3914 -273 0 0 0 0 0 15:25 10.08.2019
3915 Clouds 34 1018 32 9000 2.1 320 14:45 10.08.2019
3916 Clouds 34 1018 32 9000 2.1 320 14:23 10.08.2019
3917 Clouds 33 1018 33 9000 1.5 340 13:55 10.08.2019
3918 Clouds 33 1019 33 8000 1.5 300 13:37 10.08.2019
3919 Clouds 32 1019 38 9000 1 0 13:18 10.08.2019
3920 Clear 30 1019 40 10000 1.5 290 12:41 10.08.2019
3921 Clear 30 1019 40 10000 1.5 290 12:21 10.08.2019
3922 Clear 28 1019 48 10000 1.5 240 11:56 10.08.2019
3923 Clear 28 1019 48 10000 1.5 250 11:37 10.08.2019
3924 Clear 28 1019 48 10000 1.5 250 11:19 10.08.2019
3925 Clear 25 1019 57 10000 1.5 240 10:38 10.08.2019
3926 Clear 24 1019 57 10000 2.1 260 10:20 10.08.2019
3927 Clear 23 1019 60 10000 2.1 240 09:44 10.08.2019
3928 Clear 23 1019 60 10000 2.1 240 09:25 10.08.2019
3929 Clear 22 1018 64 10000 1.5 240 08:59 10.08.2019
3930 Clouds 22 1018 64 10000 1 250 08:38 10.08.2019
3931 Clouds 22 1018 64 10000 1 250 08:19 10.08.2019
3932 Clouds 22 1018 64 10000 2.6 240 07:48 10.08.2019
3933 Clouds 22 1018 64 10000 2.6 240 07:26 10.08.2019
3934 Clouds 24 1018 57 10000 3.1 230 06:47 10.08.2019
3935 Clouds 25 1017 50 10000 3.6 240 06:18 10.08.2019
3936 Clouds 25 1017 50 10000 3.6 240 05:22 10.08.2019
3937 Clouds 27 1018 44 10000 1 230 04:18 10.08.2019
3938 Clouds 29 1018 37 10000 2.6 350 02:52 10.08.2019
3939 Clouds 30 1018 33 8000 3.1 10 01:57 10.08.2019
3940 Clouds 30 1018 33 8000 4.1 30 01:38 10.08.2019
3941 Clouds 30 1018 33 8000 4.1 30 01:19 10.08.2019
3942 Clouds 30 1019 40 8000 2.6 70 00:43 10.08.2019
3943 Clouds 30 1019 40 8000 2.6 70 00:21 10.08.2019
3944 Clouds 30 1019 45 7000 2.1 80 23:42 09.08.2019
3945 Clouds 30 1019 45 7000 2.1 80 23:22 09.08.2019
3946 Clouds 30 1019 42 7000 0.5 0 22:56 09.08.2019
3947 Rain 31 1020 40 7000 4.6 200 22:38 09.08.2019
3948 Thunderstorm 33 1018 29 6000 3.1 10 22:19 09.08.2019
3949 Thunderstorm 32 1018 38 6000 4.1 80 21:41 09.08.2019
3950 Thunderstorm 32 1018 38 6000 4.1 80 21:22 09.08.2019
3951 Thunderstorm 35 1018 26 6000 2.6 360 20:58 09.08.2019
3952 Thunderstorm 36 1017 25 6000 4.1 350 20:39 09.08.2019
3953 Thunderstorm 36 1017 25 6000 4.1 350 20:20 09.08.2019
3954 Clouds 36 1016 23 8000 4.6 340 19:56 09.08.2019
3955 Clouds 37 1016 22 6000 4.6 310 19:37 09.08.2019
3956 Clouds 38 1016 21 8000 2.6 360 19:18 09.08.2019
3957 Clouds 39 1016 20 9000 2.6 310 18:39 09.08.2019
3958 Clouds 39 1016 20 9000 2.6 310 18:21 09.08.2019
3959 Clouds 39 1016 20 9000 3.6 330 17:45 09.08.2019
3960 Clouds 39 1016 20 9000 3.6 330 17:25 09.08.2019
3961 Clouds 39 1016 20 10000 2.6 260 16:59 09.08.2019
3962 Clouds 38 1016 22 10000 3.1 320 16:39 09.08.2019
3963 Clouds 38 1016 22 10000 3.1 320 16:20 09.08.2019
3964 Clouds 38 1017 24 10000 3.6 330 15:55 09.08.2019
3965 Clouds 38 1017 25 10000 2.1 320 15:36 09.08.2019
3966 Clouds 36 1017 28 10000 3.1 300 15:18 09.08.2019
3967 Clouds 35 1018 28 10000 3.6 310 14:43 09.08.2019
3968 -273 0 0 0 0 0 14:22 09.08.2019
3969 Clouds 35 1018 28 10000 3.6 310 14:22 09.08.2019
3970 Clouds 34 1018 32 10000 3.1 330 13:56 09.08.2019
3971 Clouds 33 1018 33 10000 2.1 320 13:38 09.08.2019
3972 Clouds 31 1018 40 10000 1.5 340 13:18 09.08.2019
3973 Clouds 31 1018 40 10000 1 0 12:43 09.08.2019
3974 Clouds 31 1018 40 10000 1 0 12:22 09.08.2019
3975 Clouds 28 1018 48 10000 1.5 250 11:42 09.08.2019
3976 Clouds 28 1018 51 10000 1.5 260 11:21 09.08.2019
3977 Clouds 28 1018 51 10000 1.5 260 10:59 09.08.2019
3978 Clouds 26 1018 57 10000 1.5 240 10:39 09.08.2019
3979 Clouds 25 1018 61 10000 1.5 270 10:21 09.08.2019
3980 Clouds 24 1018 64 10000 2.6 250 09:42 09.08.2019
3981 Clouds 24 1018 64 10000 2.6 250 09:19 09.08.2019
3982 Clouds 23 1018 64 10000 3.1 270 08:54 09.08.2019
3983 Clouds 23 1018 64 10000 1.5 250 08:36 09.08.2019
3984 Clouds 23 1018 64 10000 1.5 250 08:36 09.08.2019
3985 Clouds 24 1018 60 10000 1 0 08:18 09.08.2019
3986 Clouds 24 1018 60 10000 2.1 260 07:42 09.08.2019
3987 Clouds 24 1018 60 10000 2.1 260 07:21 09.08.2019
3988 Clouds 24 1018 60 10000 1 0 06:52 09.08.2019
3989 Clouds 24 1017 60 10000 1.5 240 06:26 09.08.2019
3990 Clouds 25 1017 53 10000 3.1 240 05:46 09.08.2019
3991 Clouds 28 1018 48 10000 3.1 250 02:33 09.08.2019
3992 Clouds 30 1019 42 10000 2.1 230 01:41 09.08.2019
3993 Clouds 30 1018 40 10000 2.6 260 00:43 09.08.2019
3994 Clouds 30 1018 40 10000 2.6 260 00:24 09.08.2019
3995 Clouds 31 1018 40 10000 3.1 230 23:59 08.08.2019
3996 Clouds 32 1017 35 10000 1.5 350 23:38 08.08.2019
3997 Clouds 32 1017 35 10000 1.5 350 23:19 08.08.2019
3998 Clouds 33 1016 33 10000 4.1 330 22:57 08.08.2019
3999 Clouds 33 1016 33 10000 3.6 360 22:36 08.08.2019
4000 Clouds 35 1015 32 10000 4.1 330 22:18 08.08.2019
4001 Clouds 35 1015 32 10000 4.1 330 21:55 08.08.2019
4002 Clouds 36 1015 30 10000 3.1 260 21:36 08.08.2019
4003 Clouds 37 1015 29 10000 5.1 270 21:18 08.08.2019
4004 Clouds 38 1015 25 10000 4.6 280 20:42 08.08.2019
4005 Clouds 38 1015 25 10000 4.6 280 20:21 08.08.2019
4006 Clouds 38 1015 25 10000 4.6 290 19:56 08.08.2019
4007 Clouds 39 1014 24 10000 5.7 250 19:37 08.08.2019
4008 Clouds 40 1014 24 10000 6.7 260 19:19 08.08.2019
4009 Clouds 40 1014 23 9000 6.7 270 18:41 08.08.2019
4010 Clouds 40 1014 23 9000 6.7 270 18:21 08.08.2019
4011 Clouds 40 1014 23 9000 7.2 270 17:42 08.08.2019
4012 Clouds 40 1014 23 9000 7.2 270 17:24 08.08.2019
4013 Clouds 41 1014 21 9000 6.2 250 16:59 08.08.2019
4014 Clouds 41 1014 21 8000 5.7 260 16:41 08.08.2019
4015 Clouds 41 1014 21 8000 5.7 260 16:23 08.08.2019
4016 Clouds 40 1014 23 9000 3.6 290 15:58 08.08.2019
4017 Clouds 39 1014 24 9000 4.1 270 15:39 08.08.2019
4018 Clouds 39 1014 24 9000 4.1 270 15:39 08.08.2019
4019 Clouds 39 1014 24 9000 4.1 270 15:20 08.08.2019
4020 Clouds 39 1014 24 9000 4.1 270 15:20 08.08.2019
4021 Clouds 39 1014 24 9000 4.1 270 15:20 08.08.2019
4022 Clear 37 1015 27 10000 3.6 290 14:40 08.08.2019
4023 Clear 37 1015 27 10000 3.6 290 14:22 08.08.2019
4024 Clear 36 1015 26 10000 2.6 310 13:57 08.08.2019
4025 Clear 35 1015 30 10000 2.1 320 13:36 08.08.2019
4026 Clear 33 1015 33 10000 3.1 290 13:18 08.08.2019
4027 Clear 32 1015 35 10000 2.1 270 12:39 08.08.2019
4028 Clear 30 1015 40 10000 1.5 290 12:19 08.08.2019
4029 Clear 30 1015 40 10000 1.5 290 12:19 08.08.2019
4030 Clear 30 1015 40 10000 1.5 290 12:19 08.08.2019
4031 Clear 29 1015 42 10000 1.5 250 11:47 08.08.2019
4032 Clear 29 1015 42 10000 1.5 250 11:26 08.08.2019
4033 Clear 28 1015 45 10000 2.1 270 10:57 08.08.2019
4034 Clear 28 1015 45 10000 2.1 270 10:57 08.08.2019
4035 Clear 28 1015 45 10000 2.1 270 10:57 08.08.2019
4036 Clear 27 1015 44 10000 1.5 240 10:39 08.08.2019
4037 Clear 27 1015 44 10000 1.5 240 10:20 08.08.2019
4038 Clear 26 1015 47 10000 2.1 270 09:43 08.08.2019
4039 Clear 24 1015 53 10000 0.97 30.09 09:23 08.08.2019
4040 Clear 24 1015 53 10000 0.97 30.09 08:54 08.08.2019
4041 Clear 25 1014 47 10000 0.9 354.277 08:36 08.08.2019
4042 Clear 25 1014 47 10000 1.5 80 08:18 08.08.2019
4043 Clear 24 1014 53 10000 0.9 354.277 07:39 08.08.2019
4044 Clear 24 1014 53 10000 0.9 354.277 07:19 08.08.2019
4045 Clear 24 1014 50 10000 1.5 240 06:46 08.08.2019
4046 Clear 24 1015 50 0 1 0 06:18 08.08.2019
4047 Clear 26 1014 44 10000 0.68 90.168 05:42 08.08.2019
4048 Clear 26 1015 44 10000 0.68 90.168 04:43 08.08.2019
4049 Clear 27 1015 44 0 0.5 250 03:51 08.08.2019
4050 Clouds 29 1016 35 10000 1 0 01:59 08.08.2019
4051 Clouds 30 1016 33 10000 2.1 40 01:24 08.08.2019
4052 Clouds 31 1016 33 10000 3.1 20 00:25 08.08.2019
4053 Clouds 32 1015 33 10000 2.6 30 23:42 07.08.2019
4054 Clouds 32 1015 33 10000 2.6 30 23:19 07.08.2019
4055 Clouds 33 1015 31 10000 3.6 20 22:55 07.08.2019
4056 Clouds 33 1015 31 10000 3.1 30 22:36 07.08.2019
4057 Clouds 33 1015 31 10000 3.1 30 22:36 07.08.2019
4058 Clouds 34 1015 30 10000 2.1 350 22:18 07.08.2019
4059 Clouds 34 1015 30 10000 2.1 350 21:54 07.08.2019
4060 Clouds 34 1015 32 10000 2.1 350 21:36 07.08.2019
4061 Clouds 35 1015 30 10000 4.1 350 21:18 07.08.2019
4062 Clouds 35 1015 30 10000 3.1 340 20:41 07.08.2019
4063 Clouds 35 1015 30 10000 3.1 340 20:23 07.08.2019
4064 Clouds 36 1015 28 10000 3.6 260 19:56 07.08.2019
4065 Clouds 37 1014 27 10000 3.1 290 19:38 07.08.2019
4066 Clouds 37 1014 27 10000 3.1 290 19:20 07.08.2019
4067 Clouds 38 1014 25 10000 4.6 260 18:42 07.08.2019
4068 Clouds 38 1014 25 10000 4.6 260 18:20 07.08.2019
4069 Clouds 39 1014 24 10000 2.6 300 17:58 07.08.2019
4070 Clouds 39 1014 24 10000 3.1 310 17:39 07.08.2019
4071 Clouds 38 1014 25 10000 2.6 320 17:21 07.08.2019
4072 Clouds 38 1014 25 10000 2.6 320 16:57 07.08.2019
4073 Clouds 38 1015 25 10000 2.6 0 16:39 07.08.2019
4074 Clouds 38 1015 25 10000 2.6 0 16:20 07.08.2019
4075 -273 0 0 0 0 0 15:56 07.08.2019
4076 Clouds 35 1015 30 10000 2.1 20 15:37 07.08.2019
4077 Clouds 35 1015 30 10000 1 0 15:18 07.08.2019
4078 Clouds 33 1015 33 10000 2.6 300 14:45 07.08.2019
4079 Clouds 33 1015 33 10000 2.6 300 14:26 07.08.2019
4080 Clouds 30 1015 40 10000 2.1 320 13:45 07.08.2019
4081 Clouds 30 1015 42 10000 2.6 300 13:19 07.08.2019
4082 Clouds 30 1015 42 10000 2.6 300 13:19 07.08.2019
4083 Clouds 30 1015 42 10000 2.6 300 12:58 07.08.2019
4084 Clouds 28 1015 45 10000 2.6 290 12:39 07.08.2019
4085 Clouds 27 1015 47 10000 1 0 12:21 07.08.2019
4086 Clouds 27 1015 47 10000 1 0 11:59 07.08.2019
4087 Clouds 25 1015 53 10000 1.5 220 11:41 07.08.2019
4088 Clouds 24 1015 57 10000 3.1 230 11:19 07.08.2019
4089 Clouds 24 1015 57 10000 3.1 230 11:19 07.08.2019
4090 Clouds 24 1015 57 10000 3.1 230 10:55 07.08.2019
4091 Clouds 23 1015 60 10000 2.1 220 10:37 07.08.2019
4092 Clouds 23 1014 60 10000 3.1 270 10:18 07.08.2019
4093 Clouds 22 1014 64 10000 2.6 240 09:44 07.08.2019
4094 Clouds 22 1014 64 10000 2.6 240 09:21 07.08.2019
4095 Clouds 22 1014 60 10000 2.1 250 08:45 07.08.2019
4096 Clouds 22 1014 60 10000 2.1 250 08:26 07.08.2019
4097 Clouds 23 1014 56 10000 2.1 250 07:52 07.08.2019
4098 Clouds 23 1014 56 10000 1.5 240 07:34 07.08.2019
4099 Clouds 24 1014 50 10000 2.1 230 06:57 07.08.2019
4100 Clouds 25 1014 47 10000 1 220 06:29 07.08.2019
4101 Clouds 25 1014 47 10000 1.5 230 05:49 07.08.2019
4102 Clouds 25 1014 47 10000 1 0 04:51 07.08.2019
4103 Clouds 27 1014 44 10000 0.5 0 03:21 07.08.2019
4104 Clouds 27 1014 42 10000 2.6 20 02:44 07.08.2019
4105 Clouds 28 1015 37 10000 1.5 40 01:58 07.08.2019
4106 Clouds 28 1015 34 10000 2.1 30 01:38 07.08.2019
4107 Clouds 30 1015 28 10000 2.6 350 00:39 07.08.2019
4108 Clouds 30 1015 28 10000 2.6 350 00:20 07.08.2019
4109 Clouds 30 1015 33 10000 3.1 40 23:41 06.08.2019
4110 Clouds 30 1015 33 10000 3.1 40 23:21 06.08.2019
4111 Clouds 31 1015 33 7000 1.5 330 22:56 06.08.2019
4112 Clouds 31 1014 33 10000 2.1 340 22:37 06.08.2019
4113 Clouds 31 1014 35 10000 2.1 350 22:18 06.08.2019
4114 Clouds 31 1014 35 10000 3.1 10 21:42 06.08.2019
4115 Clouds 31 1014 35 10000 3.1 10 21:24 06.08.2019
4116 Clouds 32 1014 35 10000 4.1 10 20:57 06.08.2019
4117 Clouds 33 1013 33 10000 4.6 350 20:39 06.08.2019
4118 Clouds 33 1013 33 10000 4.6 350 20:21 06.08.2019
4119 Clouds 36 1013 26 10000 5.1 330 19:43 06.08.2019
4120 Clouds 36 1013 26 10000 5.1 330 19:25 06.08.2019
4121 Clouds 36 1013 28 10000 2.6 230 18:46 06.08.2019
4122 Clouds 36 1013 28 10000 2.6 230 18:27 06.08.2019
4123 Clouds 35 1013 30 10000 3.1 260 17:59 06.08.2019
4124 Clouds 35 1013 30 10000 3.6 250 17:39 06.08.2019
4125 Clouds 35 1013 30 10000 3.6 250 17:21 06.08.2019
4126 Clouds 34 1013 30 10000 3.1 260 16:59 06.08.2019
4127 Clouds 35 1014 30 10000 1.5 0 16:38 06.08.2019
4128 Clouds 34 1014 32 10000 2.1 0 16:19 06.08.2019
4129 Clouds 34 1014 32 10000 2.1 0 15:56 06.08.2019
4130 Clouds 34 1014 32 10000 3.1 280 15:38 06.08.2019
4131 Clouds 34 1014 32 10000 3.1 280 15:19 06.08.2019
4132 Clouds 34 1014 32 10000 3.1 280 15:19 06.08.2019
4133 Clouds 32 1015 33 10000 1.5 0 14:43 06.08.2019
4134 Clouds 32 1015 33 10000 1.5 0 14:24 06.08.2019
4135 Clouds 31 1015 35 10000 1.5 0 13:57 06.08.2019
4136 Clouds 31 1015 35 10000 1.5 0 13:57 06.08.2019
4137 Clouds 30 1015 40 10000 2.1 0 13:38 06.08.2019
4138 Clouds 29 1015 42 10000 2.1 290 13:20 06.08.2019
4139 Clouds 29 1015 42 10000 2.1 290 12:56 06.08.2019
4140 Clouds 28 1015 45 10000 2.6 310 12:38 06.08.2019
4141 Clouds 28 1015 45 10000 1.5 250 12:19 06.08.2019
4142 Clouds 26 1015 50 10000 1.5 290 11:40 06.08.2019
4143 Clouds 25 1015 53 10000 1.5 260 11:18 06.08.2019
4144 Clouds 25 1015 53 10000 1.5 260 11:18 06.08.2019
4145 Clouds 24 1015 57 10000 1.5 270 10:41 06.08.2019
4146 Clouds 24 1015 57 10000 1.5 270 10:22 06.08.2019
4147 Clouds 21 1015 68 10000 1.5 250 09:49 06.08.2019
4148 Clouds 21 1015 68 10000 1.5 250 09:24 06.08.2019
4149 Clouds 20 1015 72 400 1.5 230 08:57 06.08.2019
4150 Clouds 20 1015 72 10000 2.6 230 08:38 06.08.2019
4151 Clouds 20 1015 72 10000 2.6 230 08:38 06.08.2019
4152 Clouds 20 1015 72 10000 2.6 230 08:20 06.08.2019
4153 Clouds 20 1015 68 10000 2.6 240 07:36 06.08.2019
4154 Clouds 21 1015 68 10000 2.6 240 06:51 06.08.2019
4155 Clouds 21 1015 64 10000 2.6 250 06:29 06.08.2019
4156 Clouds 22 1015 60 10000 3.1 230 05:47 06.08.2019
4157 Clouds 26 1015 44 10000 3.1 220 02:59 06.08.2019
4158 Clouds 26 1016 44 10000 1 0 01:51 06.08.2019
4159 Clouds 27 1016 39 10000 1.5 30 01:22 06.08.2019
4160 Clouds 28 1016 37 10000 1.5 40 00:29 06.08.2019
4161 Clouds 30 1015 35 10000 3.6 10 23:44 05.08.2019
4162 Clouds 30 1015 35 10000 4.6 20 23:18 05.08.2019
4163 Clouds 31 1014 35 10000 4.1 350 22:40 05.08.2019
4164 Clouds 32 1014 33 10000 4.6 350 22:22 05.08.2019
4165 Clouds 33 1014 31 10000 5.1 360 21:45 05.08.2019
4166 Clouds 33 1014 31 10000 5.1 360 21:22 05.08.2019
4167 Clouds 35 1014 28 10000 4.6 360 21:00 05.08.2019
4168 Clouds 36 1014 28 10000 3.1 350 20:41 05.08.2019
4169 Clouds 36 1014 28 10000 3.1 350 20:23 05.08.2019
4170 Clouds 37 1013 27 8000 2.6 360 19:59 05.08.2019
4171 Clouds 37 1014 27 7000 2.1 350 19:39 05.08.2019
4172 Clouds 37 1014 27 7000 2.1 350 19:39 05.08.2019
4173 Clouds 36 1014 26 7000 2.1 330 19:20 05.08.2019
4174 Clouds 36 1014 28 8000 2.1 190 18:45 05.08.2019
4175 Clouds 36 1014 28 8000 2.1 190 18:22 05.08.2019
4176 Clouds 36 1014 28 8000 2.1 0 17:58 05.08.2019
4177 Clouds 35 1014 30 7000 2.6 290 17:40 05.08.2019
4178 Clouds 35 1014 30 7000 2.6 290 17:22 05.08.2019
4179 Clouds 35 1014 30 7000 2.6 290 17:22 05.08.2019
4180 Clouds 34 1015 32 8000 1 0 16:44 05.08.2019
4181 Clouds 34 1015 32 8000 1 0 16:24 05.08.2019
4182 Clear 33 1015 33 7000 2.1 310 15:44 05.08.2019
4183 Clear 33 1015 33 7000 2.1 310 15:21 05.08.2019
4184 Clear 31 1015 38 10000 2.6 360 14:54 05.08.2019
4185 Clear 31 1015 38 10000 2.6 360 14:54 05.08.2019
4186 Clear 31 1016 38 10000 2.1 260 14:36 05.08.2019
4187 Clear 30 1016 40 10000 1 0 14:18 05.08.2019
4188 Clear 29 1016 42 10000 2.1 300 13:40 05.08.2019
4189 Clear 28 1016 45 10000 1.5 290 13:20 05.08.2019
4190 Clear 27 1017 47 10000 1 0 12:43 05.08.2019
4191 Clear 26 1017 54 10000 2.1 280 12:19 05.08.2019
4192 Clear 25 1017 57 10000 1.5 280 11:45 05.08.2019
4193 Clear 25 1017 57 10000 1.5 280 11:45 05.08.2019
4194 Clear 25 1017 57 10000 1.5 280 11:26 05.08.2019
4195 Clear 23 1016 64 10000 2.1 290 10:49 05.08.2019
4196 Clear 22 1016 64 10000 2.6 270 10:31 05.08.2019
4197 Clear 21 1016 73 10000 2.6 270 09:57 05.08.2019
4198 Clear 20 1016 77 10000 2.6 240 09:39 05.08.2019
4199 Clear 20 1016 77 10000 2.6 240 09:20 05.08.2019
4200 Clear 19 1016 77 10000 2.1 240 08:44 05.08.2019
4201 Clear 19 1016 77 10000 2.1 240 08:25 05.08.2019
4202 Clear 20 1016 72 10000 3.6 220 07:49 05.08.2019
4203 Clear 20 1016 72 10000 3.6 220 07:30 05.08.2019
4204 Clear 20 1016 72 10000 3.6 220 06:58 05.08.2019
4205 Clear 20 1016 72 10000 2.1 240 06:27 05.08.2019
4206 Clear 21 1016 68 10000 2.1 240 05:33 05.08.2019
4207 Clear 21 1016 68 10000 2.6 240 04:52 05.08.2019
4208 Clear 22 1016 60 8000 4.1 240 03:53 05.08.2019
4209 Clear 24 1016 53 8000 2.1 240 03:20 05.08.2019
4210 Clear 24 1016 53 8000 2.1 240 02:21 05.08.2019
4211 Clear 25 1016 47 5000 1.5 260 01:31 05.08.2019
4212 Clear 26 1017 44 8000 2.6 40 00:41 05.08.2019
4213 Clear 27 1016 42 8000 3.1 30 00:21 05.08.2019
4214 Clear 28 1016 39 8000 4.1 350 23:43 04.08.2019
4215 Clear 28 1016 39 8000 4.1 350 23:23 04.08.2019
4216 Clear 29 1016 39 8000 4.6 340 22:57 04.08.2019
4217 Clear 30 1015 35 8000 5.7 350 22:38 04.08.2019
4218 Clear 30 1015 35 8000 5.7 350 22:20 04.08.2019
4219 Clouds 33 1015 29 8000 4.1 350 21:58 04.08.2019
4220 Clouds 34 1014 28 8000 4.1 320 21:40 04.08.2019
4221 Clouds 35 1014 26 8000 3.6 330 21:19 04.08.2019
4222 Clouds 36 1014 26 8000 1 0 20:42 04.08.2019
4223 Clouds 36 1014 26 8000 1 0 20:19 04.08.2019
4224 Clouds 36 1014 26 8000 1 0 19:55 04.08.2019
4225 Clouds 36 1014 26 8000 1 0 19:36 04.08.2019
4226 Clouds 36 1014 26 10000 1 0 19:18 04.08.2019
4227 Clouds 35 1014 26 10000 1 0 18:41 04.08.2019
4228 Clouds 35 1014 26 10000 1 0 18:20 04.08.2019
4229 Clouds 35 1014 24 10000 1 0 17:44 04.08.2019
4230 Clouds 35 1014 24 10000 1 0 17:24 04.08.2019
4231 Clouds 33 1015 27 10000 2.1 320 16:46 04.08.2019
4232 Clouds 33 1015 27 10000 2.1 320 16:28 04.08.2019
4233 Clouds 33 1015 27 10000 1 0 15:58 04.08.2019
4234 Clouds 32 1015 29 10000 1 0 15:38 04.08.2019
4235 Clouds 32 1015 29 10000 1 0 15:19 04.08.2019
4236 Clear 30 1016 33 10000 2.1 360 14:43 04.08.2019
4237 Clear 30 1016 33 10000 2.1 360 14:25 04.08.2019
4238 Clear 29 1016 39 10000 1.5 330 13:47 04.08.2019
4239 Clear 29 1016 39 10000 1.5 330 13:27 04.08.2019
4240 Clear 27 1017 44 10000 1.5 330 12:57 04.08.2019
4241 Clear 27 1017 44 10000 1.5 330 12:57 04.08.2019
4242 Clear 27 1017 47 10000 1 0 12:39 04.08.2019
4243 Clear 27 1017 47 10000 1 0 12:21 04.08.2019
4244 Clear 24 1017 57 10000 1.5 300 11:48 04.08.2019
4245 Clear 22 1017 64 10000 1.5 250 11:23 04.08.2019
4246 Clear 22 1017 64 300 1.5 0 10:48 04.08.2019
4247 Clear 22 1017 64 300 1.5 0 10:23 04.08.2019
4248 Clear 19 1016 77 10000 2.6 250 09:47 04.08.2019
4249 Clear 19 1016 77 10000 2.6 250 09:27 04.08.2019
4250 Clear 18 1016 82 10000 2.6 250 08:59 04.08.2019
4251 Clear 18 1016 82 9000 2.1 240 08:38 04.08.2019
4252 Clear 18 1016 82 9000 2.6 230 07:56 04.08.2019
4253 Clear 19 1016 77 10000 2.1 240 07:37 04.08.2019
4254 Clear 20 1016 68 10000 2.1 240 06:43 04.08.2019
4255 Clear 20 1016 68 10000 2.1 240 06:19 04.08.2019
4256 Clear 23 1016 56 10000 1.5 20 03:38 04.08.2019
4257 Clear 24 1016 50 10000 3.1 20 01:56 04.08.2019
4258 Clear 25 1016 47 10000 2.6 360 01:33 04.08.2019
4259 Clear 26 1016 44 10000 3.6 30 00:43 04.08.2019
4260 Clear 26 1016 44 10000 3.6 30 00:25 04.08.2019
4261 Clear 26 1016 44 10000 3.6 30 23:56 03.08.2019
4262 Clear 27 1016 42 10000 3.6 30 23:37 03.08.2019
4263 Clear 28 1016 39 10000 5.1 350 23:18 03.08.2019
4264 Clear 29 1015 35 10000 5.7 350 22:41 03.08.2019
4265 Clear 29 1015 35 10000 5.7 350 22:19 03.08.2019
4266 Clear 31 1014 33 10000 4.6 350 21:39 03.08.2019
4267 Clear 33 1014 29 10000 4.6 340 21:21 03.08.2019
4268 Clear 34 1014 28 10000 3.1 340 20:45 03.08.2019
4269 Clear 34 1014 28 10000 3.1 340 20:25 03.08.2019
4270 Clear 34 1014 28 10000 3.6 340 19:56 03.08.2019
4271 Clear 35 1014 26 10000 3.1 310 19:38 03.08.2019
4272 Clear 35 1014 26 10000 3.1 310 19:20 03.08.2019
4273 Clear 35 1014 28 10000 1.5 0 18:45 03.08.2019
4274 Clear 35 1014 28 10000 1.5 0 18:24 03.08.2019
4275 Clear 34 1015 28 10000 2.6 0 17:46 03.08.2019
4276 Clear 34 1015 28 10000 2.6 0 17:20 03.08.2019
4277 Clear 33 1016 29 10000 2.1 330 16:39 03.08.2019
4278 Clear 33 1016 29 10000 2.1 330 16:21 03.08.2019
4279 Clear 33 1016 31 10000 1 0 15:59 03.08.2019
4280 Clear 35 1014 21 0 4.91 341.436 15:39 03.08.2019
4281 Clear 29 1015 34 0 3.14 347.592 15:20 03.08.2019
4282 Clear 29 1015 34 0 3.14 347.592 14:37 03.08.2019
4283 Clear 29 1015 34 0 3.14 347.592 14:18 03.08.2019
4284 Clear 29 1015 34 0 3.14 347.592 13:43 03.08.2019
4285 Clear 29 1015 33 0 2.82 354.769 13:23 03.08.2019
4286 Clear 29 1015 33 0 2.82 354.769 12:56 03.08.2019
4287 Clear 29 1015 33 0 2.82 354.769 12:37 03.08.2019
4288 Clear 22 1016 57 0 1.39 322.23 12:19 03.08.2019
4289 Clear 23 1016 64 10000 2.1 250 11:39 03.08.2019
4290 Clear 23 1016 64 10000 2.1 250 11:20 03.08.2019
4291 Clear 22 1016 68 10000 3.1 270 10:38 03.08.2019
4292 Clear 21 1016 73 10000 3.1 260 10:19 03.08.2019
4293 Clear 20 1016 77 10000 3.1 250 09:38 03.08.2019
4294 Clear 19 1016 77 10000 2.6 240 09:18 03.08.2019
4295 Clear 19 1016 77 10000 3.1 240 08:43 03.08.2019
4296 Clear 19 1016 77 10000 3.6 230 07:40 03.08.2019
4297 Clear 20 1016 72 0 3.1 230 06:57 03.08.2019
4298 Clear 20 1015 72 10000 3.6 230 06:18 03.08.2019
4299 Clear 23 1016 56 10000 3.1 230 03:35 03.08.2019
4300 Clear 25 1016 50 10000 1.5 20 02:25 03.08.2019
4301 Clear 26 1016 50 10000 1.5 10 00:58 03.08.2019
4302 Clear 26 1017 50 10000 1.5 40 00:32 03.08.2019
4303 Clear 27 1016 47 10000 3.6 30 23:42 02.08.2019
4304 Clear 27 1016 47 10000 3.6 30 23:20 02.08.2019
4305 Clear 28 1015 45 10000 4.6 340 22:59 02.08.2019
4306 Clear 29 1015 42 10000 5.7 360 22:40 02.08.2019
4307 Clear 29 1015 42 10000 5.7 360 22:22 02.08.2019
4308 Clear 30 1014 40 10000 6.7 350 21:56 02.08.2019
4309 Clear 34 1014 32 10000 3.1 350 21:37 02.08.2019
4310 Clear 34 1014 32 10000 3.1 350 21:19 02.08.2019
4311 Clear 35 1014 30 10000 2.6 330 20:43 02.08.2019
4312 Clear 35 1014 30 10000 2.6 330 20:22 02.08.2019
4313 Clear 35 1014 30 10000 2.6 360 19:53 02.08.2019
4314 Clear 35 1014 30 10000 3.6 30 19:32 02.08.2019
4315 Clear 35 1014 32 10000 2.1 0 18:50 02.08.2019
4316 Clear 35 1014 32 10000 3.1 330 18:32 02.08.2019
4317 Clear 35 1014 32 10000 1 0 17:57 02.08.2019
4318 Clear 35 1014 32 10000 2.6 320 17:39 02.08.2019
4319 Clear 35 1014 32 10000 2.6 320 17:20 02.08.2019
4320 Clear 33 1015 38 10000 2.6 0 16:39 02.08.2019
4321 Clear 33 1015 38 10000 2.6 0 16:20 02.08.2019
4322 Clear 33 1015 38 10000 1.5 0 15:56 02.08.2019
4323 Clear 32 1016 40 10000 2.1 350 15:36 02.08.2019
4324 Clear 31 1016 43 10000 2.1 0 15:18 02.08.2019
4325 Clear 31 1016 43 10000 1.5 280 14:41 02.08.2019
4326 Clear 29 1016 48 10000 2.1 330 14:18 02.08.2019
4327 Clear 29 1016 51 10000 2.1 300 13:45 02.08.2019
4328 Clear 29 1016 51 10000 2.1 300 13:20 02.08.2019
4329 Clear 27 1016 54 10000 2.1 0 12:43 02.08.2019
4330 Clear 27 1016 54 10000 2.1 0 12:20 02.08.2019
4331 Clouds 26 1016 57 8000 1.5 0 11:41 02.08.2019
4332 Clouds 25 1016 61 8000 1 0 11:22 02.08.2019
4333 Clouds 23 1016 69 8000 0.5 0 10:48 02.08.2019
4334 Clouds 23 1016 69 8000 0.5 0 10:24 02.08.2019
4335 Clouds 22 1016 73 8000 1.5 250 09:57 02.08.2019
4336 Clouds 20 1016 77 8000 2.1 240 09:38 02.08.2019
4337 Clouds 20 1016 77 8000 2.1 240 09:38 02.08.2019
4338 Clouds 20 1016 77 8000 2.1 240 09:20 02.08.2019
4339 Clouds 19 1016 82 8000 2.6 220 08:40 02.08.2019
4340 Clouds 19 1016 82 8000 2.1 230 08:18 02.08.2019
4341 Clouds 19 1015 82 7000 2.1 230 07:42 02.08.2019
4342 Clouds 19 1015 82 7000 2.1 230 07:24 02.08.2019
4343 Clouds 20 1015 77 9000 2.1 240 06:33 02.08.2019
4344 Clear 21 1016 77 10000 2.6 230 05:44 02.08.2019
4345 Clear 24 1016 64 10000 1.5 30 03:35 02.08.2019
4346 Clear 24 1016 64 10000 2.6 40 02:42 02.08.2019
4347 Clear 25 1016 61 10000 3.6 10 01:38 02.08.2019
4348 Clear 26 1017 57 10000 3.1 30 00:32 02.08.2019
4349 Clear 27 1016 54 10000 4.6 350 23:44 01.08.2019
4350 Clear 27 1016 54 10000 4.6 350 23:26 01.08.2019
4351 Clear 28 1015 51 10000 4.6 350 22:45 01.08.2019
4352 Clear 28 1015 51 10000 4.6 350 22:25 01.08.2019
4353 Clear 29 1015 48 9000 5.1 340 21:57 01.08.2019
4354 Clear 30 1014 42 7000 5.1 350 21:39 01.08.2019
4355 Clear 33 1014 36 10000 4.1 310 21:21 01.08.2019
4356 Clear 35 1013 28 10000 2.6 300 20:46 01.08.2019
4357 Clear 35 1013 28 10000 2.6 300 20:23 01.08.2019
4358 Clear 35 1013 26 10000 3.1 290 19:54 01.08.2019
4359 Clear 34 1013 28 10000 2.1 0 19:36 01.08.2019
4360 Clear 34 1013 26 10000 2.6 0 19:18 01.08.2019
4361 Clear 34 1013 26 10000 3.1 290 18:42 01.08.2019
4362 Clear 34 1013 26 10000 3.1 290 18:23 01.08.2019
4363 Clear 35 1013 24 10000 2.1 0 17:47 01.08.2019
4364 Clear 35 1013 24 10000 2.1 0 17:27 01.08.2019
4365 Clear 34 1014 26 10000 3.1 300 16:45 01.08.2019
4366 Clear 34 1014 26 10000 3.1 300 16:22 01.08.2019
4367 Clear 31 1014 29 10000 2.6 330 15:46 01.08.2019
4368 Clear 31 1014 29 10000 2.6 330 15:21 01.08.2019
4369 Clear 30 1014 30 10000 2.6 340 14:59 01.08.2019
4370 Clear 30 1014 30 10000 1.5 340 14:41 01.08.2019
4371 Clear 30 1014 30 10000 2.6 0 14:18 01.08.2019
4372 Clear 30 1014 30 10000 2.6 0 14:18 01.08.2019
4373 Clear 28 1014 42 8000 3.1 310 13:41 01.08.2019
4374 Clear 28 1014 42 8000 3.1 310 13:22 01.08.2019
4375 Clear 27 1014 44 8000 2.6 260 12:59 01.08.2019
4376 Clear 26 1014 50 8000 2.6 310 12:41 01.08.2019
4377 Clear 25 1014 53 8000 2.1 280 12:22 01.08.2019
4378 Clear 23 1014 64 8000 2.1 270 11:42 01.08.2019
4379 Clear 23 1014 64 8000 2.1 270 11:23 01.08.2019
4380 Clear 23 1014 64 8000 2.1 270 11:23 01.08.2019
4381 Clear 20 1014 77 8000 2.6 260 10:46 01.08.2019
4382 Clear 20 1014 77 8000 2.6 260 10:28 01.08.2019
4383 Clear 19 1014 82 8000 3.1 250 09:59 01.08.2019
4384 Clear 18 1014 88 6000 3.1 240 09:40 01.08.2019
4385 Clear 18 1014 88 6000 3.1 240 09:22 01.08.2019
4386 Clear 18 1013 82 10000 3.6 230 08:43 01.08.2019
4387 Clear 18 1013 82 10000 3.6 230 08:20 01.08.2019
4388 Clear 18 1013 82 10000 2.6 240 07:47 01.08.2019
4389 Clear 18 1013 82 10000 2.6 240 07:24 01.08.2019
4390 Clear 19 1013 72 10000 3.1 240 06:48 01.08.2019
4391 Clear 19 1013 72 8000 3.6 230 05:50 01.08.2019
4392 Clear 21 1013 52 10000 3.1 230 04:23 01.08.2019
4393 Clear 25 1013 38 9000 1.5 40 02:33 01.08.2019
4394 Clear 27 1013 32 10000 3.6 20 00:43 01.08.2019
4395 Clear 27 1013 32 10000 3.6 20 00:24 01.08.2019
4396 Clear 28 1013 32 10000 5.1 30 23:42 31.07.2019
4397 Clouds 29 1012 30 10000 3.6 350 23:21 31.07.2019
4398 Clouds 29 1012 30 10000 6.2 350 22:48 31.07.2019
4399 Clouds 29 1012 30 10000 6.2 350 22:30 31.07.2019
4400 Clouds 30 1011 30 10000 6.7 340 21:57 31.07.2019
4401 Clouds 32 1010 29 10000 5.7 350 21:37 31.07.2019
4402 Clouds 35 1010 24 10000 4.1 320 21:18 31.07.2019
4403 Clouds 35 1010 24 10000 4.1 320 21:18 31.07.2019
4404 Clouds 36 1010 25 10000 3.1 340 20:41 31.07.2019
4405 Clouds 36 1010 25 10000 3.1 340 20:21 31.07.2019
4406 Clouds 36 1010 23 10000 2.6 340 19:41 31.07.2019
4407 Clouds 36 1010 23 10000 2.6 340 19:23 31.07.2019
4408 Clouds 36 1010 23 10000 2.6 360 18:53 31.07.2019
4409 Clouds 36 1010 23 10000 1.5 360 18:26 31.07.2019
4410 Clouds 35 1010 26 10000 2.1 0 17:59 31.07.2019
4411 Clouds 35 1011 26 10000 1.5 0 17:40 31.07.2019
4412 Clouds 35 1011 26 10000 1.5 0 17:19 31.07.2019
4413 Clouds 34 1011 28 10000 2.1 250 16:43 31.07.2019
4414 Clouds 34 1011 28 10000 2.1 250 16:20 31.07.2019
4415 Clouds 32 1012 31 10000 1.5 330 15:45 31.07.2019
4416 Clouds 32 1012 31 10000 1.5 330 15:25 31.07.2019
4417 Clear 31 1012 31 8000 2.1 310 14:43 31.07.2019
4418 Clear 31 1012 31 8000 2.1 310 14:22 31.07.2019
4419 Clear 29 1012 35 8000 2.1 290 13:58 31.07.2019
4420 Clear 29 1012 35 9000 1.5 270 13:38 31.07.2019
4421 Clear 28 1013 37 10000 1.5 0 13:20 31.07.2019
4422 Clear 27 1013 39 4900 1.5 330 12:45 31.07.2019
4423 Clear 27 1013 39 4900 1.5 330 12:27 31.07.2019
4424 Clear 26 1012 41 5000 1.5 0 11:59 31.07.2019
4425 Clear 25 1012 44 5000 1.5 0 11:38 31.07.2019
4426 Clear 25 1012 44 5000 1.5 0 11:19 31.07.2019
4427 Clear 22 1012 56 5000 1 0 10:41 31.07.2019
4428 Clear 22 1012 56 5000 1 0 10:20 31.07.2019
4429 Clear 20 1012 64 8000 2.6 240 09:44 31.07.2019
4430 Clear 20 1012 64 8000 2.6 240 09:24 31.07.2019
4431 Clear 18 1012 68 8000 3.6 230 08:57 31.07.2019
4432 Clear 18 1012 63 8000 3.1 230 08:39 31.07.2019
4433 Clear 18 1012 63 8000 3.1 230 08:20 31.07.2019
4434 Clear 19 1012 55 0 2.6 240 07:35 31.07.2019
4435 Clear 20 1012 52 0 2.1 220 06:34 31.07.2019
4436 Clear 22 1012 40 0 1.5 360 04:52 31.07.2019
4437 Clear 24 1014 44 10000 3.1 20 01:48 31.07.2019
4438 Clear 25 1013 47 10000 5.1 20 23:58 30.07.2019
4439 Clear 26 1013 44 10000 5.1 20 23:40 30.07.2019
4440 Clear 27 1013 39 10000 5.7 20 23:19 30.07.2019
4441 Clear 28 1012 34 10000 6.7 10 22:46 30.07.2019
4442 Clear 28 1012 34 10000 6.7 10 22:25 30.07.2019
4443 Clear 30 1012 33 10000 6.7 360 21:54 30.07.2019
4444 Clear 31 1011 31 10000 6.2 350 21:36 30.07.2019
4445 Clear 33 1011 27 10000 5.1 340 21:18 30.07.2019
4446 Clear 35 1011 24 10000 3.6 350 20:41 30.07.2019
4447 Clear 35 1011 24 10000 3.6 350 20:23 30.07.2019
4448 Clear 35 1011 24 10000 1.5 40 19:58 30.07.2019
4449 Clear 35 1011 26 10000 2.1 0 19:38 30.07.2019
4450 Clear 35 1011 24 10000 3.6 320 18:56 30.07.2019
4451 Clear 35 1011 24 10000 3.1 0 18:38 30.07.2019
4452 Clear 34 1012 26 10000 3.1 30 18:18 30.07.2019
4453 Clear 34 1012 26 10000 3.1 340 17:41 30.07.2019
4454 Clear 34 1012 26 10000 3.1 340 17:19 30.07.2019
4455 Clear 34 1012 26 10000 2.6 330 16:51 30.07.2019
4456 Clear 34 1012 26 10000 2.6 320 16:21 30.07.2019
4457 Clear 33 1013 29 10000 2.6 350 15:56 30.07.2019
4458 Clear 32 1013 31 10000 2.6 10 15:37 30.07.2019
4459 Clear 30 1014 37 10000 2.6 320 15:18 30.07.2019
4460 Clear 30 1014 37 10000 2.6 320 14:41 30.07.2019
4461 Clear 30 1014 37 10000 2.6 320 14:19 30.07.2019
4462 Clear 28 1014 42 10000 2.1 0 13:46 30.07.2019
4463 Clear 28 1014 42 10000 2.1 0 13:28 30.07.2019
4464 Clear 27 1014 44 10000 1.5 0 12:58 30.07.2019
4465 Clear 26 1014 47 10000 1.5 0 12:39 30.07.2019
4466 Clear 25 1014 50 10000 1.5 360 12:21 30.07.2019
4467 Clear 25 1015 53 10000 1.5 60 11:40 30.07.2019
4468 Clear 25 1015 53 10000 1.5 60 11:20 30.07.2019
4469 Clear 22 1015 64 10000 2.6 50 10:46 30.07.2019
4470 Clear 22 1015 64 10000 2.6 50 10:27 30.07.2019
4471 Clear 21 1014 68 10000 2.1 40 09:50 30.07.2019
4472 Clear 21 1014 68 10000 2.1 40 09:31 30.07.2019
4473 Clear 20 1014 72 10000 2.6 10 08:53 30.07.2019
4474 Clear 20 1014 72 10000 2.6 10 08:31 30.07.2019
4475 Clear 20 1014 68 10000 1.5 30 07:47 30.07.2019
4476 Clear 20 1014 68 10000 1.5 30 07:29 30.07.2019
4477 Clear 20 1014 68 10000 3.1 20 06:48 30.07.2019
4478 Clear 20 1014 68 10000 3.1 20 06:21 30.07.2019
4479 Clear 21 1014 60 10000 2.6 10 05:33 30.07.2019
4480 Clear 23 1015 53 10000 4.1 30 02:31 30.07.2019
4481 Clear 24 1015 57 10000 4.6 20 01:19 30.07.2019
4482 Clear 24 1015 57 10000 5.1 30 00:21 30.07.2019
4483 Clear 26 1014 47 9000 5.1 30 23:45 29.07.2019
4484 Clear 26 1014 47 9000 5.1 30 23:26 29.07.2019
4485 Clear 28 1013 39 8000 6.7 10 22:57 29.07.2019
4486 Clear 28 1013 39 8000 6.7 10 22:38 29.07.2019
4487 Clear 28 1013 39 8000 6.7 10 22:20 29.07.2019
4488 Clear 29 1013 35 9000 6.2 360 21:57 29.07.2019
4489 Clear 31 1012 31 10000 5.7 360 21:38 29.07.2019
4490 Clear 31 1012 31 10000 5.7 360 21:20 29.07.2019
4491 Clear 34 1012 28 10000 3.6 20 20:48 29.07.2019
4492 Clear 34 1012 28 10000 3.6 20 20:25 29.07.2019
4493 Clear 34 1012 28 10000 3.6 340 19:57 29.07.2019
4494 Clear 34 1012 28 10000 3.6 70 19:37 29.07.2019
4495 Clear 34 1012 28 10000 4.1 50 19:19 29.07.2019
4496 Clear 34 1012 30 10000 2.6 30 18:42 29.07.2019
4497 Clear 34 1012 30 10000 2.6 30 18:22 29.07.2019
4498 Clear 32 1013 33 10000 3.6 350 17:52 29.07.2019
4499 Clear 32 1013 33 10000 3.6 350 17:34 29.07.2019
4500 Clear 32 1013 33 10000 3.1 360 16:59 29.07.2019
4501 Clear 32 1013 31 10000 2.6 0 16:40 29.07.2019
4502 Clear 32 1013 31 10000 2.6 0 16:22 29.07.2019
4503 Clear 31 1013 35 10000 2.1 40 15:51 29.07.2019
4504 Clear 30 1013 37 10000 3.6 300 15:32 29.07.2019
4505 Clear 29 1014 39 10000 3.1 340 14:56 29.07.2019
4506 Clear 30 1014 40 10000 1.5 0 14:37 29.07.2019
4507 Clear 28 1014 45 10000 2.6 0 14:18 29.07.2019
4508 Clear 27 1015 47 10000 2.1 0 13:41 29.07.2019
4509 Clear 27 1015 47 10000 2.1 0 13:23 29.07.2019
4510 Clear 25 1014 53 10000 2.1 360 12:42 29.07.2019
4511 Clear 25 1014 53 10000 2.1 360 12:22 29.07.2019
4512 Clear 24 1015 57 10000 1.5 0 11:43 29.07.2019
4513 -273 0 0 0 0 0 11:43 29.07.2019
4514 Clear 24 1015 57 10000 1.5 0 11:21 29.07.2019
4515 Clear 22 1014 64 10000 1.5 10 10:45 29.07.2019
4516 Clear 22 1014 64 10000 1.5 10 10:24 29.07.2019
4517 Clear 20 1014 68 10000 2.6 30 09:45 29.07.2019
4518 Clear 20 1014 68 10000 2.6 30 09:25 29.07.2019
4519 Clear 20 1014 68 10000 2.1 10 08:57 29.07.2019
4520 Clear 19 1014 72 10000 1.5 30 08:28 29.07.2019
4521 Clear 19 1013 72 10000 2.1 30 07:56 29.07.2019
4522 Clear 20 1013 68 10000 1.5 60 07:32 29.07.2019
4523 Clear 20 1013 68 10000 2.1 60 06:44 29.07.2019
4524 Clear 20 1013 68 10000 2.1 30 05:39 29.07.2019
4525 Clear 21 1013 64 10000 3.6 20 04:35 29.07.2019
4526 Clear 23 1013 56 10000 3.6 10 01:55 29.07.2019
4527 Clear 23 1013 60 10000 3.6 10 01:37 29.07.2019
4528 Clear 24 1013 53 10000 3.1 10 01:18 29.07.2019
4529 Clear 25 1013 50 10000 3.6 20 00:38 29.07.2019
4530 Clear 25 1013 50 10000 4.1 30 00:18 29.07.2019
4531 Clear 26 1013 50 10000 4.6 30 23:38 28.07.2019
4532 Clear 27 1012 47 10000 5.7 20 22:58 28.07.2019
4533 Clear 28 1012 45 10000 5.1 350 22:37 28.07.2019
4534 Clear 29 1011 42 10000 5.1 360 22:18 28.07.2019
4535 Clear 31 1011 38 10000 5.1 10 21:42 28.07.2019
4536 Clear 32 1010 35 10000 5.1 360 21:18 28.07.2019
4537 Clear 34 1010 32 10000 4.1 350 20:43 28.07.2019
4538 Clear 34 1010 32 10000 4.1 350 20:25 28.07.2019
4539 Clear 34 1010 28 10000 1.5 0 19:42 28.07.2019
4540 Clear 34 1010 28 10000 1.5 0 19:42 28.07.2019
4541 Clear 34 1010 28 10000 1.5 0 19:22 28.07.2019
4542 Clear 35 1010 26 10000 2.1 0 18:50 28.07.2019
4543 Clear 35 1010 26 10000 2.1 0 18:29 28.07.2019
4544 Clear 34 1010 28 10000 2.1 30 17:58 28.07.2019
4545 Clear 34 1011 28 10000 2.1 0 17:40 28.07.2019
4546 Clear 34 1011 28 10000 2.1 0 17:20 28.07.2019
4547 Clear 32 1011 29 10000 1.5 20 16:46 28.07.2019
4548 Clear 32 1011 29 10000 1.5 20 16:27 28.07.2019
4549 Clear 32 1012 29 10000 2.6 0 15:56 28.07.2019
4550 Clear 31 1012 31 10000 3.1 340 15:38 28.07.2019
4551 Clear 31 1012 31 10000 2.6 310 15:20 28.07.2019
4552 Clear 29 1013 32 10000 2.6 340 14:37 28.07.2019
4553 Clear 29 1013 30 10000 2.1 0 14:18 28.07.2019
4554 Clear 28 1013 34 10000 1.5 350 13:41 28.07.2019
4555 Clear 28 1013 34 10000 1.5 350 13:21 28.07.2019
4556 Clear 27 1013 36 10000 3.1 310 12:58 28.07.2019
4557 Clear 26 1013 41 10000 2.6 300 12:39 28.07.2019
4558 Clear 26 1013 41 10000 2.6 300 12:19 28.07.2019
4559 Clear 24 1013 50 10000 1.5 110 11:44 28.07.2019
4560 Clear 24 1013 50 10000 1.5 110 11:26 28.07.2019
4561 Clear 22 1013 56 10000 1 0 10:39 28.07.2019
4562 Clear 22 1013 56 10000 1 0 10:39 28.07.2019
4563 Clear 22 1013 56 10000 1 0 10:20 28.07.2019
4564 Clear 20 1013 64 10000 2.1 240 09:41 28.07.2019
4565 Clear 20 1013 64 10000 2.1 240 09:23 28.07.2019
4566 Clear 17 1013 67 10000 1.5 250 08:46 28.07.2019
4567 Clear 17 1013 67 10000 1.5 250 08:28 28.07.2019
4568 Clear 19 1013 63 10000 2.1 220 07:51 28.07.2019
4569 Clear 19 1013 59 10000 2.1 240 07:32 28.07.2019
4570 Clear 19 1013 59 10000 2.1 240 06:38 28.07.2019
4571 Clear 21 1013 52 10000 1 0 05:23 28.07.2019
4572 Clear 23 1014 43 10000 1.5 20 03:21 28.07.2019
4573 Clear 24 1015 38 10000 2.1 20 02:18 28.07.2019
4574 Clear 25 1015 36 10000 2.1 30 01:18 28.07.2019
4575 Clear 25 1015 36 10000 3.1 50 00:43 28.07.2019
4576 Clear 26 1015 34 10000 4.1 30 23:56 27.07.2019
4577 Clear 27 1015 32 10000 4.6 20 23:31 27.07.2019
4578 Clear 28 1014 30 10000 4.6 350 22:56 27.07.2019
4579 Clear 28 1014 30 10000 4.6 350 22:56 27.07.2019
4580 Clear 28 1014 30 10000 4.6 350 22:56 27.07.2019
4581 Clear 29 1014 28 10000 6.2 350 22:37 27.07.2019
4582 Clear 30 1013 27 10000 6.7 350 22:18 27.07.2019
4583 Clear 33 1013 19 10000 4.6 350 21:38 27.07.2019
4584 Clear 33 1013 19 10000 4.6 350 21:19 27.07.2019
4585 Clear 33 1013 19 10000 4.6 350 20:49 27.07.2019
4586 Clear 34 1013 18 10000 5.1 330 20:23 27.07.2019
4587 Clear 35 1013 16 10000 3.6 350 19:43 27.07.2019
4588 Clear 35 1013 16 10000 3.6 350 19:43 27.07.2019
4589 Clear 35 1013 16 10000 3.6 350 19:25 27.07.2019
4590 Clear 35 1013 16 10000 3.6 350 19:25 27.07.2019
4591 Clear 35 1013 17 10000 2.1 30 18:50 27.07.2019
4592 Clear 35 1013 17 10000 3.1 350 18:32 27.07.2019
4593 Clear 35 1013 17 10000 4.1 310 17:52 27.07.2019
4594 Clear 35 1013 20 10000 2.6 340 17:33 27.07.2019
4595 Clear 34 1014 23 10000 4.1 340 16:58 27.07.2019
4596 Clear 34 1014 24 10000 3.1 40 16:39 27.07.2019
4597 Clear 34 1014 24 10000 3.1 40 16:19 27.07.2019
4598 Clear 33 1015 27 10000 3.1 300 15:44 27.07.2019
4599 Clear 33 1015 27 10000 3.1 300 15:19 27.07.2019
4600 Clear 31 1016 33 10000 2.1 310 14:48 27.07.2019
4601 Clear 31 1016 33 10000 2.1 310 14:29 27.07.2019
4602 Clear 30 1016 33 10000 1 0 13:52 27.07.2019
4603 Clear 28 1017 42 10000 2.1 320 13:25 27.07.2019
4604 Clear 28 1017 42 10000 2.1 320 12:56 27.07.2019
4605 Clear 27 1017 47 10000 1 0 12:37 27.07.2019
4606 Clear 27 1017 47 10000 1 0 12:19 27.07.2019
4607 Clear 25 1017 53 10000 1 0 11:40 27.07.2019
4608 Clear 25 1017 53 10000 1 0 11:21 27.07.2019
4609 Clear 23 1017 60 10000 1 0 10:41 27.07.2019
4610 Clear 23 1017 60 10000 1 0 10:22 27.07.2019
4611 Clear 20 1017 68 10000 2.1 230 09:41 27.07.2019
4612 Clear 20 1017 68 10000 2.1 230 09:23 27.07.2019
4613 Clear 19 1016 72 10000 2.1 230 08:49 27.07.2019
4614 Clear 19 1016 72 10000 2.1 230 08:49 27.07.2019
4615 Clear 19 1016 72 10000 2.1 230 08:31 27.07.2019
4616 Clear 19 1016 72 10000 1.5 240 07:56 27.07.2019
4617 Clear 19 1016 68 10000 2.6 230 07:33 27.07.2019
4618 Clear 20 1016 68 10000 2.6 230 06:57 27.07.2019
4619 Clear 20 1016 68 10000 2.6 240 06:32 27.07.2019
4620 Clear 20 1016 68 10000 2.1 250 05:54 27.07.2019
4621 Clear 23 1016 56 10000 1.5 90 05:32 27.07.2019
4622 Clear 23 1016 56 10000 2.1 70 04:35 27.07.2019
4623 Clear 23 1017 56 10000 3.6 20 03:29 27.07.2019
4624 Clear 25 1018 50 10000 2.6 40 02:41 27.07.2019
4625 Clear 26 1018 47 10000 2.6 30 01:49 27.07.2019
4626 Clear 26 1018 47 10000 2.6 30 01:21 27.07.2019
4627 Clear 26 1018 47 10000 3.6 40 00:33 27.07.2019
4628 Clear 27 1018 44 10000 3.1 40 23:58 26.07.2019
4629 Clear 28 1017 42 10000 4.6 30 23:38 26.07.2019
4630 Clear 28 1017 42 10000 4.6 30 23:20 26.07.2019
4631 Clear 30 1017 33 10000 5.1 10 22:42 26.07.2019
4632 Clear 30 1017 33 10000 5.1 10 22:23 26.07.2019
4633 Clouds 33 1016 27 10000 5.1 350 21:49 26.07.2019
4634 Clouds 33 1016 27 10000 5.1 350 21:20 26.07.2019
4635 Clouds 36 1016 23 10000 3.1 310 20:45 26.07.2019
4636 Clouds 36 1016 23 10000 3.1 310 20:27 26.07.2019
4637 Clouds 36 1016 23 10000 2.1 280 19:44 26.07.2019
4638 Clouds 36 1016 25 10000 3.1 320 19:26 26.07.2019
4639 Clouds 36 1016 25 10000 3.1 320 18:58 26.07.2019
4640 Clouds 36 1016 25 8000 3.6 340 18:38 26.07.2019
4641 Clouds 36 1016 25 8000 3.6 340 18:20 26.07.2019
4642 Clouds 35 1017 28 10000 3.1 260 17:47 26.07.2019
4643 Clouds 35 1017 28 10000 3.1 260 17:20 26.07.2019
4644 Clouds 36 1017 25 10000 3.6 290 16:58 26.07.2019
4645 Clouds 35 1017 26 10000 3.1 300 16:40 26.07.2019
4646 Clouds 35 1017 26 10000 3.1 300 16:20 26.07.2019
4647 Clear 34 1017 30 10000 3.6 310 15:57 26.07.2019
4648 Clear 34 1017 30 10000 3.6 310 15:38 26.07.2019
4649 Clear 34 1017 30 10000 3.6 310 15:19 26.07.2019
4650 Clear 34 1017 32 10000 2.6 320 14:43 26.07.2019
4651 Clear 34 1017 32 10000 2.6 320 14:23 26.07.2019
4652 Clear 32 1017 38 10000 3.6 280 13:47 26.07.2019
4653 Clear 32 1017 38 10000 3.6 280 13:27 26.07.2019
4654 Clear 32 1017 38 10000 2.6 290 12:49 26.07.2019
4655 Clear 31 1017 40 10000 2.6 280 12:23 26.07.2019
4656 Clear 30 1017 42 10000 2.1 270 11:56 26.07.2019
4657 Clear 29 1017 45 10000 1.5 270 11:36 26.07.2019
4658 Clear 28 1017 48 10000 1.5 300 11:18 26.07.2019
4659 Clear 26 1016 54 10000 1.5 240 10:39 26.07.2019
4660 Clear 26 1016 54 10000 1.5 240 10:19 26.07.2019
4661 Clear 26 1016 54 10000 1.5 260 09:50 26.07.2019
4662 Clear 24 1016 60 10000 1 280 09:27 26.07.2019
4663 Clear 23 1016 64 10000 2.1 240 08:41 26.07.2019
4664 Clear 23 1016 64 10000 2.1 240 08:21 26.07.2019
4665 Clear 23 1016 64 10000 2.6 230 07:40 26.07.2019
4666 Clear 24 1016 60 10000 3.1 220 07:21 26.07.2019
4667 Clear 24 1016 60 10000 3.6 230 06:30 26.07.2019
4668 Clear 27 1016 47 10000 1.26 7.634 04:30 26.07.2019
4669 Clear 27 1015 47 10000 2.6 70 03:53 26.07.2019
4670 Clear 29 1017 39 10000 2.6 100 01:49 26.07.2019
4671 Clouds 29 1018 42 10000 1 0 01:19 26.07.2019
4672 Clouds 30 1017 40 10000 4.1 40 00:29 26.07.2019
4673 Clouds 32 1017 33 10000 5.1 10 23:46 25.07.2019
4674 Clouds 33 1016 29 10000 3.1 360 23:20 25.07.2019
4675 Clouds 35 1016 26 10000 6.2 360 22:42 25.07.2019
4676 Clouds 35 1016 26 10000 6.2 360 22:22 25.07.2019
4677 Clouds 36 1015 26 10000 2.6 330 21:56 25.07.2019
4678 Clouds 37 1015 23 10000 1.5 220 21:37 25.07.2019
4679 Clouds 37 1015 23 10000 1.5 220 21:19 25.07.2019
4680 Clouds 38 1015 22 10000 1.5 200 20:40 25.07.2019
4681 Clouds 38 1015 22 10000 1.5 200 20:20 25.07.2019
4682 Clouds 39 1015 22 10000 2.6 300 19:40 25.07.2019
4683 Clouds 39 1015 22 10000 2.6 300 19:22 25.07.2019
4684 Clouds 39 1015 24 10000 2.1 260 18:43 25.07.2019
4685 Clouds 39 1015 24 10000 2.1 260 18:25 25.07.2019
4686 Clouds 39 1015 24 10000 1.5 0 17:50 25.07.2019
4687 Clouds 37 1015 29 10000 2.1 180 17:32 25.07.2019
4688 Clouds 37 1016 30 10000 1.5 0 16:57 25.07.2019
4689 Clouds 36 1016 30 10000 3.1 220 16:38 25.07.2019
4690 Clouds 36 1016 30 10000 3.1 220 16:20 25.07.2019
4691 Clouds 36 1016 34 10000 4.1 260 15:48 25.07.2019
4692 Clouds 36 1016 34 10000 4.1 260 15:20 25.07.2019
4693 Clouds 34 1016 36 10000 2.6 300 14:43 25.07.2019
4694 Clouds 34 1016 36 10000 2.6 300 14:23 25.07.2019
4695 Clouds 34 1016 36 10000 2.6 300 13:56 25.07.2019
4696 Clouds 32 1016 43 10000 3.1 320 13:36 25.07.2019
4697 Clouds 31 1015 45 10000 2.6 320 13:18 25.07.2019
4698 Clouds 30 1016 45 10000 2.1 300 12:30 25.07.2019
4699 Clouds 28 1015 54 10000 2.6 280 11:54 25.07.2019
4700 Clouds 27 1015 57 10000 2.1 280 11:36 25.07.2019
4701 Clouds 26 1016 61 10000 1.5 270 11:18 25.07.2019
4702 Clouds 25 1015 61 10000 2.6 270 10:42 25.07.2019
4703 Clouds 25 1015 61 10000 2.6 270 10:23 25.07.2019
4704 Clouds 24 1015 64 10000 2.09 323.268 09:44 25.07.2019
4705 Clouds 24 1015 64 10000 2.09 323.268 09:44 25.07.2019
4706 Clouds 24 1015 64 10000 1.51 299.956 09:25 25.07.2019
4707 Clouds 23 1015 69 10000 1.46 289.791 08:44 25.07.2019
4708 Clouds 23 1015 69 10000 1.46 289.791 08:20 25.07.2019
4709 Clear 23 1014 69 10000 3.1 250 07:36 25.07.2019
4710 Clear 24 1014 60 10000 2.1 280 06:44 25.07.2019
4711 Clear 25 1014 57 10000 3.1 260 05:48 25.07.2019
4712 Clear 25 1014 57 10000 3.1 260 05:30 25.07.2019
4713 Clear 26 1014 54 10000 3.6 240 04:39 25.07.2019
4714 Clear 30 1014 40 10000 2.89 296.202 02:21 25.07.2019
4715 Clear 30 1015 40 10000 3.59 269.233 01:21 25.07.2019
4716 Clouds 33 1014 33 10000 1.5 10 00:22 25.07.2019
4717 Clouds 33 1014 33 10000 1.5 10 23:52 24.07.2019
4718 Clouds 34 1014 26 10000 1.87 211.911 23:31 24.07.2019
4719 Clouds 34 1014 23 10000 1 0 22:58 24.07.2019
4720 Clouds 35 1014 24 6000 2.1 220 22:39 24.07.2019
4721 Clouds 35 1014 24 6000 2.1 200 22:20 24.07.2019
4722 Dust 36 1014 25 3000 4.1 180 21:43 24.07.2019
4723 Clouds 37 1014 27 10000 4.1 230 21:22 24.07.2019
4724 Clouds 37 1014 27 10000 4.1 230 20:58 24.07.2019
4725 Clouds 38 1013 24 10000 3.6 280 20:38 24.07.2019
4726 Clouds 39 1013 22 10000 2.6 330 20:20 24.07.2019
4727 Clouds 39 1013 22 10000 2.6 330 19:54 24.07.2019
4728 Clouds 40 1013 21 10000 3.1 280 19:36 24.07.2019
4729 Clouds 40 1013 21 10000 3.6 0 19:18 24.07.2019
4730 Clouds 39 1013 24 10000 3.1 320 18:40 24.07.2019
4731 Clouds 39 1013 24 10000 3.1 320 18:22 24.07.2019
4732 Clouds 40 1013 21 10000 3.1 300 17:42 24.07.2019
4733 Clouds 40 1013 21 10000 3.1 300 17:20 24.07.2019
4734 Clouds 38 1013 24 10000 4.1 280 16:42 24.07.2019
4735 Clouds 38 1013 24 10000 4.1 280 16:22 24.07.2019
4736 Clouds 37 1013 29 10000 4.6 290 15:41 24.07.2019
4737 Clouds 37 1013 29 10000 4.6 290 15:23 24.07.2019
4738 Clouds 36 1013 30 10000 3.1 300 14:57 24.07.2019
4739 Clouds 35 1014 34 10000 2.6 310 14:38 24.07.2019
4740 Clouds 35 1014 34 10000 2.6 310 14:38 24.07.2019
4741 Clouds 35 1014 34 10000 2.6 310 14:38 24.07.2019
4742 Clouds 34 1014 36 10000 2.1 10 14:19 24.07.2019
4743 Clouds 33 1014 36 10000 1.5 0 13:37 24.07.2019
4744 Clouds 32 1014 38 10000 2.6 350 13:18 24.07.2019
4745 Clouds 32 1014 38 10000 2.6 350 12:50 24.07.2019
4746 Clouds 31 1014 45 10000 1.5 330 12:30 24.07.2019
4747 Clouds 27 1014 61 10000 1.5 240 11:40 24.07.2019
4748 Clouds 27 1014 61 10000 1.5 240 11:20 24.07.2019
4749 Clouds 25 1014 69 10000 1 0 10:45 24.07.2019
4750 Clouds 25 1014 69 10000 1 0 10:25 24.07.2019
4751 Clouds 23 1014 73 8000 1.5 270 09:49 24.07.2019
4752 Clouds 22 1014 78 10000 1.5 260 09:25 24.07.2019
4753 Clear 21 1014 83 8000 1.5 240 08:58 24.07.2019
4754 Clear 21 1014 83 8000 1.5 240 08:58 24.07.2019
4755 Clear 21 1014 83 10000 1.5 240 08:32 24.07.2019
4756 Clear 21 1014 83 10000 1 0 07:52 24.07.2019
4757 Clear 21 1014 83 10000 1 0 07:30 24.07.2019
4758 Clear 21 1014 83 10000 2.1 240 06:36 24.07.2019
4759 Clear 22 1014 78 0 2.6 230 05:56 24.07.2019
4760 Clear 25 1015 65 10000 2.6 240 02:54 24.07.2019
4761 Clear 28 1016 54 10000 1.36 316.131 01:31 24.07.2019
4762 Clear 28 1016 54 10000 1.5 70 00:57 24.07.2019
4763 Clear 28 1016 54 10000 3.1 30 00:23 24.07.2019
4764 Clear 30 1015 45 10000 4.6 20 23:45 23.07.2019
4765 Clear 30 1015 45 10000 4.6 20 23:25 23.07.2019
4766 Clouds 31 1015 40 10000 5.1 30 22:55 23.07.2019
4767 Clouds 32 1015 38 10000 5.1 360 22:36 23.07.2019
4768 Clouds 33 1014 36 10000 5.1 350 22:18 23.07.2019
4769 Clouds 34 1014 34 10000 4.6 330 21:42 23.07.2019
4770 Clouds 34 1014 34 10000 4.6 330 21:23 23.07.2019
4771 Clouds 37 1014 27 10000 2.1 330 20:48 23.07.2019
4772 Clouds 37 1014 27 10000 2.1 330 20:27 23.07.2019
4773 Clouds 38 1014 25 10000 1.5 350 19:43 23.07.2019
4774 Clouds 38 1014 25 10000 1.5 350 19:24 23.07.2019
4775 Clouds 38 1014 25 10000 1.5 330 18:53 23.07.2019
4776 Clouds 38 1014 25 10000 2.6 0 18:25 23.07.2019
4777 Clouds 37 1014 25 10000 2.6 360 17:58 23.07.2019
4778 Clouds 37 1014 25 10000 2.6 360 17:40 23.07.2019
4779 Clouds 37 1014 29 10000 3.1 290 17:20 23.07.2019
4780 Clouds 36 1015 28 10000 2.1 0 16:41 23.07.2019
4781 Clouds 36 1015 28 10000 2.1 0 16:22 23.07.2019
4782 Clouds 34 1015 34 10000 2.6 0 15:47 23.07.2019
4783 Clouds 34 1015 34 10000 2.6 0 15:27 23.07.2019
4784 Clear 33 1016 41 10000 2.1 0 14:41 23.07.2019
4785 Clear 33 1016 41 10000 2.1 0 14:22 23.07.2019
4786 Clear 32 1016 43 10000 2.6 340 13:59 23.07.2019
4787 Clear 31 1016 45 10000 2.1 0 13:40 23.07.2019
4788 Clear 31 1016 45 10000 2.1 0 13:22 23.07.2019
4789 Clear 29 1016 48 10000 2.1 320 12:48 23.07.2019
4790 Clear 29 1016 48 10000 2.1 320 12:26 23.07.2019
4791 Clear 28 1016 51 10000 1.5 320 11:51 23.07.2019
4792 Clear 27 1016 54 10000 1 0 11:32 23.07.2019
4793 Clear 25 1016 65 10000 1 0 10:59 23.07.2019
4794 Clear 23 1016 69 10000 1.5 230 10:41 23.07.2019
4795 Clear 21 1016 77 10000 2.6 240 10:21 23.07.2019
4796 Clear 21 1016 77 10000 2.6 240 09:41 23.07.2019
4797 Clear 20 1016 82 10000 2.1 230 09:19 23.07.2019
4798 Clear 20 1016 77 10000 1.5 260 08:43 23.07.2019
4799 Clear 20 1016 77 10000 1.5 260 08:19 23.07.2019
4800 Clear 20 1016 77 10000 1.5 260 07:55 23.07.2019
4801 Clear 21 1016 73 10000 1.5 260 07:36 23.07.2019
4802 Clear 22 1016 73 10000 2.6 220 06:48 23.07.2019
4803 Clear 22 1016 73 10000 2.6 220 06:29 23.07.2019
4804 Clear 23 1016 64 10000 3.1 240 03:27 23.07.2019
4805 Clear 26 1017 57 10000 2.1 250 01:33 23.07.2019
4806 Clear 29 1016 48 10000 2.1 290 00:31 23.07.2019
4807 Clear 29 1016 45 10000 2.1 330 23:56 22.07.2019
4808 Clear 30 1016 45 10000 3.1 350 23:36 22.07.2019
4809 Clear 31 1016 40 10000 3.1 340 23:18 22.07.2019
4810 Clear 31 1016 40 10000 3.6 340 22:42 22.07.2019
4811 Clear 31 1016 40 10000 3.6 340 22:21 22.07.2019
4812 Clear 35 1015 30 10000 5.1 320 21:43 22.07.2019
4813 Clear 35 1015 30 10000 5.1 320 21:23 22.07.2019
4814 Clouds 37 1014 27 10000 2.6 320 20:50 22.07.2019
4815 Clouds 37 1014 27 10000 2.6 320 20:32 22.07.2019
4816 Clouds 37 1014 27 10000 3.1 310 19:57 22.07.2019
4817 Clouds 38 1014 27 10000 4.1 300 19:37 22.07.2019
4818 Clouds 38 1014 27 10000 3.1 320 19:18 22.07.2019
4819 Clouds 37 1014 27 10000 2.6 280 18:46 22.07.2019
4820 Clouds 37 1014 27 10000 2.6 280 18:27 22.07.2019
4821 Clear 37 1015 29 10000 2.1 310 17:44 22.07.2019
4822 Clear 37 1015 29 10000 2.1 310 17:26 22.07.2019
4823 Clear 36 1015 30 10000 1.5 240 16:59 22.07.2019
4824 Clear 36 1015 32 10000 2.6 0 16:38 22.07.2019
4825 Clear 36 1015 32 10000 2.6 0 16:38 22.07.2019
4826 Clear 36 1015 32 10000 2.6 0 16:20 22.07.2019
4827 Clear 34 1016 36 10000 3.1 320 15:44 22.07.2019
4828 Clear 34 1016 36 10000 3.1 320 15:19 22.07.2019
4829 Clear 32 1017 43 10000 2.6 330 14:44 22.07.2019
4830 Clear 32 1017 43 10000 2.6 330 14:22 22.07.2019
4831 Clear 31 1017 45 10000 2.6 330 13:50 22.07.2019
4832 Clear 30 1017 48 10000 2.6 320 13:30 22.07.2019
4833 Clear 30 1017 48 8000 1.5 320 12:51 22.07.2019
4834 Clear 28 1017 54 7000 2.1 260 12:32 22.07.2019
4835 Clear 27 1017 57 6000 1.5 290 11:56 22.07.2019
4836 Clear 26 1017 61 5000 1.5 270 11:36 22.07.2019
4837 Clear 26 1017 61 5000 1.5 270 11:36 22.07.2019
4838 Clear 24 1018 69 5000 1.5 280 11:18 22.07.2019
4839 Clear 23 1018 73 6000 1.5 250 10:37 22.07.2019
4840 Clear 22 1018 78 6000 1.5 250 10:18 22.07.2019
4841 Clear 21 1018 83 5000 2.6 240 09:39 22.07.2019
4842 Clear 21 1018 83 5000 2.6 240 09:20 22.07.2019
4843 Clear 20 1018 82 10000 2.1 250 08:38 22.07.2019
4844 Clear 20 1018 82 10000 2.1 250 08:20 22.07.2019
4845 Clear 20 1018 82 10000 2.1 250 07:52 22.07.2019
4846 Clear 20 1017 82 10000 2.1 240 07:27 22.07.2019
4847 Clear 21 1017 77 10000 3.6 230 05:30 22.07.2019
4848 Clear 23 1018 69 10000 3.1 240 03:44 22.07.2019
4849 Clear 25 1019 61 10000 2.6 260 01:25 22.07.2019
4850 Clear 27 1018 54 10000 2.6 240 00:42 22.07.2019
4851 Clear 27 1018 54 10000 2.6 240 00:21 22.07.2019
4852 Clear 27 1018 54 10000 3.6 270 23:49 21.07.2019
4853 Clear 30 1017 42 10000 5.1 310 22:59 21.07.2019
4854 Clear 30 1017 42 10000 5.1 310 22:40 21.07.2019
4855 Clear 30 1017 42 10000 5.1 310 22:21 21.07.2019
4856 Clear 31 1017 40 10000 5.7 300 21:49 21.07.2019
4857 Clear 34 1016 32 10000 4.1 300 21:26 21.07.2019
4858 Clear 34 1016 32 10000 4.1 300 20:59 21.07.2019
4859 Clear 35 1015 30 10000 4.6 280 20:41 21.07.2019
4860 Clear 35 1015 30 10000 4.6 280 20:22 21.07.2019
4861 Clear 36 1015 30 10000 3.6 290 19:52 21.07.2019
4862 Clear 36 1015 30 10000 3.6 290 19:29 21.07.2019
4863 Clear 35 1016 32 10000 2.1 300 18:53 21.07.2019
4864 Clear 35 1016 32 10000 2.1 300 18:34 21.07.2019
4865 Clear 35 1016 32 10000 3.1 260 17:58 21.07.2019
4866 Clear 35 1016 32 10000 3.1 350 17:40 21.07.2019
4867 Clear 34 1016 34 10000 2.6 280 17:19 21.07.2019
4868 Clear 35 1016 34 10000 1 0 16:41 21.07.2019
4869 Clear 35 1016 34 10000 1 0 16:22 21.07.2019
4870 Clear 33 1017 38 10000 2.6 270 15:42 21.07.2019
4871 Clear 33 1017 38 10000 2.6 270 15:21 21.07.2019
4872 Clear 31 1017 43 10000 3.1 280 14:51 21.07.2019
4873 Clear 30 1017 45 10000 2.6 0 14:25 21.07.2019
4874 Clouds 30 1018 45 7000 2.1 0 13:53 21.07.2019
4875 Clouds 29 1018 51 7000 2.1 260 13:34 21.07.2019
4876 Clouds 27 1018 57 7000 1.5 260 12:58 21.07.2019
4877 Clouds 27 1018 57 7000 1.5 260 12:39 21.07.2019
4878 Clouds 27 1018 57 7000 1.5 260 12:20 21.07.2019
4879 Clouds 25 1018 65 5000 1.5 0 11:45 21.07.2019
4880 Clouds 25 1018 65 5000 1.5 0 11:26 21.07.2019
4881 Clouds 22 1018 78 5000 2.1 240 10:43 21.07.2019
4882 Clouds 22 1018 78 5000 2.1 240 10:24 21.07.2019
4883 Clouds 22 1018 78 5000 2.6 230 09:55 21.07.2019
4884 Clouds 20 1018 82 5000 2.6 230 09:35 21.07.2019
4885 Clear 19 1018 88 7000 2.6 230 08:49 21.07.2019
4886 Clear 19 1018 88 7000 2.6 230 08:29 21.07.2019
4887 Clear 19 1018 88 7000 3.1 230 07:53 21.07.2019
4888 Clear 20 1017 82 8000 3.1 230 07:18 21.07.2019
4889 Clear 20 1017 82 0 3.1 230 06:23 21.07.2019
4890 Clear 21 1018 77 0 1.5 240 03:51 21.07.2019
4891 Clear 23 1019 69 10000 3.1 250 01:53 21.07.2019
4892 Clear 25 1019 61 10000 2.6 290 00:46 21.07.2019
4893 Clear 25 1019 61 10000 2.6 290 00:21 21.07.2019
4894 Clear 26 1018 57 10000 3.6 290 23:45 20.07.2019
4895 Clear 26 1018 57 10000 3.6 290 23:25 20.07.2019
4896 Clear 27 1017 54 10000 4.1 300 22:55 20.07.2019
4897 Clear 28 1017 48 10000 5.1 320 22:37 20.07.2019
4898 Clear 29 1016 45 10000 5.7 320 22:18 20.07.2019
4899 Clear 33 1015 33 10000 4.6 290 21:40 20.07.2019
4900 Clear 33 1015 33 10000 4.6 290 21:22 20.07.2019
4901 Clear 34 1015 30 10000 4.1 260 20:43 20.07.2019
4902 Clear 35 1015 30 0 2.6 270 20:21 20.07.2019
4903 Clear 35 1014 30 10000 3.1 240 19:49 20.07.2019
4904 Clear 35 1014 30 10000 3.1 240 19:26 20.07.2019
4905 Clear 35 1014 28 10000 2.6 0 18:46 20.07.2019
4906 Clear 35 1014 28 10000 2.6 0 18:24 20.07.2019
4907 Clear 34 1014 32 10000 3.1 290 17:56 20.07.2019
4908 Clear 35 1014 30 10000 2.1 290 17:26 20.07.2019
4909 Clear 34 1015 34 10000 2.1 0 16:46 20.07.2019
4910 Clear 34 1015 34 10000 2.1 0 16:28 20.07.2019
4911 Clear 32 1015 38 10000 2.1 290 15:59 20.07.2019
4912 Clear 32 1015 38 10000 2.6 300 15:41 20.07.2019
4913 Clear 30 1015 42 10000 2.6 310 15:21 20.07.2019
4914 Clear 29 1015 48 10000 2.6 320 14:49 20.07.2019
4915 Clear 29 1015 48 10000 2.6 320 14:29 20.07.2019
4916 Clear 30 1016 45 10000 2.1 320 13:57 20.07.2019
4917 Clear 26 1016 57 8000 2.6 0 13:37 20.07.2019
4918 Clear 26 1016 57 8000 2.6 0 13:19 20.07.2019
4919 Clouds 24 1016 64 8000 2.6 250 12:48 20.07.2019
4920 Clouds 24 1016 64 8000 2.6 250 12:19 20.07.2019
4921 Clouds 23 1015 69 8000 3.1 270 11:43 20.07.2019
4922 Clouds 23 1015 69 8000 3.1 270 11:20 20.07.2019
4923 Clear 21 1015 77 6000 3.1 260 10:42 20.07.2019
4924 Clear 21 1015 77 6000 3.1 260 10:23 20.07.2019
4925 Clear 21 1015 77 6000 3.1 260 09:51 20.07.2019
4926 Clear 20 1015 82 6000 3.1 240 09:25 20.07.2019
4927 Clear 19 1014 82 6000 4.1 220 08:51 20.07.2019
4928 Clear 19 1014 82 6000 3.6 230 08:24 20.07.2019
4929 Clear 19 1014 82 7000 3.6 220 07:43 20.07.2019
4930 Clear 19 1014 82 8000 3.1 240 06:46 20.07.2019
4931 Clear 19 1014 82 8000 3.1 230 05:49 20.07.2019
4932 Clear 20 1014 77 8000 3.1 240 04:31 20.07.2019
4933 Clear 23 1014 64 10000 3.1 240 01:59 20.07.2019
4934 Clear 24 1014 60 10000 3.1 250 00:59 20.07.2019
4935 Clear 25 1014 57 10000 3.6 280 00:37 20.07.2019
4936 Clear 26 1014 54 10000 4.1 270 00:18 20.07.2019
4937 Clear 27 1013 51 10000 3.1 320 23:39 19.07.2019
4938 Clear 27 1013 47 10000 3.6 310 23:21 19.07.2019
4939 Clear 28 1013 45 10000 4.6 320 22:43 19.07.2019
4940 Clear 28 1013 45 10000 4.6 320 22:22 19.07.2019
4941 Clear 30 1012 40 10000 5.1 310 21:45 19.07.2019
4942 Clear 30 1012 40 10000 5.1 310 21:26 19.07.2019
4943 Clear 33 1011 29 10000 2.6 0 20:45 19.07.2019
4944 Clear 33 1011 29 10000 2.6 0 20:26 19.07.2019
4945 Clear 34 1011 28 10000 3.1 240 19:48 19.07.2019
4946 Clear 34 1011 28 10000 3.1 240 19:20 19.07.2019
4947 Clear 33 1011 29 10000 4.1 230 18:42 19.07.2019
4948 Clear 33 1011 29 10000 4.1 230 18:21 19.07.2019
4949 Clear 33 1011 29 10000 4.1 230 18:21 19.07.2019
4950 Clear 33 1012 29 10000 3.6 260 17:52 19.07.2019
4951 Clear 34 1012 30 10000 2.6 270 17:27 19.07.2019
4952 Clear 32 1012 31 10000 4.1 250 16:49 19.07.2019
4953 Clear 32 1012 31 10000 4.1 250 16:26 19.07.2019
4954 Clear 30 1012 40 10000 3.1 270 15:50 19.07.2019
4955 Clear 30 1012 40 10000 3.1 270 15:31 19.07.2019
4956 Clear 30 1012 40 10000 3.6 300 14:57 19.07.2019
4957 Clear 29 1013 42 10000 2.6 320 14:38 19.07.2019
4958 Clear 28 1013 48 10000 3.1 320 14:20 19.07.2019
4959 Clear 28 1013 48 10000 1 0 13:44 19.07.2019
4960 Clear 28 1013 48 10000 1 0 13:44 19.07.2019
4961 Clear 28 1013 48 10000 1 0 13:44 19.07.2019
4962 Clear 28 1013 48 10000 1 0 13:44 19.07.2019
4963 Clear 28 1013 48 10000 1 0 13:44 19.07.2019
4964 Clear 28 1013 48 10000 1 0 13:25 19.07.2019
4965 Clear 27 1013 51 10000 2.6 300 12:55 19.07.2019
4966 Clear 26 1013 54 10000 2.6 310 12:31 19.07.2019
4967 Clear 24 1013 60 10000 2.1 270 11:58 19.07.2019
4968 Clear 23 1013 64 8000 2.6 270 11:40 19.07.2019
4969 Clear 22 1013 68 8000 3.1 250 11:18 19.07.2019
4970 Clear 21 1013 73 8000 3.6 230 10:41 19.07.2019
4971 Clear 21 1013 73 8000 3.6 230 10:21 19.07.2019
4972 Clear 19 1013 82 8000 3.6 230 09:44 19.07.2019
4973 Clear 19 1013 82 8000 3.6 230 09:22 19.07.2019
4974 Clear 18 1012 82 8000 2.6 240 08:59 19.07.2019
4975 Clear 18 1012 82 8000 2.6 240 08:40 19.07.2019
4976 Clear 19 1012 77 8000 3.1 230 07:53 19.07.2019
4977 Clear 19 1012 77 10000 2.6 240 07:28 19.07.2019
4978 Clear 20 1012 68 10000 3.1 230 05:55 19.07.2019
4979 Clear 24 1013 53 10000 1 0 02:23 19.07.2019
4980 Clear 24 1013 53 10000 2.1 30 00:59 19.07.2019
4981 Clear 24 1013 53 10000 4.1 30 00:31 19.07.2019
4982 Clear 26 1012 44 10000 5.1 20 23:43 18.07.2019
4983 Clear 26 1012 44 10000 5.1 20 23:24 18.07.2019
4984 Clear 27 1012 39 10000 5.1 350 22:59 18.07.2019
4985 Clear 29 1012 32 10000 4.6 360 22:39 18.07.2019
4986 Clear 31 1011 27 10000 3.1 350 22:18 18.07.2019
4987 Clear 32 1011 24 10000 2.6 350 21:43 18.07.2019
4988 Clear 32 1011 24 10000 2.6 350 21:24 18.07.2019
4989 Clear 32 1011 24 10000 2.6 350 21:24 18.07.2019
4990 Clear 33 1011 22 10000 3.6 10 20:49 18.07.2019
4991 Clear 33 1011 22 10000 3.6 10 20:29 18.07.2019
4992 Clear 33 1011 22 10000 3.6 10 20:29 18.07.2019
4993 Clear 34 1011 23 10000 2.1 300 19:53 18.07.2019
4994 Clear 34 1011 23 10000 2.6 330 19:32 18.07.2019
4995 Clear 34 1012 24 10000 1 0 18:58 18.07.2019
4996 Clear 33 1012 26 10000 3.1 360 18:38 18.07.2019
4997 Clear 33 1012 26 10000 3.1 360 18:19 18.07.2019
4998 Clear 32 1012 27 10000 1 0 17:42 18.07.2019
4999 Clear 32 1012 27 10000 1 0 17:42 18.07.2019
5000 Clear 32 1012 27 10000 1 0 17:24 18.07.2019
5001 Clear 31 1013 31 10000 3.6 340 16:55 18.07.2019
5002 Clear 31 1013 31 10000 3.1 340 16:29 18.07.2019
5003 Clear 30 1013 33 10000 2.6 10 15:58 18.07.2019
5004 Clear 29 1014 35 10000 3.6 350 15:39 18.07.2019
5005 Clear 29 1014 37 10000 2.6 330 15:20 18.07.2019
5006 Clear 28 1014 39 10000 1.5 340 14:43 18.07.2019
5007 Clear 28 1014 39 10000 1.5 340 14:25 18.07.2019
5008 Clear 26 1015 44 10000 2.6 350 13:46 18.07.2019
5009 Clear 26 1015 44 10000 2.6 350 13:22 18.07.2019
5010 Clear 24 1015 50 10000 2.1 340 12:49 18.07.2019
5011 Clear 23 1015 53 10000 2.1 30 12:21 18.07.2019
5012 Clear 23 1015 53 10000 2.1 30 12:21 18.07.2019
5013 Clear 23 1015 53 10000 2.1 30 12:21 18.07.2019
5014 Clear 23 1015 53 10000 2.1 30 11:56 18.07.2019
5015 Clouds 22 1015 56 8000 1.5 20 11:38 18.07.2019
5016 Clouds 22 1015 56 8000 1 0 11:19 18.07.2019
5017 Clouds 21 1016 60 8000 1 0 10:41 18.07.2019
5018 Clouds 19 1016 68 8000 1.5 260 09:49 18.07.2019
5019 Clear 19 1016 68 8000 1.5 260 09:26 18.07.2019
5020 Clear 18 1016 72 10000 1 0 08:51 18.07.2019
5021 Clear 17 1016 72 10000 1 0 08:22 18.07.2019
5022 Clear 17 1016 72 10000 1 0 07:54 18.07.2019
5023 Clear 17 1016 72 10000 1.33 16.046 07:34 18.07.2019
5024 Clear 18 1016 68 10000 2.6 30 06:43 18.07.2019
5025 Clear 18 1016 68 10000 2.1 30 05:57 18.07.2019
5026 Clear 20 1016 64 10000 3.6 30 03:25 18.07.2019
5027 Clear 22 1017 56 10000 2.6 30 01:52 18.07.2019
5028 Clear 23 1017 53 10000 2.6 20 01:32 18.07.2019
5029 Clear 24 1016 47 10000 4.6 30 23:57 17.07.2019
5030 Clear 25 1016 44 10000 5.1 20 23:21 17.07.2019
5031 Clear 28 1015 37 10000 5.7 10 22:58 17.07.2019
5032 Clear 28 1015 37 10000 5.7 10 22:58 17.07.2019
5033 Clear 28 1015 37 10000 5.7 10 22:40 17.07.2019
5034 Clear 31 1015 29 10000 5.1 10 22:20 17.07.2019
5035 Clear 33 1015 24 10000 3.6 360 21:46 17.07.2019
5036 Clear 33 1015 24 10000 3.6 360 21:28 17.07.2019
5037 Clear 34 1015 23 10000 3.1 360 20:59 17.07.2019
5038 Clear 35 1015 21 10000 3.1 320 20:40 17.07.2019
5039 Clear 35 1015 21 10000 3.1 10 20:21 17.07.2019
5040 Clear 35 1015 21 10000 3.1 10 19:57 17.07.2019
5041 Clear 35 1015 21 10000 3.1 330 19:39 17.07.2019
5042 Clear 34 1015 21 10000 3.6 350 19:18 17.07.2019
5043 Clear 34 1015 23 10000 1.5 250 18:41 17.07.2019
5044 Clear 34 1016 24 10000 2.1 340 18:20 17.07.2019
5045 Clear 34 1016 24 10000 1 0 17:50 17.07.2019
5046 Clear 34 1016 24 10000 1 0 17:27 17.07.2019
5047 Clear 33 1017 29 10000 1.5 290 16:56 17.07.2019
5048 Clear 33 1017 29 10000 1.5 290 16:38 17.07.2019
5049 Clear 33 1017 29 10000 1.5 290 16:18 17.07.2019
5050 Clear 32 1017 29 10000 2.6 40 15:50 17.07.2019
5051 Clear 30 1017 33 10000 2.1 350 15:25 17.07.2019
5052 Clear 30 1018 37 10000 2.1 20 14:54 17.07.2019
5053 Clear 29 1018 42 10000 2.1 60 14:36 17.07.2019
5054 Clear 29 1018 42 10000 2.1 60 14:18 17.07.2019
5055 Clear 27 1018 47 10000 1.5 360 13:41 17.07.2019
5056 Clear 27 1018 47 10000 1.5 360 13:21 17.07.2019
5057 Clear 26 1018 50 10000 1 0 12:40 17.07.2019
5058 Clear 26 1018 50 10000 1 0 12:21 17.07.2019
5059 Clear 24 1019 57 9000 1 0 11:45 17.07.2019
5060 Clear 24 1018 57 8000 0.5 0 11:21 17.07.2019
5061 Clear 22 1018 64 9000 1.5 250 10:51 17.07.2019
5062 Clear 22 1018 64 9000 1.5 260 10:31 17.07.2019
5063 Clear 22 1018 64 9000 1.5 260 10:31 17.07.2019
5064 Clear 20 1018 72 10000 2.6 250 09:59 17.07.2019
5065 Clear 20 1018 72 10000 3.1 230 09:40 17.07.2019
5066 Clear 20 1018 72 10000 3.1 230 09:22 17.07.2019
5067 Clear 18 1017 82 10000 3.1 230 08:43 17.07.2019
5068 Clear 18 1017 82 10000 2.6 230 08:22 17.07.2019
5069 Clear 18 1017 82 10000 3.1 240 07:50 17.07.2019
5070 Clear 19 1016 77 10000 3.1 230 07:24 17.07.2019
5071 Clear 19 1016 77 10000 2.6 240 06:56 17.07.2019
5072 Clear 19 1016 77 10000 2.6 240 06:30 17.07.2019
5073 Clear 20 1016 72 10000 3.6 230 05:49 17.07.2019
5074 Clear 20 1016 68 10000 3.1 230 05:28 17.07.2019
5075 Clear 22 1016 60 10000 3.1 230 04:42 17.07.2019
5076 Clear 24 1016 53 10000 1 0 03:19 17.07.2019
5077 Clouds 25 1016 50 10000 2.1 30 02:19 17.07.2019
5078 Clouds 26 1017 47 10000 1.5 10 01:26 17.07.2019
5079 Clouds 26 1017 47 10000 2.1 30 00:55 17.07.2019
5080 Clouds 26 1017 47 10000 2.6 30 00:36 17.07.2019
5081 Clouds 26 1017 47 10000 2.6 30 00:18 17.07.2019
5082 Clouds 28 1016 39 10000 4.6 30 23:36 16.07.2019
5083 Clouds 28 1016 39 10000 4.6 30 23:18 16.07.2019
5084 Clouds 30 1015 33 10000 5.1 30 22:42 16.07.2019
5085 Clouds 32 1015 29 10000 5.1 360 22:20 16.07.2019
5086 Clouds 32 1015 29 10000 5.1 360 21:46 16.07.2019
5087 Clouds 33 1014 27 10000 5.7 340 21:22 16.07.2019
5088 Clouds 35 1014 26 10000 4.6 340 20:58 16.07.2019
5089 Clouds 36 1014 23 10000 4.1 320 20:39 16.07.2019
5090 Clouds 36 1014 23 10000 4.1 320 20:21 16.07.2019
5091 Clouds 37 1014 22 10000 2.6 330 19:51 16.07.2019
5092 Clouds 37 1014 22 10000 3.1 320 19:28 16.07.2019
5093 Clouds 37 1013 23 10000 3.1 330 18:57 16.07.2019
5094 Clouds 37 1014 23 10000 2.1 290 18:38 16.07.2019
5095 Clouds 37 1014 23 10000 2.1 290 18:19 16.07.2019
5096 Clouds 37 1014 23 10000 3.6 290 17:40 16.07.2019
5097 Clouds 37 1014 23 10000 3.6 290 17:21 16.07.2019
5098 Clouds 36 1014 26 10000 2.6 310 16:44 16.07.2019
5099 Clouds 36 1014 26 10000 1.5 0 16:21 16.07.2019
5100 Clouds 34 1014 32 10000 1.5 0 15:42 16.07.2019
5101 Clouds 34 1014 32 10000 1.5 0 15:21 16.07.2019
5102 Clouds 33 1015 33 10000 2.6 330 14:59 16.07.2019
5103 Clouds 32 1015 35 10000 2.1 290 14:41 16.07.2019
5104 Clouds 32 1015 35 10000 2.1 290 14:23 16.07.2019
5105 Clouds 30 1015 40 10000 2.1 320 13:46 16.07.2019
5106 Clouds 30 1015 40 10000 2.1 320 13:27 16.07.2019
5107 Clouds 29 1015 45 10000 1.5 290 12:55 16.07.2019
5108 Clouds 28 1015 45 10000 2.1 330 12:37 16.07.2019
5109 Clouds 28 1015 45 10000 2.1 330 12:19 16.07.2019
5110 Clouds 26 1015 54 8000 1 0 11:43 16.07.2019
5111 Clouds 26 1015 54 8000 1 0 11:23 16.07.2019
5112 Clouds 25 1015 57 8000 1.5 270 10:57 16.07.2019
5113 Clear 25 1014 48 0 1.98 356.756 10:38 16.07.2019
5114 Clouds 21 1015 73 10000 2.6 230 10:18 16.07.2019
5115 Clouds 21 1015 73 10000 2.6 230 09:42 16.07.2019
5116 Clouds 21 1015 73 10000 2.6 230 09:20 16.07.2019
5117 Clouds 20 1015 72 10000 2.1 230 08:46 16.07.2019
5118 Clouds 20 1015 72 10000 1.5 240 08:23 16.07.2019
5119 Clouds 20 1014 72 10000 2.1 250 07:50 16.07.2019
5120 Clear 20 1014 72 0 2.6 270 07:32 16.07.2019
5121 Clear 20 1014 72 10000 2.1 240 06:57 16.07.2019
5122 Clear 21 1014 68 10000 2.1 240 06:35 16.07.2019
5123 Clear 22 1014 64 0 2.1 220 05:48 16.07.2019
5124 Clear 22 1014 64 10000 3.6 220 05:25 16.07.2019
5125 Clear 22 1014 64 10000 2.6 240 04:26 16.07.2019
5126 Clear 26 1015 47 10000 1.5 20 03:34 16.07.2019
5127 Clear 26 1015 47 10000 1.5 20 02:41 16.07.2019
5128 Clear 26 1015 47 10000 1.5 20 02:18 16.07.2019
5129 Clouds 26 1015 47 10000 2.6 20 01:23 16.07.2019
5130 Clouds 28 1015 42 10000 2.1 10 00:22 16.07.2019
5131 Clouds 28 1015 42 10000 2.6 360 23:58 15.07.2019
5132 Clouds 28 1015 39 10000 4.1 40 23:37 15.07.2019
5133 Clouds 29 1015 37 10000 4.6 30 22:59 15.07.2019
5134 Clouds 30 1014 35 10000 4.1 20 22:38 15.07.2019
5135 Clouds 30 1014 35 10000 4.1 20 22:19 15.07.2019
5136 Clouds 35 1013 26 10000 5.1 350 21:42 15.07.2019
5137 Clouds 35 1013 26 10000 5.1 350 21:21 15.07.2019
5138 Clouds 35 1013 26 10000 5.1 350 20:58 15.07.2019
5139 Clouds 36 1013 25 10000 5.7 340 20:40 15.07.2019
5140 Clouds 36 1013 25 10000 5.7 340 20:22 15.07.2019
5141 Clouds 37 1013 23 10000 3.6 340 19:55 15.07.2019
5142 Clear 39 1013 20 10000 2.6 350 19:37 15.07.2019
5143 Clear 39 1013 20 10000 2.6 350 19:18 15.07.2019
5144 Clear 39 1013 20 10000 1.5 0 18:42 15.07.2019
5145 Clear 39 1013 20 10000 1.5 0 18:19 15.07.2019
5146 Clear 38 1013 21 10000 1.5 0 17:55 15.07.2019
5147 Clear 38 1013 21 10000 2.1 340 17:37 15.07.2019
5148 Clear 38 1013 21 10000 2.1 340 17:19 15.07.2019
5149 Clear 37 1013 23 10000 2.6 320 16:39 15.07.2019
5150 Clear 37 1013 23 10000 2.6 320 16:21 15.07.2019
5151 Clear 36 1014 25 10000 3.1 0 15:58 15.07.2019
5152 Clear 35 1014 28 10000 3.1 330 15:37 15.07.2019
5153 Clear 35 1014 28 10000 3.1 330 15:19 15.07.2019
5154 Clear 34 1014 30 10000 2.6 320 14:45 15.07.2019
5155 Clear 34 1014 32 10000 1.5 0 14:26 15.07.2019
5156 Clear 32 1015 35 10000 2.1 310 13:57 15.07.2019
5157 Clear 31 1015 38 10000 2.6 360 13:36 15.07.2019
5158 Clear 31 1015 38 10000 2.6 360 13:18 15.07.2019
5159 Clear 29 1015 42 9000 1.5 0 12:41 15.07.2019
5160 Clear 29 1015 42 9000 1.5 0 12:21 15.07.2019
5161 Clear 29 1015 45 7000 1.5 330 11:43 15.07.2019
5162 Clear 28 1015 48 9000 0.5 0 11:25 15.07.2019
5163 Clear 26 1015 50 10000 0.5 0 10:48 15.07.2019
5164 Clear 25 1015 57 10000 1 0 10:29 15.07.2019
5165 Clear 23 1016 64 10000 1.5 240 09:54 15.07.2019
5166 Clear 22 1015 64 10000 2.1 240 09:36 15.07.2019
5167 Clear 22 1015 64 10000 2.1 240 09:18 15.07.2019
5168 Clear 21 1015 68 10000 2.6 240 08:41 15.07.2019
5169 Clear 21 1015 68 10000 2.6 240 08:23 15.07.2019
5170 Clear 21 1015 68 10000 2.6 240 08:23 15.07.2019
5171 Clear 21 1015 64 10000 2.6 230 07:41 15.07.2019
5172 Clear 21 1015 64 10000 2.6 230 07:19 15.07.2019
5173 Clear 22 1015 64 10000 2.1 230 06:39 15.07.2019
5174 Clear 22 1015 64 10000 1.5 240 05:47 15.07.2019
5175 Clear 24 1015 57 10000 1.5 30 05:27 15.07.2019
5176 Clear 24 1015 57 10000 1.5 10 04:42 15.07.2019
5177 Clear 25 1015 53 10000 2.6 20 03:48 15.07.2019
5178 Clear 26 1016 47 10000 2.6 30 02:45 15.07.2019
5179 Clear 27 1016 42 10000 1.5 40 01:44 15.07.2019
5180 Clear 27 1016 42 10000 2.1 40 01:26 15.07.2019
5181 Clear 28 1016 39 10000 2.6 40 00:51 15.07.2019
5182 Clear 28 1016 39 10000 3.1 40 00:20 15.07.2019
5183 Clear 29 1016 37 10000 3.6 30 23:55 14.07.2019
5184 Clear 30 1015 35 10000 4.6 30 23:36 14.07.2019
5185 Clear 30 1015 35 10000 4.6 30 23:18 14.07.2019
5186 Clear 32 1015 31 10000 5.7 360 22:41 14.07.2019
5187 Clear 32 1015 31 10000 5.7 360 22:40 14.07.2019
5188 Clear 32 1015 31 10000 5.7 360 22:22 14.07.2019
5189 Clear 33 1014 27 10000 5.1 360 21:59 14.07.2019
5190 Clear 35 1014 24 10000 5.1 350 21:40 14.07.2019
5191 Clear 35 1014 24 10000 5.1 350 21:18 14.07.2019
5192 Clear 38 1013 19 10000 3.1 30 20:55 14.07.2019
5193 Clear 38 1013 19 10000 3.1 360 20:36 14.07.2019
5194 Clear 38 1013 19 10000 3.1 360 20:18 14.07.2019
5195 Clear 40 1014 15 10000 1.5 0 19:42 14.07.2019
5196 Clear 40 1014 15 10000 1.5 0 19:24 14.07.2019
5197 Clear 39 1014 16 10000 2.1 350 18:56 14.07.2019
5198 Clear 39 1014 16 10000 1.5 340 18:37 14.07.2019
5199 Clear 39 1014 16 10000 1.5 340 18:18 14.07.2019
5200 Clear 38 1014 19 10000 3.1 330 17:42 14.07.2019
5201 Clear 38 1014 19 10000 3.1 330 17:19 14.07.2019
5202 Clear 37 1014 22 10000 3.1 360 16:46 14.07.2019
5203 Clear 38 1015 22 10000 1.5 0 16:24 14.07.2019
5204 Clear 37 1015 23 10000 2.1 0 15:50 14.07.2019
5205 Clear 35 1015 28 10000 2.6 280 15:27 14.07.2019
5206 Clear 35 1016 28 10000 2.1 0 14:48 14.07.2019
5207 Clear 33 1016 31 10000 2.6 320 14:21 14.07.2019
5208 Clear 33 1016 33 10000 1.5 0 13:49 14.07.2019
5209 Clear 31 1016 38 10000 2.1 360 13:25 14.07.2019
5210 Clear 31 1016 38 10000 2.1 330 12:58 14.07.2019
5211 Clear 29 1016 39 10000 2.1 10 12:40 14.07.2019
5212 Clear 29 1016 39 10000 2.1 10 12:19 14.07.2019
5213 Clear 28 1016 45 10000 1.5 0 11:51 14.07.2019
5214 Clear 27 1016 51 9000 1 0 11:22 14.07.2019
5215 Clear 26 1016 54 9000 1 0 10:50 14.07.2019
5216 Clear 24 1016 60 8000 1.5 270 10:23 14.07.2019
5217 Clear 23 1016 64 10000 2.1 270 09:55 14.07.2019
5218 Clear 21 1016 68 10000 2.1 260 09:37 14.07.2019
5219 Clear 21 1016 68 10000 2.1 260 09:18 14.07.2019
5220 Clear 21 1016 68 10000 2.1 230 08:41 14.07.2019
5221 Clear 21 1016 68 10000 2.1 230 07:56 14.07.2019
5222 Clear 21 1016 68 10000 2.1 230 07:34 14.07.2019
5223 Clear 21 1016 68 10000 1.5 240 06:29 14.07.2019
5224 Clear 22 1016 64 10000 2.1 230 05:44 14.07.2019
5225 Clear 23 1016 60 10000 3.1 220 03:46 14.07.2019
5226 Clear 24 1017 57 10000 2.6 220 03:27 14.07.2019
5227 Clear 25 1017 53 10000 2.1 250 02:39 14.07.2019
5228 Clear 25 1017 53 10000 2.1 250 02:20 14.07.2019
5229 Clear 27 1018 44 10000 2.1 290 01:31 14.07.2019
5230 Clear 27 1018 44 8000 0.5 0 00:55 14.07.2019
5231 Clear 28 1018 42 10000 2.1 10 00:37 14.07.2019
5232 Clear 28 1018 42 10000 2.1 10 00:18 14.07.2019
5233 Clear 29 1017 39 9000 5.1 20 23:42 13.07.2019
5234 Clear 29 1017 39 9000 5.1 20 23:22 13.07.2019
5235 Clear 31 1016 35 9000 5.1 350 22:43 13.07.2019
5236 Clear 31 1016 35 9000 5.1 350 22:22 13.07.2019
5237 Clear 33 1016 31 10000 4.1 350 21:49 13.07.2019
5238 Clear 34 1016 26 10000 3.1 350 21:23 13.07.2019
5239 Clear 35 1016 24 10000 3.6 350 20:53 13.07.2019
5240 Clear 37 1015 22 10000 1 0 20:34 13.07.2019
5241 Clear 37 1015 20 10000 1.5 0 19:59 13.07.2019
5242 Clear 37 1015 22 10000 1 0 19:37 13.07.2019
5243 Clear 37 1015 22 10000 1 0 19:19 13.07.2019
5244 Clear 36 1016 22 10000 2.6 20 18:39 13.07.2019
5245 Clear 36 1016 22 10000 2.6 20 18:19 13.07.2019
5246 Clear 36 1016 25 10000 3.1 310 17:38 13.07.2019
5247 Clear 36 1016 25 10000 3.1 310 17:19 13.07.2019
5248 Clear 36 1016 25 10000 3.1 310 17:19 13.07.2019
5249 Clear 35 1016 28 10000 3.1 290 16:44 13.07.2019
5250 Clear 35 1016 28 10000 2.1 0 16:26 13.07.2019
5251 Clear 35 1016 28 10000 2.1 0 16:26 13.07.2019
5252 Clear 34 1017 30 10000 3.1 300 15:48 13.07.2019
5253 Clear 33 1017 31 10000 3.1 310 15:25 13.07.2019
5254 Clear 31 1017 38 10000 1.5 0 14:57 13.07.2019
5255 Clear 31 1017 38 10000 1.5 0 14:39 13.07.2019
5256 Clear 31 1017 38 10000 1.5 0 14:20 13.07.2019
5257 Clear 30 1018 40 10000 2.6 320 13:43 13.07.2019
5258 Clear 29 1018 45 10000 1.5 300 13:19 13.07.2019
5259 Clear 27 1018 51 10000 2.1 350 12:41 13.07.2019
5260 Clear 27 1018 51 10000 2.1 350 12:23 13.07.2019
5261 Clear 26 1018 54 8000 2.1 320 11:57 13.07.2019
5262 Clear 25 1018 57 10000 1 0 11:36 13.07.2019
5263 Clear 25 1018 57 10000 1 0 11:18 13.07.2019
5264 Clear 23 1018 64 10000 0.5 0 10:39 13.07.2019
5265 Clear 23 1018 64 10000 0.5 0 10:21 13.07.2019
5266 Clear 21 1018 73 10000 1 0 09:42 13.07.2019
5267 Clear 21 1018 73 10000 1 0 09:24 13.07.2019
5268 Clear 19 1018 82 10000 1 240 08:48 13.07.2019
5269 Clear 19 1018 77 10000 1.5 220 08:27 13.07.2019
5270 Clear 19 1018 77 10000 2.1 230 07:42 13.07.2019
5271 Clear 19 1018 77 10000 2.1 230 07:20 13.07.2019
5272 Clear 19 1017 77 10000 3.1 230 06:29 13.07.2019
5273 Clear 19 1018 77 10000 3.1 220 05:46 13.07.2019
5274 Clear 20 1018 72 10000 3.6 220 04:39 13.07.2019
5275 Clear 20 1018 72 10000 3.6 220 04:19 13.07.2019
5276 Clear 20 1018 72 10000 3.1 230 03:40 13.07.2019
5277 Clear 21 1018 68 10000 3.1 230 02:52 13.07.2019
5278 Clear 22 1019 60 10000 3.1 240 01:52 13.07.2019
5279 Clear 23 1019 56 10000 3.1 230 01:21 13.07.2019
5280 Clear 23 1019 53 10000 2.6 240 00:58 13.07.2019
5281 Clear 24 1019 50 10000 3.1 240 00:21 13.07.2019
5282 Clear 25 1019 44 10000 3.6 230 23:50 12.07.2019
5283 Clear 27 1018 39 10000 3.1 260 23:30 12.07.2019
5284 Clear 28 1018 34 10000 4.6 270 22:57 12.07.2019
5285 Clear 28 1017 34 10000 5.7 280 22:38 12.07.2019
5286 Clear 28 1017 34 10000 5.7 280 22:20 12.07.2019
5287 Clear 32 1017 29 10000 4.1 270 21:41 12.07.2019
5288 Clear 32 1017 29 10000 4.1 270 21:19 12.07.2019
5289 Clear 32 1017 29 10000 4.1 270 21:19 12.07.2019
5290 Clear 33 1016 24 10000 3.1 270 20:43 12.07.2019
5291 Clear 34 1016 23 10000 3.1 290 20:22 12.07.2019
5292 Clouds 33 1016 24 10000 2.1 280 19:43 12.07.2019
5293 Clouds 34 1016 24 10000 3.1 300 19:25 12.07.2019
5294 Clouds 34 1016 24 10000 3.1 300 18:49 12.07.2019
5295 Clouds 33 1016 27 10000 2.6 0 18:23 12.07.2019
5296 Clouds 33 1016 27 10000 2.6 0 17:58 12.07.2019
5297 Clouds 33 1016 27 10000 2.1 310 17:38 12.07.2019
5298 Clouds 33 1016 27 10000 2.1 310 17:19 12.07.2019
5299 Clouds 32 1016 29 10000 2.6 340 16:36 12.07.2019
5300 Clouds 32 1016 29 10000 2.6 340 16:18 12.07.2019
5301 Clouds 31 1017 33 10000 2.1 330 15:38 12.07.2019
5302 Clouds 31 1017 33 10000 2.1 330 15:19 12.07.2019
5303 Clouds 29 1017 39 10000 2.1 250 14:44 12.07.2019
5304 Clouds 29 1017 39 10000 1.5 260 14:21 12.07.2019
5305 Clouds 26 1017 44 10000 4.43 321.599 13:47 12.07.2019
5306 Clouds 26 1017 44 10000 4.27 324.603 13:24 12.07.2019
5307 Clouds 25 1017 47 10000 1 0 12:44 12.07.2019
5308 Clouds 24 1017 50 10000 0.5 0 12:24 12.07.2019
5309 Clouds 23 1017 53 10000 0.5 0 11:57 12.07.2019
5310 Clouds 22 1017 56 10000 1 0 11:38 12.07.2019
5311 Clouds 22 1017 56 10000 0.67 33.002 11:19 12.07.2019
5312 Clouds 20 1017 64 10000 0.67 33.002 10:41 12.07.2019
5313 Clouds 20 1017 64 10000 0.67 33.002 10:23 12.07.2019
5314 Clouds 20 1017 64 10000 1 0 09:53 12.07.2019
5315 Clouds 19 1017 68 10000 1.5 240 09:28 12.07.2019
5316 Clouds 19 1017 68 10000 1.5 240 08:51 12.07.2019
5317 Clouds 19 1016 68 10000 1.5 220 08:24 12.07.2019
5318 Clouds 18 1016 72 10000 2.1 220 07:51 12.07.2019
5319 Clouds 18 1016 72 10000 2.1 230 07:31 12.07.2019
5320 Clouds 19 1016 68 10000 2.6 220 06:32 12.07.2019
5321 Clouds 19 1016 63 10000 3.1 230 05:52 12.07.2019
5322 Clouds 19 1016 63 10000 2.6 240 04:53 12.07.2019
5323 Clouds 19 1016 63 10000 2.6 240 04:53 12.07.2019
5324 Clouds 20 1016 64 10000 3.6 260 02:55 12.07.2019
5325 Clouds 22 1016 60 10000 3.1 260 01:37 12.07.2019
5326 Clouds 24 1016 53 10000 3.1 290 00:44 12.07.2019
5327 Clouds 24 1016 53 10000 3.1 290 00:19 12.07.2019
5328 Clouds 25 1016 50 10000 4.1 290 23:42 11.07.2019
5329 Clouds 25 1016 50 10000 4.1 290 23:22 11.07.2019
5330 Clouds 27 1014 44 10000 4.6 300 22:47 11.07.2019
5331 Clouds 27 1014 44 10000 4.6 300 22:25 11.07.2019
5332 Clouds 27 1014 44 10000 4.6 300 22:25 11.07.2019
5333 Clouds 28 1014 45 10000 4.6 290 21:55 11.07.2019
5334 Clouds 29 1014 42 10000 6.2 270 21:36 11.07.2019
5335 Clouds 29 1014 42 10000 6.2 270 21:18 11.07.2019
5336 Clouds 31 1013 35 10000 3.1 240 20:41 11.07.2019
5337 Clouds 31 1013 35 10000 3.1 240 20:22 11.07.2019
5338 Clouds 31 1013 33 10000 1.5 0 19:56 11.07.2019
5339 Clouds 32 1013 33 10000 1 0 19:37 11.07.2019
5340 Clouds 32 1013 33 10000 1 0 19:19 11.07.2019
5341 Clouds 31 1013 35 10000 1.5 0 18:41 11.07.2019
5342 Clouds 31 1013 35 10000 1.5 0 18:23 11.07.2019
5343 Clouds 31 1013 35 10000 3.1 260 17:48 11.07.2019
5344 Clouds 31 1013 35 10000 1.5 300 17:29 11.07.2019
5345 Clouds 31 1013 35 10000 1.5 0 16:53 11.07.2019
5346 Clouds 30 1014 37 10000 2.6 260 16:25 11.07.2019
5347 Clouds 29 1014 39 10000 3.1 0 15:58 11.07.2019
5348 Clouds 29 1014 39 10000 1.5 0 15:39 11.07.2019
5349 Clouds 29 1014 39 10000 1.5 0 15:20 11.07.2019
5350 Clouds 28 1014 42 10000 2.6 330 14:44 11.07.2019
5351 Clouds 27 1014 44 10000 2.6 310 14:23 11.07.2019
5352 Clouds 27 1014 47 10000 2.6 250 13:48 11.07.2019
5353 Clouds 26 1014 47 10000 2.6 300 13:29 11.07.2019
5354 Clouds 24 1014 57 8000 3.1 260 12:57 11.07.2019
5355 Clouds 24 1014 57 8000 3.1 260 12:37 11.07.2019
5356 Clouds 24 1014 57 8000 3.1 260 12:18 11.07.2019
5357 Clouds 22 1014 64 8000 3.1 270 11:41 11.07.2019
5358 Clouds 22 1014 64 8000 3.1 270 11:23 11.07.2019
5359 Clouds 22 1014 64 8000 3.1 270 10:51 11.07.2019
5360 Clouds 20 1014 72 8000 3.6 250 10:19 11.07.2019
5361 Clouds 19 1014 77 8000 3.1 250 09:49 11.07.2019
5362 Clouds 18 1013 77 8000 2.6 240 09:30 11.07.2019
5363 Clear 17 1013 82 8000 3.1 230 08:56 11.07.2019
5364 Clear 17 1013 82 8000 2.6 230 08:36 11.07.2019
5365 Clear 17 1013 82 8000 2.6 230 08:18 11.07.2019
5366 Clear 17 1013 82 8000 2.6 230 07:41 11.07.2019
5367 Clear 18 1013 77 10000 3.1 220 06:42 11.07.2019
5368 Clear 18 1013 77 10000 3.1 220 06:18 11.07.2019
5369 Clear 18 1013 77 10000 3.1 230 05:30 11.07.2019
5370 Clear 18 1013 77 10000 3.1 230 04:56 11.07.2019
5371 Clear 20 1013 64 10000 2.6 240 02:43 11.07.2019
5372 Clear 21 1013 64 10000 2.6 250 01:53 11.07.2019
5373 Clear 23 1014 53 10000 3.6 280 00:32 11.07.2019
5374 Clear 24 1013 50 10000 4.1 290 23:49 10.07.2019
5375 Clear 24 1013 50 10000 4.1 290 23:21 10.07.2019
5376 Clear 25 1013 47 10000 4.6 300 22:53 10.07.2019
5377 Clear 26 1012 44 10000 4.6 320 22:22 10.07.2019
5378 Clear 28 1012 42 8000 4.6 360 21:48 10.07.2019
5379 Clear 28 1012 42 8000 4.6 360 21:48 10.07.2019
5380 Clear 30 1011 35 10000 5.7 230 21:29 10.07.2019
5381 Clouds 32 1011 29 10000 1 0 20:59 10.07.2019
5382 Clouds 32 1011 29 10000 0.5 0 20:40 10.07.2019
5383 Clouds 32 1011 29 10000 0.5 0 20:20 10.07.2019
5384 Clouds 33 1011 27 10000 1 0 19:54 10.07.2019
5385 Clouds 33 1011 27 10000 1.5 30 19:22 10.07.2019
5386 Clouds 33 1011 27 10000 1.5 30 19:22 10.07.2019
5387 Clouds 33 1011 27 10000 1.5 30 19:22 10.07.2019
5388 Clear 32 1011 31 10000 1.5 230 18:59 10.07.2019
5389 Clear 32 1011 29 10000 1.5 0 18:41 10.07.2019
5390 Clear 32 1011 29 10000 1.5 0 18:22 10.07.2019
5391 Clear 31 1012 33 10000 2.6 0 17:43 10.07.2019
5392 Clear 31 1012 33 10000 2.6 0 17:23 10.07.2019
5393 Clear 29 1012 35 10000 2.6 0 16:39 10.07.2019
5394 Clear 29 1012 35 10000 2.6 0 16:19 10.07.2019
5395 Clouds 30 1012 35 10000 2.6 0 15:47 10.07.2019
5396 Clouds 28 1013 39 9000 3.1 350 15:23 10.07.2019
5397 Clouds 28 1013 39 7000 2.6 0 14:46 10.07.2019
5398 Clouds 27 1013 44 8000 2.1 260 14:26 10.07.2019
5399 Clouds 27 1014 42 7000 2.6 340 13:54 10.07.2019
5400 Clouds 26 1014 47 7000 1.5 0 13:23 10.07.2019
5401 Clouds 25 1014 50 7000 1 0 12:59 10.07.2019
5402 Clouds 25 1014 50 7000 2.1 310 12:39 10.07.2019
5403 Clouds 25 1014 50 7000 2.1 310 12:20 10.07.2019
5404 Clouds 23 1014 56 7000 1 0 11:47 10.07.2019
5405 Clouds 22 1014 60 6000 1 0 11:21 10.07.2019
5406 -273 0 0 0 0 0 10:56 10.07.2019
5407 Clear 20 1014 68 7000 1.5 260 10:23 10.07.2019
5408 Clear 18 1014 77 7000 2.6 230 09:45 10.07.2019
5409 Clear 18 1014 77 7000 2.6 230 09:21 10.07.2019
5410 Clear 18 1014 77 7000 2.6 230 09:21 10.07.2019
5411 Clouds 17 1014 77 6000 3.1 230 08:57 10.07.2019
5412 Clear 16 1014 82 10000 2.6 230 08:38 10.07.2019
5413 Clear 16 1014 82 10000 2.6 230 08:20 10.07.2019
5414 Clear 17 1013 77 10000 2.1 220 07:42 10.07.2019
5415 Clear 17 1013 77 10000 2.1 220 07:22 10.07.2019
5416 Clear 18 1014 72 10000 2.1 230 06:31 10.07.2019
5417 Clear 18 1013 72 10000 2.1 230 05:40 10.07.2019
5418 Clear 20 1014 64 10000 1.5 360 04:30 10.07.2019
5419 Clear 22 1015 53 10000 2.38 345.614 01:25 10.07.2019
5420 Clear 23 1015 49 10000 5.1 40 00:42 10.07.2019
5421 Clear 25 1014 44 10000 5.7 350 23:42 09.07.2019
5422 Clear 25 1014 44 10000 5.7 350 23:22 09.07.2019
5423 Clear 26 1014 41 10000 6.2 350 22:54 09.07.2019
5424 Clear 20 1015 61 0 3.7 318.775 22:36 09.07.2019
5425 Clear 20 1015 61 0 3.7 318.775 22:18 09.07.2019
5426 Clear 20 1015 61 0 3.7 318.775 21:43 09.07.2019
5427 Clear 32 1013 25 10000 2.1 330 21:24 09.07.2019
5428 Clear 32 1013 25 10000 2.1 330 20:44 09.07.2019
5429 Clear 32 1013 25 10000 2.1 330 20:25 09.07.2019
5430 Clear 33 1013 24 10000 2.6 0 19:43 09.07.2019
5431 Clear 33 1013 24 10000 2.6 0 19:24 09.07.2019
5432 Clear 33 1013 26 10000 2.1 280 18:49 09.07.2019
5433 Clear 33 1013 26 10000 2.1 0 18:27 09.07.2019
5434 Clear 32 1014 27 10000 1.5 0 17:57 09.07.2019
5435 Clear 32 1014 27 10000 2.6 20 17:39 09.07.2019
5436 Clear 32 1014 27 10000 2.6 20 17:20 09.07.2019
5437 Clear 31 1014 29 10000 2.6 0 16:50 09.07.2019
5438 Clear 31 1015 29 10000 2.6 320 16:25 09.07.2019
5439 Clear 30 1015 30 10000 1.5 0 15:55 09.07.2019
5440 Clear 29 1015 32 9000 3.1 350 15:36 09.07.2019
5441 Clear 29 1016 32 10000 3.1 0 14:59 09.07.2019
5442 Clear 28 1016 37 10000 1 0 14:39 09.07.2019
5443 Clear 28 1016 37 10000 1 0 14:20 09.07.2019
5444 Clear 27 1016 39 10000 2.1 0 13:45 09.07.2019
5445 Clear 26 1017 44 7000 2.6 0 13:27 09.07.2019
5446 Clear 25 1017 47 8000 1.5 300 12:42 09.07.2019
5447 Clear 25 1017 47 8000 1.5 300 12:23 09.07.2019
5448 Clear 24 1017 50 6000 1.5 0 11:58 09.07.2019
5449 Clear 24 1017 50 8000 1 0 11:40 09.07.2019
5450 Clear 24 1017 50 8000 1 0 11:21 09.07.2019
5451 Clear 23 1017 53 7000 1.5 0 10:57 09.07.2019
5452 Clear 23 1017 56 6000 1 0 10:34 09.07.2019
5453 Clear 21 1016 64 7000 0.5 0 09:48 09.07.2019
5454 Clear 20 1016 68 7000 1.5 250 09:29 09.07.2019
5455 Clear 18 1016 72 9000 1.5 240 08:59 09.07.2019
5456 Clear 18 1016 72 10000 1.5 250 08:40 09.07.2019
5457 Clear 16 1017 82 0 1.29 283.314 04:18 05.07.2019
5458 Clear 16 1017 82 0 1.29 283.314 03:38 05.07.2019
5459 Clear 17 1018 72 0 1.37 329.488 03:19 05.07.2019
5460 Clear 17 1018 72 0 1.37 329.488 02:49 05.07.2019
5461 Clouds 24 1018 50 10000 2.1 20 01:52 05.07.2019
5462 Clouds 24 1018 50 10000 2.1 20 01:25 05.07.2019
5463 Clouds 24 1018 50 10000 2.1 20 00:48 05.07.2019
5464 Clouds 24 1017 50 10000 3.6 20 00:25 05.07.2019
5465 Clouds 26 1016 41 10000 4.6 10 23:23 04.07.2019
5466 Clouds 26 1016 41 10000 4.6 10 23:23 04.07.2019
5467 Clouds 27 1016 39 10000 4.6 360 22:59 04.07.2019
5468 Clouds 28 1015 37 10000 4.1 250 22:40 04.07.2019
5469 Clouds 28 1015 37 10000 4.1 250 22:19 04.07.2019
5470 Clouds 32 1015 24 10000 4.1 230 21:41 04.07.2019
5471 Clouds 32 1015 24 10000 4.1 230 21:22 04.07.2019
5472 Clouds 32 1015 24 10000 3.6 260 20:58 04.07.2019
5473 Clouds 33 1015 24 10000 1 0 20:37 04.07.2019
5474 Clouds 33 1015 24 10000 1 0 20:18 04.07.2019
5475 Clouds 33 1015 24 10000 1 0 20:18 04.07.2019
5476 Clear 28 1015 37 0 7.54 328.163 19:41 04.07.2019
5477 Clouds 33 1015 26 10000 1 0 19:21 04.07.2019
5478 Clouds 33 1015 26 10000 1 0 18:46 04.07.2019
5479 Clouds 33 1015 26 10000 1 0 18:27 04.07.2019
5480 Clouds 32 1015 29 10000 2.1 0 17:55 04.07.2019
5481 Clouds 32 1015 29 10000 2.1 0 17:37 04.07.2019
5482 Clouds 32 1015 29 10000 2.1 0 17:18 04.07.2019
5483 Clouds 30 1016 35 10000 2.1 310 15:42 04.07.2019
5484 Clouds 30 1016 35 10000 2.1 310 15:24 04.07.2019
5485 Clouds 29 1016 37 10000 2.1 330 14:58 04.07.2019
5486 Clear 28 1016 39 10000 2.1 0 14:38 04.07.2019
5487 Clear 28 1016 39 10000 2.1 0 14:19 04.07.2019
5488 Clear 27 1016 42 10000 1 0 13:55 04.07.2019
5489 Clear 26 1017 44 10000 2.6 330 13:37 04.07.2019
5490 Clear 26 1017 44 10000 2.6 330 13:18 04.07.2019
5491 Clear 26 1016 44 10000 1 0 12:38 04.07.2019
5492 Clear 26 1016 44 10000 1 0 12:19 04.07.2019
5493 Clear 23 1017 53 8000 2.1 40 11:42 04.07.2019
5494 Clear 23 1017 53 8000 2.1 40 11:20 04.07.2019
5495 Clear 22 1017 56 9000 2.1 50 10:44 04.07.2019
5496 Clear 21 1016 60 7000 2.1 50 10:25 04.07.2019
5497 Clear 20 1017 64 9000 1 0 09:46 04.07.2019
5498 Clear 19 1016 68 10000 1.5 250 09:26 04.07.2019
5499 Clear 18 1016 68 10000 2.1 240 08:57 04.07.2019
5500 Clear 18 1016 68 10000 2.1 240 08:57 04.07.2019
5501 Clear 17 1016 72 10000 2.1 230 08:29 04.07.2019
5502 Clear 16 1016 77 10000 1.5 250 07:57 04.07.2019
5503 Clear 17 1016 72 10000 1.5 240 07:37 04.07.2019
5504 Clear 17 1016 72 10000 1.5 240 07:18 04.07.2019
5505 Clear 17 1016 72 10000 1.5 230 05:59 04.07.2019
5506 Clear 18 1016 68 10000 2.6 220 05:41 04.07.2019
5507 Clear 19 1016 68 10000 2.6 230 03:48 04.07.2019
5508 Clear 21 1016 60 10000 2.6 350 01:48 04.07.2019
5509 Clear 22 1016 56 10000 2.1 330 01:26 04.07.2019
5510 Clear 23 1016 53 10000 2.1 30 00:39 04.07.2019
5511 Clear 24 1016 50 10000 2.1 10 23:52 03.07.2019
5512 Clear 24 1015 50 10000 4.1 350 23:20 03.07.2019
5513 Clear 25 1015 44 10000 4.6 350 22:56 03.07.2019
5514 Clear 27 1014 39 9000 5.7 350 22:36 03.07.2019
5515 Clear 27 1014 39 9000 5.7 350 22:18 03.07.2019
5516 Clouds 28 1014 37 7000 5.1 330 21:47 03.07.2019
5517 Clouds 31 1013 27 10000 2.1 290 21:28 03.07.2019
5518 Clouds 32 1013 27 10000 2.1 320 20:47 03.07.2019
5519 Clouds 32 1013 27 10000 2.1 320 20:28 03.07.2019
5520 Clouds 32 1013 27 10000 2.1 0 19:57 03.07.2019
5521 Clouds 31 1013 29 10000 3.1 0 19:39 03.07.2019
5522 Clouds 32 1014 27 10000 3.1 300 18:55 03.07.2019
5523 Clouds 31 1014 31 10000 3.1 0 18:37 03.07.2019
5524 Clouds 31 1014 31 10000 3.1 0 18:18 03.07.2019
5525 Clouds 31 1014 31 10000 3.1 0 17:45 03.07.2019
5526 Clouds 31 1014 31 10000 2.6 330 17:18 03.07.2019
5527 Clouds 30 1014 33 10000 2.1 40 16:44 03.07.2019
5528 Clouds 30 1014 33 10000 2.1 0 16:23 03.07.2019
5529 Clear 29 1014 37 10000 1.5 0 15:52 03.07.2019
5530 Clear 29 1014 37 10000 1.5 0 15:52 03.07.2019
5531 Clear 29 1015 37 10000 2.6 10 15:32 03.07.2019
5532 Clear 28 1015 39 10000 2.6 290 14:59 03.07.2019
5533 Clear 28 1015 39 10000 2.6 0 14:41 03.07.2019
5534 Clear 26 1016 44 10000 1.5 0 14:19 03.07.2019
5535 Clear 26 1016 44 10000 1.5 320 13:43 03.07.2019
5536 Clear 26 1016 44 10000 1.5 320 13:24 03.07.2019
5537 Clear 25 1016 47 10000 1 0 12:45 03.07.2019
5538 Clear 24 1016 50 10000 2.1 0 12:18 03.07.2019
5539 Clear 22 1016 56 10000 1 0 11:43 03.07.2019
5540 Clear 22 1016 56 10000 1 0 11:22 03.07.2019
5541 Clear 21 1016 60 10000 2.1 70 10:44 03.07.2019
5542 Clear 21 1016 60 10000 2.1 70 10:25 03.07.2019
5543 Clear 21 1016 60 10000 0.5 0 09:57 03.07.2019
5544 Clear 18 1016 72 10000 1 260 09:38 03.07.2019
5545 Clear 18 1016 72 10000 1 260 09:19 03.07.2019
5546 Clear 17 1016 72 10000 1.5 260 08:50 03.07.2019
5547 Clear 16 1016 77 10000 1.5 260 08:26 03.07.2019
5548 Clear 17 1015 72 10000 1 0 07:39 03.07.2019
5549 Clear 17 1015 72 10000 1 0 07:19 03.07.2019
5550 Clear 17 1015 72 10000 1.5 230 06:25 03.07.2019
5551 Clear 17 1015 72 10000 1.5 240 05:32 03.07.2019
5552 Clear 18 1016 72 0 2.6 230 04:34 03.07.2019
5553 Clear 19 1016 68 10000 2.6 230 03:23 03.07.2019
5554 Clear 22 1016 53 10000 3.1 350 01:46 03.07.2019
5555 Clear 22 1016 53 10000 3.1 350 01:21 03.07.2019
5556 Clear 23 1016 49 10000 2.1 310 00:42 03.07.2019
5557 Clear 23 1016 49 10000 3.1 50 23:59 02.07.2019
5558 Clear 24 1015 47 10000 3.6 10 23:37 02.07.2019
5559 Clear 24 1015 47 10000 3.6 10 23:19 02.07.2019
5560 Clear 25 1015 44 9000 5.7 350 22:55 02.07.2019
5561 Clear 27 1014 36 10000 4.6 360 22:37 02.07.2019
5562 Clear 27 1014 36 10000 4.6 360 22:18 02.07.2019
5563 Clear 32 1014 25 10000 4.1 340 21:42 02.07.2019
5564 Clear 32 1014 25 10000 4.1 340 21:21 02.07.2019
5565 Clear 33 1014 26 10000 3.6 330 20:57 02.07.2019
5566 Clear 33 1013 26 10000 3.6 320 20:39 02.07.2019
5567 Clear 33 1013 26 10000 3.6 320 20:20 02.07.2019
5568 Clear 34 1014 24 10000 2.6 310 19:42 02.07.2019
5569 Clear 34 1014 24 10000 2.6 310 19:23 02.07.2019
5570 Clear 33 1014 27 10000 2.6 320 18:48 02.07.2019
5571 Clear 33 1014 27 10000 2.6 320 18:19 02.07.2019
5572 Clear 33 1015 29 10000 1.5 50 17:43 02.07.2019
5573 Clear 33 1015 29 10000 1.5 50 17:23 02.07.2019
5574 Clear 32 1015 31 10000 3.1 330 16:53 02.07.2019
5575 Clear 31 1016 33 10000 3.1 310 16:34 02.07.2019
5576 Clear 31 1016 33 10000 3.1 310 15:47 02.07.2019
5577 Clear 31 1016 33 10000 1.5 0 15:27 02.07.2019
5578 Clear 30 1016 35 10000 2.6 320 14:57 02.07.2019
5579 Clear 28 1016 42 10000 2.6 10 14:39 02.07.2019
5580 Clear 28 1016 42 10000 2.6 10 14:20 02.07.2019
5581 Clear 28 1017 42 10000 1.5 0 13:40 02.07.2019
5582 Clear 28 1017 42 10000 1.5 0 13:18 02.07.2019
5583 Clear 25 1017 50 10000 1.5 0 12:44 02.07.2019
5584 Clear 25 1017 50 10000 1.5 0 12:22 02.07.2019
5585 Clouds 23 1017 56 9000 1 0 11:44 02.07.2019
5586 Clouds 23 1017 56 9000 1 0 11:44 02.07.2019
5587 Clouds 23 1017 56 9000 1 0 11:23 02.07.2019
5588 Clouds 23 1017 56 9000 1 0 10:55 02.07.2019
5589 Clear 22 1017 60 10000 1 0 10:29 02.07.2019
5590 Clouds 19 1018 72 8000 1 0 09:57 02.07.2019
5591 Clear 18 1018 77 8000 1.5 240 09:22 02.07.2019
5592 Clear 17 1017 77 10000 3.1 220 08:57 02.07.2019
5593 Clear 17 1017 77 10000 3.1 220 08:37 02.07.2019
5594 Clear 17 1017 82 10000 2.6 220 07:59 02.07.2019
5595 Clear 17 1017 82 10000 2.6 220 07:21 02.07.2019
5596 Clear 17 1017 77 10000 2.6 230 06:59 02.07.2019
5597 Clear 18 1017 77 10000 3.1 220 06:36 02.07.2019
5598 Clear 18 1018 72 10000 1.5 240 05:26 02.07.2019
5599 Clear 21 1019 60 10000 2.6 230 02:38 02.07.2019
5600 Clear 24 1019 50 10000 3.6 330 00:28 02.07.2019
5601 Clear 25 1018 47 10000 3.6 40 23:32 01.07.2019
5602 Clear 27 1018 42 10000 4.1 30 22:54 01.07.2019
5603 Clear 27 1018 42 10000 4.1 30 22:54 01.07.2019
5604 Clear 28 1017 37 10000 4.6 350 22:36 01.07.2019
5605 Clear 28 1017 37 10000 4.6 350 22:18 01.07.2019
5606 Clear 32 1016 29 10000 5.1 350 21:43 01.07.2019
5607 Clear 32 1016 29 10000 5.1 350 21:24 01.07.2019
5608 Clear 34 1016 24 10000 4.6 330 20:46 01.07.2019
5609 Clouds 36 1016 20 10000 1.5 10 20:20 01.07.2019
5610 Clouds 35 1016 21 10000 2.6 320 19:54 01.07.2019
5611 Clouds 35 1016 21 10000 1.5 0 19:36 01.07.2019
5612 Clouds 35 1016 21 10000 1.5 0 19:18 01.07.2019
5613 Clouds 36 1017 19 10000 2.1 300 18:42 01.07.2019
5614 Clouds 36 1017 19 10000 2.1 300 18:21 01.07.2019
5615 Clouds 35 1017 21 10000 2.6 310 17:45 01.07.2019
5616 Clouds 35 1017 23 10000 2.6 0 17:25 01.07.2019
5617 Clouds 35 1017 24 10000 2.6 300 16:56 01.07.2019
5618 Clouds 34 1017 28 10000 2.1 0 16:38 01.07.2019
5619 Clouds 34 1018 30 10000 1.5 350 16:19 01.07.2019
5620 Clouds 33 1018 33 10000 1 0 15:42 01.07.2019
5621 Clouds 33 1018 33 10000 1 0 15:22 01.07.2019
5622 Clear 30 1019 37 10000 3.1 10 14:44 01.07.2019
5623 Clear 29 1019 42 10000 1 0 14:20 01.07.2019
5624 Clear 29 1019 42 10000 1 0 13:45 01.07.2019
5625 Clear 27 1019 51 10000 1.5 330 13:24 01.07.2019
5626 Clear 27 1019 51 10000 1.5 330 12:56 01.07.2019
5627 Clear 26 1020 54 10000 1.5 70 12:37 01.07.2019
5628 Clear 25 1020 53 10000 1.5 40 12:19 01.07.2019
5629 Clear 24 1020 60 10000 1 0 11:43 01.07.2019
5630 Clear 24 1020 60 10000 1 0 11:22 01.07.2019
5631 Clear 22 1020 64 10000 1.5 110 10:48 01.07.2019
5632 Clear 22 1020 64 10000 1.5 110 10:24 01.07.2019
5633 Clear 20 1020 72 10000 1 0 09:58 01.07.2019
5634 Clear 19 1020 77 10000 1.5 200 09:40 01.07.2019
5635 Clear 19 1020 77 10000 1.5 200 09:21 01.07.2019
5636 Clear 17 1020 88 10000 1.5 240 08:38 01.07.2019
5637 Clear 17 1020 88 10000 1 0 07:57 01.07.2019
5638 Clear 17 1020 88 10000 2.6 230 07:27 01.07.2019
5639 Clear 18 1019 82 10000 3.1 230 06:27 01.07.2019
5640 Clear 24 1020 57 10000 4.1 20 01:43 01.07.2019
5641 Clouds 25 1020 53 10000 3.1 360 00:49 01.07.2019
5642 Clouds 25 1020 53 10000 3.1 360 00:29 01.07.2019
5643 Clouds 25 1020 53 10000 2.1 220 23:56 30.06.2019
5644 Clouds 26 1019 50 10000 3.1 250 23:21 30.06.2019
5645 Clouds 29 1018 42 10000 3.6 260 22:52 30.06.2019
5646 Clouds 29 1018 42 10000 3.6 260 22:21 30.06.2019
5647 Clouds 33 1018 29 10000 2.6 260 21:42 30.06.2019
5648 Clouds 33 1018 29 10000 2.6 260 21:22 30.06.2019
5649 Clouds 33 1018 31 10000 2.6 240 20:57 30.06.2019
5650 Clouds 34 1018 30 10000 1.5 0 20:39 30.06.2019
5651 Clear 34 1018 30 10000 0.5 0 20:21 30.06.2019
5652 Clear 34 1018 30 10000 1.5 320 19:44 30.06.2019
5653 Clear 34 1018 30 10000 1.5 320 19:25 30.06.2019
5654 Clear 35 1018 30 10000 0.5 0 18:39 30.06.2019
5655 Clear 34 1018 32 10000 1 0 18:20 30.06.2019
5656 Clear 33 1019 31 10000 1 0 17:39 30.06.2019
5657 Clear 32 1019 33 10000 1.5 270 17:18 30.06.2019
5658 Clear 32 1019 35 10000 1.5 0 16:49 30.06.2019
5659 Clear 32 1019 35 10000 1.5 0 16:27 30.06.2019
5660 Clear 32 1019 35 10000 1.5 0 16:27 30.06.2019
5661 Clear 30 1020 40 10000 1.5 0 15:38 30.06.2019
5662 Clear 29 1020 42 10000 2.1 0 15:19 30.06.2019
5663 Clear 29 1020 42 10000 2.1 0 14:54 30.06.2019
5664 Clear 29 1020 45 10000 2.6 0 14:35 30.06.2019
5665 Clear 28 1020 48 10000 1 0 13:49 30.06.2019
5666 Clear 28 1020 48 10000 1 0 13:30 30.06.2019
5667 Clear 26 1020 54 10000 1.5 10 12:57 30.06.2019
5668 Clear 25 1020 53 10000 1.5 0 12:39 30.06.2019
5669 Clear 24 1020 57 10000 1 0 12:19 30.06.2019
5670 Clear 23 1020 60 10000 0.5 0 11:45 30.06.2019
5671 Clear 23 1020 60 10000 1 0 11:21 30.06.2019
5672 Clear 23 1020 60 10000 1 0 11:21 30.06.2019
5673 Clear 23 1020 60 10000 1 0 10:55 30.06.2019
5674 Clear 21 1020 68 10000 2.1 250 10:36 30.06.2019
5675 Clear 20 1019 72 10000 2.1 240 10:18 30.06.2019
5676 Clear 18 1019 82 10000 2.6 240 09:43 30.06.2019
5677 Clear 18 1019 82 10000 2.6 240 09:20 30.06.2019
5678 Clouds 18 1019 82 0 2.6 230 08:40 30.06.2019
5679 Clouds 18 1019 82 0 2.6 230 08:21 30.06.2019
5680 Clouds 18 1019 77 0 2.1 230 07:50 30.06.2019
5681 Clouds 18 1019 77 0 2.1 230 07:24 30.06.2019
5682 Clear 17 1018 82 10000 1 250 06:37 30.06.2019
5683 Clear 21 1018 68 10000 2.6 240 03:34 30.06.2019
5684 Clear 21 1018 64 10000 2.6 250 01:58 30.06.2019
5685 Clear 23 1018 60 9000 4.6 280 00:48 30.06.2019
5686 Clear 23 1018 60 9000 4.6 280 00:24 30.06.2019
5687 Clear 25 1018 53 10000 2.6 310 23:53 29.06.2019
5688 Clear 25 1017 53 10000 3.6 340 23:23 29.06.2019
5689 Clear 26 1017 50 10000 4.1 350 22:52 29.06.2019
5690 Clear 28 1016 45 10000 4.1 350 22:25 29.06.2019
5691 Clear 30 1015 40 10000 5.7 260 21:56 29.06.2019
5692 Clear 30 1015 40 10000 5.7 260 21:38 29.06.2019
5693 Clear 32 1015 35 10000 4.1 270 21:19 29.06.2019
5694 Clear 34 1014 30 10000 1.5 310 20:36 29.06.2019
5695 Clear 34 1014 30 10000 2.1 350 20:18 29.06.2019
5696 Clear 34 1014 30 10000 3.1 300 19:43 29.06.2019
5697 Clear 34 1014 30 10000 3.1 300 19:21 29.06.2019
5698 Clear 34 1015 30 10000 3.1 310 18:48 29.06.2019
5699 Clear 34 1015 30 10000 3.1 310 18:25 29.06.2019
5700 Clear 33 1015 31 10000 3.1 350 17:40 29.06.2019
5701 Clear 33 1015 31 10000 3.1 350 17:21 29.06.2019
5702 Clear 32 1015 33 10000 2.6 340 16:45 29.06.2019
5703 Clear 32 1015 33 10000 2.6 340 16:25 29.06.2019
5704 Clear 30 1016 40 10000 1.5 0 15:34 29.06.2019
5705 Clear 30 1016 40 10000 1.5 0 14:59 29.06.2019
5706 Clear 29 1016 42 10000 1 0 14:41 29.06.2019
5707 Clear 29 1016 42 10000 1 0 14:22 29.06.2019
5708 Clear 27 1016 47 10000 2.6 310 13:44 29.06.2019
5709 Clear 27 1016 47 10000 2.6 310 13:25 29.06.2019
5710 Clear 26 1016 50 10000 2.1 240 12:43 29.06.2019
5711 Clear 26 1016 50 10000 2.1 240 12:24 29.06.2019
5712 Clouds 24 1016 57 9000 1.5 230 11:48 29.06.2019
5713 Clouds 24 1016 57 9000 1.5 230 11:29 29.06.2019
5714 Clouds 23 1016 60 8000 1 0 10:52 29.06.2019
5715 Clouds 22 1016 64 8000 0.5 0 10:29 29.06.2019
5716 Clouds 20 1016 72 9000 1.5 250 09:58 29.06.2019
5717 Clear 19 1016 77 10000 2.6 230 09:29 29.06.2019
5718 Clear 17 1016 82 10000 3.1 220 08:37 29.06.2019
5719 Clear 17 1015 82 10000 3.1 230 07:46 29.06.2019
5720 Clear 17 1015 82 10000 3.6 230 07:19 29.06.2019
5721 Clear 18 1015 77 10000 3.6 230 06:41 29.06.2019
5722 Clear 18 1015 77 10000 3.6 230 06:20 29.06.2019
5723 Clear 21 1016 64 10000 2.1 240 02:26 29.06.2019
5724 Clear 23 1016 53 10000 3.1 40 00:57 29.06.2019
5725 Clouds 25 1016 47 10000 4.1 20 23:59 28.06.2019
5726 Clouds 26 1015 44 10000 4.6 20 23:23 28.06.2019
5727 Clouds 27 1015 42 10000 4.6 10 22:53 28.06.2019
5728 Clouds 28 1014 39 8000 5.7 350 22:27 28.06.2019
5729 Clouds 30 1014 37 10000 4.1 360 21:46 28.06.2019
5730 Clouds 31 1014 35 10000 4.1 330 21:21 28.06.2019
5731 Clouds 33 1013 33 10000 3.1 0 20:46 28.06.2019
5732 Clouds 33 1013 33 10000 3.1 0 20:25 28.06.2019
5733 Clouds 33 1013 33 10000 2.1 0 19:53 28.06.2019
5734 Clouds 33 1013 33 10000 2.1 0 19:27 28.06.2019
5735 Clouds 33 1013 33 10000 2.1 290 18:45 28.06.2019
5736 Clouds 33 1013 33 10000 2.1 290 18:22 28.06.2019
5737 Clouds 33 1013 33 10000 2.6 0 17:59 28.06.2019
5738 Clouds 33 1013 33 10000 2.6 0 17:29 28.06.2019
5739 Clouds 31 1014 38 10000 1.5 340 16:50 28.06.2019
5740 Clouds 31 1014 38 10000 1.5 340 16:27 28.06.2019
5741 Clear 30 1014 40 10000 2.1 20 15:48 28.06.2019
5742 Clear 30 1014 40 10000 2.1 20 15:23 28.06.2019
5743 Clear 28 1015 45 10000 2.1 0 14:43 28.06.2019
5744 Clear 28 1015 45 10000 2.1 0 14:23 28.06.2019
5745 Clear 28 1015 42 10000 2.6 320 13:58 28.06.2019
5746 Clear 28 1015 42 10000 1.5 0 13:39 28.06.2019
5747 Clear 26 1015 47 10000 2.6 320 13:19 28.06.2019
5748 Clear 25 1015 53 10000 2.1 320 12:45 28.06.2019
5749 Clouds 24 1015 53 8000 2.1 270 11:54 28.06.2019
5750 Clouds 24 1015 53 6000 1.5 300 11:25 28.06.2019
5751 Clouds 23 1015 56 6000 0.5 0 10:45 28.06.2019
5752 Clouds 23 1015 56 6000 0.5 0 10:21 28.06.2019
5753 Clouds 21 1015 64 7000 1 0 09:49 28.06.2019
5754 Clouds 21 1015 64 7000 1 0 09:29 28.06.2019
5755 Clouds 18 1015 77 10000 2.1 20 08:47 28.06.2019
5756 Clouds 18 1015 77 10000 2.1 20 08:26 28.06.2019
5757 Clouds 18 1015 77 10000 0.5 0 07:47 28.06.2019
5758 Clouds 18 1015 77 10000 0.5 0 07:28 28.06.2019
5759 Clouds 19 1015 72 10000 2.62 32.836 06:21 28.06.2019
5760 Clouds 21 1017 68 10000 3.6 30 01:39 28.06.2019
5761 Clouds 23 1017 60 10000 5.7 30 00:42 28.06.2019
5762 Clouds 23 1017 60 10000 4.1 360 23:51 27.06.2019
5763 Clouds 24 1017 57 10000 4.1 10 23:28 27.06.2019
5764 Clouds 24 1016 57 10000 4.6 360 22:56 27.06.2019
5765 Clouds 26 1016 54 10000 3.1 360 22:37 27.06.2019
5766 Clouds 26 1016 54 10000 3.1 360 22:18 27.06.2019
5767 Clouds 27 1016 51 10000 3.6 20 21:48 27.06.2019
5768 Clouds 27 1016 51 10000 3.6 20 21:29 27.06.2019
5769 Clouds 27 1016 51 10000 3.6 10 20:57 27.06.2019
5770 Clouds 27 1016 51 10000 3.6 340 20:39 27.06.2019
5771 Clouds 28 1016 48 10000 3.1 350 20:19 27.06.2019
5772 Clouds 28 1016 48 10000 3.1 330 19:44 27.06.2019
5773 Clouds 28 1016 48 10000 3.1 330 19:25 27.06.2019
5774 Clouds 27 1016 51 10000 2.1 0 18:43 27.06.2019
5775 Clouds 27 1016 51 10000 1.5 0 18:21 27.06.2019
5776 Clouds 27 1016 51 10000 1.5 360 17:44 27.06.2019
5777 Clouds 27 1016 51 10000 1.5 360 17:22 27.06.2019
5778 Clouds 27 1016 51 10000 1.5 360 17:22 27.06.2019
5779 Clouds 26 1016 54 10000 2.1 0 16:40 27.06.2019
5780 Clouds 25 1017 57 10000 2.6 300 16:20 27.06.2019
5781 Clouds 25 1017 57 10000 2.6 300 15:56 27.06.2019
5782 Clouds 24 1017 60 10000 2.6 290 15:36 27.06.2019
5783 Clouds 24 1017 57 10000 2.1 0 14:59 27.06.2019
5784 Clouds 24 1017 57 10000 1.5 270 14:39 27.06.2019
5785 Clouds 23 1017 60 10000 2.1 320 14:21 27.06.2019
5786 Clouds 23 1017 60 10000 1 0 13:43 27.06.2019
5787 Clouds 23 1017 60 10000 1 0 13:25 27.06.2019
5788 Clouds 22 1017 64 10000 2.1 310 12:49 27.06.2019
5789 Clouds 22 1017 64 10000 2.1 310 12:31 27.06.2019
5790 Clouds 22 1018 64 10000 1.5 330 11:48 27.06.2019
5791 Clouds 22 1018 64 10000 1.5 330 11:24 27.06.2019
5792 Clouds 22 1017 60 10000 1 0 10:58 27.06.2019
5793 Clouds 21 1017 64 10000 2.6 240 10:40 27.06.2019
5794 Clouds 21 1017 64 10000 2.6 220 10:19 27.06.2019
5795 Clouds 21 1017 64 10000 2.6 220 09:41 27.06.2019
5796 Clouds 21 1017 64 10000 2.6 220 09:20 27.06.2019
5797 Clouds 21 1017 64 10000 2.1 230 08:50 27.06.2019
5798 Clouds 21 1017 64 10000 2.1 230 08:28 27.06.2019
5799 Clouds 21 1017 64 10000 1.5 60 07:46 27.06.2019
5800 Clouds 21 1017 64 10000 0.5 0 06:58 27.06.2019
5801 Clouds 21 1017 64 10000 1 0 06:37 27.06.2019
5802 Clouds 21 1017 64 10000 2.6 20 03:52 27.06.2019
5803 Clouds 22 1017 64 10000 3.1 10 02:43 27.06.2019
5804 Clouds 22 1018 68 10000 3.6 360 01:45 27.06.2019
5805 Clouds 22 1018 64 10000 5.1 30 00:53 27.06.2019
5806 Clouds 23 1018 64 10000 4.6 10 00:27 27.06.2019
5807 Clouds 25 1017 57 10000 4.1 10 23:51 26.06.2019
5808 Clouds 25 1017 57 10000 4.1 10 23:23 26.06.2019
5809 Clouds 26 1017 54 10000 4.1 10 22:59 26.06.2019
5810 Clouds 27 1016 47 10000 3.1 260 22:40 26.06.2019
5811 Clouds 28 1016 42 10000 3.1 260 22:19 26.06.2019
5812 Clouds 29 1016 42 10000 2.6 250 21:43 26.06.2019
5813 Clouds 29 1016 42 10000 2.6 240 21:21 26.06.2019
5814 Clouds 29 1016 42 10000 2.6 240 20:57 26.06.2019
5815 Clouds 29 1016 42 10000 1 0 20:38 26.06.2019
5816 Clouds 29 1016 42 10000 1 0 20:20 26.06.2019
5817 Clouds 29 1016 42 10000 2.1 310 19:43 26.06.2019
5818 Clouds 29 1016 42 10000 2.1 310 19:25 26.06.2019
5819 Clouds 29 1016 42 10000 3.1 290 18:46 26.06.2019
5820 Clouds 29 1016 42 10000 3.1 290 18:23 26.06.2019
5821 Clouds 28 1016 48 10000 1.5 0 17:58 26.06.2019
5822 Clouds 28 1017 48 10000 1.5 10 17:38 26.06.2019
5823 Clouds 28 1017 48 10000 1.5 330 17:19 26.06.2019
5824 Clouds 27 1017 51 10000 2.1 260 16:46 26.06.2019
5825 Clouds 27 1017 51 10000 2.1 260 16:23 26.06.2019
5826 Clouds 27 1018 51 8000 1.5 340 15:42 26.06.2019
5827 Clouds 27 1018 51 8000 1.5 340 15:23 26.06.2019
5828 Clouds 27 1018 51 9000 0.5 0 14:38 26.06.2019
5829 Clouds 25 1018 61 8000 2.1 310 14:19 26.06.2019
5830 Clouds 24 1018 60 9000 2.1 310 13:44 26.06.2019
5831 Clouds 24 1018 60 9000 2.1 310 13:20 26.06.2019
5832 Clouds 23 1018 64 9000 1.5 310 12:42 26.06.2019
5833 Clouds 23 1018 64 9000 1.5 310 12:42 26.06.2019
5834 Clouds 23 1018 64 9000 1.5 310 12:23 26.06.2019
5835 Clouds 21 1018 73 10000 2.6 270 11:49 26.06.2019
5836 Clouds 21 1018 73 10000 2.6 270 11:21 26.06.2019
5837 Clouds 21 1018 73 10000 2.6 260 10:46 26.06.2019
5838 Clouds 21 1018 73 10000 2.6 260 10:27 26.06.2019
5839 Clouds 20 1018 77 10000 2.1 240 09:49 26.06.2019
5840 Clouds 20 1018 77 6000 2.6 240 09:20 26.06.2019
5841 Clouds 20 1018 77 6000 2.6 240 08:49 26.06.2019
5842 Clouds 20 1018 77 6000 2.6 240 08:20 26.06.2019
5843 Clouds 19 1018 82 6000 3.1 240 07:46 26.06.2019
5844 Clouds 19 1018 82 6000 3.1 240 06:57 26.06.2019
5845 Clouds 19 1018 82 6000 3.1 240 06:31 26.06.2019
5846 Clouds 22 1018 64 10000 3.6 250 01:25 26.06.2019
5847 Clouds 23 1018 60 10000 3.6 250 00:25 26.06.2019
5848 Clouds 26 1018 54 8000 4.6 310 23:46 25.06.2019
5849 Clouds 27 1017 51 8000 4.6 310 23:27 25.06.2019
5850 Clouds 27 1017 51 8000 4.6 310 22:57 25.06.2019
5851 Clouds 28 1016 48 8000 5.7 330 22:39 25.06.2019
5852 Clouds 29 1016 45 8000 5.1 310 22:20 25.06.2019
5853 Clear 32 1015 35 10000 7.7 270 21:44 25.06.2019
5854 Clear 32 1015 35 10000 7.7 270 21:22 25.06.2019
5855 Dust 32 1015 33 2000 8.2 270 20:46 25.06.2019
5856 Dust 32 1015 33 2000 8.2 270 20:46 25.06.2019
5857 Dust 32 1015 33 2000 8.2 270 20:23 25.06.2019
5858 Clear 34 1015 24 10000 5.1 250 19:54 25.06.2019
5859 Clear 34 1014 24 10000 4.1 280 19:36 25.06.2019
5860 Clear 35 1014 23 10000 1 0 19:18 25.06.2019
5861 Clear 34 1014 24 10000 2.6 270 18:40 25.06.2019
5862 Clear 34 1014 24 10000 2.1 250 18:21 25.06.2019
5863 Clear 34 1014 24 10000 2.1 250 18:21 25.06.2019
5864 -273 0 0 0 0 0 17:31 25.06.2019
5865 Clear 33 1015 26 10000 3.1 240 16:58 25.06.2019
5866 Clear 34 1015 26 10000 1 0 16:40 25.06.2019
5867 Clear 34 1015 26 10000 1 0 16:22 25.06.2019
5868 Clear 32 1016 29 10000 1.5 0 15:42 25.06.2019
5869 Clear 32 1016 29 10000 1.5 0 15:24 25.06.2019
5870 Clear 30 1016 30 10000 2.1 0 14:54 25.06.2019
5871 Clear 30 1016 30 10000 1 0 14:35 25.06.2019
5872 Clear 28 1016 39 10000 2.1 350 13:47 25.06.2019
5873 Clear 28 1016 39 10000 2.1 350 13:29 25.06.2019
5874 Clear 28 1016 42 10000 1.5 0 12:55 25.06.2019
5875 Clear 26 1017 50 10000 1 0 12:36 25.06.2019
5876 Clear 25 1017 53 10000 1.5 290 12:18 25.06.2019
5877 Clear 24 1017 60 10000 1.5 290 11:41 25.06.2019
5878 Clear 23 1017 64 10000 1 0 11:20 25.06.2019
5879 Clear 22 1017 68 10000 1.5 280 10:43 25.06.2019
5880 Clear 21 1017 73 10000 1.5 240 10:22 25.06.2019
5881 Clear 21 1017 73 10000 1.5 240 09:55 25.06.2019
5882 Clear 20 1017 77 10000 2.1 240 09:37 25.06.2019
5883 Clear 19 1017 82 10000 2.1 250 09:18 25.06.2019
5884 Clear 18 1017 82 10000 2.6 230 08:42 25.06.2019
5885 Clear 18 1017 82 10000 2.6 230 08:23 25.06.2019
5886 Clear 18 1016 82 10000 3.1 220 07:39 25.06.2019
5887 Clear 18 1016 82 10000 3.1 230 06:57 25.06.2019
5888 Clear 18 1016 82 10000 3.1 240 06:39 25.06.2019
5889 Clear 21 1017 64 10000 4.1 230 02:47 25.06.2019
5890 Clear 22 1017 56 10000 3.1 240 01:41 25.06.2019
5891 Clear 25 1017 44 10000 2.1 300 00:37 25.06.2019
5892 Clear 25 1017 44 10000 3.6 300 23:56 24.06.2019
5893 Clear 26 1016 41 10000 3.1 340 23:38 24.06.2019
5894 Clear 28 1015 37 9000 6.7 350 23:20 24.06.2019
5895 Clear 29 1015 32 9000 4.6 250 22:41 24.06.2019
5896 Clear 32 1014 18 10000 4.1 280 22:19 24.06.2019
5897 Clear 32 1014 18 10000 4.1 280 21:39 24.06.2019
5898 Clear 33 1014 19 10000 3.1 320 21:19 24.06.2019
5899 Clear 33 1014 19 10000 3.1 320 20:56 24.06.2019
5900 Clear 34 1014 18 10000 2.6 320 20:38 24.06.2019
5901 Clear 34 1014 18 10000 4.1 260 20:20 24.06.2019
5902 Clear 34 1014 18 10000 3.1 280 19:44 24.06.2019
5903 Clear 34 1014 18 10000 3.1 280 19:21 24.06.2019
5904 Clear 34 1014 21 10000 2.1 310 18:45 24.06.2019
5905 Clear 34 1014 21 10000 2.1 310 18:26 24.06.2019
5906 Clear 33 1014 24 10000 1 0 17:47 24.06.2019
5907 Clear 33 1014 24 10000 1 0 17:25 24.06.2019
5908 Clear 32 1014 25 10000 1 0 16:48 24.06.2019
5909 Clear 32 1014 25 10000 1 0 16:20 24.06.2019
5910 Clear 31 1015 25 10000 2.1 280 15:49 24.06.2019
5911 Clear 31 1015 25 10000 2.1 280 15:30 24.06.2019
5912 Clear 30 1015 28 10000 3.1 280 14:55 24.06.2019
5913 Clear 30 1015 28 10000 2.1 230 14:31 24.06.2019
5914 Clear 28 1015 34 10000 2.6 280 13:49 24.06.2019
5915 Clear 28 1015 34 10000 2.6 280 13:49 24.06.2019
5916 Clear 27 1015 34 10000 2.1 270 13:24 24.06.2019
5917 Clear 26 1015 36 10000 2.1 310 12:44 24.06.2019
5918 Clear 26 1015 36 10000 2.1 310 12:21 24.06.2019
5919 Clear 23 1015 49 10000 3.1 270 11:47 24.06.2019
5920 Clear 23 1015 49 10000 3.1 270 11:28 24.06.2019
5921 Clear 22 1015 53 10000 2.6 280 10:58 24.06.2019
5922 Clear 22 1015 53 10000 2.6 280 10:39 24.06.2019
5923 Clear 20 1015 60 10000 2.6 270 10:20 24.06.2019
5924 Clear 18 1015 63 10000 2.1 240 09:44 24.06.2019
5925 Clear 18 1015 63 10000 2.1 240 09:19 24.06.2019
5926 Clear 18 1015 63 10000 2.1 240 08:50 24.06.2019
5927 Clear 18 1015 59 10000 2.6 230 08:20 24.06.2019
5928 Clear 17 1015 63 10000 2.1 240 07:42 24.06.2019
5929 Clear 17 1015 63 10000 2.1 240 07:23 24.06.2019
5930 Clear 19 1014 52 10000 3.6 220 06:25 24.06.2019
5931 Clear 19 1014 52 0 3.6 230 05:52 24.06.2019
5932 Clear 19 1014 52 10000 1.5 250 04:58 24.06.2019
5933 Clear 20 1015 45 0 3.6 230 03:54 24.06.2019
5934 Clear 22 1016 43 8000 2.1 230 02:48 24.06.2019
5935 Clear 24 1016 33 8000 1.5 30 01:55 24.06.2019
5936 Clear 24 1016 36 400 2.1 20 01:34 24.06.2019
5937 Clear 24 1016 38 10000 1.5 20 00:55 24.06.2019
5938 Clear 25 1015 33 10000 3.1 20 00:23 24.06.2019
5939 Clear 25 1015 33 10000 3.1 20 23:58 23.06.2019
5940 Clear 25 1015 33 10000 2.1 350 23:40 23.06.2019
5941 Clear 26 1014 31 10000 4.6 350 23:20 23.06.2019
5942 Clear 27 1014 32 10000 5.1 340 22:41 23.06.2019
5943 Clear 28 1013 28 10000 6.2 350 22:20 23.06.2019
5944 Clear 30 1013 25 10000 5.1 340 21:42 23.06.2019
5945 Clear 30 1013 25 10000 5.1 340 21:23 23.06.2019
5946 Clear 31 1013 23 10000 5.7 330 20:52 23.06.2019
5947 Clear 31 1013 23 10000 5.7 330 20:52 23.06.2019
5948 Clear 33 1012 21 10000 4.1 340 20:32 23.06.2019
5949 Clear 34 1012 20 10000 3.1 350 19:57 23.06.2019
5950 Clear 34 1012 20 10000 2.1 340 19:38 23.06.2019
5951 Clear 34 1012 20 10000 2.6 0 19:19 23.06.2019
5952 Clear 34 1012 20 10000 2.1 0 18:44 23.06.2019
5953 Clear 34 1012 20 10000 3.1 350 18:20 23.06.2019
5954 Clear 34 1012 18 10000 3.6 0 17:42 23.06.2019
5955 Clear 34 1012 18 10000 3.6 0 17:22 23.06.2019
5956 Clear 33 1012 21 10000 2.6 290 16:45 23.06.2019
5957 Clear 33 1012 21 10000 2.6 290 16:25 23.06.2019
5958 Clear 33 1013 21 10000 2.6 360 15:54 23.06.2019
5959 Clear 32 1013 24 10000 3.6 310 15:36 23.06.2019
5960 Clear 31 1013 23 10000 3.1 340 15:18 23.06.2019
5961 Clear 30 1013 25 10000 2.1 340 14:38 23.06.2019
5962 Clear 30 1013 25 10000 2.6 330 14:20 23.06.2019
5963 Clear 28 1014 32 10000 2.6 320 13:42 23.06.2019
5964 Clear 28 1014 32 10000 2.6 320 13:21 23.06.2019
5965 Clear 28 1013 34 0 1.5 280 12:58 23.06.2019
5966 Clear 27 1013 36 10000 1.5 340 12:39 23.06.2019
5967 Clear 25 1014 44 10000 1.5 20 12:19 23.06.2019
5968 Clear 25 1014 41 10000 1.7 38.996 11:45 23.06.2019
5969 Clear 25 1014 41 10000 1.7 38.996 11:25 23.06.2019
5970 Clear 23 1014 49 10000 0.5 0 10:48 23.06.2019
5971 Clear 23 1014 49 10000 0.5 0 10:21 23.06.2019
5972 Clear 21 1014 56 10000 1.5 250 09:58 23.06.2019
5973 Clear 20 1014 60 10000 2.1 240 09:22 23.06.2019
5974 Clear 17 1014 67 10000 2.1 230 08:47 23.06.2019
5975 Clear 17 1014 67 10000 1.5 250 08:28 23.06.2019
5976 Clear 18 1014 63 10000 3.1 230 07:57 23.06.2019
5977 Clear 18 1014 63 10000 3.1 230 07:39 23.06.2019
5978 Clear 18 1014 63 10000 2.6 230 07:18 23.06.2019
5979 Clear 18 1014 63 10000 2.6 240 06:46 23.06.2019
5980 Clear 18 1014 68 10000 2.1 240 05:44 23.06.2019
5981 Clear 22 1015 53 10000 2.6 30 02:51 23.06.2019
5982 Clear 23 1015 46 10000 2.1 30 01:39 23.06.2019
5983 Clear 24 1015 44 10000 2.6 20 00:58 23.06.2019
5984 Clear 24 1015 44 10000 4.1 20 00:27 23.06.2019
5985 Clear 26 1014 34 10000 4.1 30 23:44 22.06.2019
5986 Clear 26 1014 34 10000 4.1 30 23:25 22.06.2019
5987 Clear 28 1013 28 10000 5.1 360 22:47 22.06.2019
5988 Clear 28 1013 28 10000 5.1 360 22:26 22.06.2019
5989 Clear 30 1013 25 10000 5.1 350 21:43 22.06.2019
5990 Clear 32 1012 22 10000 5.1 320 21:20 22.06.2019
5991 Clear 32 1012 22 10000 5.1 320 20:57 22.06.2019
5992 Clear 33 1012 21 10000 3.6 350 20:38 22.06.2019
5993 Clear 33 1012 21 10000 4.6 360 20:20 22.06.2019
5994 Clear 33 1012 21 10000 3.1 350 19:40 22.06.2019
5995 Clear 33 1012 21 10000 3.1 10 19:20 22.06.2019
5996 Clear 33 1012 22 10000 3.6 340 18:42 22.06.2019
5997 Clear 33 1012 22 10000 3.6 340 18:22 22.06.2019
5998 Clear 33 1012 24 10000 1.5 0 17:44 22.06.2019
5999 Clear 33 1012 24 10000 1.5 0 17:25 22.06.2019
6000 Clear 32 1013 27 10000 2.1 0 16:43 22.06.2019
6001 Clear 32 1013 27 10000 2.1 0 16:24 22.06.2019
6002 Clear 30 1014 30 10000 2.6 310 15:45 22.06.2019
6003 Clear 30 1014 30 10000 2.6 310 15:27 22.06.2019
6004 Clear 30 1014 30 10000 2.6 310 15:27 22.06.2019
6005 Clear 28 1014 34 10000 2.6 350 14:51 22.06.2019
6006 Clear 29 1014 35 10000 1.5 280 14:31 22.06.2019
6007 Clear 27 1015 39 10000 2.1 280 13:57 22.06.2019
6008 Clear 26 1015 41 10000 2.1 290 13:39 22.06.2019
6009 Clear 26 1015 44 10000 1.5 320 13:18 22.06.2019
6010 Clear 25 1015 47 10000 1.5 290 12:43 22.06.2019
6011 Clear 23 1015 53 10000 1.5 250 12:19 22.06.2019
6012 Clear 22 1015 56 8000 1.5 270 11:41 22.06.2019
6013 Clear 22 1015 56 8000 1.5 260 11:19 22.06.2019
6014 Clear 19 1016 68 10000 2.6 260 10:22 22.06.2019
6015 Clear 19 1016 68 10000 2.6 260 09:56 22.06.2019
6016 Clear 18 1015 72 10000 3.1 240 09:35 22.06.2019
6017 Clear 17 1015 77 10000 2.6 220 08:48 22.06.2019
6018 Clear 17 1015 77 10000 2.6 220 08:29 22.06.2019
6019 Clear 16 1015 82 10000 1.5 240 07:44 22.06.2019
6020 Clear 16 1014 77 0 1.5 270 07:20 22.06.2019
6021 Clear 18 1014 72 10000 2.1 230 06:40 22.06.2019
6022 Clear 20 1015 64 10000 2.1 30 03:42 22.06.2019
6023 Clear 20 1016 64 10000 3.1 20 02:24 22.06.2019
6024 Clear 22 1016 53 10000 2.6 20 00:52 22.06.2019
6025 Clear 22 1016 53 10000 3.1 40 00:29 22.06.2019
6026 Clear 23 1015 49 10000 6.2 20 23:49 21.06.2019
6027 Clear 23 1015 49 10000 6.2 20 23:23 21.06.2019
6028 Clear 24 1014 47 10000 5.1 20 22:56 21.06.2019
6029 Clear 25 1014 44 10000 6.7 10 22:32 21.06.2019
6030 Clear 27 1014 36 9000 7.2 360 21:58 21.06.2019
6031 Clear 29 1013 30 10000 7.2 350 21:38 21.06.2019
6032 Clear 29 1013 30 10000 7.2 350 21:38 21.06.2019
6033 Clear 29 1013 30 10000 7.2 350 21:38 21.06.2019
6034 Clear 31 1013 25 10000 4.6 10 21:19 21.06.2019
6035 Clear 32 1013 24 10000 5.7 20 20:47 21.06.2019
6036 Clear 32 1013 24 10000 5.7 20 20:24 21.06.2019
6037 Clear 32 1013 27 10000 3.1 40 19:38 21.06.2019
6038 Clear 33 1013 26 10000 2.6 80 18:56 21.06.2019
6039 Clear 33 1013 26 10000 1 0 18:35 21.06.2019
6040 Clear 32 1013 27 10000 3.6 20 17:56 21.06.2019
6041 Clear 31 1013 29 10000 3.6 20 17:30 21.06.2019
6042 Clear 30 1014 30 10000 3.1 350 16:43 21.06.2019
6043 Clear 30 1014 30 10000 3.1 350 16:43 21.06.2019
6044 Clear 30 1014 30 10000 3.1 350 16:23 21.06.2019
6045 Clear 29 1014 32 10000 3.1 60 15:53 21.06.2019
6046 Clear 29 1015 35 10000 3.6 360 15:33 21.06.2019
6047 Clear 28 1015 37 10000 2.6 360 14:54 21.06.2019
6048 Clear 28 1015 37 10000 2.1 0 14:31 21.06.2019
6049 Clear 27 1016 39 10000 2.1 30 13:59 21.06.2019
6050 Clear 26 1016 41 10000 3.1 350 13:37 21.06.2019
6051 Clear 25 1016 47 10000 2.6 330 13:19 21.06.2019
6052 Clear 24 1017 50 10000 2.1 0 12:42 21.06.2019
6053 Clear 24 1017 50 10000 2.1 0 12:22 21.06.2019
6054 Clear 23 1017 53 10000 1.5 70 11:48 21.06.2019
6055 Clear 23 1017 53 10000 1.5 70 11:28 21.06.2019
6056 Clear 22 1017 56 10000 2.1 40 10:56 21.06.2019
6057 Clear 21 1017 60 10000 1.5 30 10:38 21.06.2019
6058 Clear 20 1017 64 10000 2.1 50 10:20 21.06.2019
6059 Clear 19 1017 68 10000 2.6 30 09:42 21.06.2019
6060 Clear 19 1017 68 10000 2.6 30 09:21 21.06.2019
6061 Clear 18 1017 72 10000 2.6 40 08:45 21.06.2019
6062 Clear 18 1017 72 10000 2.6 40 08:27 21.06.2019
6063 Clear 18 1017 72 10000 2.6 40 08:27 21.06.2019
6064 Clear 17 1017 77 10000 1.5 40 07:56 21.06.2019
6065 Clear 17 1017 77 10000 2.1 40 07:38 21.06.2019
6066 Clear 18 1017 72 10000 2.1 30 06:58 21.06.2019
6067 Clear 18 1017 72 10000 2.6 30 06:24 21.06.2019
6068 Clear 18 1017 72 10000 2.1 40 05:32 21.06.2019
6069 Clear 19 1017 68 10000 2.1 60 04:31 21.06.2019
6070 Clear 20 1017 64 10000 3.6 30 03:35 21.06.2019
6071 Clear 20 1017 60 10000 3.1 10 02:58 21.06.2019
6072 Clear 21 1018 56 0 4.1 10 01:58 21.06.2019
6073 Clear 22 1018 53 10000 2.6 20 00:58 21.06.2019
6074 Clear 22 1018 53 10000 3.1 30 00:27 21.06.2019
6075 Clouds 22 1017 53 10000 4.6 20 23:53 20.06.2019
6076 Clouds 23 1016 49 10000 6.2 20 23:24 20.06.2019
6077 Clouds 24 1016 47 8000 6.7 350 22:58 20.06.2019
6078 Clouds 27 1015 42 8000 6.7 350 22:39 20.06.2019
6079 Clouds 27 1015 42 8000 6.7 350 22:21 20.06.2019
6080 Clouds 27 1015 42 8000 6.7 350 21:52 20.06.2019
6081 Clouds 31 1014 29 10000 2.6 350 21:19 20.06.2019
6082 Clouds 31 1014 29 10000 2.6 350 20:59 20.06.2019
6083 Clouds 32 1014 27 10000 3.1 340 20:40 20.06.2019
6084 Clouds 32 1014 29 10000 2.6 320 20:20 20.06.2019
6085 Clouds 32 1014 27 10000 3.1 310 19:43 20.06.2019
6086 Clouds 31 1014 29 10000 2.1 0 19:19 20.06.2019
6087 Clouds 32 1015 29 10000 2.6 300 18:55 20.06.2019
6088 Clouds 32 1015 29 10000 2.6 300 18:37 20.06.2019
6089 Clouds 31 1015 31 10000 3.1 0 18:18 20.06.2019
6090 Clouds 31 1015 33 10000 4.1 310 17:43 20.06.2019
6091 Clouds 30 1015 35 10000 2.1 60 17:19 20.06.2019
6092 Clouds 30 1015 35 10000 3.6 280 16:40 20.06.2019
6093 Clouds 29 1016 37 10000 3.1 290 16:19 20.06.2019
6094 Clouds 29 1016 39 10000 3.1 300 15:43 20.06.2019
6095 Clouds 29 1016 39 10000 3.1 300 15:23 20.06.2019
6096 Clouds 28 1016 42 10000 1.5 0 14:54 20.06.2019
6097 Clouds 28 1017 42 10000 1.5 330 14:36 20.06.2019
6098 Clouds 27 1017 44 10000 2.6 40 14:18 20.06.2019
6099 Clouds 27 1017 44 10000 1.5 10 13:38 20.06.2019
6100 Clouds 26 1017 47 10000 2.1 0 13:18 20.06.2019
6101 Clouds 24 1017 53 10000 2.1 60 12:41 20.06.2019
6102 Clouds 24 1017 53 10000 2.1 60 12:21 20.06.2019
6103 Clear 23 1018 56 10000 2.1 100 11:41 20.06.2019
6104 Clear 23 1018 56 10000 2.1 100 11:23 20.06.2019
6105 Clouds 22 1018 60 9000 1 0 10:45 20.06.2019
6106 Clouds 21 1018 64 10000 1 0 10:24 20.06.2019
6107 Clouds 21 1018 64 10000 1 0 09:55 20.06.2019
6108 Clouds 20 1016 67 0 2.75 49.408 09:37 20.06.2019
6109 Clouds 18 1018 77 10000 2.1 220 09:19 20.06.2019
6110 Clouds 18 1018 77 10000 2.1 220 08:44 20.06.2019
6111 Clouds 18 1018 77 10000 2.1 220 08:23 20.06.2019
6112 Clouds 17 1017 82 10000 2.1 250 07:47 20.06.2019
6113 Clouds 17 1017 82 10000 2.1 250 07:25 20.06.2019
6114 Clouds 17 1017 82 10000 2.1 250 07:25 20.06.2019
6115 Clear 18 1017 77 10000 2.6 230 06:20 20.06.2019
6116 Clear 21 1018 64 10000 2.1 20 03:41 20.06.2019
6117 Clear 22 1018 60 10000 3.1 350 02:28 20.06.2019
6118 Clear 24 1018 53 10000 3.1 320 00:33 20.06.2019
6119 Clear 25 1017 50 10000 3.1 360 23:48 19.06.2019
6120 Clear 25 1017 50 10000 3.1 360 23:29 19.06.2019
6121 Clear 27 1016 42 10000 5.7 350 22:49 19.06.2019
6122 Clear 27 1016 42 10000 5.7 350 22:25 19.06.2019
6123 Clear 28 1016 39 10000 6.2 350 21:58 19.06.2019
6124 Clear 30 1015 33 10000 4.1 320 21:39 19.06.2019
6125 Clear 30 1015 33 10000 4.1 320 21:21 19.06.2019
6126 Clear 33 1015 26 10000 3.1 300 20:42 19.06.2019
6127 Clear 33 1015 26 10000 2.6 340 20:21 19.06.2019
6128 Clear 32 1015 27 10000 2.6 340 19:46 19.06.2019
6129 Clear 32 1015 27 10000 2.6 340 19:28 19.06.2019
6130 Clear 32 1015 27 10000 3.1 340 18:57 19.06.2019
6131 Clear 33 1016 26 10000 1.5 0 18:26 19.06.2019
6132 Clear 32 1016 27 10000 3.1 320 17:48 19.06.2019
6133 Clear 32 1016 27 10000 3.1 320 17:27 19.06.2019
6134 Clear 32 1016 29 10000 3.1 310 16:56 19.06.2019
6135 Clear 32 1016 29 10000 2.1 0 16:37 19.06.2019
6136 Clear 30 1017 30 10000 2.1 0 16:19 19.06.2019
6137 Clear 30 1017 33 10000 3.6 290 15:45 19.06.2019
6138 Clear 30 1017 33 10000 3.6 290 15:24 19.06.2019
6139 Clear 30 1017 33 10000 3.6 290 15:24 19.06.2019
6140 Clear 29 1017 35 10000 2.6 0 14:44 19.06.2019
6141 Clear 29 1017 35 10000 2.6 0 14:26 19.06.2019
6142 Clear 27 1018 42 10000 1.5 300 13:48 19.06.2019
6143 Clear 27 1018 42 10000 1.5 300 13:29 19.06.2019
6144 Clear 26 1018 44 10000 2.1 0 12:59 19.06.2019
6145 Clear 26 1017 44 10000 1.5 0 12:41 19.06.2019
6146 Clear 24 1018 53 10000 1.5 300 12:19 19.06.2019
6147 Clear 23 1018 56 10000 1.5 250 11:43 19.06.2019
6148 Clear 23 1018 56 10000 1.5 250 11:43 19.06.2019
6149 Clear 23 1018 56 10000 1.5 250 11:21 19.06.2019
6150 Clouds 21 1018 68 8000 1.5 270 10:49 19.06.2019
6151 Clouds 21 1018 68 8000 1.5 270 10:28 19.06.2019
6152 Clouds 20 1018 68 8000 1.5 260 09:58 19.06.2019
6153 Clouds 19 1018 77 8000 1.5 250 09:38 19.06.2019
6154 Clouds 18 1018 77 9000 2.1 230 09:19 19.06.2019
6155 Clear 17 1018 82 10000 2.1 240 08:44 19.06.2019
6156 Clear 17 1018 82 10000 2.1 240 08:25 19.06.2019
6157 Clear 17 1017 82 10000 2.6 240 07:44 19.06.2019
6158 Clear 17 1017 82 10000 2.6 240 07:23 19.06.2019
6159 Clear 17 1017 82 10000 2.6 240 06:42 19.06.2019
6160 Clear 18 1017 77 10000 3.6 230 06:20 19.06.2019
6161 Clear 18 1017 77 10000 3.6 230 05:41 19.06.2019
6162 Clear 19 1018 72 10000 3.6 230 03:58 19.06.2019
6163 Clear 19 1018 68 10000 4.1 230 02:52 19.06.2019
6164 Clear 22 1018 56 10000 2.6 310 01:47 19.06.2019
6165 Clear 23 1018 53 10000 3.6 330 00:56 19.06.2019
6166 Clear 24 1018 47 10000 3.1 340 00:38 19.06.2019
6167 Clear 24 1018 47 10000 4.6 350 00:19 19.06.2019
6168 Clear 28 1017 32 10000 3.1 350 23:43 18.06.2019
6169 Clear 28 1017 32 10000 3.1 350 23:25 18.06.2019
6170 Clear 29 1016 23 10000 3.6 320 22:42 18.06.2019
6171 Clear 29 1016 23 10000 3.6 320 22:23 18.06.2019
6172 Clear 30 1016 22 10000 3.6 320 21:55 18.06.2019
6173 Clear 31 1016 20 10000 4.1 300 21:37 18.06.2019
6174 Clear 31 1016 20 10000 4.1 300 21:37 18.06.2019
6175 Clear 32 1016 21 10000 2.6 290 21:18 18.06.2019
6176 Clear 33 1015 21 0 4.1 270 20:41 18.06.2019
6177 Clear 33 1015 21 0 4.1 270 20:22 18.06.2019
6178 Clear 33 1015 22 0 3.6 280 19:41 18.06.2019
6179 Clear 33 1015 22 0 3.6 280 19:22 18.06.2019
6180 Clear 33 1015 22 10000 3.1 250 18:55 18.06.2019
6181 Clear 33 1016 24 10000 3.1 0 18:26 18.06.2019
6182 Clear 33 1016 24 10000 2.6 0 17:56 18.06.2019
6183 Clear 33 1016 24 10000 2.6 0 17:56 18.06.2019
6184 Clear 32 1016 25 10000 3.1 310 17:38 18.06.2019
6185 Clear 32 1016 25 10000 2.6 190 17:19 18.06.2019
6186 Clear 32 1016 25 10000 1.5 0 16:42 18.06.2019
6187 Clear 32 1016 25 10000 1.5 0 16:22 18.06.2019
6188 Clear 32 1016 25 10000 1.5 0 16:22 18.06.2019
6189 Clear 30 1017 28 10000 2.1 260 15:43 18.06.2019
6190 Clear 30 1017 28 10000 2.1 260 15:23 18.06.2019
6191 Clear 30 1017 28 10000 2.1 0 14:57 18.06.2019
6192 Clear 28 1017 32 10000 2.6 350 14:39 18.06.2019
6193 Clear 27 1017 34 10000 3.1 50 14:19 18.06.2019
6194 Clear 26 1018 39 10000 1.5 280 13:50 18.06.2019
6195 Clear 26 1018 39 10000 1.5 280 13:31 18.06.2019
6196 Clear 25 1018 41 10000 1.5 20 12:46 18.06.2019
6197 Clear 25 1018 41 10000 1.5 20 12:28 18.06.2019
6198 Clear 24 1018 44 7000 1.5 0 11:56 18.06.2019
6199 Clear 24 1018 41 10000 1 0 11:38 18.06.2019
6200 Clear 22 1018 49 10000 1 0 11:18 18.06.2019
6201 Clear 22 1018 53 6000 1 0 10:43 18.06.2019
6202 Clear 20 1018 60 7000 1.5 250 10:22 18.06.2019
6203 Clear 20 1018 60 7000 1.5 250 09:52 18.06.2019
6204 Clear 18 1018 68 10000 1 0 09:25 18.06.2019
6205 Clear 16 1018 77 10000 2.1 230 08:56 18.06.2019
6206 Clear 15 1018 77 10000 2.1 230 08:38 18.06.2019
6207 Clear 15 1017 77 10000 2.6 240 08:20 18.06.2019
6208 Clear 15 1017 72 10000 1.5 250 07:26 18.06.2019
6209 Clear 15 1017 72 10000 1.5 250 06:55 18.06.2019
6210 Clear 16 1017 67 10000 1.5 250 05:27 18.06.2019
6211 Clear 18 1017 59 10000 3.1 220 04:21 18.06.2019
6212 Clear 19 1018 59 9000 2.1 240 02:49 18.06.2019
6213 Clear 19 1019 59 7000 2.6 240 01:28 18.06.2019
6214 Clear 20 1019 60 7000 2.6 240 00:58 18.06.2019
6215 Clear 20 1018 60 6000 3.6 230 00:39 18.06.2019
6216 Clear 21 1018 56 7000 4.6 220 00:18 18.06.2019
6217 Clear 23 1018 43 6000 4.1 290 23:38 17.06.2019
6218 Clear 23 1018 43 6000 4.1 290 23:38 17.06.2019
6219 Clear 25 1017 41 6000 5.1 300 23:18 17.06.2019
6220 Clear 25 1017 41 6000 5.1 300 22:41 17.06.2019
6221 Clear 25 1017 41 6000 5.1 300 22:21 17.06.2019
6222 Clear 29 1015 32 6000 6.2 250 21:46 17.06.2019
6223 Clear 29 1015 32 6000 6.2 250 21:24 17.06.2019
6224 Clear 29 1015 32 6000 6.2 250 21:24 17.06.2019
6225 Clear 29 1015 32 6000 6.2 250 21:24 17.06.2019
6226 Dust 31 1015 29 4000 8.7 260 20:44 17.06.2019
6227 Dust 31 1015 29 4000 8.7 260 20:26 17.06.2019
6228 Dust 31 1015 29 4000 8.2 250 19:58 17.06.2019
6229 Clear 34 1014 20 10000 2.6 270 19:39 17.06.2019
6230 Clear 34 1014 20 10000 2.6 270 19:21 17.06.2019
6231 Clear 33 1015 19 10000 3.1 350 18:39 17.06.2019
6232 Clear 34 1015 20 10000 2.1 0 18:18 17.06.2019
6233 Clear 34 1015 20 10000 2.1 0 17:59 17.06.2019
6234 Clear 33 1015 19 10000 3.1 340 17:39 17.06.2019
6235 Clear 33 1015 19 10000 3.1 340 17:21 17.06.2019
6236 Clear 32 1015 21 10000 2.6 10 16:43 17.06.2019
6237 Clear 32 1015 21 10000 2.6 10 16:24 17.06.2019
6238 Clear 31 1015 23 10000 3.6 310 15:55 17.06.2019
6239 Clear 31 1016 23 10000 2.1 20 15:36 17.06.2019
6240 Clear 31 1016 23 10000 2.1 20 15:18 17.06.2019
6241 Clear 29 1017 28 10000 1 0 14:42 17.06.2019
6242 Clear 29 1017 28 10000 1 0 14:22 17.06.2019
6243 Clear 28 1017 28 10000 3.1 320 13:44 17.06.2019
6244 Clear 26 1017 34 10000 2.1 340 13:21 17.06.2019
6245 Clear 26 1017 34 10000 2.1 340 12:48 17.06.2019
6246 Clear 26 1017 39 10000 1 0 12:30 17.06.2019
6247 Clear 24 1017 47 10000 1 0 11:45 17.06.2019
6248 Clear 23 1018 49 10000 1 0 11:26 17.06.2019
6249 Clear 21 1018 56 10000 2.1 270 10:57 17.06.2019
6250 Clear 20 1018 64 10000 2.1 260 10:39 17.06.2019
6251 Clear 20 1018 64 10000 2.1 260 10:21 17.06.2019
6252 Clear 18 1018 68 10000 2.1 250 09:39 17.06.2019
6253 Clear 18 1018 68 10000 2.1 250 09:20 17.06.2019
6254 Clear 16 1018 72 10000 2.6 230 08:41 17.06.2019
6255 Clear 16 1018 72 10000 2.6 230 08:23 17.06.2019
6256 Clear 16 1017 72 10000 2.1 230 07:40 17.06.2019
6257 Clear 16 1017 72 10000 2.1 230 07:21 17.06.2019
6258 Clear 16 1017 72 10000 1 0 06:35 17.06.2019
6259 Clear 16 1017 72 0 1.5 260 05:45 17.06.2019
6260 Clear 18 1018 63 10000 2.6 210 04:39 17.06.2019
6261 Clear 18 1018 63 10000 2.6 230 03:45 17.06.2019
6262 Clear 20 1019 56 10000 1 0 02:59 17.06.2019
6263 Clear 20 1019 56 10000 1.5 30 02:40 17.06.2019
6264 Clear 21 1019 52 10000 1.5 30 01:47 17.06.2019
6265 Clear 21 1020 52 10000 2.6 20 01:25 17.06.2019
6266 Clear 22 1020 46 10000 2.6 30 00:44 17.06.2019
6267 Clear 22 1020 46 10000 2.6 30 00:21 17.06.2019
6268 Clear 23 1019 43 10000 4.1 340 23:43 16.06.2019
6269 Clear 23 1019 43 10000 4.1 340 23:22 16.06.2019
6270 Clear 24 1018 41 10000 5.7 350 22:57 16.06.2019
6271 Clear 25 1017 38 10000 5.7 350 22:39 16.06.2019
6272 Clear 25 1017 38 10000 5.7 350 22:18 16.06.2019
6273 Clouds 30 1017 25 10000 3.1 350 21:42 16.06.2019
6274 Clouds 30 1017 25 10000 3.1 350 21:23 16.06.2019
6275 Clouds 30 1017 25 10000 3.1 330 20:59 16.06.2019
6276 Clouds 31 1017 23 10000 2.1 350 20:37 16.06.2019
6277 Clouds 31 1017 23 10000 2.1 350 20:18 16.06.2019
6278 Clouds 31 1017 23 10000 1 0 19:43 16.06.2019
6279 Clouds 31 1017 23 10000 1 0 19:22 16.06.2019
6280 Clouds 31 1017 23 10000 2.6 320 18:59 16.06.2019
6281 Clouds 32 1017 24 10000 1.5 310 18:41 16.06.2019
6282 Clouds 32 1017 24 10000 1.5 310 18:20 16.06.2019
6283 Clouds 32 1017 24 10000 1.5 310 18:20 16.06.2019
6284 Clouds 30 1018 27 10000 3.1 340 17:48 16.06.2019
6285 Clouds 30 1018 27 10000 3.1 340 17:24 16.06.2019
6286 Clear 31 1018 25 10000 2.6 0 16:57 16.06.2019
6287 Clear 30 1018 28 10000 2.6 20 16:39 16.06.2019
6288 Clear 30 1018 28 10000 2.6 20 16:21 16.06.2019
6289 Clear 28 1018 32 10000 1 0 15:44 16.06.2019
6290 Clear 28 1018 32 10000 1 0 15:24 16.06.2019
6291 Clear 27 1019 34 10000 2.6 330 14:45 16.06.2019
6292 Clear 27 1019 34 10000 3.1 270 14:24 16.06.2019
6293 Clear 26 1019 36 10000 2.6 280 13:56 16.06.2019
6294 Clear 25 1019 41 10000 2.1 290 13:38 16.06.2019
6295 Clear 25 1019 41 10000 2.1 290 13:20 16.06.2019
6296 Clear 23 1019 46 10000 2.6 280 12:42 16.06.2019
6297 Clear 23 1019 46 10000 2.6 280 12:20 16.06.2019
6298 Clear 22 1019 49 10000 3.1 270 11:48 16.06.2019
6299 Clear 21 1020 52 10000 3.1 260 11:21 16.06.2019
6300 Clear 20 1020 60 10000 3.1 240 10:59 16.06.2019
6301 Clear 19 1019 59 10000 3.1 250 10:41 16.06.2019
6302 Clear 19 1019 59 10000 3.1 250 10:18 16.06.2019
6303 Clear 19 1019 54 0 2.25 320.894 09:41 16.06.2019
6304 Clear 15 1018 77 10000 2.1 220 09:23 16.06.2019
6305 Clear 15 1018 77 10000 2.1 220 08:42 16.06.2019
6306 Clear 15 1018 77 10000 2.1 220 08:19 16.06.2019
6307 Clear 15 1018 77 10000 2.1 220 08:19 16.06.2019
6308 Clear 15 1018 72 10000 3.6 230 07:44 16.06.2019
6309 Clear 15 1018 72 10000 3.6 240 07:20 16.06.2019
6310 Clear 15 1018 72 0 2.6 240 06:49 16.06.2019
6311 Clear 16 1017 67 10000 3.1 230 05:52 16.06.2019
6312 Clear 17 1017 63 10000 2.6 230 05:19 16.06.2019
6313 Clear 19 1017 52 10000 1 0 03:59 16.06.2019
6314 Clear 19 1017 52 10000 2.45 289.618 03:33 16.06.2019
6315 Clear 20 1017 49 10000 1 30 02:48 16.06.2019
6316 Clear 21 1018 46 10000 2.1 30 01:47 16.06.2019
6317 Clear 21 1018 46 10000 2.6 30 01:28 16.06.2019
6318 Clear 22 1018 40 10000 3.1 30 00:42 16.06.2019
6319 Clear 22 1018 40 10000 3.1 30 00:23 16.06.2019
6320 Clear 23 1018 38 10000 3.1 10 23:55 15.06.2019
6321 Clear 23 1017 35 10000 5.1 30 23:36 15.06.2019
6322 Clear 23 1017 35 10000 5.1 30 23:18 15.06.2019
6323 Clear 25 1017 29 10000 5.1 20 22:41 15.06.2019
6324 Clear 25 1017 29 10000 5.1 20 22:22 15.06.2019
6325 Clear 28 1016 26 10000 6.7 340 21:42 15.06.2019
6326 Clear 28 1016 26 10000 6.7 340 21:20 15.06.2019
6327 Clear 31 1015 20 10000 3.1 20 20:43 15.06.2019
6328 Clear 31 1015 20 10000 3.1 20 20:22 15.06.2019
6329 Clear 32 1015 21 10000 3.1 20 19:46 15.06.2019
6330 Clear 32 1015 21 10000 3.6 350 19:25 15.06.2019
6331 Clear 32 1016 21 10000 3.1 330 18:42 15.06.2019
6332 Clear 32 1016 21 10000 3.1 330 18:23 15.06.2019
6333 Clear 31 1016 25 10000 3.6 340 17:44 15.06.2019
6334 Clear 31 1016 25 10000 3.6 340 17:26 15.06.2019
6335 Clear 31 1016 25 10000 3.1 40 16:49 15.06.2019
6336 Clear 31 1016 25 10000 3.1 40 16:49 15.06.2019
6337 Clear 30 1017 27 10000 1.5 360 16:21 15.06.2019
6338 Clear 31 1017 25 10000 2.1 320 15:45 15.06.2019
6339 Clear 29 1017 28 10000 1.5 110 15:24 15.06.2019
6340 Clear 29 1018 28 10000 2.1 0 14:56 15.06.2019
6341 Clear 27 1018 32 10000 2.1 350 14:37 15.06.2019
6342 Clear 27 1018 32 10000 2.1 350 14:18 15.06.2019
6343 Clear 26 1018 34 10000 2.6 330 13:42 15.06.2019
6344 Clear 26 1018 34 10000 2.6 330 13:20 15.06.2019
6345 Clear 25 1018 36 10000 2.6 330 12:53 15.06.2019
6346 Clear 24 1019 38 10000 2.1 20 12:28 15.06.2019
6347 Clear 23 1018 40 10000 1 0 11:59 15.06.2019
6348 Clear 22 1018 46 8000 1.5 310 11:41 15.06.2019
6349 Clear 22 1018 46 8000 1.5 310 11:23 15.06.2019
6350 Clear 20 1019 49 8000 1.5 350 10:41 15.06.2019
6351 Clear 20 1019 49 8000 1.5 350 10:23 15.06.2019
6352 Clear 20 1019 49 8000 1.5 280 09:44 15.06.2019
6353 Clear 19 1019 52 10000 1 0 09:25 15.06.2019
6354 Clear 17 1018 59 10000 1 0 08:53 15.06.2019
6355 Clear 16 1018 59 10000 1 0 08:32 15.06.2019
6356 Clear 15 1018 62 10000 1.27 41.271 07:50 15.06.2019
6357 Clear 15 1018 62 10000 1.27 41.271 07:50 15.06.2019
6358 Clear 15 1018 62 10000 0.5 230 07:24 15.06.2019
6359 Clear 15 1018 62 10000 1.27 41.271 06:41 15.06.2019
6360 Clear 15 1018 62 10000 2.51 36.195 06:18 15.06.2019
6361 Clear 16 1019 63 10000 2.1 230 05:27 15.06.2019
6362 Clear 17 1019 55 10000 1 20 04:44 15.06.2019
6363 Clear 18 1018 52 10000 1.5 30 03:47 15.06.2019
6364 Clear 18 1019 52 10000 1.5 60 02:56 15.06.2019
6365 Clear 19 1019 48 10000 2.1 70 02:23 15.06.2019
6366 Clouds 19 1019 48 10000 2.6 30 01:49 15.06.2019
6367 Clouds 20 1019 49 10000 4.6 10 00:58 15.06.2019
6368 Clouds 21 1018 46 10000 5.7 20 00:39 15.06.2019
6369 Clouds 22 1018 43 10000 5.1 10 23:55 14.06.2019
6370 Clouds 23 1018 43 10000 6.7 360 23:26 14.06.2019
6371 Clouds 25 1017 36 10000 3.1 10 22:56 14.06.2019
6372 Clouds 26 1017 31 10000 2.6 50 22:37 14.06.2019
6373 Clouds 26 1017 31 10000 2.6 50 22:19 14.06.2019
6374 Clouds 28 1017 28 10000 1.5 0 21:40 14.06.2019
6375 Clouds 28 1017 28 10000 1.5 0 21:22 14.06.2019
6376 Clouds 29 1016 28 10000 0.5 0 20:43 14.06.2019
6377 Clouds 29 1016 28 10000 0.5 0 20:19 14.06.2019
6378 Clouds 29 1016 28 10000 1.5 360 19:56 14.06.2019
6379 Clouds 29 1017 28 10000 1 0 19:36 14.06.2019
6380 Clouds 28 1017 30 10000 2.1 330 19:18 14.06.2019
6381 Clear 26 1016 31 0 9.6 340.946 18:42 14.06.2019
6382 Clouds 27 1017 34 10000 2.6 20 18:24 14.06.2019
6383 Clouds 27 1017 34 10000 2.6 20 18:24 14.06.2019
6384 Clouds 27 1017 34 10000 2.6 20 17:55 14.06.2019
6385 Clouds 27 1017 34 10000 2.6 20 17:36 14.06.2019
6386 Clouds 27 1017 34 10000 2.6 20 17:18 14.06.2019
6387 Clouds 27 1017 34 10000 2.1 0 16:44 14.06.2019
6388 Clouds 26 1018 39 10000 2.1 50 16:20 14.06.2019
6389 Clouds 26 1018 39 10000 2.1 50 16:20 14.06.2019
6390 Clouds 26 1018 39 10000 2.1 50 16:20 14.06.2019
6391 Clouds 25 1018 41 10000 3.1 50 15:42 14.06.2019
6392 Clouds 25 1018 41 10000 3.1 50 15:42 14.06.2019
6393 Clouds 25 1018 41 10000 3.1 50 15:24 14.06.2019
6394 Clouds 23 1018 46 10000 2.1 180 14:59 14.06.2019
6395 Clouds 23 1018 46 10000 2.1 180 14:59 14.06.2019
6396 Clouds 23 1018 46 10000 2.1 180 14:59 14.06.2019
6397 Clouds 23 1018 46 10000 2.1 180 14:59 14.06.2019
6398 Clouds 24 1019 44 10000 0.5 0 14:40 14.06.2019
6399 Clouds 24 1019 44 10000 0.5 0 14:20 14.06.2019
6400 Clouds 22 1019 49 10000 2.1 320 13:42 14.06.2019
6401 Clouds 22 1019 49 10000 2.1 320 13:24 14.06.2019
6402 Clouds 21 1019 52 10000 2.1 80 12:43 14.06.2019
6403 Clouds 21 1019 52 10000 2.1 80 12:25 14.06.2019
6404 Clouds 21 1019 52 10000 2.1 80 12:25 14.06.2019
6405 Clouds 20 1018 56 10000 1.5 40 11:58 14.06.2019
6406 Clouds 19 1018 59 10000 2.1 70 11:39 14.06.2019
6407 Clouds 19 1018 59 10000 2.1 70 11:20 14.06.2019
6408 Clouds 18 1018 63 10000 1.5 60 10:43 14.06.2019
6409 Clouds 18 1018 63 10000 1.5 60 10:20 14.06.2019
6410 Clouds 18 1018 63 10000 2.1 30 09:46 14.06.2019
6411 Clouds 17 1018 63 10000 1.5 20 09:22 14.06.2019
6412 Clouds 17 1018 63 10000 2.1 20 08:47 14.06.2019
6413 Clouds 16 1018 67 10000 2.6 10 08:19 14.06.2019
6414 Clouds 16 1017 67 10000 2.6 360 07:51 14.06.2019
6415 Clouds 16 1017 67 10000 2.6 20 07:21 14.06.2019
6416 Clouds 16 1017 67 0 2.1 20 06:35 14.06.2019
6417 -273 0 0 0 0 0 05:58 14.06.2019
6418 -273 0 0 0 0 0 05:58 14.06.2019
6419 Clouds 17 1016 63 10000 2.6 30 05:26 14.06.2019
6420 Clouds 17 1016 63 0 2.1 330 04:46 14.06.2019
6421 Clouds 18 1016 59 10000 1.5 330 03:52 14.06.2019
6422 Clouds 18 1017 59 10000 1.5 40 03:26 14.06.2019
6423 Clouds 18 1017 59 10000 2.1 20 02:55 14.06.2019
6424 Clouds 18 1017 59 10000 3.1 10 02:27 14.06.2019
6425 Clouds 18 1017 59 10000 3.1 10 02:27 14.06.2019
6426 Clouds 19 1017 59 10000 2.6 20 00:58 14.06.2019
6427 Clouds 20 1017 56 10000 2.6 350 00:23 14.06.2019
6428 Clouds 20 1016 56 10000 4.6 350 23:59 13.06.2019
6429 Clouds 20 1016 56 10000 4.1 340 23:39 13.06.2019
6430 Clouds 20 1016 56 10000 4.1 340 23:21 13.06.2019
6431 Clouds 22 1015 49 10000 2.6 340 22:40 13.06.2019
6432 Clouds 22 1015 49 10000 2.6 340 22:21 13.06.2019
6433 Clouds 23 1014 49 10000 3.1 230 21:40 13.06.2019
6434 Clouds 23 1014 49 10000 3.1 230 21:20 13.06.2019
6435 Clouds 23 1014 49 10000 3.1 230 20:55 13.06.2019
6436 Clouds 23 1014 49 10000 3.1 250 20:36 13.06.2019
6437 Clouds 23 1014 49 10000 3.1 250 20:18 13.06.2019
6438 Clouds 23 1014 49 10000 3.1 250 20:18 13.06.2019
6439 Clouds 22 1013 56 10000 3.6 270 19:41 13.06.2019
6440 Clouds 22 1013 56 10000 3.6 270 19:22 13.06.2019
6441 Clouds 22 1013 56 10000 4.6 260 18:57 13.06.2019
6442 Clouds 22 1013 56 10000 6.2 250 18:38 13.06.2019
6443 Clouds 22 1013 56 10000 6.2 250 18:20 13.06.2019
6444 Clouds 24 1013 47 10000 3.1 300 17:41 13.06.2019
6445 Clouds 24 1013 47 10000 3.1 300 17:20 13.06.2019
6446 Clouds 23 1013 49 10000 3.1 240 16:48 13.06.2019
6447 Clouds 23 1013 49 10000 3.6 250 16:22 13.06.2019
6448 Clouds 23 1013 49 10000 4.1 260 15:57 13.06.2019
6449 Clouds 22 1013 53 10000 4.6 230 15:38 13.06.2019
6450 Clouds 22 1013 53 10000 4.6 230 15:19 13.06.2019
6451 Clouds 23 1013 49 8000 2.1 0 14:46 13.06.2019
6452 Clouds 23 1013 49 8000 2.1 0 14:27 13.06.2019
6453 Clouds 22 1012 56 8000 3.6 260 13:46 13.06.2019
6454 Clouds 22 1012 56 8000 3.1 270 13:21 13.06.2019
6455 Clouds 22 1012 53 8000 2.6 260 12:58 13.06.2019
6456 Clouds 23 1011 46 0 3.48 321.898 12:38 13.06.2019
6457 Clouds 18 1011 73 0 3.36 327.747 12:19 13.06.2019
6458 Clouds 21 1011 60 8000 1 0 11:43 13.06.2019
6459 Clouds 21 1011 60 8000 1 0 11:24 13.06.2019
6460 Clouds 20 1011 64 8000 1 0 10:47 13.06.2019
6461 Clouds 17 1011 77 8000 2.6 240 10:28 13.06.2019
6462 Clouds 17 1011 77 8000 2.6 240 09:50 13.06.2019
6463 Clouds 17 1011 77 8000 2.6 240 09:50 13.06.2019
6464 Clouds 17 1011 77 8000 3.6 230 09:25 13.06.2019
6465 Clouds 16 1010 82 10000 3.6 220 08:51 13.06.2019
6466 Clouds 16 1010 82 10000 3.6 220 08:30 13.06.2019
6467 Clear 16 1011 82 10000 4.1 220 07:59 13.06.2019
6468 Clear 15 1010 87 10000 2.6 230 07:32 13.06.2019
6469 Clear 15 1010 87 10000 3.1 230 06:54 13.06.2019
6470 Clear 16 1010 77 10000 3.6 230 06:36 13.06.2019
6471 Clear 16 1010 77 10000 3.6 230 06:18 13.06.2019
6472 Clear 17 1010 72 10000 4.1 230 05:38 13.06.2019
6473 Clear 17 1010 72 10000 4.1 230 05:18 13.06.2019
6474 Clear 18 1010 63 10000 3.6 230 03:45 13.06.2019
6475 Clear 18 1010 63 10000 3.6 230 03:45 13.06.2019
6476 Clear 21 1010 49 10000 2.1 330 01:55 13.06.2019
6477 Clear 23 1010 43 10000 4.1 20 00:31 13.06.2019
6478 Clear 24 1009 41 10000 4.6 360 23:37 12.06.2019
6479 Clear 24 1009 41 10000 4.6 360 23:19 12.06.2019
6480 Clear 27 1008 36 10000 4.1 350 22:41 12.06.2019
6481 Clear 27 1008 36 10000 4.1 350 22:21 12.06.2019
6482 Clear 30 1007 28 10000 4.6 350 21:43 12.06.2019
6483 Clear 30 1007 28 10000 4.6 350 21:25 12.06.2019
6484 Clear 32 1007 22 10000 0.5 0 20:49 12.06.2019
6485 Clear 32 1007 22 10000 1.5 360 20:30 12.06.2019
6486 Clear 33 1007 21 10000 0.5 0 19:57 12.06.2019
6487 Clear 33 1007 21 10000 0.5 0 19:57 12.06.2019
6488 Clear 32 1007 22 10000 2.6 10 19:38 12.06.2019
6489 Clear 32 1007 22 10000 2.6 10 19:20 12.06.2019
6490 Clear 32 1008 21 10000 1.5 340 18:47 12.06.2019
6491 Clear 32 1008 22 10000 3.6 290 18:27 12.06.2019
6492 Clear 31 1008 22 10000 2.1 320 17:47 12.06.2019
6493 Clear 31 1008 22 10000 3.1 0 17:23 12.06.2019
6494 Clear 30 1009 25 10000 1.5 0 16:44 12.06.2019
6495 Clear 30 1009 25 10000 1.5 0 16:25 12.06.2019
6496 Clear 30 1009 27 10000 2.1 250 15:59 12.06.2019
6497 Clear 29 1009 26 10000 2.6 0 15:36 12.06.2019
6498 Clear 28 1010 30 10000 3.1 300 14:59 12.06.2019
6499 Clear 27 1010 32 10000 3.1 310 14:35 12.06.2019
6500 Clear 26 1010 34 10000 1.5 0 13:59 12.06.2019
6501 Clear 25 1010 36 10000 2.6 260 13:41 12.06.2019
6502 Clear 25 1010 36 10000 2.6 260 13:19 12.06.2019
6503 Clear 24 1010 41 10000 2.6 330 12:44 12.06.2019
6504 Clear 23 1010 43 10000 2.1 0 12:22 12.06.2019
6505 Clear 23 1010 46 9000 1 0 11:59 12.06.2019
6506 Clear 21 1010 52 9000 1.5 30 11:39 12.06.2019
6507 Clear 21 1010 52 9000 1.5 30 11:21 12.06.2019
6508 Clear 21 1011 52 9000 1 0 10:44 12.06.2019
6509 Clear 19 1011 59 9000 2.1 60 10:21 12.06.2019
6510 Clear 18 1011 63 10000 2.6 70 09:43 12.06.2019
6511 Clear 18 1011 63 10000 2.6 70 09:23 12.06.2019
6512 Clear 17 1011 67 10000 2.1 70 08:46 12.06.2019
6513 Clear 16 1011 72 10000 2.1 70 08:20 12.06.2019
6514 Clear 16 1011 72 10000 2.6 30 07:37 12.06.2019
6515 Clear 16 1011 67 10000 2.1 50 06:41 12.06.2019
6516 Clear 17 1011 63 10000 2.1 30 05:27 12.06.2019
6517 Clear 18 1012 63 10000 2.6 20 03:41 12.06.2019
6518 Clear 21 1012 49 10000 3.6 30 00:54 12.06.2019
6519 Clear 22 1012 43 10000 5.1 20 00:35 12.06.2019
6520 Clear 22 1012 43 10000 5.1 30 23:44 11.06.2019
6521 Clear 23 1012 38 10000 5.1 20 23:26 11.06.2019
6522 Clouds 25 1011 33 10000 6.7 360 22:43 11.06.2019
6523 Clouds 25 1011 33 10000 6.7 360 22:18 11.06.2019
6524 Clouds 27 1011 30 10000 5.7 10 21:57 11.06.2019
6525 Clouds 31 1011 20 10000 3.1 40 21:37 11.06.2019
6526 Clouds 31 1011 20 10000 3.1 40 21:19 11.06.2019
6527 Clouds 31 1011 20 10000 3.1 40 20:47 11.06.2019
6528 Clouds 30 1011 22 10000 3.1 60 20:24 11.06.2019
6529 Clouds 31 1011 22 10000 3.6 360 19:54 11.06.2019
6530 Clouds 30 1011 25 10000 3.6 20 19:31 11.06.2019
6531 Clouds 31 1011 23 10000 1.5 0 18:56 11.06.2019
6532 Clouds 31 1011 23 10000 1.5 0 18:56 11.06.2019
6533 Clouds 30 1011 25 10000 2.6 320 18:21 11.06.2019
6534 Clear 30 1012 27 10000 2.6 20 17:42 11.06.2019
6535 Clear 30 1012 27 10000 2.6 20 17:22 11.06.2019
6536 Clear 29 1012 28 10000 2.6 0 16:56 11.06.2019
6537 Clear 29 1012 28 10000 3.1 0 16:37 11.06.2019
6538 Clear 29 1012 28 10000 3.1 0 16:19 11.06.2019
6539 -273 0 0 0 0 0 15:42 11.06.2019
6540 Clear 28 1013 30 10000 2.1 0 15:21 11.06.2019
6541 Clear 26 1013 34 10000 3.1 10 14:44 11.06.2019
6542 Clear 26 1014 36 10000 2.6 360 14:21 11.06.2019
6543 Clear 24 1014 44 10000 3.6 350 13:50 11.06.2019
6544 Clear 24 1014 44 10000 2.1 0 13:24 11.06.2019
6545 Clear 22 1015 49 10000 2.1 10 12:44 11.06.2019
6546 Clear 22 1015 49 10000 2.1 10 12:23 11.06.2019
6547 Clear 21 1015 52 10000 2.1 0 11:58 11.06.2019
6548 Clear 20 1015 56 10000 2.1 340 11:38 11.06.2019
6549 Clear 20 1015 56 10000 2.1 340 11:19 11.06.2019
6550 Clear 19 1015 59 10000 1 0 10:43 11.06.2019
6551 Clear 19 1015 59 10000 1 0 10:24 11.06.2019
6552 Clear 18 1015 63 10000 1.5 30 09:46 11.06.2019
6553 Clouds 17 1015 67 8000 1.5 40 09:23 11.06.2019
6554 Clear 16 1015 72 10000 2.6 30 08:44 11.06.2019
6555 Clear 15 1015 77 10000 2.1 20 08:24 11.06.2019
6556 Clear 15 1015 72 10000 2.1 70 07:37 11.06.2019
6557 Clouds 15 1015 72 0 1.5 70 06:55 11.06.2019
6558 Clear 15 1015 72 10000 2.1 40 06:25 11.06.2019
6559 Clouds 16 1015 67 0 3.6 30 04:52 11.06.2019
6560 Clear 18 1016 59 10000 3.6 20 02:49 11.06.2019
6561 Clear 19 1017 55 10000 3.6 40 01:25 11.06.2019
6562 Clear 20 1017 52 10000 4.6 40 00:46 11.06.2019
6563 Clear 20 1016 49 10000 6.2 30 23:47 10.06.2019
6564 Clear 21 1016 46 10000 6.2 20 23:22 10.06.2019
6565 Clear 22 1016 43 10000 6.7 360 22:55 10.06.2019
6566 Clear 24 1015 38 10000 6.7 360 22:36 10.06.2019
6567 Clear 24 1015 38 10000 6.7 360 22:18 10.06.2019
6568 Clear 28 1014 24 10000 4.1 40 21:39 10.06.2019
6569 Clear 28 1014 24 10000 4.1 40 21:39 10.06.2019
6570 Clouds 29 1014 23 10000 4.1 10 21:21 10.06.2019
6571 Clouds 29 1014 23 10000 4.1 10 20:45 10.06.2019
6572 Clouds 29 1014 23 10000 3.6 30 20:23 10.06.2019
6573 Clouds 30 1015 20 10000 3.6 20 19:53 10.06.2019
6574 Clouds 29 1015 21 10000 3.1 60 19:27 10.06.2019
6575 Clouds 30 1015 19 10000 2.6 30 18:59 10.06.2019
6576 Clear 29 1016 20 10000 4.6 50 18:40 10.06.2019
6577 Clear 29 1016 20 10000 4.6 50 18:20 10.06.2019
6578 Clear 29 1016 20 10000 4.1 30 17:54 10.06.2019
6579 Clear 29 1016 21 10000 3.6 340 17:36 10.06.2019
6580 Clear 29 1016 21 10000 3.6 340 17:18 10.06.2019
6581 Clear 28 1017 23 10000 3.6 360 16:42 10.06.2019
6582 Clear 28 1017 23 10000 3.6 360 16:22 10.06.2019
6583 Clear 27 1017 24 10000 3.6 330 15:42 10.06.2019
6584 Clear 27 1017 24 10000 3.6 330 15:23 10.06.2019
6585 Clear 27 1018 26 10000 1 0 14:49 10.06.2019
6586 Clear 25 1018 29 10000 2.6 360 14:31 10.06.2019
6587 Clear 24 1019 33 10000 2.6 0 13:59 10.06.2019
6588 Clear 23 1019 35 10000 2.6 40 13:40 10.06.2019
6589 Clear 23 1019 35 10000 2.6 40 13:40 10.06.2019
6590 Clear 23 1019 35 10000 2.6 40 13:20 10.06.2019
6591 Clear 22 1019 43 10000 1.5 350 12:42 10.06.2019
6592 Clear 22 1019 43 10000 1.5 350 12:23 10.06.2019
6593 Clear 19 1020 52 10000 2.1 0 11:43 10.06.2019
6594 Clear 19 1020 52 10000 2.1 0 11:23 10.06.2019
6595 Clear 18 1020 59 0 2.1 50 10:42 10.06.2019
6596 Clear 18 1020 59 0 2.1 50 10:20 10.06.2019
6597 Clear 17 1020 63 10000 2.1 60 09:57 10.06.2019
6598 Clear 16 1020 67 10000 3.1 60 09:38 10.06.2019
6599 Clear 16 1020 67 10000 3.1 60 09:19 10.06.2019
6600 Clear 14 1020 76 10000 3.1 40 08:43 10.06.2019
6601 Clear 14 1020 76 10000 3.1 40 08:18 10.06.2019
6602 Clear 15 1020 67 10000 2.6 40 06:34 10.06.2019
6603 Clear 16 1020 59 10000 2.1 30 04:27 10.06.2019
6604 Clear 19 1021 42 10000 3.1 50 01:57 10.06.2019
6605 Clear 19 1021 45 10000 3.6 40 01:26 10.06.2019
6606 Clouds 19 1021 45 10000 4.1 50 00:55 10.06.2019
6607 Clouds 20 1021 42 10000 5.1 30 00:19 10.06.2019
6608 Clouds 21 1021 43 10000 5.1 20 23:42 09.06.2019
6609 Clouds 21 1021 43 10000 5.1 20 23:19 09.06.2019
6610 Clouds 23 1020 35 10000 6.7 350 22:43 09.06.2019
6611 Clouds 23 1020 35 10000 6.7 350 22:25 09.06.2019
6612 Clouds 26 1019 29 10000 6.2 350 21:43 09.06.2019
6613 Clouds 26 1019 29 10000 6.2 350 21:23 09.06.2019
6614 Clouds 28 1019 28 10000 4.6 350 20:43 09.06.2019
6615 Clouds 28 1019 28 10000 4.6 350 20:23 09.06.2019
6616 Clouds 29 1018 26 10000 3.6 0 19:47 09.06.2019
6617 Clouds 29 1019 26 10000 3.1 10 19:19 09.06.2019
6618 Clouds 29 1019 26 10000 3.1 360 18:58 09.06.2019
6619 Clouds 29 1019 26 10000 3.1 360 18:58 09.06.2019
6620 Clouds 29 1019 26 10000 3.6 330 18:40 09.06.2019
6621 Clouds 29 1019 26 10000 3.6 330 18:22 09.06.2019
6622 Clouds 29 1019 26 10000 4.1 330 17:46 09.06.2019
6623 -273 0 0 0 0 0 17:27 09.06.2019
6624 Clouds 29 1019 28 10000 2.6 20 16:54 09.06.2019
6625 Clouds 28 1020 30 10000 4.6 330 16:36 09.06.2019
6626 Clouds 28 1020 30 10000 4.6 330 16:18 09.06.2019
6627 Clear 28 1020 32 10000 1.5 0 15:44 09.06.2019
6628 Clear 28 1020 32 10000 1.5 0 15:24 09.06.2019
6629 Clear 26 1021 39 10000 2.1 340 14:45 09.06.2019
6630 Clear 26 1021 39 10000 2.1 340 14:22 09.06.2019
6631 Clouds 25 1021 41 10000 2.6 10 13:52 09.06.2019
6632 Clouds 24 1021 44 10000 1.5 360 13:26 09.06.2019
6633 Clouds 23 1021 46 10000 1.5 280 12:42 09.06.2019
6634 Clouds 23 1021 46 10000 1.5 280 12:23 09.06.2019
6635 Clouds 21 1021 56 10000 1 0 11:40 09.06.2019
6636 Clouds 21 1021 56 10000 1 0 11:21 09.06.2019
6637 Clouds 20 1021 60 10000 1 0 10:45 09.06.2019
6638 Clouds 19 1021 63 10000 1.5 200 10:23 09.06.2019
6639 Clouds 19 1021 63 10000 1.5 200 10:23 09.06.2019
6640 Clear 17 1021 72 10000 2.6 220 09:41 09.06.2019
6641 Clear 17 1021 72 10000 2.6 220 09:22 09.06.2019
6642 Clear 16 1020 77 10000 2.6 210 08:53 09.06.2019
6643 Clear 16 1020 77 10000 1.5 190 08:34 09.06.2019
6644 Clear 15 1020 77 10000 2.1 240 07:27 09.06.2019
6645 Clear 16 1020 67 10000 2.1 230 06:30 09.06.2019
6646 Clear 17 1020 63 10000 2.1 230 04:59 09.06.2019
6647 Clear 21 1020 46 10000 2.1 30 01:39 09.06.2019
6648 Clear 21 1020 46 10000 2.1 30 01:21 09.06.2019
6649 Clear 22 1020 46 10000 2.6 330 00:59 09.06.2019
6650 Clear 23 1020 43 10000 3.1 310 23:45 08.06.2019
6651 Clear 24 1019 41 10000 2.6 350 23:25 08.06.2019
6652 Clear 24 1019 44 10000 4.1 350 22:59 08.06.2019
6653 Clear 25 1018 41 10000 5.7 360 22:41 08.06.2019
6654 Clear 25 1018 41 10000 5.7 360 22:19 08.06.2019
6655 Clear 26 1018 39 10000 6.2 340 21:51 08.06.2019
6656 Clear 29 1017 30 10000 2.6 290 21:29 08.06.2019
6657 Clear 30 1017 28 10000 3.1 280 20:58 08.06.2019
6658 Clear 31 1017 27 10000 1.5 310 20:40 08.06.2019
6659 Clear 31 1017 27 10000 1.5 310 20:19 08.06.2019
6660 Clear 31 1017 27 10000 2.1 300 19:40 08.06.2019
6661 Clear 31 1017 27 10000 2.1 300 19:20 08.06.2019
6662 Clear 30 1017 28 10000 1.5 290 18:57 08.06.2019
6663 Clear 31 1017 27 10000 1 0 18:36 08.06.2019
6664 Clear 30 1017 28 10000 2.1 240 17:59 08.06.2019
6665 Clear 29 1017 30 10000 3.1 270 17:39 08.06.2019
6666 Clear 29 1017 30 10000 3.1 270 17:18 08.06.2019
6667 Clear 30 1017 28 10000 1 0 16:44 08.06.2019
6668 Clear 30 1017 28 10000 1 0 16:18 08.06.2019
6669 Clear 28 1018 32 10000 2.6 310 15:38 08.06.2019
6670 Clear 27 1018 34 10000 3.6 300 14:54 08.06.2019
6671 Clear 26 1018 39 10000 3.6 300 14:32 08.06.2019
6672 Clear 25 1018 41 10000 3.1 310 13:59 08.06.2019
6673 Clear 24 1018 44 10000 1 0 13:24 08.06.2019
6674 Clear 24 1018 44 10000 2.6 270 12:45 08.06.2019
6675 Clear 23 1018 46 10000 1.5 300 12:20 08.06.2019
6676 Clear 20 1018 56 10000 2.6 260 11:44 08.06.2019
6677 Clear 20 1018 56 10000 2.6 260 11:22 08.06.2019
6678 Clear 19 1018 55 10000 2.6 260 10:44 08.06.2019
6679 Clear 19 1018 55 10000 3.1 250 10:22 08.06.2019
6680 Clear 18 1018 59 10000 3.1 230 09:48 08.06.2019
6681 Clear 17 1018 63 10000 3.1 230 09:22 08.06.2019
6682 Clear 15 1018 72 10000 2.6 230 08:29 08.06.2019
6683 Clear 15 1017 72 10000 1.5 230 07:49 08.06.2019
6684 Clear 16 1017 67 10000 2.6 230 06:50 08.06.2019
6685 Clear 16 1017 67 10000 1.5 240 05:47 08.06.2019
6686 Clear 18 1017 63 10000 2.1 360 03:31 08.06.2019
6687 Clear 20 1018 60 10000 3.1 30 01:27 08.06.2019
6688 Clear 21 1018 56 10000 3.6 20 00:25 08.06.2019
6689 Clouds 23 1016 53 10000 5.7 30 23:43 07.06.2019
6690 Clouds 23 1016 53 10000 5.7 30 23:20 07.06.2019
6691 Clouds 24 1016 47 6000 7.2 360 22:40 07.06.2019
6692 Clouds 24 1016 47 6000 7.2 360 22:20 07.06.2019
6693 Clouds 26 1015 39 6000 7.7 340 21:52 07.06.2019
6694 Clouds 30 1014 20 10000 3.1 10 21:29 07.06.2019
6695 Clouds 30 1014 20 10000 3.1 10 20:57 07.06.2019
6696 Clouds 31 1014 19